<?xml version="1.0" encoding="UTF-8" standalone="no" ?>
<gpx xmlns="http://www.topografix.com/GPX/1/1" xmlns:xsi="http://www.w3.org/2001/XMLSchema-instance" xsi:schemaLocation="http://www.topografix.com/GPX/1/1 http://www.topografix.com/GPX/1/1/gpx.xsd" version="1.1" creator="VisuGPX - https://www.visugpx.com">
  <metadata>
    <name>Aspre</name>
    <desc><![CDATA[[url]https://picasaweb.google.com/105108571230570121986/Ariege03#6059391668107679650[/url]
[img]https://lh3.googleusercontent.com/-TemHC3dcRV0/VBdInjyFF6I/AAAAAAAATOE/S5hFxOnnJwg/s800/2014.09.13%2520Aspre%2520%252818%2529.JPG[/img]

]]></desc>
  </metadata>
  <trk>
    <name><![CDATA[Aspre]]></name>
    <trkseg>
      <trkpt lat="42.70499" lon="1.53148">
        <ele>1892</ele>
        <time>2014-09-13T05:14:04Z</time>
      </trkpt>
      <trkpt lat="42.70501" lon="1.53154">
        <ele>1892</ele>
        <time>2014-09-13T05:14:24Z</time>
      </trkpt>
      <trkpt lat="42.705" lon="1.53152">
        <ele>1893</ele>
        <time>2014-09-13T05:14:30Z</time>
      </trkpt>
      <trkpt lat="42.70499" lon="1.53152">
        <ele>1895</ele>
        <time>2014-09-13T05:14:33Z</time>
      </trkpt>
      <trkpt lat="42.705" lon="1.53154">
        <ele>1898</ele>
        <time>2014-09-13T05:14:38Z</time>
      </trkpt>
      <trkpt lat="42.705" lon="1.53153">
        <ele>1902</ele>
        <time>2014-09-13T05:14:41Z</time>
      </trkpt>
      <trkpt lat="42.70501" lon="1.53154">
        <ele>1905</ele>
        <time>2014-09-13T05:14:48Z</time>
      </trkpt>
      <trkpt lat="42.70501" lon="1.53154">
        <ele>1905</ele>
        <time>2014-09-13T05:14:49Z</time>
      </trkpt>
      <trkpt lat="42.70501" lon="1.53155">
        <ele>1907</ele>
        <time>2014-09-13T05:14:51Z</time>
      </trkpt>
      <trkpt lat="42.70501" lon="1.53155">
        <ele>1910</ele>
        <time>2014-09-13T05:14:56Z</time>
      </trkpt>
      <trkpt lat="42.70501" lon="1.53155">
        <ele>1911</ele>
        <time>2014-09-13T05:14:58Z</time>
      </trkpt>
      <trkpt lat="42.705" lon="1.53154">
        <ele>1915</ele>
        <time>2014-09-13T05:15:03Z</time>
      </trkpt>
      <trkpt lat="42.705" lon="1.53154">
        <ele>1915</ele>
        <time>2014-09-13T05:15:04Z</time>
      </trkpt>
      <trkpt lat="42.705" lon="1.53155">
        <ele>1917</ele>
        <time>2014-09-13T05:15:07Z</time>
      </trkpt>
      <trkpt lat="42.705" lon="1.53155">
        <ele>1917</ele>
        <time>2014-09-13T05:15:09Z</time>
      </trkpt>
      <trkpt lat="42.705" lon="1.53155">
        <ele>1919</ele>
        <time>2014-09-13T05:15:13Z</time>
      </trkpt>
      <trkpt lat="42.705" lon="1.53154">
        <ele>1923</ele>
        <time>2014-09-13T05:15:22Z</time>
      </trkpt>
      <trkpt lat="42.705" lon="1.53153">
        <ele>1926</ele>
        <time>2014-09-13T05:15:31Z</time>
      </trkpt>
      <trkpt lat="42.70499" lon="1.53154">
        <ele>1929</ele>
        <time>2014-09-13T05:15:45Z</time>
      </trkpt>
      <trkpt lat="42.70498" lon="1.53154">
        <ele>1933</ele>
        <time>2014-09-13T05:16:03Z</time>
      </trkpt>
      <trkpt lat="42.70496" lon="1.53152">
        <ele>1936</ele>
        <time>2014-09-13T05:16:23Z</time>
      </trkpt>
      <trkpt lat="42.70495" lon="1.53154">
        <ele>1939</ele>
        <time>2014-09-13T05:16:59Z</time>
      </trkpt>
      <trkpt lat="42.70495" lon="1.53153">
        <ele>1939</ele>
        <time>2014-09-13T05:17:00Z</time>
      </trkpt>
      <trkpt lat="42.70494" lon="1.53151">
        <ele>1938</ele>
        <time>2014-09-13T05:17:13Z</time>
      </trkpt>
      <trkpt lat="42.70494" lon="1.53149">
        <ele>1939</ele>
        <time>2014-09-13T05:17:30Z</time>
      </trkpt>
      <trkpt lat="42.70494" lon="1.53149">
        <ele>1939</ele>
        <time>2014-09-13T05:17:34Z</time>
      </trkpt>
      <trkpt lat="42.70496" lon="1.53146">
        <ele>1939</ele>
        <time>2014-09-13T05:17:37Z</time>
      </trkpt>
      <trkpt lat="42.705" lon="1.53154">
        <ele>1941</ele>
        <time>2014-09-13T05:17:49Z</time>
      </trkpt>
      <trkpt lat="42.70499" lon="1.53156">
        <ele>1941</ele>
        <time>2014-09-13T05:17:54Z</time>
      </trkpt>
      <trkpt lat="42.70498" lon="1.53165">
        <ele>1941</ele>
        <time>2014-09-13T05:18:04Z</time>
      </trkpt>
      <trkpt lat="42.70496" lon="1.53168">
        <ele>1941</ele>
        <time>2014-09-13T05:18:07Z</time>
      </trkpt>
      <trkpt lat="42.70494" lon="1.53188">
        <ele>1940</ele>
        <time>2014-09-13T05:18:22Z</time>
      </trkpt>
      <trkpt lat="42.70498" lon="1.53195">
        <ele>1941</ele>
        <time>2014-09-13T05:18:34Z</time>
      </trkpt>
      <trkpt lat="42.70494" lon="1.53197">
        <ele>1943</ele>
        <time>2014-09-13T05:18:46Z</time>
      </trkpt>
      <trkpt lat="42.7049" lon="1.53199">
        <ele>1945</ele>
        <time>2014-09-13T05:18:53Z</time>
      </trkpt>
      <trkpt lat="42.70485" lon="1.53202">
        <ele>1948</ele>
        <time>2014-09-13T05:19:05Z</time>
      </trkpt>
      <trkpt lat="42.70482" lon="1.53206">
        <ele>1950</ele>
        <time>2014-09-13T05:19:20Z</time>
      </trkpt>
      <trkpt lat="42.7048" lon="1.53208">
        <ele>1951</ele>
        <time>2014-09-13T05:19:32Z</time>
      </trkpt>
      <trkpt lat="42.70476" lon="1.53212">
        <ele>1951</ele>
        <time>2014-09-13T05:19:46Z</time>
      </trkpt>
      <trkpt lat="42.70474" lon="1.53216">
        <ele>1951</ele>
        <time>2014-09-13T05:20:07Z</time>
      </trkpt>
      <trkpt lat="42.70477" lon="1.53212">
        <ele>1951</ele>
        <time>2014-09-13T05:20:38Z</time>
      </trkpt>
      <trkpt lat="42.70473" lon="1.53213">
        <ele>1951</ele>
        <time>2014-09-13T05:20:50Z</time>
      </trkpt>
      <trkpt lat="42.70465" lon="1.53204">
        <ele>1950</ele>
        <time>2014-09-13T05:21:04Z</time>
      </trkpt>
      <trkpt lat="42.70456" lon="1.53198">
        <ele>1950</ele>
        <time>2014-09-13T05:21:17Z</time>
      </trkpt>
      <trkpt lat="42.70444" lon="1.5319">
        <ele>1949</ele>
        <time>2014-09-13T05:21:31Z</time>
      </trkpt>
      <trkpt lat="42.70435" lon="1.53185">
        <ele>1949</ele>
        <time>2014-09-13T05:21:46Z</time>
      </trkpt>
      <trkpt lat="42.70423" lon="1.53192">
        <ele>1947</ele>
        <time>2014-09-13T05:22:01Z</time>
      </trkpt>
      <trkpt lat="42.70412" lon="1.53193">
        <ele>1945</ele>
        <time>2014-09-13T05:22:17Z</time>
      </trkpt>
      <trkpt lat="42.70405" lon="1.53193">
        <ele>1943</ele>
        <time>2014-09-13T05:22:32Z</time>
      </trkpt>
      <trkpt lat="42.70398" lon="1.53195">
        <ele>1942</ele>
        <time>2014-09-13T05:22:45Z</time>
      </trkpt>
      <trkpt lat="42.70395" lon="1.53197">
        <ele>1942</ele>
        <time>2014-09-13T05:23:03Z</time>
      </trkpt>
      <trkpt lat="42.70388" lon="1.53195">
        <ele>1942</ele>
        <time>2014-09-13T05:23:21Z</time>
      </trkpt>
      <trkpt lat="42.70378" lon="1.53197">
        <ele>1940</ele>
        <time>2014-09-13T05:23:34Z</time>
      </trkpt>
      <trkpt lat="42.70373" lon="1.53199">
        <ele>1939</ele>
        <time>2014-09-13T05:23:45Z</time>
      </trkpt>
      <trkpt lat="42.70371" lon="1.532">
        <ele>1938</ele>
        <time>2014-09-13T05:23:49Z</time>
      </trkpt>
      <trkpt lat="42.70362" lon="1.53203">
        <ele>1936</ele>
        <time>2014-09-13T05:24:01Z</time>
      </trkpt>
      <trkpt lat="42.70356" lon="1.53207">
        <ele>1935</ele>
        <time>2014-09-13T05:24:14Z</time>
      </trkpt>
      <trkpt lat="42.70344" lon="1.5321">
        <ele>1935</ele>
        <time>2014-09-13T05:24:26Z</time>
      </trkpt>
      <trkpt lat="42.70337" lon="1.53213">
        <ele>1935</ele>
        <time>2014-09-13T05:24:38Z</time>
      </trkpt>
      <trkpt lat="42.70331" lon="1.53216">
        <ele>1935</ele>
        <time>2014-09-13T05:24:43Z</time>
      </trkpt>
      <trkpt lat="42.7032" lon="1.53223">
        <ele>1934</ele>
        <time>2014-09-13T05:24:57Z</time>
      </trkpt>
      <trkpt lat="42.70311" lon="1.53229">
        <ele>1935</ele>
        <time>2014-09-13T05:25:09Z</time>
      </trkpt>
      <trkpt lat="42.70302" lon="1.53236">
        <ele>1935</ele>
        <time>2014-09-13T05:25:31Z</time>
      </trkpt>
      <trkpt lat="42.703" lon="1.53235">
        <ele>1935</ele>
        <time>2014-09-13T05:25:41Z</time>
      </trkpt>
      <trkpt lat="42.70294" lon="1.53234">
        <ele>1936</ele>
        <time>2014-09-13T05:25:55Z</time>
      </trkpt>
      <trkpt lat="42.70284" lon="1.53237">
        <ele>1936</ele>
        <time>2014-09-13T05:26:09Z</time>
      </trkpt>
      <trkpt lat="42.70283" lon="1.53238">
        <ele>1935</ele>
        <time>2014-09-13T05:26:10Z</time>
      </trkpt>
      <trkpt lat="42.70274" lon="1.53243">
        <ele>1935</ele>
        <time>2014-09-13T05:26:23Z</time>
      </trkpt>
      <trkpt lat="42.70267" lon="1.53247">
        <ele>1934</ele>
        <time>2014-09-13T05:26:35Z</time>
      </trkpt>
      <trkpt lat="42.7026" lon="1.53249">
        <ele>1935</ele>
        <time>2014-09-13T05:26:47Z</time>
      </trkpt>
      <trkpt lat="42.70255" lon="1.53243">
        <ele>1937</ele>
        <time>2014-09-13T05:27:01Z</time>
      </trkpt>
      <trkpt lat="42.70252" lon="1.53242">
        <ele>1937</ele>
        <time>2014-09-13T05:27:04Z</time>
      </trkpt>
      <trkpt lat="42.70235" lon="1.53241">
        <ele>1939</ele>
        <time>2014-09-13T05:27:18Z</time>
      </trkpt>
      <trkpt lat="42.70223" lon="1.53243">
        <ele>1938</ele>
        <time>2014-09-13T05:27:30Z</time>
      </trkpt>
      <trkpt lat="42.70215" lon="1.53245">
        <ele>1937</ele>
        <time>2014-09-13T05:27:43Z</time>
      </trkpt>
      <trkpt lat="42.70207" lon="1.53248">
        <ele>1934</ele>
        <time>2014-09-13T05:27:56Z</time>
      </trkpt>
      <trkpt lat="42.70195" lon="1.53255">
        <ele>1932</ele>
        <time>2014-09-13T05:28:11Z</time>
      </trkpt>
      <trkpt lat="42.70187" lon="1.53261">
        <ele>1930</ele>
        <time>2014-09-13T05:28:25Z</time>
      </trkpt>
      <trkpt lat="42.7018" lon="1.53261">
        <ele>1930</ele>
        <time>2014-09-13T05:28:38Z</time>
      </trkpt>
      <trkpt lat="42.70168" lon="1.53264">
        <ele>1929</ele>
        <time>2014-09-13T05:28:52Z</time>
      </trkpt>
      <trkpt lat="42.70162" lon="1.53268">
        <ele>1928</ele>
        <time>2014-09-13T05:29:15Z</time>
      </trkpt>
      <trkpt lat="42.7016" lon="1.53271">
        <ele>1925</ele>
        <time>2014-09-13T05:29:28Z</time>
      </trkpt>
      <trkpt lat="42.70156" lon="1.53274">
        <ele>1923</ele>
        <time>2014-09-13T05:29:39Z</time>
      </trkpt>
      <trkpt lat="42.70157" lon="1.53274">
        <ele>1923</ele>
        <time>2014-09-13T05:29:59Z</time>
      </trkpt>
      <trkpt lat="42.7015" lon="1.53275">
        <ele>1922</ele>
        <time>2014-09-13T05:30:12Z</time>
      </trkpt>
      <trkpt lat="42.70149" lon="1.53275">
        <ele>1922</ele>
        <time>2014-09-13T05:30:13Z</time>
      </trkpt>
      <trkpt lat="42.70143" lon="1.53275">
        <ele>1918</ele>
        <time>2014-09-13T05:30:24Z</time>
      </trkpt>
      <trkpt lat="42.70135" lon="1.53277">
        <ele>1915</ele>
        <time>2014-09-13T05:30:33Z</time>
      </trkpt>
      <trkpt lat="42.70129" lon="1.53278">
        <ele>1913</ele>
        <time>2014-09-13T05:30:44Z</time>
      </trkpt>
      <trkpt lat="42.70123" lon="1.53273">
        <ele>1912</ele>
        <time>2014-09-13T05:30:57Z</time>
      </trkpt>
      <trkpt lat="42.70117" lon="1.53273">
        <ele>1910</ele>
        <time>2014-09-13T05:31:14Z</time>
      </trkpt>
      <trkpt lat="42.70115" lon="1.53273">
        <ele>1907</ele>
        <time>2014-09-13T05:31:30Z</time>
      </trkpt>
      <trkpt lat="42.70108" lon="1.53273">
        <ele>1904</ele>
        <time>2014-09-13T05:31:42Z</time>
      </trkpt>
      <trkpt lat="42.70107" lon="1.53273">
        <ele>1904</ele>
        <time>2014-09-13T05:31:43Z</time>
      </trkpt>
      <trkpt lat="42.70104" lon="1.53274">
        <ele>1905</ele>
        <time>2014-09-13T05:31:46Z</time>
      </trkpt>
      <trkpt lat="42.70101" lon="1.53274">
        <ele>1904</ele>
        <time>2014-09-13T05:31:50Z</time>
      </trkpt>
      <trkpt lat="42.70094" lon="1.53272">
        <ele>1904</ele>
        <time>2014-09-13T05:31:57Z</time>
      </trkpt>
      <trkpt lat="42.70091" lon="1.53272">
        <ele>1904</ele>
        <time>2014-09-13T05:31:59Z</time>
      </trkpt>
      <trkpt lat="42.70087" lon="1.53273">
        <ele>1904</ele>
        <time>2014-09-13T05:32:11Z</time>
      </trkpt>
      <trkpt lat="42.70086" lon="1.53273">
        <ele>1904</ele>
        <time>2014-09-13T05:32:12Z</time>
      </trkpt>
      <trkpt lat="42.70082" lon="1.53273">
        <ele>1905</ele>
        <time>2014-09-13T05:32:16Z</time>
      </trkpt>
      <trkpt lat="42.70065" lon="1.5327">
        <ele>1908</ele>
        <time>2014-09-13T05:32:27Z</time>
      </trkpt>
      <trkpt lat="42.70063" lon="1.5327">
        <ele>1908</ele>
        <time>2014-09-13T05:32:29Z</time>
      </trkpt>
      <trkpt lat="42.70051" lon="1.53272">
        <ele>1908</ele>
        <time>2014-09-13T05:32:41Z</time>
      </trkpt>
      <trkpt lat="42.70041" lon="1.53279">
        <ele>1906</ele>
        <time>2014-09-13T05:32:56Z</time>
      </trkpt>
      <trkpt lat="42.7003" lon="1.5328">
        <ele>1905</ele>
        <time>2014-09-13T05:33:09Z</time>
      </trkpt>
      <trkpt lat="42.70029" lon="1.53279">
        <ele>1905</ele>
        <time>2014-09-13T05:33:10Z</time>
      </trkpt>
      <trkpt lat="42.70017" lon="1.53277">
        <ele>1904</ele>
        <time>2014-09-13T05:33:23Z</time>
      </trkpt>
      <trkpt lat="42.70015" lon="1.53273">
        <ele>1903</ele>
        <time>2014-09-13T05:33:36Z</time>
      </trkpt>
      <trkpt lat="42.70008" lon="1.53273">
        <ele>1900</ele>
        <time>2014-09-13T05:33:46Z</time>
      </trkpt>
      <trkpt lat="42.70005" lon="1.53273">
        <ele>1899</ele>
        <time>2014-09-13T05:33:50Z</time>
      </trkpt>
      <trkpt lat="42.69997" lon="1.53271">
        <ele>1896</ele>
        <time>2014-09-13T05:34:04Z</time>
      </trkpt>
      <trkpt lat="42.69996" lon="1.53272">
        <ele>1896</ele>
        <time>2014-09-13T05:34:05Z</time>
      </trkpt>
      <trkpt lat="42.69986" lon="1.53275">
        <ele>1894</ele>
        <time>2014-09-13T05:34:18Z</time>
      </trkpt>
      <trkpt lat="42.69976" lon="1.53277">
        <ele>1892</ele>
        <time>2014-09-13T05:34:31Z</time>
      </trkpt>
      <trkpt lat="42.69969" lon="1.5328">
        <ele>1891</ele>
        <time>2014-09-13T05:34:39Z</time>
      </trkpt>
      <trkpt lat="42.69961" lon="1.5328">
        <ele>1891</ele>
        <time>2014-09-13T05:34:51Z</time>
      </trkpt>
      <trkpt lat="42.69956" lon="1.53275">
        <ele>1888</ele>
        <time>2014-09-13T05:35:02Z</time>
      </trkpt>
      <trkpt lat="42.6995" lon="1.53272">
        <ele>1886</ele>
        <time>2014-09-13T05:35:13Z</time>
      </trkpt>
      <trkpt lat="42.69949" lon="1.53272">
        <ele>1886</ele>
        <time>2014-09-13T05:35:14Z</time>
      </trkpt>
      <trkpt lat="42.6994" lon="1.53267">
        <ele>1886</ele>
        <time>2014-09-13T05:35:25Z</time>
      </trkpt>
      <trkpt lat="42.69916" lon="1.53262">
        <ele>1886</ele>
        <time>2014-09-13T05:35:40Z</time>
      </trkpt>
      <trkpt lat="42.69906" lon="1.53267">
        <ele>1886</ele>
        <time>2014-09-13T05:35:48Z</time>
      </trkpt>
      <trkpt lat="42.69902" lon="1.53269">
        <ele>1887</ele>
        <time>2014-09-13T05:35:59Z</time>
      </trkpt>
      <trkpt lat="42.69897" lon="1.53277">
        <ele>1887</ele>
        <time>2014-09-13T05:36:14Z</time>
      </trkpt>
      <trkpt lat="42.69895" lon="1.53285">
        <ele>1888</ele>
        <time>2014-09-13T05:36:23Z</time>
      </trkpt>
      <trkpt lat="42.69887" lon="1.53295">
        <ele>1888</ele>
        <time>2014-09-13T05:36:38Z</time>
      </trkpt>
      <trkpt lat="42.69878" lon="1.53296">
        <ele>1887</ele>
        <time>2014-09-13T05:36:49Z</time>
      </trkpt>
      <trkpt lat="42.69874" lon="1.53298">
        <ele>1885</ele>
        <time>2014-09-13T05:37:04Z</time>
      </trkpt>
      <trkpt lat="42.69866" lon="1.53295">
        <ele>1885</ele>
        <time>2014-09-13T05:37:25Z</time>
      </trkpt>
      <trkpt lat="42.69866" lon="1.53297">
        <ele>1885</ele>
        <time>2014-09-13T05:37:45Z</time>
      </trkpt>
      <trkpt lat="42.69867" lon="1.53298">
        <ele>1886</ele>
        <time>2014-09-13T05:38:03Z</time>
      </trkpt>
      <trkpt lat="42.69866" lon="1.53299">
        <ele>1886</ele>
        <time>2014-09-13T05:38:17Z</time>
      </trkpt>
      <trkpt lat="42.69867" lon="1.53298">
        <ele>1886</ele>
        <time>2014-09-13T05:38:33Z</time>
      </trkpt>
      <trkpt lat="42.69862" lon="1.53297">
        <ele>1886</ele>
        <time>2014-09-13T05:38:42Z</time>
      </trkpt>
      <trkpt lat="42.6986" lon="1.53299">
        <ele>1886</ele>
        <time>2014-09-13T05:38:44Z</time>
      </trkpt>
      <trkpt lat="42.69857" lon="1.53303">
        <ele>1886</ele>
        <time>2014-09-13T05:38:49Z</time>
      </trkpt>
      <trkpt lat="42.69861" lon="1.53304">
        <ele>1887</ele>
        <time>2014-09-13T05:39:02Z</time>
      </trkpt>
      <trkpt lat="42.69859" lon="1.53306">
        <ele>1886</ele>
        <time>2014-09-13T05:39:06Z</time>
      </trkpt>
      <trkpt lat="42.6985" lon="1.53319">
        <ele>1886</ele>
        <time>2014-09-13T05:39:19Z</time>
      </trkpt>
      <trkpt lat="42.69847" lon="1.53318">
        <ele>1886</ele>
        <time>2014-09-13T05:39:21Z</time>
      </trkpt>
      <trkpt lat="42.69845" lon="1.53319">
        <ele>1886</ele>
        <time>2014-09-13T05:39:23Z</time>
      </trkpt>
      <trkpt lat="42.69841" lon="1.53317">
        <ele>1886</ele>
        <time>2014-09-13T05:39:28Z</time>
      </trkpt>
      <trkpt lat="42.69836" lon="1.53327">
        <ele>1888</ele>
        <time>2014-09-13T05:39:42Z</time>
      </trkpt>
      <trkpt lat="42.69837" lon="1.53328">
        <ele>1888</ele>
        <time>2014-09-13T05:39:44Z</time>
      </trkpt>
      <trkpt lat="42.69836" lon="1.53336">
        <ele>1891</ele>
        <time>2014-09-13T05:39:54Z</time>
      </trkpt>
      <trkpt lat="42.69832" lon="1.53343">
        <ele>1893</ele>
        <time>2014-09-13T05:40:04Z</time>
      </trkpt>
      <trkpt lat="42.69831" lon="1.53344">
        <ele>1893</ele>
        <time>2014-09-13T05:40:06Z</time>
      </trkpt>
      <trkpt lat="42.69827" lon="1.53348">
        <ele>1892</ele>
        <time>2014-09-13T05:40:14Z</time>
      </trkpt>
      <trkpt lat="42.69821" lon="1.53351">
        <ele>1892</ele>
        <time>2014-09-13T05:40:24Z</time>
      </trkpt>
      <trkpt lat="42.69812" lon="1.53353">
        <ele>1890</ele>
        <time>2014-09-13T05:40:35Z</time>
      </trkpt>
      <trkpt lat="42.69807" lon="1.53352">
        <ele>1889</ele>
        <time>2014-09-13T05:40:39Z</time>
      </trkpt>
      <trkpt lat="42.69805" lon="1.53353">
        <ele>1889</ele>
        <time>2014-09-13T05:40:41Z</time>
      </trkpt>
      <trkpt lat="42.69803" lon="1.53353">
        <ele>1889</ele>
        <time>2014-09-13T05:40:43Z</time>
      </trkpt>
      <trkpt lat="42.69793" lon="1.53358">
        <ele>1887</ele>
        <time>2014-09-13T05:40:55Z</time>
      </trkpt>
      <trkpt lat="42.69787" lon="1.53359">
        <ele>1885</ele>
        <time>2014-09-13T05:41:07Z</time>
      </trkpt>
      <trkpt lat="42.69782" lon="1.53358">
        <ele>1883</ele>
        <time>2014-09-13T05:41:14Z</time>
      </trkpt>
      <trkpt lat="42.69779" lon="1.53359">
        <ele>1882</ele>
        <time>2014-09-13T05:41:19Z</time>
      </trkpt>
      <trkpt lat="42.69776" lon="1.53361">
        <ele>1881</ele>
        <time>2014-09-13T05:41:24Z</time>
      </trkpt>
      <trkpt lat="42.6977" lon="1.53359">
        <ele>1879</ele>
        <time>2014-09-13T05:41:35Z</time>
      </trkpt>
      <trkpt lat="42.69759" lon="1.53356">
        <ele>1878</ele>
        <time>2014-09-13T05:41:49Z</time>
      </trkpt>
      <trkpt lat="42.69751" lon="1.53355">
        <ele>1876</ele>
        <time>2014-09-13T05:42:02Z</time>
      </trkpt>
      <trkpt lat="42.69743" lon="1.53357">
        <ele>1874</ele>
        <time>2014-09-13T05:42:13Z</time>
      </trkpt>
      <trkpt lat="42.69729" lon="1.53358">
        <ele>1874</ele>
        <time>2014-09-13T05:42:26Z</time>
      </trkpt>
      <trkpt lat="42.69727" lon="1.53359">
        <ele>1874</ele>
        <time>2014-09-13T05:42:28Z</time>
      </trkpt>
      <trkpt lat="42.69723" lon="1.5336">
        <ele>1872</ele>
        <time>2014-09-13T05:42:32Z</time>
      </trkpt>
      <trkpt lat="42.69721" lon="1.5336">
        <ele>1872</ele>
        <time>2014-09-13T05:42:34Z</time>
      </trkpt>
      <trkpt lat="42.69712" lon="1.53366">
        <ele>1872</ele>
        <time>2014-09-13T05:42:45Z</time>
      </trkpt>
      <trkpt lat="42.69703" lon="1.53364">
        <ele>1872</ele>
        <time>2014-09-13T05:42:54Z</time>
      </trkpt>
      <trkpt lat="42.69701" lon="1.53365">
        <ele>1872</ele>
        <time>2014-09-13T05:42:56Z</time>
      </trkpt>
      <trkpt lat="42.69689" lon="1.53373">
        <ele>1873</ele>
        <time>2014-09-13T05:43:11Z</time>
      </trkpt>
      <trkpt lat="42.69688" lon="1.53373">
        <ele>1873</ele>
        <time>2014-09-13T05:43:12Z</time>
      </trkpt>
      <trkpt lat="42.69677" lon="1.53372">
        <ele>1871</ele>
        <time>2014-09-13T05:43:23Z</time>
      </trkpt>
      <trkpt lat="42.69674" lon="1.53369">
        <ele>1870</ele>
        <time>2014-09-13T05:43:26Z</time>
      </trkpt>
      <trkpt lat="42.69666" lon="1.53364">
        <ele>1868</ele>
        <time>2014-09-13T05:43:34Z</time>
      </trkpt>
      <trkpt lat="42.69654" lon="1.53352">
        <ele>1866</ele>
        <time>2014-09-13T05:43:49Z</time>
      </trkpt>
      <trkpt lat="42.6965" lon="1.5335">
        <ele>1865</ele>
        <time>2014-09-13T05:43:52Z</time>
      </trkpt>
      <trkpt lat="42.69644" lon="1.53346">
        <ele>1865</ele>
        <time>2014-09-13T05:43:57Z</time>
      </trkpt>
      <trkpt lat="42.69638" lon="1.53348">
        <ele>1864</ele>
        <time>2014-09-13T05:44:03Z</time>
      </trkpt>
      <trkpt lat="42.69628" lon="1.53346">
        <ele>1861</ele>
        <time>2014-09-13T05:44:16Z</time>
      </trkpt>
      <trkpt lat="42.69625" lon="1.53346">
        <ele>1861</ele>
        <time>2014-09-13T05:44:22Z</time>
      </trkpt>
      <trkpt lat="42.69622" lon="1.53347">
        <ele>1860</ele>
        <time>2014-09-13T05:44:25Z</time>
      </trkpt>
      <trkpt lat="42.69616" lon="1.5335">
        <ele>1859</ele>
        <time>2014-09-13T05:44:32Z</time>
      </trkpt>
      <trkpt lat="42.69603" lon="1.53343">
        <ele>1856</ele>
        <time>2014-09-13T05:44:47Z</time>
      </trkpt>
      <trkpt lat="42.69594" lon="1.53344">
        <ele>1855</ele>
        <time>2014-09-13T05:44:59Z</time>
      </trkpt>
      <trkpt lat="42.69589" lon="1.53349">
        <ele>1855</ele>
        <time>2014-09-13T05:45:09Z</time>
      </trkpt>
      <trkpt lat="42.69578" lon="1.53348">
        <ele>1854</ele>
        <time>2014-09-13T05:45:23Z</time>
      </trkpt>
      <trkpt lat="42.69571" lon="1.53349">
        <ele>1855</ele>
        <time>2014-09-13T05:45:31Z</time>
      </trkpt>
      <trkpt lat="42.69562" lon="1.53353">
        <ele>1857</ele>
        <time>2014-09-13T05:45:43Z</time>
      </trkpt>
      <trkpt lat="42.69561" lon="1.53354">
        <ele>1857</ele>
        <time>2014-09-13T05:45:44Z</time>
      </trkpt>
      <trkpt lat="42.69558" lon="1.53353">
        <ele>1857</ele>
        <time>2014-09-13T05:45:46Z</time>
      </trkpt>
      <trkpt lat="42.69556" lon="1.5335">
        <ele>1858</ele>
        <time>2014-09-13T05:45:50Z</time>
      </trkpt>
      <trkpt lat="42.69548" lon="1.53346">
        <ele>1858</ele>
        <time>2014-09-13T05:46:00Z</time>
      </trkpt>
      <trkpt lat="42.69538" lon="1.53348">
        <ele>1855</ele>
        <time>2014-09-13T05:46:13Z</time>
      </trkpt>
      <trkpt lat="42.69529" lon="1.53345">
        <ele>1853</ele>
        <time>2014-09-13T05:46:25Z</time>
      </trkpt>
      <trkpt lat="42.69521" lon="1.53344">
        <ele>1853</ele>
        <time>2014-09-13T05:46:35Z</time>
      </trkpt>
      <trkpt lat="42.69521" lon="1.53345">
        <ele>1853</ele>
        <time>2014-09-13T05:46:37Z</time>
      </trkpt>
      <trkpt lat="42.69514" lon="1.53347">
        <ele>1853</ele>
        <time>2014-09-13T05:46:49Z</time>
      </trkpt>
      <trkpt lat="42.69516" lon="1.53347">
        <ele>1853</ele>
        <time>2014-09-13T05:47:07Z</time>
      </trkpt>
      <trkpt lat="42.69517" lon="1.53347">
        <ele>1853</ele>
        <time>2014-09-13T05:47:24Z</time>
      </trkpt>
      <trkpt lat="42.69508" lon="1.5335">
        <ele>1850</ele>
        <time>2014-09-13T05:47:36Z</time>
      </trkpt>
      <trkpt lat="42.69506" lon="1.53349">
        <ele>1850</ele>
        <time>2014-09-13T05:47:38Z</time>
      </trkpt>
      <trkpt lat="42.69502" lon="1.53348">
        <ele>1849</ele>
        <time>2014-09-13T05:47:43Z</time>
      </trkpt>
      <trkpt lat="42.69488" lon="1.53346">
        <ele>1849</ele>
        <time>2014-09-13T05:47:57Z</time>
      </trkpt>
      <trkpt lat="42.69487" lon="1.53346">
        <ele>1849</ele>
        <time>2014-09-13T05:47:58Z</time>
      </trkpt>
      <trkpt lat="42.69483" lon="1.53346">
        <ele>1849</ele>
        <time>2014-09-13T05:48:14Z</time>
      </trkpt>
      <trkpt lat="42.69485" lon="1.53346">
        <ele>1848</ele>
        <time>2014-09-13T05:48:39Z</time>
      </trkpt>
      <trkpt lat="42.69482" lon="1.53346">
        <ele>1849</ele>
        <time>2014-09-13T05:48:46Z</time>
      </trkpt>
      <trkpt lat="42.69468" lon="1.53347">
        <ele>1850</ele>
        <time>2014-09-13T05:49:00Z</time>
      </trkpt>
      <trkpt lat="42.69451" lon="1.53343">
        <ele>1852</ele>
        <time>2014-09-13T05:49:14Z</time>
      </trkpt>
      <trkpt lat="42.6945" lon="1.53343">
        <ele>1852</ele>
        <time>2014-09-13T05:49:15Z</time>
      </trkpt>
      <trkpt lat="42.69442" lon="1.53348">
        <ele>1853</ele>
        <time>2014-09-13T05:49:26Z</time>
      </trkpt>
      <trkpt lat="42.6944" lon="1.53349">
        <ele>1853</ele>
        <time>2014-09-13T05:49:28Z</time>
      </trkpt>
      <trkpt lat="42.69437" lon="1.53349">
        <ele>1854</ele>
        <time>2014-09-13T05:49:31Z</time>
      </trkpt>
      <trkpt lat="42.69432" lon="1.53351">
        <ele>1854</ele>
        <time>2014-09-13T05:49:37Z</time>
      </trkpt>
      <trkpt lat="42.69427" lon="1.53354">
        <ele>1855</ele>
        <time>2014-09-13T05:49:42Z</time>
      </trkpt>
      <trkpt lat="42.69426" lon="1.53356">
        <ele>1855</ele>
        <time>2014-09-13T05:49:44Z</time>
      </trkpt>
      <trkpt lat="42.69423" lon="1.53359">
        <ele>1855</ele>
        <time>2014-09-13T05:49:48Z</time>
      </trkpt>
      <trkpt lat="42.69417" lon="1.53362">
        <ele>1855</ele>
        <time>2014-09-13T05:49:55Z</time>
      </trkpt>
      <trkpt lat="42.69403" lon="1.53367">
        <ele>1856</ele>
        <time>2014-09-13T05:50:09Z</time>
      </trkpt>
      <trkpt lat="42.69391" lon="1.53368">
        <ele>1859</ele>
        <time>2014-09-13T05:50:23Z</time>
      </trkpt>
      <trkpt lat="42.69381" lon="1.5337">
        <ele>1860</ele>
        <time>2014-09-13T05:50:36Z</time>
      </trkpt>
      <trkpt lat="42.69374" lon="1.53369">
        <ele>1857</ele>
        <time>2014-09-13T05:50:46Z</time>
      </trkpt>
      <trkpt lat="42.69367" lon="1.53369">
        <ele>1857</ele>
        <time>2014-09-13T05:50:59Z</time>
      </trkpt>
      <trkpt lat="42.69364" lon="1.53367">
        <ele>1857</ele>
        <time>2014-09-13T05:51:02Z</time>
      </trkpt>
      <trkpt lat="42.69357" lon="1.53365">
        <ele>1857</ele>
        <time>2014-09-13T05:51:10Z</time>
      </trkpt>
      <trkpt lat="42.69348" lon="1.53365">
        <ele>1856</ele>
        <time>2014-09-13T05:51:21Z</time>
      </trkpt>
      <trkpt lat="42.6934" lon="1.53362">
        <ele>1854</ele>
        <time>2014-09-13T05:51:33Z</time>
      </trkpt>
      <trkpt lat="42.69333" lon="1.53358">
        <ele>1852</ele>
        <time>2014-09-13T05:51:46Z</time>
      </trkpt>
      <trkpt lat="42.69323" lon="1.53355">
        <ele>1852</ele>
        <time>2014-09-13T05:51:58Z</time>
      </trkpt>
      <trkpt lat="42.69319" lon="1.53353">
        <ele>1852</ele>
        <time>2014-09-13T05:52:23Z</time>
      </trkpt>
      <trkpt lat="42.69316" lon="1.53353">
        <ele>1850</ele>
        <time>2014-09-13T05:52:32Z</time>
      </trkpt>
      <trkpt lat="42.69312" lon="1.53351">
        <ele>1849</ele>
        <time>2014-09-13T05:52:45Z</time>
      </trkpt>
      <trkpt lat="42.69311" lon="1.53351">
        <ele>1849</ele>
        <time>2014-09-13T05:52:47Z</time>
      </trkpt>
      <trkpt lat="42.69307" lon="1.53351">
        <ele>1849</ele>
        <time>2014-09-13T05:52:53Z</time>
      </trkpt>
      <trkpt lat="42.69303" lon="1.53349">
        <ele>1847</ele>
        <time>2014-09-13T05:53:00Z</time>
      </trkpt>
      <trkpt lat="42.69294" lon="1.53349">
        <ele>1847</ele>
        <time>2014-09-13T05:53:12Z</time>
      </trkpt>
      <trkpt lat="42.69282" lon="1.53345">
        <ele>1847</ele>
        <time>2014-09-13T05:53:28Z</time>
      </trkpt>
      <trkpt lat="42.69273" lon="1.53346">
        <ele>1849</ele>
        <time>2014-09-13T05:53:39Z</time>
      </trkpt>
      <trkpt lat="42.69267" lon="1.53345">
        <ele>1849</ele>
        <time>2014-09-13T05:53:46Z</time>
      </trkpt>
      <trkpt lat="42.69266" lon="1.53344">
        <ele>1849</ele>
        <time>2014-09-13T05:53:48Z</time>
      </trkpt>
      <trkpt lat="42.69258" lon="1.53342">
        <ele>1848</ele>
        <time>2014-09-13T05:53:59Z</time>
      </trkpt>
      <trkpt lat="42.69251" lon="1.53343">
        <ele>1849</ele>
        <time>2014-09-13T05:54:09Z</time>
      </trkpt>
      <trkpt lat="42.69245" lon="1.53343">
        <ele>1848</ele>
        <time>2014-09-13T05:54:23Z</time>
      </trkpt>
      <trkpt lat="42.69239" lon="1.53346">
        <ele>1848</ele>
        <time>2014-09-13T05:54:33Z</time>
      </trkpt>
      <trkpt lat="42.69235" lon="1.53344">
        <ele>1848</ele>
        <time>2014-09-13T05:54:42Z</time>
      </trkpt>
      <trkpt lat="42.69225" lon="1.53335">
        <ele>1849</ele>
        <time>2014-09-13T05:54:57Z</time>
      </trkpt>
      <trkpt lat="42.69216" lon="1.53328">
        <ele>1850</ele>
        <time>2014-09-13T05:55:09Z</time>
      </trkpt>
      <trkpt lat="42.69216" lon="1.53326">
        <ele>1850</ele>
        <time>2014-09-13T05:55:11Z</time>
      </trkpt>
      <trkpt lat="42.69213" lon="1.53321">
        <ele>1850</ele>
        <time>2014-09-13T05:55:15Z</time>
      </trkpt>
      <trkpt lat="42.69206" lon="1.53316">
        <ele>1850</ele>
        <time>2014-09-13T05:55:28Z</time>
      </trkpt>
      <trkpt lat="42.692" lon="1.53311">
        <ele>1849</ele>
        <time>2014-09-13T05:55:39Z</time>
      </trkpt>
      <trkpt lat="42.69188" lon="1.53302">
        <ele>1851</ele>
        <time>2014-09-13T05:55:54Z</time>
      </trkpt>
      <trkpt lat="42.69182" lon="1.53299">
        <ele>1852</ele>
        <time>2014-09-13T05:56:05Z</time>
      </trkpt>
      <trkpt lat="42.69175" lon="1.53289">
        <ele>1855</ele>
        <time>2014-09-13T05:56:20Z</time>
      </trkpt>
      <trkpt lat="42.69174" lon="1.53287">
        <ele>1856</ele>
        <time>2014-09-13T05:56:23Z</time>
      </trkpt>
      <trkpt lat="42.69167" lon="1.5328">
        <ele>1857</ele>
        <time>2014-09-13T05:56:35Z</time>
      </trkpt>
      <trkpt lat="42.69168" lon="1.5328">
        <ele>1857</ele>
        <time>2014-09-13T05:56:36Z</time>
      </trkpt>
      <trkpt lat="42.69165" lon="1.53276">
        <ele>1857</ele>
        <time>2014-09-13T05:56:44Z</time>
      </trkpt>
      <trkpt lat="42.69158" lon="1.53266">
        <ele>1857</ele>
        <time>2014-09-13T05:56:56Z</time>
      </trkpt>
      <trkpt lat="42.69155" lon="1.53262">
        <ele>1857</ele>
        <time>2014-09-13T05:57:01Z</time>
      </trkpt>
      <trkpt lat="42.69144" lon="1.53262">
        <ele>1857</ele>
        <time>2014-09-13T05:57:15Z</time>
      </trkpt>
      <trkpt lat="42.69136" lon="1.53261">
        <ele>1857</ele>
        <time>2014-09-13T05:57:26Z</time>
      </trkpt>
      <trkpt lat="42.69129" lon="1.5326">
        <ele>1857</ele>
        <time>2014-09-13T05:57:38Z</time>
      </trkpt>
      <trkpt lat="42.69121" lon="1.53256">
        <ele>1860</ele>
        <time>2014-09-13T05:57:50Z</time>
      </trkpt>
      <trkpt lat="42.69119" lon="1.53257">
        <ele>1859</ele>
        <time>2014-09-13T05:57:53Z</time>
      </trkpt>
      <trkpt lat="42.69116" lon="1.53257">
        <ele>1859</ele>
        <time>2014-09-13T05:57:56Z</time>
      </trkpt>
      <trkpt lat="42.69114" lon="1.53257">
        <ele>1860</ele>
        <time>2014-09-13T05:57:58Z</time>
      </trkpt>
      <trkpt lat="42.69094" lon="1.53253">
        <ele>1861</ele>
        <time>2014-09-13T05:58:12Z</time>
      </trkpt>
      <trkpt lat="42.69093" lon="1.53253">
        <ele>1861</ele>
        <time>2014-09-13T05:58:13Z</time>
      </trkpt>
      <trkpt lat="42.69085" lon="1.53247">
        <ele>1862</ele>
        <time>2014-09-13T05:58:23Z</time>
      </trkpt>
      <trkpt lat="42.69077" lon="1.53241">
        <ele>1861</ele>
        <time>2014-09-13T05:58:29Z</time>
      </trkpt>
      <trkpt lat="42.69074" lon="1.53237">
        <ele>1861</ele>
        <time>2014-09-13T05:58:34Z</time>
      </trkpt>
      <trkpt lat="42.69064" lon="1.53228">
        <ele>1861</ele>
        <time>2014-09-13T05:58:44Z</time>
      </trkpt>
      <trkpt lat="42.69052" lon="1.53223">
        <ele>1860</ele>
        <time>2014-09-13T05:58:54Z</time>
      </trkpt>
      <trkpt lat="42.69044" lon="1.53216">
        <ele>1857</ele>
        <time>2014-09-13T05:59:08Z</time>
      </trkpt>
      <trkpt lat="42.69037" lon="1.53211">
        <ele>1856</ele>
        <time>2014-09-13T05:59:14Z</time>
      </trkpt>
      <trkpt lat="42.69022" lon="1.53204">
        <ele>1856</ele>
        <time>2014-09-13T05:59:29Z</time>
      </trkpt>
      <trkpt lat="42.69018" lon="1.53203">
        <ele>1856</ele>
        <time>2014-09-13T05:59:32Z</time>
      </trkpt>
      <trkpt lat="42.69002" lon="1.53201">
        <ele>1857</ele>
        <time>2014-09-13T05:59:48Z</time>
      </trkpt>
      <trkpt lat="42.68993" lon="1.53197">
        <ele>1858</ele>
        <time>2014-09-13T05:59:56Z</time>
      </trkpt>
      <trkpt lat="42.68979" lon="1.53194">
        <ele>1858</ele>
        <time>2014-09-13T06:00:08Z</time>
      </trkpt>
      <trkpt lat="42.68967" lon="1.53195">
        <ele>1857</ele>
        <time>2014-09-13T06:00:26Z</time>
      </trkpt>
      <trkpt lat="42.68963" lon="1.53195">
        <ele>1857</ele>
        <time>2014-09-13T06:00:35Z</time>
      </trkpt>
      <trkpt lat="42.6896" lon="1.53194">
        <ele>1857</ele>
        <time>2014-09-13T06:00:38Z</time>
      </trkpt>
      <trkpt lat="42.68958" lon="1.53192">
        <ele>1857</ele>
        <time>2014-09-13T06:00:41Z</time>
      </trkpt>
      <trkpt lat="42.68949" lon="1.5319">
        <ele>1856</ele>
        <time>2014-09-13T06:00:50Z</time>
      </trkpt>
      <trkpt lat="42.68947" lon="1.53185">
        <ele>1857</ele>
        <time>2014-09-13T06:00:54Z</time>
      </trkpt>
      <trkpt lat="42.68939" lon="1.53183">
        <ele>1856</ele>
        <time>2014-09-13T06:01:06Z</time>
      </trkpt>
      <trkpt lat="42.68937" lon="1.53183">
        <ele>1856</ele>
        <time>2014-09-13T06:01:08Z</time>
      </trkpt>
      <trkpt lat="42.68931" lon="1.53183">
        <ele>1857</ele>
        <time>2014-09-13T06:01:16Z</time>
      </trkpt>
      <trkpt lat="42.68916" lon="1.53179">
        <ele>1858</ele>
        <time>2014-09-13T06:01:31Z</time>
      </trkpt>
      <trkpt lat="42.68913" lon="1.53178">
        <ele>1858</ele>
        <time>2014-09-13T06:01:33Z</time>
      </trkpt>
      <trkpt lat="42.68904" lon="1.53173">
        <ele>1858</ele>
        <time>2014-09-13T06:01:41Z</time>
      </trkpt>
      <trkpt lat="42.68895" lon="1.5317">
        <ele>1858</ele>
        <time>2014-09-13T06:01:49Z</time>
      </trkpt>
      <trkpt lat="42.6888" lon="1.53166">
        <ele>1860</ele>
        <time>2014-09-13T06:02:04Z</time>
      </trkpt>
      <trkpt lat="42.68865" lon="1.53162">
        <ele>1861</ele>
        <time>2014-09-13T06:02:20Z</time>
      </trkpt>
      <trkpt lat="42.68855" lon="1.53158">
        <ele>1861</ele>
        <time>2014-09-13T06:02:31Z</time>
      </trkpt>
      <trkpt lat="42.6885" lon="1.53155">
        <ele>1861</ele>
        <time>2014-09-13T06:02:36Z</time>
      </trkpt>
      <trkpt lat="42.68848" lon="1.53155">
        <ele>1860</ele>
        <time>2014-09-13T06:02:38Z</time>
      </trkpt>
      <trkpt lat="42.68842" lon="1.53153">
        <ele>1862</ele>
        <time>2014-09-13T06:02:48Z</time>
      </trkpt>
      <trkpt lat="42.6883" lon="1.53162">
        <ele>1865</ele>
        <time>2014-09-13T06:03:05Z</time>
      </trkpt>
      <trkpt lat="42.68829" lon="1.53162">
        <ele>1866</ele>
        <time>2014-09-13T06:03:06Z</time>
      </trkpt>
      <trkpt lat="42.68823" lon="1.53161">
        <ele>1865</ele>
        <time>2014-09-13T06:03:11Z</time>
      </trkpt>
      <trkpt lat="42.68821" lon="1.5316">
        <ele>1866</ele>
        <time>2014-09-13T06:03:14Z</time>
      </trkpt>
      <trkpt lat="42.68811" lon="1.5316">
        <ele>1866</ele>
        <time>2014-09-13T06:03:29Z</time>
      </trkpt>
      <trkpt lat="42.6881" lon="1.53157">
        <ele>1867</ele>
        <time>2014-09-13T06:03:33Z</time>
      </trkpt>
      <trkpt lat="42.68806" lon="1.53149">
        <ele>1868</ele>
        <time>2014-09-13T06:03:45Z</time>
      </trkpt>
      <trkpt lat="42.68799" lon="1.53152">
        <ele>1870</ele>
        <time>2014-09-13T06:03:59Z</time>
      </trkpt>
      <trkpt lat="42.68782" lon="1.53161">
        <ele>1872</ele>
        <time>2014-09-13T06:04:16Z</time>
      </trkpt>
      <trkpt lat="42.68771" lon="1.53165">
        <ele>1872</ele>
        <time>2014-09-13T06:04:27Z</time>
      </trkpt>
      <trkpt lat="42.68768" lon="1.53167">
        <ele>1872</ele>
        <time>2014-09-13T06:04:30Z</time>
      </trkpt>
      <trkpt lat="42.68759" lon="1.5317">
        <ele>1873</ele>
        <time>2014-09-13T06:04:42Z</time>
      </trkpt>
      <trkpt lat="42.68758" lon="1.53172">
        <ele>1873</ele>
        <time>2014-09-13T06:04:44Z</time>
      </trkpt>
      <trkpt lat="42.68749" lon="1.53177">
        <ele>1875</ele>
        <time>2014-09-13T06:04:55Z</time>
      </trkpt>
      <trkpt lat="42.68746" lon="1.5318">
        <ele>1875</ele>
        <time>2014-09-13T06:04:59Z</time>
      </trkpt>
      <trkpt lat="42.68745" lon="1.53181">
        <ele>1875</ele>
        <time>2014-09-13T06:05:01Z</time>
      </trkpt>
      <trkpt lat="42.68731" lon="1.53183">
        <ele>1876</ele>
        <time>2014-09-13T06:05:14Z</time>
      </trkpt>
      <trkpt lat="42.68718" lon="1.53178">
        <ele>1876</ele>
        <time>2014-09-13T06:05:26Z</time>
      </trkpt>
      <trkpt lat="42.68702" lon="1.53176">
        <ele>1876</ele>
        <time>2014-09-13T06:05:41Z</time>
      </trkpt>
      <trkpt lat="42.68701" lon="1.53176">
        <ele>1876</ele>
        <time>2014-09-13T06:05:42Z</time>
      </trkpt>
      <trkpt lat="42.687" lon="1.53175">
        <ele>1875</ele>
        <time>2014-09-13T06:05:43Z</time>
      </trkpt>
      <trkpt lat="42.68694" lon="1.53175">
        <ele>1875</ele>
        <time>2014-09-13T06:06:02Z</time>
      </trkpt>
      <trkpt lat="42.6869" lon="1.53174">
        <ele>1875</ele>
        <time>2014-09-13T06:06:11Z</time>
      </trkpt>
      <trkpt lat="42.68687" lon="1.53175">
        <ele>1876</ele>
        <time>2014-09-13T06:06:13Z</time>
      </trkpt>
      <trkpt lat="42.68682" lon="1.53174">
        <ele>1876</ele>
        <time>2014-09-13T06:06:18Z</time>
      </trkpt>
      <trkpt lat="42.68675" lon="1.53172">
        <ele>1877</ele>
        <time>2014-09-13T06:06:25Z</time>
      </trkpt>
      <trkpt lat="42.6866" lon="1.53171">
        <ele>1877</ele>
        <time>2014-09-13T06:06:40Z</time>
      </trkpt>
      <trkpt lat="42.68657" lon="1.53173">
        <ele>1877</ele>
        <time>2014-09-13T06:06:51Z</time>
      </trkpt>
      <trkpt lat="42.68654" lon="1.53175">
        <ele>1877</ele>
        <time>2014-09-13T06:06:54Z</time>
      </trkpt>
      <trkpt lat="42.68646" lon="1.53176">
        <ele>1877</ele>
        <time>2014-09-13T06:07:09Z</time>
      </trkpt>
      <trkpt lat="42.68642" lon="1.5318">
        <ele>1877</ele>
        <time>2014-09-13T06:07:29Z</time>
      </trkpt>
      <trkpt lat="42.68642" lon="1.53181">
        <ele>1877</ele>
        <time>2014-09-13T06:07:31Z</time>
      </trkpt>
      <trkpt lat="42.68638" lon="1.53183">
        <ele>1877</ele>
        <time>2014-09-13T06:07:36Z</time>
      </trkpt>
      <trkpt lat="42.68634" lon="1.53186">
        <ele>1877</ele>
        <time>2014-09-13T06:07:48Z</time>
      </trkpt>
      <trkpt lat="42.68625" lon="1.53194">
        <ele>1876</ele>
        <time>2014-09-13T06:07:58Z</time>
      </trkpt>
      <trkpt lat="42.68623" lon="1.53197">
        <ele>1876</ele>
        <time>2014-09-13T06:08:01Z</time>
      </trkpt>
      <trkpt lat="42.68613" lon="1.53202">
        <ele>1876</ele>
        <time>2014-09-13T06:08:12Z</time>
      </trkpt>
      <trkpt lat="42.6861" lon="1.53203">
        <ele>1876</ele>
        <time>2014-09-13T06:08:14Z</time>
      </trkpt>
      <trkpt lat="42.68598" lon="1.53206">
        <ele>1876</ele>
        <time>2014-09-13T06:08:26Z</time>
      </trkpt>
      <trkpt lat="42.68591" lon="1.53206">
        <ele>1876</ele>
        <time>2014-09-13T06:08:31Z</time>
      </trkpt>
      <trkpt lat="42.68585" lon="1.53204">
        <ele>1875</ele>
        <time>2014-09-13T06:08:40Z</time>
      </trkpt>
      <trkpt lat="42.68575" lon="1.53201">
        <ele>1873</ele>
        <time>2014-09-13T06:08:48Z</time>
      </trkpt>
      <trkpt lat="42.68558" lon="1.53202">
        <ele>1872</ele>
        <time>2014-09-13T06:09:02Z</time>
      </trkpt>
      <trkpt lat="42.68551" lon="1.53205">
        <ele>1872</ele>
        <time>2014-09-13T06:09:08Z</time>
      </trkpt>
      <trkpt lat="42.68547" lon="1.53208">
        <ele>1871</ele>
        <time>2014-09-13T06:09:13Z</time>
      </trkpt>
      <trkpt lat="42.68539" lon="1.53208">
        <ele>1869</ele>
        <time>2014-09-13T06:09:20Z</time>
      </trkpt>
      <trkpt lat="42.68537" lon="1.53205">
        <ele>1869</ele>
        <time>2014-09-13T06:09:23Z</time>
      </trkpt>
      <trkpt lat="42.68533" lon="1.53202">
        <ele>1868</ele>
        <time>2014-09-13T06:09:27Z</time>
      </trkpt>
      <trkpt lat="42.6853" lon="1.53202">
        <ele>1867</ele>
        <time>2014-09-13T06:09:30Z</time>
      </trkpt>
      <trkpt lat="42.68523" lon="1.53198">
        <ele>1866</ele>
        <time>2014-09-13T06:09:36Z</time>
      </trkpt>
      <trkpt lat="42.68522" lon="1.53198">
        <ele>1867</ele>
        <time>2014-09-13T06:09:37Z</time>
      </trkpt>
      <trkpt lat="42.68512" lon="1.53194">
        <ele>1866</ele>
        <time>2014-09-13T06:09:45Z</time>
      </trkpt>
      <trkpt lat="42.68509" lon="1.53191">
        <ele>1865</ele>
        <time>2014-09-13T06:09:48Z</time>
      </trkpt>
      <trkpt lat="42.68504" lon="1.53193">
        <ele>1864</ele>
        <time>2014-09-13T06:09:52Z</time>
      </trkpt>
      <trkpt lat="42.68502" lon="1.53191">
        <ele>1864</ele>
        <time>2014-09-13T06:09:55Z</time>
      </trkpt>
      <trkpt lat="42.68497" lon="1.5319">
        <ele>1864</ele>
        <time>2014-09-13T06:09:58Z</time>
      </trkpt>
      <trkpt lat="42.68494" lon="1.5319">
        <ele>1863</ele>
        <time>2014-09-13T06:10:02Z</time>
      </trkpt>
      <trkpt lat="42.68489" lon="1.53186">
        <ele>1863</ele>
        <time>2014-09-13T06:10:08Z</time>
      </trkpt>
      <trkpt lat="42.68485" lon="1.53186">
        <ele>1861</ele>
        <time>2014-09-13T06:10:13Z</time>
      </trkpt>
      <trkpt lat="42.68482" lon="1.53184">
        <ele>1860</ele>
        <time>2014-09-13T06:10:16Z</time>
      </trkpt>
      <trkpt lat="42.68471" lon="1.53189">
        <ele>1859</ele>
        <time>2014-09-13T06:10:27Z</time>
      </trkpt>
      <trkpt lat="42.68462" lon="1.53194">
        <ele>1857</ele>
        <time>2014-09-13T06:10:38Z</time>
      </trkpt>
      <trkpt lat="42.6846" lon="1.53194">
        <ele>1858</ele>
        <time>2014-09-13T06:10:40Z</time>
      </trkpt>
      <trkpt lat="42.68455" lon="1.53197">
        <ele>1856</ele>
        <time>2014-09-13T06:10:46Z</time>
      </trkpt>
      <trkpt lat="42.6845" lon="1.53199">
        <ele>1857</ele>
        <time>2014-09-13T06:10:53Z</time>
      </trkpt>
      <trkpt lat="42.68448" lon="1.532">
        <ele>1856</ele>
        <time>2014-09-13T06:10:55Z</time>
      </trkpt>
      <trkpt lat="42.68434" lon="1.53208">
        <ele>1855</ele>
        <time>2014-09-13T06:11:08Z</time>
      </trkpt>
      <trkpt lat="42.68426" lon="1.53209">
        <ele>1854</ele>
        <time>2014-09-13T06:11:19Z</time>
      </trkpt>
      <trkpt lat="42.68424" lon="1.53208">
        <ele>1854</ele>
        <time>2014-09-13T06:11:26Z</time>
      </trkpt>
      <trkpt lat="42.68421" lon="1.53206">
        <ele>1854</ele>
        <time>2014-09-13T06:11:29Z</time>
      </trkpt>
      <trkpt lat="42.68404" lon="1.53209">
        <ele>1854</ele>
        <time>2014-09-13T06:11:44Z</time>
      </trkpt>
      <trkpt lat="42.68391" lon="1.53213">
        <ele>1853</ele>
        <time>2014-09-13T06:11:56Z</time>
      </trkpt>
      <trkpt lat="42.68379" lon="1.53219">
        <ele>1851</ele>
        <time>2014-09-13T06:12:07Z</time>
      </trkpt>
      <trkpt lat="42.68374" lon="1.53221">
        <ele>1850</ele>
        <time>2014-09-13T06:12:12Z</time>
      </trkpt>
      <trkpt lat="42.68366" lon="1.53223">
        <ele>1849</ele>
        <time>2014-09-13T06:12:20Z</time>
      </trkpt>
      <trkpt lat="42.68364" lon="1.53224">
        <ele>1848</ele>
        <time>2014-09-13T06:12:22Z</time>
      </trkpt>
      <trkpt lat="42.68359" lon="1.53231">
        <ele>1848</ele>
        <time>2014-09-13T06:12:28Z</time>
      </trkpt>
      <trkpt lat="42.68347" lon="1.53241">
        <ele>1848</ele>
        <time>2014-09-13T06:12:41Z</time>
      </trkpt>
      <trkpt lat="42.68344" lon="1.53243">
        <ele>1847</ele>
        <time>2014-09-13T06:12:45Z</time>
      </trkpt>
      <trkpt lat="42.68334" lon="1.53246">
        <ele>1847</ele>
        <time>2014-09-13T06:12:59Z</time>
      </trkpt>
      <trkpt lat="42.68329" lon="1.5325">
        <ele>1847</ele>
        <time>2014-09-13T06:13:10Z</time>
      </trkpt>
      <trkpt lat="42.68323" lon="1.53253">
        <ele>1846</ele>
        <time>2014-09-13T06:13:21Z</time>
      </trkpt>
      <trkpt lat="42.68317" lon="1.53253">
        <ele>1845</ele>
        <time>2014-09-13T06:13:32Z</time>
      </trkpt>
      <trkpt lat="42.68313" lon="1.53254">
        <ele>1844</ele>
        <time>2014-09-13T06:13:41Z</time>
      </trkpt>
      <trkpt lat="42.68311" lon="1.53257">
        <ele>1845</ele>
        <time>2014-09-13T06:13:46Z</time>
      </trkpt>
      <trkpt lat="42.6831" lon="1.53262">
        <ele>1846</ele>
        <time>2014-09-13T06:13:52Z</time>
      </trkpt>
      <trkpt lat="42.68303" lon="1.53267">
        <ele>1845</ele>
        <time>2014-09-13T06:14:04Z</time>
      </trkpt>
      <trkpt lat="42.68303" lon="1.53266">
        <ele>1845</ele>
        <time>2014-09-13T06:14:17Z</time>
      </trkpt>
      <trkpt lat="42.68299" lon="1.53266">
        <ele>1845</ele>
        <time>2014-09-13T06:14:31Z</time>
      </trkpt>
      <trkpt lat="42.68295" lon="1.53262">
        <ele>1843</ele>
        <time>2014-09-13T06:14:41Z</time>
      </trkpt>
      <trkpt lat="42.68292" lon="1.53257">
        <ele>1843</ele>
        <time>2014-09-13T06:14:46Z</time>
      </trkpt>
      <trkpt lat="42.68288" lon="1.53249">
        <ele>1843</ele>
        <time>2014-09-13T06:14:55Z</time>
      </trkpt>
      <trkpt lat="42.68282" lon="1.53241">
        <ele>1843</ele>
        <time>2014-09-13T06:15:03Z</time>
      </trkpt>
      <trkpt lat="42.68274" lon="1.53236">
        <ele>1844</ele>
        <time>2014-09-13T06:15:15Z</time>
      </trkpt>
      <trkpt lat="42.68268" lon="1.53237">
        <ele>1843</ele>
        <time>2014-09-13T06:15:27Z</time>
      </trkpt>
      <trkpt lat="42.68259" lon="1.53234">
        <ele>1843</ele>
        <time>2014-09-13T06:15:37Z</time>
      </trkpt>
      <trkpt lat="42.68253" lon="1.53235">
        <ele>1843</ele>
        <time>2014-09-13T06:15:45Z</time>
      </trkpt>
      <trkpt lat="42.68245" lon="1.53243">
        <ele>1842</ele>
        <time>2014-09-13T06:15:55Z</time>
      </trkpt>
      <trkpt lat="42.68241" lon="1.53246">
        <ele>1843</ele>
        <time>2014-09-13T06:16:00Z</time>
      </trkpt>
      <trkpt lat="42.6824" lon="1.53245">
        <ele>1843</ele>
        <time>2014-09-13T06:16:02Z</time>
      </trkpt>
      <trkpt lat="42.68229" lon="1.53248">
        <ele>1844</ele>
        <time>2014-09-13T06:16:14Z</time>
      </trkpt>
      <trkpt lat="42.68226" lon="1.53249">
        <ele>1844</ele>
        <time>2014-09-13T06:16:18Z</time>
      </trkpt>
      <trkpt lat="42.6821" lon="1.53241">
        <ele>1844</ele>
        <time>2014-09-13T06:16:33Z</time>
      </trkpt>
      <trkpt lat="42.68202" lon="1.5324">
        <ele>1844</ele>
        <time>2014-09-13T06:16:42Z</time>
      </trkpt>
      <trkpt lat="42.68193" lon="1.53244">
        <ele>1846</ele>
        <time>2014-09-13T06:16:52Z</time>
      </trkpt>
      <trkpt lat="42.68182" lon="1.53246">
        <ele>1846</ele>
        <time>2014-09-13T06:17:05Z</time>
      </trkpt>
      <trkpt lat="42.68177" lon="1.53248">
        <ele>1847</ele>
        <time>2014-09-13T06:17:11Z</time>
      </trkpt>
      <trkpt lat="42.68175" lon="1.53245">
        <ele>1847</ele>
        <time>2014-09-13T06:17:14Z</time>
      </trkpt>
      <trkpt lat="42.68165" lon="1.53248">
        <ele>1849</ele>
        <time>2014-09-13T06:17:27Z</time>
      </trkpt>
      <trkpt lat="42.68164" lon="1.53247">
        <ele>1848</ele>
        <time>2014-09-13T06:17:28Z</time>
      </trkpt>
      <trkpt lat="42.68153" lon="1.53241">
        <ele>1849</ele>
        <time>2014-09-13T06:17:41Z</time>
      </trkpt>
      <trkpt lat="42.68148" lon="1.53243">
        <ele>1848</ele>
        <time>2014-09-13T06:17:48Z</time>
      </trkpt>
      <trkpt lat="42.68138" lon="1.53243">
        <ele>1849</ele>
        <time>2014-09-13T06:17:59Z</time>
      </trkpt>
      <trkpt lat="42.68133" lon="1.5324">
        <ele>1848</ele>
        <time>2014-09-13T06:18:10Z</time>
      </trkpt>
      <trkpt lat="42.68135" lon="1.53239">
        <ele>1849</ele>
        <time>2014-09-13T06:18:21Z</time>
      </trkpt>
      <trkpt lat="42.68134" lon="1.53238">
        <ele>1849</ele>
        <time>2014-09-13T06:18:47Z</time>
      </trkpt>
      <trkpt lat="42.68136" lon="1.53239">
        <ele>1849</ele>
        <time>2014-09-13T06:19:03Z</time>
      </trkpt>
      <trkpt lat="42.68133" lon="1.53237">
        <ele>1849</ele>
        <time>2014-09-13T06:19:23Z</time>
      </trkpt>
      <trkpt lat="42.68137" lon="1.5324">
        <ele>1849</ele>
        <time>2014-09-13T06:19:46Z</time>
      </trkpt>
      <trkpt lat="42.68136" lon="1.53241">
        <ele>1849</ele>
        <time>2014-09-13T06:20:10Z</time>
      </trkpt>
      <trkpt lat="42.68135" lon="1.53241">
        <ele>1849</ele>
        <time>2014-09-13T06:20:43Z</time>
      </trkpt>
      <trkpt lat="42.68137" lon="1.5324">
        <ele>1849</ele>
        <time>2014-09-13T06:21:01Z</time>
      </trkpt>
      <trkpt lat="42.68135" lon="1.53241">
        <ele>1848</ele>
        <time>2014-09-13T06:21:20Z</time>
      </trkpt>
      <trkpt lat="42.68133" lon="1.53243">
        <ele>1849</ele>
        <time>2014-09-13T06:21:29Z</time>
      </trkpt>
      <trkpt lat="42.68128" lon="1.53239">
        <ele>1848</ele>
        <time>2014-09-13T06:21:38Z</time>
      </trkpt>
      <trkpt lat="42.68126" lon="1.5324">
        <ele>1848</ele>
        <time>2014-09-13T06:21:39Z</time>
      </trkpt>
      <trkpt lat="42.68119" lon="1.53241">
        <ele>1849</ele>
        <time>2014-09-13T06:21:50Z</time>
      </trkpt>
      <trkpt lat="42.68111" lon="1.53242">
        <ele>1849</ele>
        <time>2014-09-13T06:22:01Z</time>
      </trkpt>
      <trkpt lat="42.68106" lon="1.53241">
        <ele>1850</ele>
        <time>2014-09-13T06:22:06Z</time>
      </trkpt>
      <trkpt lat="42.68096" lon="1.53243">
        <ele>1850</ele>
        <time>2014-09-13T06:22:15Z</time>
      </trkpt>
      <trkpt lat="42.68091" lon="1.53241">
        <ele>1850</ele>
        <time>2014-09-13T06:22:21Z</time>
      </trkpt>
      <trkpt lat="42.68081" lon="1.53247">
        <ele>1852</ele>
        <time>2014-09-13T06:22:35Z</time>
      </trkpt>
      <trkpt lat="42.68073" lon="1.5324">
        <ele>1851</ele>
        <time>2014-09-13T06:22:43Z</time>
      </trkpt>
      <trkpt lat="42.68064" lon="1.5324">
        <ele>1852</ele>
        <time>2014-09-13T06:22:52Z</time>
      </trkpt>
      <trkpt lat="42.68061" lon="1.53238">
        <ele>1852</ele>
        <time>2014-09-13T06:22:55Z</time>
      </trkpt>
      <trkpt lat="42.68053" lon="1.53234">
        <ele>1852</ele>
        <time>2014-09-13T06:23:07Z</time>
      </trkpt>
      <trkpt lat="42.6805" lon="1.53232">
        <ele>1852</ele>
        <time>2014-09-13T06:23:19Z</time>
      </trkpt>
      <trkpt lat="42.68047" lon="1.53228">
        <ele>1853</ele>
        <time>2014-09-13T06:23:23Z</time>
      </trkpt>
      <trkpt lat="42.68043" lon="1.5322">
        <ele>1852</ele>
        <time>2014-09-13T06:23:30Z</time>
      </trkpt>
      <trkpt lat="42.68031" lon="1.53217">
        <ele>1853</ele>
        <time>2014-09-13T06:23:44Z</time>
      </trkpt>
      <trkpt lat="42.68022" lon="1.53215">
        <ele>1853</ele>
        <time>2014-09-13T06:23:54Z</time>
      </trkpt>
      <trkpt lat="42.68019" lon="1.53215">
        <ele>1853</ele>
        <time>2014-09-13T06:23:57Z</time>
      </trkpt>
      <trkpt lat="42.68015" lon="1.53213">
        <ele>1854</ele>
        <time>2014-09-13T06:24:01Z</time>
      </trkpt>
      <trkpt lat="42.68008" lon="1.5321">
        <ele>1855</ele>
        <time>2014-09-13T06:24:09Z</time>
      </trkpt>
      <trkpt lat="42.67995" lon="1.53211">
        <ele>1856</ele>
        <time>2014-09-13T06:24:24Z</time>
      </trkpt>
      <trkpt lat="42.67983" lon="1.53205">
        <ele>1856</ele>
        <time>2014-09-13T06:24:36Z</time>
      </trkpt>
      <trkpt lat="42.67979" lon="1.53207">
        <ele>1856</ele>
        <time>2014-09-13T06:24:40Z</time>
      </trkpt>
      <trkpt lat="42.67975" lon="1.53206">
        <ele>1857</ele>
        <time>2014-09-13T06:24:45Z</time>
      </trkpt>
      <trkpt lat="42.67966" lon="1.53205">
        <ele>1859</ele>
        <time>2014-09-13T06:24:57Z</time>
      </trkpt>
      <trkpt lat="42.67956" lon="1.53206">
        <ele>1861</ele>
        <time>2014-09-13T06:25:12Z</time>
      </trkpt>
      <trkpt lat="42.67951" lon="1.53205">
        <ele>1861</ele>
        <time>2014-09-13T06:25:24Z</time>
      </trkpt>
      <trkpt lat="42.6795" lon="1.53203">
        <ele>1861</ele>
        <time>2014-09-13T06:25:27Z</time>
      </trkpt>
      <trkpt lat="42.67949" lon="1.53203">
        <ele>1861</ele>
        <time>2014-09-13T06:25:29Z</time>
      </trkpt>
      <trkpt lat="42.67947" lon="1.532">
        <ele>1862</ele>
        <time>2014-09-13T06:25:32Z</time>
      </trkpt>
      <trkpt lat="42.67941" lon="1.53188">
        <ele>1862</ele>
        <time>2014-09-13T06:25:45Z</time>
      </trkpt>
      <trkpt lat="42.6794" lon="1.53186">
        <ele>1861</ele>
        <time>2014-09-13T06:25:48Z</time>
      </trkpt>
      <trkpt lat="42.67936" lon="1.53181">
        <ele>1862</ele>
        <time>2014-09-13T06:25:55Z</time>
      </trkpt>
      <trkpt lat="42.67922" lon="1.5318">
        <ele>1864</ele>
        <time>2014-09-13T06:26:10Z</time>
      </trkpt>
      <trkpt lat="42.67915" lon="1.53179">
        <ele>1866</ele>
        <time>2014-09-13T06:26:21Z</time>
      </trkpt>
      <trkpt lat="42.67908" lon="1.53181">
        <ele>1868</ele>
        <time>2014-09-13T06:26:34Z</time>
      </trkpt>
      <trkpt lat="42.67901" lon="1.53178">
        <ele>1870</ele>
        <time>2014-09-13T06:26:48Z</time>
      </trkpt>
      <trkpt lat="42.67896" lon="1.53181">
        <ele>1873</ele>
        <time>2014-09-13T06:27:00Z</time>
      </trkpt>
      <trkpt lat="42.67888" lon="1.53189">
        <ele>1875</ele>
        <time>2014-09-13T06:27:15Z</time>
      </trkpt>
      <trkpt lat="42.6788" lon="1.53191">
        <ele>1878</ele>
        <time>2014-09-13T06:27:28Z</time>
      </trkpt>
      <trkpt lat="42.67873" lon="1.53193">
        <ele>1880</ele>
        <time>2014-09-13T06:27:41Z</time>
      </trkpt>
      <trkpt lat="42.67866" lon="1.53194">
        <ele>1883</ele>
        <time>2014-09-13T06:27:55Z</time>
      </trkpt>
      <trkpt lat="42.67862" lon="1.53192">
        <ele>1885</ele>
        <time>2014-09-13T06:28:05Z</time>
      </trkpt>
      <trkpt lat="42.67859" lon="1.53191">
        <ele>1887</ele>
        <time>2014-09-13T06:28:16Z</time>
      </trkpt>
      <trkpt lat="42.67858" lon="1.53196">
        <ele>1887</ele>
        <time>2014-09-13T06:28:35Z</time>
      </trkpt>
      <trkpt lat="42.67851" lon="1.53195">
        <ele>1891</ele>
        <time>2014-09-13T06:28:46Z</time>
      </trkpt>
      <trkpt lat="42.67844" lon="1.53192">
        <ele>1893</ele>
        <time>2014-09-13T06:28:57Z</time>
      </trkpt>
      <trkpt lat="42.67839" lon="1.53195">
        <ele>1895</ele>
        <time>2014-09-13T06:29:09Z</time>
      </trkpt>
      <trkpt lat="42.67832" lon="1.53199">
        <ele>1898</ele>
        <time>2014-09-13T06:29:21Z</time>
      </trkpt>
      <trkpt lat="42.67829" lon="1.53205">
        <ele>1900</ele>
        <time>2014-09-13T06:29:35Z</time>
      </trkpt>
      <trkpt lat="42.67825" lon="1.53208">
        <ele>1902</ele>
        <time>2014-09-13T06:29:47Z</time>
      </trkpt>
      <trkpt lat="42.67821" lon="1.5321">
        <ele>1903</ele>
        <time>2014-09-13T06:30:02Z</time>
      </trkpt>
      <trkpt lat="42.67821" lon="1.53212">
        <ele>1903</ele>
        <time>2014-09-13T06:30:04Z</time>
      </trkpt>
      <trkpt lat="42.67818" lon="1.53218">
        <ele>1904</ele>
        <time>2014-09-13T06:30:09Z</time>
      </trkpt>
      <trkpt lat="42.67811" lon="1.53224">
        <ele>1905</ele>
        <time>2014-09-13T06:30:22Z</time>
      </trkpt>
      <trkpt lat="42.67811" lon="1.53225">
        <ele>1906</ele>
        <time>2014-09-13T06:30:24Z</time>
      </trkpt>
      <trkpt lat="42.67803" lon="1.53228">
        <ele>1908</ele>
        <time>2014-09-13T06:30:38Z</time>
      </trkpt>
      <trkpt lat="42.67798" lon="1.53228">
        <ele>1909</ele>
        <time>2014-09-13T06:30:47Z</time>
      </trkpt>
      <trkpt lat="42.67788" lon="1.5323">
        <ele>1912</ele>
        <time>2014-09-13T06:31:03Z</time>
      </trkpt>
      <trkpt lat="42.67782" lon="1.53228">
        <ele>1912</ele>
        <time>2014-09-13T06:31:12Z</time>
      </trkpt>
      <trkpt lat="42.6777" lon="1.53228">
        <ele>1914</ele>
        <time>2014-09-13T06:31:26Z</time>
      </trkpt>
      <trkpt lat="42.67761" lon="1.5323">
        <ele>1916</ele>
        <time>2014-09-13T06:31:39Z</time>
      </trkpt>
      <trkpt lat="42.67757" lon="1.53225">
        <ele>1917</ele>
        <time>2014-09-13T06:31:46Z</time>
      </trkpt>
      <trkpt lat="42.67747" lon="1.53216">
        <ele>1918</ele>
        <time>2014-09-13T06:32:00Z</time>
      </trkpt>
      <trkpt lat="42.67736" lon="1.53207">
        <ele>1920</ele>
        <time>2014-09-13T06:32:15Z</time>
      </trkpt>
      <trkpt lat="42.67724" lon="1.53203">
        <ele>1921</ele>
        <time>2014-09-13T06:32:28Z</time>
      </trkpt>
      <trkpt lat="42.67712" lon="1.532">
        <ele>1921</ele>
        <time>2014-09-13T06:32:42Z</time>
      </trkpt>
      <trkpt lat="42.67709" lon="1.53198">
        <ele>1922</ele>
        <time>2014-09-13T06:32:45Z</time>
      </trkpt>
      <trkpt lat="42.67697" lon="1.5319">
        <ele>1922</ele>
        <time>2014-09-13T06:32:58Z</time>
      </trkpt>
      <trkpt lat="42.67688" lon="1.53183">
        <ele>1922</ele>
        <time>2014-09-13T06:33:07Z</time>
      </trkpt>
      <trkpt lat="42.67682" lon="1.53176">
        <ele>1922</ele>
        <time>2014-09-13T06:33:15Z</time>
      </trkpt>
      <trkpt lat="42.67681" lon="1.53174">
        <ele>1922</ele>
        <time>2014-09-13T06:33:17Z</time>
      </trkpt>
      <trkpt lat="42.67678" lon="1.53168">
        <ele>1923</ele>
        <time>2014-09-13T06:33:23Z</time>
      </trkpt>
      <trkpt lat="42.67669" lon="1.5316">
        <ele>1924</ele>
        <time>2014-09-13T06:33:37Z</time>
      </trkpt>
      <trkpt lat="42.67664" lon="1.53156">
        <ele>1925</ele>
        <time>2014-09-13T06:33:44Z</time>
      </trkpt>
      <trkpt lat="42.67653" lon="1.53151">
        <ele>1927</ele>
        <time>2014-09-13T06:33:59Z</time>
      </trkpt>
      <trkpt lat="42.67652" lon="1.53151">
        <ele>1927</ele>
        <time>2014-09-13T06:34:00Z</time>
      </trkpt>
      <trkpt lat="42.67639" lon="1.53145">
        <ele>1928</ele>
        <time>2014-09-13T06:34:16Z</time>
      </trkpt>
      <trkpt lat="42.67637" lon="1.53145">
        <ele>1929</ele>
        <time>2014-09-13T06:34:18Z</time>
      </trkpt>
      <trkpt lat="42.67632" lon="1.53139">
        <ele>1929</ele>
        <time>2014-09-13T06:34:24Z</time>
      </trkpt>
      <trkpt lat="42.67631" lon="1.53138">
        <ele>1929</ele>
        <time>2014-09-13T06:34:26Z</time>
      </trkpt>
      <trkpt lat="42.67622" lon="1.53135">
        <ele>1931</ele>
        <time>2014-09-13T06:34:38Z</time>
      </trkpt>
      <trkpt lat="42.67611" lon="1.53132">
        <ele>1933</ele>
        <time>2014-09-13T06:34:53Z</time>
      </trkpt>
      <trkpt lat="42.67607" lon="1.53128">
        <ele>1934</ele>
        <time>2014-09-13T06:35:00Z</time>
      </trkpt>
      <trkpt lat="42.67602" lon="1.53123">
        <ele>1934</ele>
        <time>2014-09-13T06:35:07Z</time>
      </trkpt>
      <trkpt lat="42.67595" lon="1.53123">
        <ele>1935</ele>
        <time>2014-09-13T06:35:16Z</time>
      </trkpt>
      <trkpt lat="42.67591" lon="1.53122">
        <ele>1935</ele>
        <time>2014-09-13T06:35:22Z</time>
      </trkpt>
      <trkpt lat="42.6759" lon="1.5312">
        <ele>1935</ele>
        <time>2014-09-13T06:35:24Z</time>
      </trkpt>
      <trkpt lat="42.67584" lon="1.53115">
        <ele>1935</ele>
        <time>2014-09-13T06:35:31Z</time>
      </trkpt>
      <trkpt lat="42.67581" lon="1.53107">
        <ele>1936</ele>
        <time>2014-09-13T06:35:37Z</time>
      </trkpt>
      <trkpt lat="42.67572" lon="1.531">
        <ele>1937</ele>
        <time>2014-09-13T06:35:49Z</time>
      </trkpt>
      <trkpt lat="42.67566" lon="1.53097">
        <ele>1938</ele>
        <time>2014-09-13T06:35:58Z</time>
      </trkpt>
      <trkpt lat="42.67562" lon="1.53095">
        <ele>1938</ele>
        <time>2014-09-13T06:36:03Z</time>
      </trkpt>
      <trkpt lat="42.67553" lon="1.53089">
        <ele>1939</ele>
        <time>2014-09-13T06:36:16Z</time>
      </trkpt>
      <trkpt lat="42.67552" lon="1.53088">
        <ele>1940</ele>
        <time>2014-09-13T06:36:18Z</time>
      </trkpt>
      <trkpt lat="42.67545" lon="1.53087">
        <ele>1942</ele>
        <time>2014-09-13T06:36:31Z</time>
      </trkpt>
      <trkpt lat="42.67537" lon="1.53085">
        <ele>1943</ele>
        <time>2014-09-13T06:36:44Z</time>
      </trkpt>
      <trkpt lat="42.67532" lon="1.53082">
        <ele>1944</ele>
        <time>2014-09-13T06:36:52Z</time>
      </trkpt>
      <trkpt lat="42.67529" lon="1.53076">
        <ele>1944</ele>
        <time>2014-09-13T06:36:58Z</time>
      </trkpt>
      <trkpt lat="42.67522" lon="1.53066">
        <ele>1945</ele>
        <time>2014-09-13T06:37:09Z</time>
      </trkpt>
      <trkpt lat="42.67515" lon="1.53061">
        <ele>1946</ele>
        <time>2014-09-13T06:37:21Z</time>
      </trkpt>
      <trkpt lat="42.67506" lon="1.53056">
        <ele>1946</ele>
        <time>2014-09-13T06:37:33Z</time>
      </trkpt>
      <trkpt lat="42.67495" lon="1.53055">
        <ele>1944</ele>
        <time>2014-09-13T06:37:45Z</time>
      </trkpt>
      <trkpt lat="42.67483" lon="1.53049">
        <ele>1944</ele>
        <time>2014-09-13T06:37:59Z</time>
      </trkpt>
      <trkpt lat="42.6748" lon="1.5305">
        <ele>1944</ele>
        <time>2014-09-13T06:38:03Z</time>
      </trkpt>
      <trkpt lat="42.67474" lon="1.53045">
        <ele>1943</ele>
        <time>2014-09-13T06:38:08Z</time>
      </trkpt>
      <trkpt lat="42.67462" lon="1.53037">
        <ele>1942</ele>
        <time>2014-09-13T06:38:20Z</time>
      </trkpt>
      <trkpt lat="42.67449" lon="1.53033">
        <ele>1941</ele>
        <time>2014-09-13T06:38:33Z</time>
      </trkpt>
      <trkpt lat="42.6744" lon="1.53035">
        <ele>1942</ele>
        <time>2014-09-13T06:38:42Z</time>
      </trkpt>
      <trkpt lat="42.67427" lon="1.53032">
        <ele>1940</ele>
        <time>2014-09-13T06:38:56Z</time>
      </trkpt>
      <trkpt lat="42.6742" lon="1.53029">
        <ele>1940</ele>
        <time>2014-09-13T06:39:03Z</time>
      </trkpt>
      <trkpt lat="42.67409" lon="1.53026">
        <ele>1941</ele>
        <time>2014-09-13T06:39:18Z</time>
      </trkpt>
      <trkpt lat="42.67403" lon="1.53024">
        <ele>1941</ele>
        <time>2014-09-13T06:39:29Z</time>
      </trkpt>
      <trkpt lat="42.67394" lon="1.53013">
        <ele>1941</ele>
        <time>2014-09-13T06:39:42Z</time>
      </trkpt>
      <trkpt lat="42.67384" lon="1.5301">
        <ele>1942</ele>
        <time>2014-09-13T06:39:53Z</time>
      </trkpt>
      <trkpt lat="42.67373" lon="1.53006">
        <ele>1942</ele>
        <time>2014-09-13T06:40:03Z</time>
      </trkpt>
      <trkpt lat="42.67363" lon="1.53008">
        <ele>1943</ele>
        <time>2014-09-13T06:40:15Z</time>
      </trkpt>
      <trkpt lat="42.67354" lon="1.53015">
        <ele>1944</ele>
        <time>2014-09-13T06:40:29Z</time>
      </trkpt>
      <trkpt lat="42.67344" lon="1.53007">
        <ele>1947</ele>
        <time>2014-09-13T06:40:43Z</time>
      </trkpt>
      <trkpt lat="42.67337" lon="1.53005">
        <ele>1949</ele>
        <time>2014-09-13T06:40:57Z</time>
      </trkpt>
      <trkpt lat="42.67328" lon="1.53009">
        <ele>1952</ele>
        <time>2014-09-13T06:41:12Z</time>
      </trkpt>
      <trkpt lat="42.67321" lon="1.53004">
        <ele>1954</ele>
        <time>2014-09-13T06:41:25Z</time>
      </trkpt>
      <trkpt lat="42.6732" lon="1.53006">
        <ele>1954</ele>
        <time>2014-09-13T06:41:30Z</time>
      </trkpt>
      <trkpt lat="42.67314" lon="1.53004">
        <ele>1957</ele>
        <time>2014-09-13T06:41:46Z</time>
      </trkpt>
      <trkpt lat="42.67308" lon="1.53005">
        <ele>1959</ele>
        <time>2014-09-13T06:42:00Z</time>
      </trkpt>
      <trkpt lat="42.67307" lon="1.53005">
        <ele>1959</ele>
        <time>2014-09-13T06:42:01Z</time>
      </trkpt>
      <trkpt lat="42.67301" lon="1.52999">
        <ele>1962</ele>
        <time>2014-09-13T06:42:12Z</time>
      </trkpt>
      <trkpt lat="42.67293" lon="1.52997">
        <ele>1963</ele>
        <time>2014-09-13T06:42:27Z</time>
      </trkpt>
      <trkpt lat="42.67286" lon="1.52992">
        <ele>1963</ele>
        <time>2014-09-13T06:42:40Z</time>
      </trkpt>
      <trkpt lat="42.6728" lon="1.52982">
        <ele>1963</ele>
        <time>2014-09-13T06:42:52Z</time>
      </trkpt>
      <trkpt lat="42.67279" lon="1.52981">
        <ele>1962</ele>
        <time>2014-09-13T06:42:53Z</time>
      </trkpt>
      <trkpt lat="42.67268" lon="1.52976">
        <ele>1962</ele>
        <time>2014-09-13T06:43:06Z</time>
      </trkpt>
      <trkpt lat="42.67264" lon="1.52974">
        <ele>1962</ele>
        <time>2014-09-13T06:43:10Z</time>
      </trkpt>
      <trkpt lat="42.67256" lon="1.52964">
        <ele>1963</ele>
        <time>2014-09-13T06:43:20Z</time>
      </trkpt>
      <trkpt lat="42.67252" lon="1.52962">
        <ele>1963</ele>
        <time>2014-09-13T06:43:25Z</time>
      </trkpt>
      <trkpt lat="42.67243" lon="1.5296">
        <ele>1962</ele>
        <time>2014-09-13T06:43:34Z</time>
      </trkpt>
      <trkpt lat="42.67239" lon="1.5296">
        <ele>1962</ele>
        <time>2014-09-13T06:43:38Z</time>
      </trkpt>
      <trkpt lat="42.67225" lon="1.52952">
        <ele>1961</ele>
        <time>2014-09-13T06:43:51Z</time>
      </trkpt>
      <trkpt lat="42.67221" lon="1.52949">
        <ele>1960</ele>
        <time>2014-09-13T06:43:54Z</time>
      </trkpt>
      <trkpt lat="42.67215" lon="1.52942">
        <ele>1960</ele>
        <time>2014-09-13T06:44:02Z</time>
      </trkpt>
      <trkpt lat="42.67213" lon="1.52941">
        <ele>1961</ele>
        <time>2014-09-13T06:44:04Z</time>
      </trkpt>
      <trkpt lat="42.67209" lon="1.52937">
        <ele>1961</ele>
        <time>2014-09-13T06:44:09Z</time>
      </trkpt>
      <trkpt lat="42.67204" lon="1.52931">
        <ele>1961</ele>
        <time>2014-09-13T06:44:14Z</time>
      </trkpt>
      <trkpt lat="42.67199" lon="1.52926">
        <ele>1961</ele>
        <time>2014-09-13T06:44:20Z</time>
      </trkpt>
      <trkpt lat="42.67193" lon="1.5292">
        <ele>1961</ele>
        <time>2014-09-13T06:44:27Z</time>
      </trkpt>
      <trkpt lat="42.6719" lon="1.52918">
        <ele>1962</ele>
        <time>2014-09-13T06:44:32Z</time>
      </trkpt>
      <trkpt lat="42.67176" lon="1.52914">
        <ele>1962</ele>
        <time>2014-09-13T06:44:47Z</time>
      </trkpt>
      <trkpt lat="42.67174" lon="1.52913">
        <ele>1961</ele>
        <time>2014-09-13T06:44:50Z</time>
      </trkpt>
      <trkpt lat="42.67163" lon="1.52912">
        <ele>1962</ele>
        <time>2014-09-13T06:45:02Z</time>
      </trkpt>
      <trkpt lat="42.67161" lon="1.52911">
        <ele>1963</ele>
        <time>2014-09-13T06:45:04Z</time>
      </trkpt>
      <trkpt lat="42.67151" lon="1.52906">
        <ele>1964</ele>
        <time>2014-09-13T06:45:16Z</time>
      </trkpt>
      <trkpt lat="42.6714" lon="1.52901">
        <ele>1963</ele>
        <time>2014-09-13T06:45:28Z</time>
      </trkpt>
      <trkpt lat="42.67129" lon="1.52903">
        <ele>1966</ele>
        <time>2014-09-13T06:45:42Z</time>
      </trkpt>
      <trkpt lat="42.6712" lon="1.52908">
        <ele>1967</ele>
        <time>2014-09-13T06:45:56Z</time>
      </trkpt>
      <trkpt lat="42.67112" lon="1.5291">
        <ele>1969</ele>
        <time>2014-09-13T06:46:10Z</time>
      </trkpt>
      <trkpt lat="42.67106" lon="1.52911">
        <ele>1971</ele>
        <time>2014-09-13T06:46:21Z</time>
      </trkpt>
      <trkpt lat="42.67097" lon="1.52906">
        <ele>1972</ele>
        <time>2014-09-13T06:46:34Z</time>
      </trkpt>
      <trkpt lat="42.67095" lon="1.52904">
        <ele>1973</ele>
        <time>2014-09-13T06:46:37Z</time>
      </trkpt>
      <trkpt lat="42.67086" lon="1.52899">
        <ele>1975</ele>
        <time>2014-09-13T06:46:52Z</time>
      </trkpt>
      <trkpt lat="42.67083" lon="1.52898">
        <ele>1976</ele>
        <time>2014-09-13T06:46:57Z</time>
      </trkpt>
      <trkpt lat="42.67075" lon="1.52895">
        <ele>1978</ele>
        <time>2014-09-13T06:47:11Z</time>
      </trkpt>
      <trkpt lat="42.67073" lon="1.52893">
        <ele>1979</ele>
        <time>2014-09-13T06:47:16Z</time>
      </trkpt>
      <trkpt lat="42.67066" lon="1.52894">
        <ele>1981</ele>
        <time>2014-09-13T06:47:30Z</time>
      </trkpt>
      <trkpt lat="42.67059" lon="1.52895">
        <ele>1983</ele>
        <time>2014-09-13T06:47:44Z</time>
      </trkpt>
      <trkpt lat="42.67048" lon="1.52884">
        <ele>1984</ele>
        <time>2014-09-13T06:48:01Z</time>
      </trkpt>
      <trkpt lat="42.67046" lon="1.52881">
        <ele>1985</ele>
        <time>2014-09-13T06:48:04Z</time>
      </trkpt>
      <trkpt lat="42.67039" lon="1.52876">
        <ele>1984</ele>
        <time>2014-09-13T06:48:12Z</time>
      </trkpt>
      <trkpt lat="42.67026" lon="1.52874">
        <ele>1985</ele>
        <time>2014-09-13T06:48:25Z</time>
      </trkpt>
      <trkpt lat="42.67022" lon="1.52873">
        <ele>1985</ele>
        <time>2014-09-13T06:48:30Z</time>
      </trkpt>
      <trkpt lat="42.67011" lon="1.52866">
        <ele>1985</ele>
        <time>2014-09-13T06:48:42Z</time>
      </trkpt>
      <trkpt lat="42.67008" lon="1.52863">
        <ele>1986</ele>
        <time>2014-09-13T06:48:46Z</time>
      </trkpt>
      <trkpt lat="42.66997" lon="1.52855">
        <ele>1988</ele>
        <time>2014-09-13T06:49:01Z</time>
      </trkpt>
      <trkpt lat="42.66985" lon="1.52853">
        <ele>1988</ele>
        <time>2014-09-13T06:49:14Z</time>
      </trkpt>
      <trkpt lat="42.66973" lon="1.5285">
        <ele>1988</ele>
        <time>2014-09-13T06:49:28Z</time>
      </trkpt>
      <trkpt lat="42.66961" lon="1.52842">
        <ele>1990</ele>
        <time>2014-09-13T06:49:43Z</time>
      </trkpt>
      <trkpt lat="42.66953" lon="1.52832">
        <ele>1991</ele>
        <time>2014-09-13T06:49:56Z</time>
      </trkpt>
      <trkpt lat="42.66942" lon="1.52823">
        <ele>1993</ele>
        <time>2014-09-13T06:50:11Z</time>
      </trkpt>
      <trkpt lat="42.66933" lon="1.52813">
        <ele>1994</ele>
        <time>2014-09-13T06:50:24Z</time>
      </trkpt>
      <trkpt lat="42.66932" lon="1.52811">
        <ele>1994</ele>
        <time>2014-09-13T06:50:26Z</time>
      </trkpt>
      <trkpt lat="42.66925" lon="1.52805">
        <ele>1996</ele>
        <time>2014-09-13T06:50:35Z</time>
      </trkpt>
      <trkpt lat="42.66917" lon="1.52794">
        <ele>1996</ele>
        <time>2014-09-13T06:50:49Z</time>
      </trkpt>
      <trkpt lat="42.66912" lon="1.52788">
        <ele>1997</ele>
        <time>2014-09-13T06:50:57Z</time>
      </trkpt>
      <trkpt lat="42.66903" lon="1.5278">
        <ele>1998</ele>
        <time>2014-09-13T06:51:10Z</time>
      </trkpt>
      <trkpt lat="42.66902" lon="1.52777">
        <ele>1998</ele>
        <time>2014-09-13T06:51:12Z</time>
      </trkpt>
      <trkpt lat="42.66892" lon="1.52767">
        <ele>1999</ele>
        <time>2014-09-13T06:51:25Z</time>
      </trkpt>
      <trkpt lat="42.66879" lon="1.52765">
        <ele>2000</ele>
        <time>2014-09-13T06:51:40Z</time>
      </trkpt>
      <trkpt lat="42.66878" lon="1.52766">
        <ele>2000</ele>
        <time>2014-09-13T06:51:41Z</time>
      </trkpt>
      <trkpt lat="42.66864" lon="1.52767">
        <ele>2000</ele>
        <time>2014-09-13T06:51:55Z</time>
      </trkpt>
      <trkpt lat="42.66856" lon="1.52769">
        <ele>2000</ele>
        <time>2014-09-13T06:52:03Z</time>
      </trkpt>
      <trkpt lat="42.66854" lon="1.5277">
        <ele>2000</ele>
        <time>2014-09-13T06:52:05Z</time>
      </trkpt>
      <trkpt lat="42.66841" lon="1.52767">
        <ele>2002</ele>
        <time>2014-09-13T06:52:20Z</time>
      </trkpt>
      <trkpt lat="42.6683" lon="1.52763">
        <ele>2003</ele>
        <time>2014-09-13T06:52:33Z</time>
      </trkpt>
      <trkpt lat="42.6682" lon="1.52762">
        <ele>2004</ele>
        <time>2014-09-13T06:52:46Z</time>
      </trkpt>
      <trkpt lat="42.6681" lon="1.52755">
        <ele>2005</ele>
        <time>2014-09-13T06:53:00Z</time>
      </trkpt>
      <trkpt lat="42.66802" lon="1.52751">
        <ele>2007</ele>
        <time>2014-09-13T06:53:14Z</time>
      </trkpt>
      <trkpt lat="42.66796" lon="1.52752">
        <ele>2009</ele>
        <time>2014-09-13T06:53:26Z</time>
      </trkpt>
      <trkpt lat="42.66787" lon="1.52747">
        <ele>2012</ele>
        <time>2014-09-13T06:53:42Z</time>
      </trkpt>
      <trkpt lat="42.66786" lon="1.52744">
        <ele>2013</ele>
        <time>2014-09-13T06:53:46Z</time>
      </trkpt>
      <trkpt lat="42.66779" lon="1.52738">
        <ele>2015</ele>
        <time>2014-09-13T06:54:00Z</time>
      </trkpt>
      <trkpt lat="42.66771" lon="1.5273">
        <ele>2017</ele>
        <time>2014-09-13T06:54:15Z</time>
      </trkpt>
      <trkpt lat="42.66764" lon="1.52719">
        <ele>2018</ele>
        <time>2014-09-13T06:54:30Z</time>
      </trkpt>
      <trkpt lat="42.66758" lon="1.52712">
        <ele>2018</ele>
        <time>2014-09-13T06:54:41Z</time>
      </trkpt>
      <trkpt lat="42.66752" lon="1.52705">
        <ele>2019</ele>
        <time>2014-09-13T06:54:51Z</time>
      </trkpt>
      <trkpt lat="42.66743" lon="1.52693">
        <ele>2018</ele>
        <time>2014-09-13T06:55:05Z</time>
      </trkpt>
      <trkpt lat="42.66735" lon="1.52687">
        <ele>2018</ele>
        <time>2014-09-13T06:55:16Z</time>
      </trkpt>
      <trkpt lat="42.66728" lon="1.52682">
        <ele>2018</ele>
        <time>2014-09-13T06:55:23Z</time>
      </trkpt>
      <trkpt lat="42.66722" lon="1.52678">
        <ele>2017</ele>
        <time>2014-09-13T06:55:30Z</time>
      </trkpt>
      <trkpt lat="42.66716" lon="1.52676">
        <ele>2018</ele>
        <time>2014-09-13T06:55:37Z</time>
      </trkpt>
      <trkpt lat="42.66707" lon="1.52677">
        <ele>2020</ele>
        <time>2014-09-13T06:55:51Z</time>
      </trkpt>
      <trkpt lat="42.66704" lon="1.52679">
        <ele>2020</ele>
        <time>2014-09-13T06:56:00Z</time>
      </trkpt>
      <trkpt lat="42.66701" lon="1.52678">
        <ele>2021</ele>
        <time>2014-09-13T06:56:04Z</time>
      </trkpt>
      <trkpt lat="42.66691" lon="1.52674">
        <ele>2024</ele>
        <time>2014-09-13T06:56:17Z</time>
      </trkpt>
      <trkpt lat="42.66683" lon="1.52672">
        <ele>2024</ele>
        <time>2014-09-13T06:56:30Z</time>
      </trkpt>
      <trkpt lat="42.66678" lon="1.5267">
        <ele>2025</ele>
        <time>2014-09-13T06:56:36Z</time>
      </trkpt>
      <trkpt lat="42.66668" lon="1.52658">
        <ele>2025</ele>
        <time>2014-09-13T06:56:50Z</time>
      </trkpt>
      <trkpt lat="42.66659" lon="1.52651">
        <ele>2023</ele>
        <time>2014-09-13T06:57:02Z</time>
      </trkpt>
      <trkpt lat="42.66657" lon="1.52647">
        <ele>2022</ele>
        <time>2014-09-13T06:57:07Z</time>
      </trkpt>
      <trkpt lat="42.66649" lon="1.5264">
        <ele>2021</ele>
        <time>2014-09-13T06:57:19Z</time>
      </trkpt>
      <trkpt lat="42.66646" lon="1.52636">
        <ele>2019</ele>
        <time>2014-09-13T06:57:25Z</time>
      </trkpt>
      <trkpt lat="42.66639" lon="1.52627">
        <ele>2018</ele>
        <time>2014-09-13T06:57:38Z</time>
      </trkpt>
      <trkpt lat="42.66628" lon="1.52617">
        <ele>2016</ele>
        <time>2014-09-13T06:57:50Z</time>
      </trkpt>
      <trkpt lat="42.66616" lon="1.52609">
        <ele>2016</ele>
        <time>2014-09-13T06:58:03Z</time>
      </trkpt>
      <trkpt lat="42.66612" lon="1.52605">
        <ele>2016</ele>
        <time>2014-09-13T06:58:09Z</time>
      </trkpt>
      <trkpt lat="42.66602" lon="1.52596">
        <ele>2017</ele>
        <time>2014-09-13T06:58:22Z</time>
      </trkpt>
      <trkpt lat="42.66594" lon="1.5259">
        <ele>2019</ele>
        <time>2014-09-13T06:58:35Z</time>
      </trkpt>
      <trkpt lat="42.66585" lon="1.52586">
        <ele>2019</ele>
        <time>2014-09-13T06:58:48Z</time>
      </trkpt>
      <trkpt lat="42.66582" lon="1.52585">
        <ele>2020</ele>
        <time>2014-09-13T06:58:51Z</time>
      </trkpt>
      <trkpt lat="42.6657" lon="1.52583">
        <ele>2020</ele>
        <time>2014-09-13T06:59:04Z</time>
      </trkpt>
      <trkpt lat="42.6656" lon="1.52579">
        <ele>2018</ele>
        <time>2014-09-13T06:59:16Z</time>
      </trkpt>
      <trkpt lat="42.66548" lon="1.52569">
        <ele>2019</ele>
        <time>2014-09-13T06:59:31Z</time>
      </trkpt>
      <trkpt lat="42.66541" lon="1.52568">
        <ele>2020</ele>
        <time>2014-09-13T06:59:43Z</time>
      </trkpt>
      <trkpt lat="42.66532" lon="1.52563">
        <ele>2022</ele>
        <time>2014-09-13T06:59:57Z</time>
      </trkpt>
      <trkpt lat="42.66527" lon="1.5256">
        <ele>2022</ele>
        <time>2014-09-13T07:00:04Z</time>
      </trkpt>
      <trkpt lat="42.66523" lon="1.52555">
        <ele>2023</ele>
        <time>2014-09-13T07:00:12Z</time>
      </trkpt>
      <trkpt lat="42.66519" lon="1.52549">
        <ele>2023</ele>
        <time>2014-09-13T07:00:23Z</time>
      </trkpt>
      <trkpt lat="42.66513" lon="1.52537">
        <ele>2023</ele>
        <time>2014-09-13T07:00:36Z</time>
      </trkpt>
      <trkpt lat="42.66504" lon="1.52533">
        <ele>2025</ele>
        <time>2014-09-13T07:00:48Z</time>
      </trkpt>
      <trkpt lat="42.66491" lon="1.52528">
        <ele>2027</ele>
        <time>2014-09-13T07:01:05Z</time>
      </trkpt>
      <trkpt lat="42.66483" lon="1.5253">
        <ele>2028</ele>
        <time>2014-09-13T07:01:17Z</time>
      </trkpt>
      <trkpt lat="42.66474" lon="1.52528">
        <ele>2029</ele>
        <time>2014-09-13T07:01:30Z</time>
      </trkpt>
      <trkpt lat="42.66468" lon="1.52527">
        <ele>2030</ele>
        <time>2014-09-13T07:01:38Z</time>
      </trkpt>
      <trkpt lat="42.66456" lon="1.52522">
        <ele>2030</ele>
        <time>2014-09-13T07:01:53Z</time>
      </trkpt>
      <trkpt lat="42.66452" lon="1.52523">
        <ele>2031</ele>
        <time>2014-09-13T07:02:01Z</time>
      </trkpt>
      <trkpt lat="42.6645" lon="1.52524">
        <ele>2031</ele>
        <time>2014-09-13T07:02:03Z</time>
      </trkpt>
      <trkpt lat="42.66436" lon="1.52524">
        <ele>2030</ele>
        <time>2014-09-13T07:02:19Z</time>
      </trkpt>
      <trkpt lat="42.66426" lon="1.52529">
        <ele>2030</ele>
        <time>2014-09-13T07:02:32Z</time>
      </trkpt>
      <trkpt lat="42.66418" lon="1.52528">
        <ele>2030</ele>
        <time>2014-09-13T07:02:43Z</time>
      </trkpt>
      <trkpt lat="42.66414" lon="1.52527">
        <ele>2030</ele>
        <time>2014-09-13T07:02:48Z</time>
      </trkpt>
      <trkpt lat="42.66402" lon="1.5252">
        <ele>2031</ele>
        <time>2014-09-13T07:03:03Z</time>
      </trkpt>
      <trkpt lat="42.6639" lon="1.52514">
        <ele>2031</ele>
        <time>2014-09-13T07:03:16Z</time>
      </trkpt>
      <trkpt lat="42.66384" lon="1.52511">
        <ele>2030</ele>
        <time>2014-09-13T07:03:25Z</time>
      </trkpt>
      <trkpt lat="42.66378" lon="1.525">
        <ele>2030</ele>
        <time>2014-09-13T07:03:36Z</time>
      </trkpt>
      <trkpt lat="42.66378" lon="1.52499">
        <ele>2030</ele>
        <time>2014-09-13T07:03:37Z</time>
      </trkpt>
      <trkpt lat="42.66373" lon="1.52499">
        <ele>2032</ele>
        <time>2014-09-13T07:03:47Z</time>
      </trkpt>
      <trkpt lat="42.66363" lon="1.52499">
        <ele>2033</ele>
        <time>2014-09-13T07:04:01Z</time>
      </trkpt>
      <trkpt lat="42.66361" lon="1.52498">
        <ele>2033</ele>
        <time>2014-09-13T07:04:04Z</time>
      </trkpt>
      <trkpt lat="42.66355" lon="1.52496">
        <ele>2033</ele>
        <time>2014-09-13T07:04:16Z</time>
      </trkpt>
      <trkpt lat="42.66354" lon="1.52495">
        <ele>2034</ele>
        <time>2014-09-13T07:04:32Z</time>
      </trkpt>
      <trkpt lat="42.66347" lon="1.52496">
        <ele>2036</ele>
        <time>2014-09-13T07:04:43Z</time>
      </trkpt>
      <trkpt lat="42.66339" lon="1.52495">
        <ele>2036</ele>
        <time>2014-09-13T07:04:57Z</time>
      </trkpt>
      <trkpt lat="42.66336" lon="1.52492">
        <ele>2037</ele>
        <time>2014-09-13T07:05:05Z</time>
      </trkpt>
      <trkpt lat="42.66334" lon="1.52491">
        <ele>2038</ele>
        <time>2014-09-13T07:05:07Z</time>
      </trkpt>
      <trkpt lat="42.66329" lon="1.52486">
        <ele>2039</ele>
        <time>2014-09-13T07:05:19Z</time>
      </trkpt>
      <trkpt lat="42.66326" lon="1.52487">
        <ele>2040</ele>
        <time>2014-09-13T07:05:32Z</time>
      </trkpt>
      <trkpt lat="42.66322" lon="1.52487">
        <ele>2039</ele>
        <time>2014-09-13T07:05:46Z</time>
      </trkpt>
      <trkpt lat="42.66317" lon="1.52478">
        <ele>2040</ele>
        <time>2014-09-13T07:05:59Z</time>
      </trkpt>
      <trkpt lat="42.66314" lon="1.52472">
        <ele>2041</ele>
        <time>2014-09-13T07:06:11Z</time>
      </trkpt>
      <trkpt lat="42.6631" lon="1.5247">
        <ele>2041</ele>
        <time>2014-09-13T07:06:24Z</time>
      </trkpt>
      <trkpt lat="42.66311" lon="1.52474">
        <ele>2041</ele>
        <time>2014-09-13T07:06:38Z</time>
      </trkpt>
      <trkpt lat="42.6631" lon="1.52475">
        <ele>2041</ele>
        <time>2014-09-13T07:06:49Z</time>
      </trkpt>
      <trkpt lat="42.66309" lon="1.52474">
        <ele>2041</ele>
        <time>2014-09-13T07:07:04Z</time>
      </trkpt>
      <trkpt lat="42.66308" lon="1.52471">
        <ele>2041</ele>
        <time>2014-09-13T07:07:22Z</time>
      </trkpt>
      <trkpt lat="42.66306" lon="1.52468">
        <ele>2041</ele>
        <time>2014-09-13T07:07:29Z</time>
      </trkpt>
      <trkpt lat="42.66306" lon="1.52467">
        <ele>2041</ele>
        <time>2014-09-13T07:07:31Z</time>
      </trkpt>
      <trkpt lat="42.66301" lon="1.52464">
        <ele>2043</ele>
        <time>2014-09-13T07:07:43Z</time>
      </trkpt>
      <trkpt lat="42.66296" lon="1.52463">
        <ele>2044</ele>
        <time>2014-09-13T07:07:55Z</time>
      </trkpt>
      <trkpt lat="42.66289" lon="1.5246">
        <ele>2046</ele>
        <time>2014-09-13T07:08:08Z</time>
      </trkpt>
      <trkpt lat="42.66287" lon="1.52459">
        <ele>2046</ele>
        <time>2014-09-13T07:08:11Z</time>
      </trkpt>
      <trkpt lat="42.66277" lon="1.52457">
        <ele>2047</ele>
        <time>2014-09-13T07:08:25Z</time>
      </trkpt>
      <trkpt lat="42.6627" lon="1.52451">
        <ele>2049</ele>
        <time>2014-09-13T07:08:41Z</time>
      </trkpt>
      <trkpt lat="42.66264" lon="1.52448">
        <ele>2050</ele>
        <time>2014-09-13T07:08:52Z</time>
      </trkpt>
      <trkpt lat="42.6626" lon="1.52445">
        <ele>2052</ele>
        <time>2014-09-13T07:09:03Z</time>
      </trkpt>
      <trkpt lat="42.66256" lon="1.52442">
        <ele>2053</ele>
        <time>2014-09-13T07:09:10Z</time>
      </trkpt>
      <trkpt lat="42.66249" lon="1.52436">
        <ele>2054</ele>
        <time>2014-09-13T07:09:24Z</time>
      </trkpt>
      <trkpt lat="42.66247" lon="1.52435">
        <ele>2054</ele>
        <time>2014-09-13T07:09:28Z</time>
      </trkpt>
      <trkpt lat="42.66244" lon="1.52434">
        <ele>2054</ele>
        <time>2014-09-13T07:09:32Z</time>
      </trkpt>
      <trkpt lat="42.66236" lon="1.52428">
        <ele>2055</ele>
        <time>2014-09-13T07:09:46Z</time>
      </trkpt>
      <trkpt lat="42.66231" lon="1.52427">
        <ele>2055</ele>
        <time>2014-09-13T07:10:00Z</time>
      </trkpt>
      <trkpt lat="42.66227" lon="1.52423">
        <ele>2056</ele>
        <time>2014-09-13T07:10:09Z</time>
      </trkpt>
      <trkpt lat="42.66224" lon="1.52414">
        <ele>2057</ele>
        <time>2014-09-13T07:10:19Z</time>
      </trkpt>
      <trkpt lat="42.6622" lon="1.52411">
        <ele>2058</ele>
        <time>2014-09-13T07:10:28Z</time>
      </trkpt>
      <trkpt lat="42.66211" lon="1.52405">
        <ele>2059</ele>
        <time>2014-09-13T07:10:42Z</time>
      </trkpt>
      <trkpt lat="42.66202" lon="1.52399">
        <ele>2059</ele>
        <time>2014-09-13T07:10:57Z</time>
      </trkpt>
      <trkpt lat="42.66199" lon="1.52398">
        <ele>2060</ele>
        <time>2014-09-13T07:11:01Z</time>
      </trkpt>
      <trkpt lat="42.66186" lon="1.52391">
        <ele>2061</ele>
        <time>2014-09-13T07:11:16Z</time>
      </trkpt>
      <trkpt lat="42.66174" lon="1.52384">
        <ele>2061</ele>
        <time>2014-09-13T07:11:28Z</time>
      </trkpt>
      <trkpt lat="42.66163" lon="1.5238">
        <ele>2061</ele>
        <time>2014-09-13T07:11:44Z</time>
      </trkpt>
      <trkpt lat="42.66158" lon="1.52381">
        <ele>2064</ele>
        <time>2014-09-13T07:11:56Z</time>
      </trkpt>
      <trkpt lat="42.66151" lon="1.52379">
        <ele>2065</ele>
        <time>2014-09-13T07:12:07Z</time>
      </trkpt>
      <trkpt lat="42.66148" lon="1.52379">
        <ele>2066</ele>
        <time>2014-09-13T07:12:11Z</time>
      </trkpt>
      <trkpt lat="42.66143" lon="1.52381">
        <ele>2065</ele>
        <time>2014-09-13T07:12:16Z</time>
      </trkpt>
      <trkpt lat="42.6614" lon="1.52379">
        <ele>2066</ele>
        <time>2014-09-13T07:12:20Z</time>
      </trkpt>
      <trkpt lat="42.66133" lon="1.52372">
        <ele>2065</ele>
        <time>2014-09-13T07:12:32Z</time>
      </trkpt>
      <trkpt lat="42.66132" lon="1.52373">
        <ele>2065</ele>
        <time>2014-09-13T07:12:33Z</time>
      </trkpt>
      <trkpt lat="42.66125" lon="1.52375">
        <ele>2066</ele>
        <time>2014-09-13T07:12:45Z</time>
      </trkpt>
      <trkpt lat="42.66122" lon="1.52376">
        <ele>2066</ele>
        <time>2014-09-13T07:12:50Z</time>
      </trkpt>
      <trkpt lat="42.66118" lon="1.52377">
        <ele>2066</ele>
        <time>2014-09-13T07:12:55Z</time>
      </trkpt>
      <trkpt lat="42.66111" lon="1.52374">
        <ele>2067</ele>
        <time>2014-09-13T07:13:09Z</time>
      </trkpt>
      <trkpt lat="42.6611" lon="1.52374">
        <ele>2068</ele>
        <time>2014-09-13T07:13:10Z</time>
      </trkpt>
      <trkpt lat="42.66107" lon="1.52372">
        <ele>2068</ele>
        <time>2014-09-13T07:13:15Z</time>
      </trkpt>
      <trkpt lat="42.66094" lon="1.52371">
        <ele>2070</ele>
        <time>2014-09-13T07:13:29Z</time>
      </trkpt>
      <trkpt lat="42.66092" lon="1.52371">
        <ele>2070</ele>
        <time>2014-09-13T07:13:34Z</time>
      </trkpt>
      <trkpt lat="42.66088" lon="1.52371">
        <ele>2071</ele>
        <time>2014-09-13T07:13:38Z</time>
      </trkpt>
      <trkpt lat="42.6608" lon="1.5237">
        <ele>2071</ele>
        <time>2014-09-13T07:13:49Z</time>
      </trkpt>
      <trkpt lat="42.66074" lon="1.5237">
        <ele>2072</ele>
        <time>2014-09-13T07:13:56Z</time>
      </trkpt>
      <trkpt lat="42.66065" lon="1.52364">
        <ele>2073</ele>
        <time>2014-09-13T07:14:09Z</time>
      </trkpt>
      <trkpt lat="42.66057" lon="1.52363">
        <ele>2073</ele>
        <time>2014-09-13T07:14:23Z</time>
      </trkpt>
      <trkpt lat="42.66048" lon="1.52362">
        <ele>2075</ele>
        <time>2014-09-13T07:14:35Z</time>
      </trkpt>
      <trkpt lat="42.66046" lon="1.52362">
        <ele>2075</ele>
        <time>2014-09-13T07:14:37Z</time>
      </trkpt>
      <trkpt lat="42.66041" lon="1.5236">
        <ele>2076</ele>
        <time>2014-09-13T07:14:44Z</time>
      </trkpt>
      <trkpt lat="42.66034" lon="1.52358">
        <ele>2077</ele>
        <time>2014-09-13T07:14:54Z</time>
      </trkpt>
      <trkpt lat="42.66026" lon="1.52358">
        <ele>2076</ele>
        <time>2014-09-13T07:15:06Z</time>
      </trkpt>
      <trkpt lat="42.66024" lon="1.52356">
        <ele>2076</ele>
        <time>2014-09-13T07:15:09Z</time>
      </trkpt>
      <trkpt lat="42.66014" lon="1.52351">
        <ele>2077</ele>
        <time>2014-09-13T07:15:20Z</time>
      </trkpt>
      <trkpt lat="42.6601" lon="1.52349">
        <ele>2076</ele>
        <time>2014-09-13T07:15:25Z</time>
      </trkpt>
      <trkpt lat="42.66004" lon="1.52345">
        <ele>2078</ele>
        <time>2014-09-13T07:15:33Z</time>
      </trkpt>
      <trkpt lat="42.65994" lon="1.52342">
        <ele>2078</ele>
        <time>2014-09-13T07:15:46Z</time>
      </trkpt>
      <trkpt lat="42.65985" lon="1.52338">
        <ele>2080</ele>
        <time>2014-09-13T07:16:02Z</time>
      </trkpt>
      <trkpt lat="42.65979" lon="1.52336">
        <ele>2082</ele>
        <time>2014-09-13T07:16:16Z</time>
      </trkpt>
      <trkpt lat="42.6597" lon="1.52333">
        <ele>2082</ele>
        <time>2014-09-13T07:16:28Z</time>
      </trkpt>
      <trkpt lat="42.65963" lon="1.52332">
        <ele>2083</ele>
        <time>2014-09-13T07:16:40Z</time>
      </trkpt>
      <trkpt lat="42.65961" lon="1.52327">
        <ele>2084</ele>
        <time>2014-09-13T07:16:48Z</time>
      </trkpt>
      <trkpt lat="42.65954" lon="1.52322">
        <ele>2086</ele>
        <time>2014-09-13T07:17:02Z</time>
      </trkpt>
      <trkpt lat="42.65945" lon="1.5232">
        <ele>2088</ele>
        <time>2014-09-13T07:17:19Z</time>
      </trkpt>
      <trkpt lat="42.65936" lon="1.52319">
        <ele>2090</ele>
        <time>2014-09-13T07:17:33Z</time>
      </trkpt>
      <trkpt lat="42.6593" lon="1.52313">
        <ele>2092</ele>
        <time>2014-09-13T07:17:48Z</time>
      </trkpt>
      <trkpt lat="42.65924" lon="1.5231">
        <ele>2093</ele>
        <time>2014-09-13T07:17:58Z</time>
      </trkpt>
      <trkpt lat="42.65914" lon="1.52309">
        <ele>2094</ele>
        <time>2014-09-13T07:18:14Z</time>
      </trkpt>
      <trkpt lat="42.65904" lon="1.52304">
        <ele>2096</ele>
        <time>2014-09-13T07:18:29Z</time>
      </trkpt>
      <trkpt lat="42.65894" lon="1.52298">
        <ele>2098</ele>
        <time>2014-09-13T07:18:44Z</time>
      </trkpt>
      <trkpt lat="42.65883" lon="1.52293">
        <ele>2099</ele>
        <time>2014-09-13T07:18:57Z</time>
      </trkpt>
      <trkpt lat="42.65881" lon="1.52292">
        <ele>2099</ele>
        <time>2014-09-13T07:18:59Z</time>
      </trkpt>
      <trkpt lat="42.65878" lon="1.52292">
        <ele>2100</ele>
        <time>2014-09-13T07:19:16Z</time>
      </trkpt>
      <trkpt lat="42.65876" lon="1.5229">
        <ele>2100</ele>
        <time>2014-09-13T07:19:20Z</time>
      </trkpt>
      <trkpt lat="42.6587" lon="1.52282">
        <ele>2101</ele>
        <time>2014-09-13T07:19:32Z</time>
      </trkpt>
      <trkpt lat="42.65865" lon="1.52278">
        <ele>2101</ele>
        <time>2014-09-13T07:19:38Z</time>
      </trkpt>
      <trkpt lat="42.65862" lon="1.52273">
        <ele>2102</ele>
        <time>2014-09-13T07:19:43Z</time>
      </trkpt>
      <trkpt lat="42.6586" lon="1.52272">
        <ele>2102</ele>
        <time>2014-09-13T07:19:46Z</time>
      </trkpt>
      <trkpt lat="42.65852" lon="1.52263">
        <ele>2103</ele>
        <time>2014-09-13T07:20:00Z</time>
      </trkpt>
      <trkpt lat="42.65845" lon="1.52256">
        <ele>2104</ele>
        <time>2014-09-13T07:20:10Z</time>
      </trkpt>
      <trkpt lat="42.6584" lon="1.52252">
        <ele>2104</ele>
        <time>2014-09-13T07:20:17Z</time>
      </trkpt>
      <trkpt lat="42.6583" lon="1.52243">
        <ele>2104</ele>
        <time>2014-09-13T07:20:30Z</time>
      </trkpt>
      <trkpt lat="42.65822" lon="1.52234">
        <ele>2105</ele>
        <time>2014-09-13T07:20:42Z</time>
      </trkpt>
      <trkpt lat="42.65819" lon="1.52234">
        <ele>2106</ele>
        <time>2014-09-13T07:20:45Z</time>
      </trkpt>
      <trkpt lat="42.65812" lon="1.52226">
        <ele>2107</ele>
        <time>2014-09-13T07:20:55Z</time>
      </trkpt>
      <trkpt lat="42.65805" lon="1.52216">
        <ele>2108</ele>
        <time>2014-09-13T07:21:09Z</time>
      </trkpt>
      <trkpt lat="42.65798" lon="1.52209">
        <ele>2109</ele>
        <time>2014-09-13T07:21:23Z</time>
      </trkpt>
      <trkpt lat="42.65795" lon="1.52198">
        <ele>2110</ele>
        <time>2014-09-13T07:21:35Z</time>
      </trkpt>
      <trkpt lat="42.65794" lon="1.52189">
        <ele>2112</ele>
        <time>2014-09-13T07:21:47Z</time>
      </trkpt>
      <trkpt lat="42.65794" lon="1.52188">
        <ele>2112</ele>
        <time>2014-09-13T07:21:48Z</time>
      </trkpt>
      <trkpt lat="42.65788" lon="1.52183">
        <ele>2113</ele>
        <time>2014-09-13T07:22:00Z</time>
      </trkpt>
      <trkpt lat="42.65782" lon="1.52177">
        <ele>2113</ele>
        <time>2014-09-13T07:22:08Z</time>
      </trkpt>
      <trkpt lat="42.65775" lon="1.52165">
        <ele>2114</ele>
        <time>2014-09-13T07:22:22Z</time>
      </trkpt>
      <trkpt lat="42.6577" lon="1.52157">
        <ele>2115</ele>
        <time>2014-09-13T07:22:34Z</time>
      </trkpt>
      <trkpt lat="42.6577" lon="1.52157">
        <ele>2116</ele>
        <time>2014-09-13T07:22:56Z</time>
      </trkpt>
      <trkpt lat="42.65766" lon="1.52149">
        <ele>2116</ele>
        <time>2014-09-13T07:23:11Z</time>
      </trkpt>
      <trkpt lat="42.65769" lon="1.52138">
        <ele>2117</ele>
        <time>2014-09-13T07:23:23Z</time>
      </trkpt>
      <trkpt lat="42.65762" lon="1.52129">
        <ele>2118</ele>
        <time>2014-09-13T07:23:35Z</time>
      </trkpt>
      <trkpt lat="42.65762" lon="1.52128">
        <ele>2118</ele>
        <time>2014-09-13T07:23:36Z</time>
      </trkpt>
      <trkpt lat="42.65761" lon="1.52126">
        <ele>2118</ele>
        <time>2014-09-13T07:23:38Z</time>
      </trkpt>
      <trkpt lat="42.65753" lon="1.52125">
        <ele>2119</ele>
        <time>2014-09-13T07:23:47Z</time>
      </trkpt>
      <trkpt lat="42.65747" lon="1.52119">
        <ele>2119</ele>
        <time>2014-09-13T07:24:01Z</time>
      </trkpt>
      <trkpt lat="42.65745" lon="1.52118">
        <ele>2120</ele>
        <time>2014-09-13T07:24:03Z</time>
      </trkpt>
      <trkpt lat="42.65737" lon="1.52114">
        <ele>2120</ele>
        <time>2014-09-13T07:24:14Z</time>
      </trkpt>
      <trkpt lat="42.65727" lon="1.52109">
        <ele>2121</ele>
        <time>2014-09-13T07:24:29Z</time>
      </trkpt>
      <trkpt lat="42.65722" lon="1.52107">
        <ele>2121</ele>
        <time>2014-09-13T07:24:41Z</time>
      </trkpt>
      <trkpt lat="42.65719" lon="1.52104">
        <ele>2123</ele>
        <time>2014-09-13T07:24:54Z</time>
      </trkpt>
      <trkpt lat="42.65716" lon="1.52101">
        <ele>2124</ele>
        <time>2014-09-13T07:25:09Z</time>
      </trkpt>
      <trkpt lat="42.65714" lon="1.521">
        <ele>2125</ele>
        <time>2014-09-13T07:25:15Z</time>
      </trkpt>
      <trkpt lat="42.65711" lon="1.52095">
        <ele>2126</ele>
        <time>2014-09-13T07:25:27Z</time>
      </trkpt>
      <trkpt lat="42.65708" lon="1.52096">
        <ele>2126</ele>
        <time>2014-09-13T07:25:39Z</time>
      </trkpt>
      <trkpt lat="42.65704" lon="1.52095">
        <ele>2128</ele>
        <time>2014-09-13T07:25:49Z</time>
      </trkpt>
      <trkpt lat="42.65699" lon="1.5209">
        <ele>2128</ele>
        <time>2014-09-13T07:26:04Z</time>
      </trkpt>
      <trkpt lat="42.65698" lon="1.52082">
        <ele>2130</ele>
        <time>2014-09-13T07:26:20Z</time>
      </trkpt>
      <trkpt lat="42.65696" lon="1.52072">
        <ele>2132</ele>
        <time>2014-09-13T07:26:34Z</time>
      </trkpt>
      <trkpt lat="42.65692" lon="1.52068">
        <ele>2134</ele>
        <time>2014-09-13T07:26:46Z</time>
      </trkpt>
      <trkpt lat="42.65686" lon="1.52063">
        <ele>2136</ele>
        <time>2014-09-13T07:27:00Z</time>
      </trkpt>
      <trkpt lat="42.65681" lon="1.52059">
        <ele>2138</ele>
        <time>2014-09-13T07:27:12Z</time>
      </trkpt>
      <trkpt lat="42.65677" lon="1.52054">
        <ele>2140</ele>
        <time>2014-09-13T07:27:26Z</time>
      </trkpt>
      <trkpt lat="42.65674" lon="1.52049">
        <ele>2142</ele>
        <time>2014-09-13T07:27:41Z</time>
      </trkpt>
      <trkpt lat="42.65672" lon="1.52048">
        <ele>2143</ele>
        <time>2014-09-13T07:27:52Z</time>
      </trkpt>
      <trkpt lat="42.65673" lon="1.52045">
        <ele>2145</ele>
        <time>2014-09-13T07:28:05Z</time>
      </trkpt>
      <trkpt lat="42.6567" lon="1.52045">
        <ele>2144</ele>
        <time>2014-09-13T07:28:21Z</time>
      </trkpt>
      <trkpt lat="42.65666" lon="1.52045">
        <ele>2144</ele>
        <time>2014-09-13T07:28:33Z</time>
      </trkpt>
      <trkpt lat="42.65665" lon="1.52047">
        <ele>2145</ele>
        <time>2014-09-13T07:28:45Z</time>
      </trkpt>
      <trkpt lat="42.65662" lon="1.52048">
        <ele>2145</ele>
        <time>2014-09-13T07:28:52Z</time>
      </trkpt>
      <trkpt lat="42.65659" lon="1.52046">
        <ele>2145</ele>
        <time>2014-09-13T07:29:03Z</time>
      </trkpt>
      <trkpt lat="42.65655" lon="1.52049">
        <ele>2145</ele>
        <time>2014-09-13T07:29:15Z</time>
      </trkpt>
      <trkpt lat="42.6565" lon="1.52047">
        <ele>2146</ele>
        <time>2014-09-13T07:29:27Z</time>
      </trkpt>
      <trkpt lat="42.65647" lon="1.52049">
        <ele>2144</ele>
        <time>2014-09-13T07:29:39Z</time>
      </trkpt>
      <trkpt lat="42.65643" lon="1.52047">
        <ele>2145</ele>
        <time>2014-09-13T07:29:50Z</time>
      </trkpt>
      <trkpt lat="42.65643" lon="1.5204">
        <ele>2148</ele>
        <time>2014-09-13T07:30:05Z</time>
      </trkpt>
      <trkpt lat="42.65645" lon="1.5203">
        <ele>2150</ele>
        <time>2014-09-13T07:30:19Z</time>
      </trkpt>
      <trkpt lat="42.65646" lon="1.52028">
        <ele>2151</ele>
        <time>2014-09-13T07:30:22Z</time>
      </trkpt>
      <trkpt lat="42.65649" lon="1.52018">
        <ele>2153</ele>
        <time>2014-09-13T07:30:34Z</time>
      </trkpt>
      <trkpt lat="42.65648" lon="1.52011">
        <ele>2154</ele>
        <time>2014-09-13T07:30:42Z</time>
      </trkpt>
      <trkpt lat="42.65649" lon="1.52007">
        <ele>2155</ele>
        <time>2014-09-13T07:30:46Z</time>
      </trkpt>
      <trkpt lat="42.65646" lon="1.51995">
        <ele>2157</ele>
        <time>2014-09-13T07:31:00Z</time>
      </trkpt>
      <trkpt lat="42.65645" lon="1.51985">
        <ele>2159</ele>
        <time>2014-09-13T07:31:13Z</time>
      </trkpt>
      <trkpt lat="42.6564" lon="1.51975">
        <ele>2161</ele>
        <time>2014-09-13T07:31:26Z</time>
      </trkpt>
      <trkpt lat="42.65638" lon="1.51966">
        <ele>2163</ele>
        <time>2014-09-13T07:31:38Z</time>
      </trkpt>
      <trkpt lat="42.65637" lon="1.51963">
        <ele>2163</ele>
        <time>2014-09-13T07:31:42Z</time>
      </trkpt>
      <trkpt lat="42.65635" lon="1.5196">
        <ele>2164</ele>
        <time>2014-09-13T07:31:45Z</time>
      </trkpt>
      <trkpt lat="42.65633" lon="1.51948">
        <ele>2165</ele>
        <time>2014-09-13T07:31:58Z</time>
      </trkpt>
      <trkpt lat="42.65635" lon="1.51943">
        <ele>2165</ele>
        <time>2014-09-13T07:32:08Z</time>
      </trkpt>
      <trkpt lat="42.65631" lon="1.51928">
        <ele>2167</ele>
        <time>2014-09-13T07:32:23Z</time>
      </trkpt>
      <trkpt lat="42.65629" lon="1.51914">
        <ele>2169</ele>
        <time>2014-09-13T07:32:37Z</time>
      </trkpt>
      <trkpt lat="42.65626" lon="1.51904">
        <ele>2170</ele>
        <time>2014-09-13T07:32:48Z</time>
      </trkpt>
      <trkpt lat="42.65622" lon="1.51894">
        <ele>2172</ele>
        <time>2014-09-13T07:33:02Z</time>
      </trkpt>
      <trkpt lat="42.65617" lon="1.51885">
        <ele>2175</ele>
        <time>2014-09-13T07:33:15Z</time>
      </trkpt>
      <trkpt lat="42.65615" lon="1.51879">
        <ele>2175</ele>
        <time>2014-09-13T07:33:28Z</time>
      </trkpt>
      <trkpt lat="42.65616" lon="1.51879">
        <ele>2175</ele>
        <time>2014-09-13T07:33:35Z</time>
      </trkpt>
      <trkpt lat="42.65613" lon="1.51875">
        <ele>2176</ele>
        <time>2014-09-13T07:33:41Z</time>
      </trkpt>
      <trkpt lat="42.65607" lon="1.51865">
        <ele>2177</ele>
        <time>2014-09-13T07:33:53Z</time>
      </trkpt>
      <trkpt lat="42.65603" lon="1.51856">
        <ele>2178</ele>
        <time>2014-09-13T07:34:02Z</time>
      </trkpt>
      <trkpt lat="42.65598" lon="1.51841">
        <ele>2179</ele>
        <time>2014-09-13T07:34:15Z</time>
      </trkpt>
      <trkpt lat="42.65593" lon="1.51832">
        <ele>2179</ele>
        <time>2014-09-13T07:34:25Z</time>
      </trkpt>
      <trkpt lat="42.65593" lon="1.51827">
        <ele>2180</ele>
        <time>2014-09-13T07:34:29Z</time>
      </trkpt>
      <trkpt lat="42.6559" lon="1.51814">
        <ele>2179</ele>
        <time>2014-09-13T07:34:44Z</time>
      </trkpt>
      <trkpt lat="42.65587" lon="1.51807">
        <ele>2178</ele>
        <time>2014-09-13T07:34:57Z</time>
      </trkpt>
      <trkpt lat="42.65583" lon="1.51791">
        <ele>2179</ele>
        <time>2014-09-13T07:35:10Z</time>
      </trkpt>
      <trkpt lat="42.65581" lon="1.51783">
        <ele>2179</ele>
        <time>2014-09-13T07:35:16Z</time>
      </trkpt>
      <trkpt lat="42.6558" lon="1.5178">
        <ele>2179</ele>
        <time>2014-09-13T07:35:19Z</time>
      </trkpt>
      <trkpt lat="42.65578" lon="1.51768">
        <ele>2179</ele>
        <time>2014-09-13T07:35:31Z</time>
      </trkpt>
      <trkpt lat="42.65577" lon="1.51767">
        <ele>2179</ele>
        <time>2014-09-13T07:35:32Z</time>
      </trkpt>
      <trkpt lat="42.65576" lon="1.51751">
        <ele>2180</ele>
        <time>2014-09-13T07:35:46Z</time>
      </trkpt>
      <trkpt lat="42.65576" lon="1.51749">
        <ele>2180</ele>
        <time>2014-09-13T07:35:48Z</time>
      </trkpt>
      <trkpt lat="42.65574" lon="1.51728">
        <ele>2181</ele>
        <time>2014-09-13T07:36:04Z</time>
      </trkpt>
      <trkpt lat="42.65573" lon="1.51723">
        <ele>2181</ele>
        <time>2014-09-13T07:36:08Z</time>
      </trkpt>
      <trkpt lat="42.65573" lon="1.51714">
        <ele>2182</ele>
        <time>2014-09-13T07:36:15Z</time>
      </trkpt>
      <trkpt lat="42.65576" lon="1.51698">
        <ele>2182</ele>
        <time>2014-09-13T07:36:27Z</time>
      </trkpt>
      <trkpt lat="42.65575" lon="1.51692">
        <ele>2182</ele>
        <time>2014-09-13T07:36:32Z</time>
      </trkpt>
      <trkpt lat="42.65577" lon="1.51677">
        <ele>2183</ele>
        <time>2014-09-13T07:36:43Z</time>
      </trkpt>
      <trkpt lat="42.65575" lon="1.51672">
        <ele>2183</ele>
        <time>2014-09-13T07:36:47Z</time>
      </trkpt>
      <trkpt lat="42.65572" lon="1.51662">
        <ele>2184</ele>
        <time>2014-09-13T07:36:56Z</time>
      </trkpt>
      <trkpt lat="42.65571" lon="1.51648">
        <ele>2184</ele>
        <time>2014-09-13T07:37:09Z</time>
      </trkpt>
      <trkpt lat="42.65572" lon="1.51644">
        <ele>2184</ele>
        <time>2014-09-13T07:37:14Z</time>
      </trkpt>
      <trkpt lat="42.65572" lon="1.5164">
        <ele>2185</ele>
        <time>2014-09-13T07:37:20Z</time>
      </trkpt>
      <trkpt lat="42.65572" lon="1.5163">
        <ele>2185</ele>
        <time>2014-09-13T07:37:29Z</time>
      </trkpt>
      <trkpt lat="42.65573" lon="1.5161">
        <ele>2187</ele>
        <time>2014-09-13T07:37:44Z</time>
      </trkpt>
      <trkpt lat="42.65575" lon="1.51603">
        <ele>2187</ele>
        <time>2014-09-13T07:37:55Z</time>
      </trkpt>
      <trkpt lat="42.65575" lon="1.51599">
        <ele>2188</ele>
        <time>2014-09-13T07:37:59Z</time>
      </trkpt>
      <trkpt lat="42.65568" lon="1.51595">
        <ele>2190</ele>
        <time>2014-09-13T07:38:12Z</time>
      </trkpt>
      <trkpt lat="42.65563" lon="1.51589">
        <ele>2193</ele>
        <time>2014-09-13T07:38:26Z</time>
      </trkpt>
      <trkpt lat="42.65565" lon="1.51579">
        <ele>2193</ele>
        <time>2014-09-13T07:38:39Z</time>
      </trkpt>
      <trkpt lat="42.65559" lon="1.51573">
        <ele>2190</ele>
        <time>2014-09-13T07:38:55Z</time>
      </trkpt>
      <trkpt lat="42.65557" lon="1.51573">
        <ele>2191</ele>
        <time>2014-09-13T07:39:05Z</time>
      </trkpt>
      <trkpt lat="42.65553" lon="1.51554">
        <ele>2189</ele>
        <time>2014-09-13T07:39:21Z</time>
      </trkpt>
      <trkpt lat="42.65552" lon="1.51548">
        <ele>2188</ele>
        <time>2014-09-13T07:39:32Z</time>
      </trkpt>
      <trkpt lat="42.65549" lon="1.51544">
        <ele>2189</ele>
        <time>2014-09-13T07:39:38Z</time>
      </trkpt>
      <trkpt lat="42.65546" lon="1.51532">
        <ele>2190</ele>
        <time>2014-09-13T07:39:51Z</time>
      </trkpt>
      <trkpt lat="42.65542" lon="1.51524">
        <ele>2190</ele>
        <time>2014-09-13T07:40:03Z</time>
      </trkpt>
      <trkpt lat="42.65541" lon="1.51517">
        <ele>2190</ele>
        <time>2014-09-13T07:40:10Z</time>
      </trkpt>
      <trkpt lat="42.6554" lon="1.51513">
        <ele>2190</ele>
        <time>2014-09-13T07:40:13Z</time>
      </trkpt>
      <trkpt lat="42.65534" lon="1.51496">
        <ele>2191</ele>
        <time>2014-09-13T07:40:28Z</time>
      </trkpt>
      <trkpt lat="42.65531" lon="1.51483">
        <ele>2193</ele>
        <time>2014-09-13T07:40:42Z</time>
      </trkpt>
      <trkpt lat="42.65531" lon="1.51483">
        <ele>2193</ele>
        <time>2014-09-13T07:40:43Z</time>
      </trkpt>
      <trkpt lat="42.65527" lon="1.51468">
        <ele>2193</ele>
        <time>2014-09-13T07:40:58Z</time>
      </trkpt>
      <trkpt lat="42.65525" lon="1.5146">
        <ele>2194</ele>
        <time>2014-09-13T07:41:14Z</time>
      </trkpt>
      <trkpt lat="42.65521" lon="1.51461">
        <ele>2194</ele>
        <time>2014-09-13T07:41:36Z</time>
      </trkpt>
      <trkpt lat="42.6552" lon="1.51459">
        <ele>2194</ele>
        <time>2014-09-13T07:41:50Z</time>
      </trkpt>
      <trkpt lat="42.65523" lon="1.51453">
        <ele>2194</ele>
        <time>2014-09-13T07:42:00Z</time>
      </trkpt>
      <trkpt lat="42.65526" lon="1.51455">
        <ele>2194</ele>
        <time>2014-09-13T07:42:13Z</time>
      </trkpt>
      <trkpt lat="42.65526" lon="1.51453">
        <ele>2194</ele>
        <time>2014-09-13T07:42:33Z</time>
      </trkpt>
      <trkpt lat="42.65524" lon="1.51455">
        <ele>2194</ele>
        <time>2014-09-13T07:42:57Z</time>
      </trkpt>
      <trkpt lat="42.65525" lon="1.51448">
        <ele>2194</ele>
        <time>2014-09-13T07:43:09Z</time>
      </trkpt>
      <trkpt lat="42.65525" lon="1.51434">
        <ele>2195</ele>
        <time>2014-09-13T07:43:23Z</time>
      </trkpt>
      <trkpt lat="42.65528" lon="1.51432">
        <ele>2196</ele>
        <time>2014-09-13T07:43:37Z</time>
      </trkpt>
      <trkpt lat="42.65528" lon="1.51431">
        <ele>2195</ele>
        <time>2014-09-13T07:43:39Z</time>
      </trkpt>
      <trkpt lat="42.65527" lon="1.51427">
        <ele>2195</ele>
        <time>2014-09-13T07:43:42Z</time>
      </trkpt>
      <trkpt lat="42.65523" lon="1.5141">
        <ele>2198</ele>
        <time>2014-09-13T07:43:58Z</time>
      </trkpt>
      <trkpt lat="42.65524" lon="1.51397">
        <ele>2199</ele>
        <time>2014-09-13T07:44:11Z</time>
      </trkpt>
      <trkpt lat="42.65529" lon="1.51385">
        <ele>2202</ele>
        <time>2014-09-13T07:44:26Z</time>
      </trkpt>
      <trkpt lat="42.65528" lon="1.5138">
        <ele>2202</ele>
        <time>2014-09-13T07:44:33Z</time>
      </trkpt>
      <trkpt lat="42.65529" lon="1.51373">
        <ele>2203</ele>
        <time>2014-09-13T07:44:40Z</time>
      </trkpt>
      <trkpt lat="42.6553" lon="1.5137">
        <ele>2203</ele>
        <time>2014-09-13T07:44:42Z</time>
      </trkpt>
      <trkpt lat="42.65528" lon="1.51363">
        <ele>2204</ele>
        <time>2014-09-13T07:44:49Z</time>
      </trkpt>
      <trkpt lat="42.6553" lon="1.51351">
        <ele>2205</ele>
        <time>2014-09-13T07:45:03Z</time>
      </trkpt>
      <trkpt lat="42.65533" lon="1.51344">
        <ele>2207</ele>
        <time>2014-09-13T07:45:15Z</time>
      </trkpt>
      <trkpt lat="42.65531" lon="1.51333">
        <ele>2209</ele>
        <time>2014-09-13T07:45:29Z</time>
      </trkpt>
      <trkpt lat="42.65533" lon="1.51319">
        <ele>2211</ele>
        <time>2014-09-13T07:45:43Z</time>
      </trkpt>
      <trkpt lat="42.65536" lon="1.51306">
        <ele>2213</ele>
        <time>2014-09-13T07:45:58Z</time>
      </trkpt>
      <trkpt lat="42.65541" lon="1.513">
        <ele>2215</ele>
        <time>2014-09-13T07:46:11Z</time>
      </trkpt>
      <trkpt lat="42.65539" lon="1.51286">
        <ele>2217</ele>
        <time>2014-09-13T07:46:26Z</time>
      </trkpt>
      <trkpt lat="42.65545" lon="1.51284">
        <ele>2219</ele>
        <time>2014-09-13T07:46:39Z</time>
      </trkpt>
      <trkpt lat="42.65552" lon="1.51281">
        <ele>2222</ele>
        <time>2014-09-13T07:46:53Z</time>
      </trkpt>
      <trkpt lat="42.65553" lon="1.5127">
        <ele>2224</ele>
        <time>2014-09-13T07:47:08Z</time>
      </trkpt>
      <trkpt lat="42.65554" lon="1.51267">
        <ele>2225</ele>
        <time>2014-09-13T07:47:13Z</time>
      </trkpt>
      <trkpt lat="42.65557" lon="1.51261">
        <ele>2227</ele>
        <time>2014-09-13T07:47:27Z</time>
      </trkpt>
      <trkpt lat="42.65556" lon="1.51249">
        <ele>2229</ele>
        <time>2014-09-13T07:47:42Z</time>
      </trkpt>
      <trkpt lat="42.65555" lon="1.5124">
        <ele>2231</ele>
        <time>2014-09-13T07:47:54Z</time>
      </trkpt>
      <trkpt lat="42.65555" lon="1.51231">
        <ele>2231</ele>
        <time>2014-09-13T07:48:06Z</time>
      </trkpt>
      <trkpt lat="42.65552" lon="1.51222">
        <ele>2234</ele>
        <time>2014-09-13T07:48:19Z</time>
      </trkpt>
      <trkpt lat="42.6555" lon="1.51212">
        <ele>2236</ele>
        <time>2014-09-13T07:48:34Z</time>
      </trkpt>
      <trkpt lat="42.65548" lon="1.51203">
        <ele>2238</ele>
        <time>2014-09-13T07:48:48Z</time>
      </trkpt>
      <trkpt lat="42.65546" lon="1.51196">
        <ele>2239</ele>
        <time>2014-09-13T07:48:58Z</time>
      </trkpt>
      <trkpt lat="42.65543" lon="1.51182">
        <ele>2241</ele>
        <time>2014-09-13T07:49:13Z</time>
      </trkpt>
      <trkpt lat="42.65539" lon="1.51168">
        <ele>2242</ele>
        <time>2014-09-13T07:49:27Z</time>
      </trkpt>
      <trkpt lat="42.65537" lon="1.51152">
        <ele>2243</ele>
        <time>2014-09-13T07:49:42Z</time>
      </trkpt>
      <trkpt lat="42.65539" lon="1.51148">
        <ele>2243</ele>
        <time>2014-09-13T07:49:47Z</time>
      </trkpt>
      <trkpt lat="42.6555" lon="1.51136">
        <ele>2245</ele>
        <time>2014-09-13T07:50:04Z</time>
      </trkpt>
      <trkpt lat="42.65548" lon="1.51133">
        <ele>2245</ele>
        <time>2014-09-13T07:50:22Z</time>
      </trkpt>
      <trkpt lat="42.65548" lon="1.51128">
        <ele>2246</ele>
        <time>2014-09-13T07:50:27Z</time>
      </trkpt>
      <trkpt lat="42.65547" lon="1.51125">
        <ele>2246</ele>
        <time>2014-09-13T07:50:43Z</time>
      </trkpt>
      <trkpt lat="42.65547" lon="1.51125">
        <ele>2246</ele>
        <time>2014-09-13T07:51:01Z</time>
      </trkpt>
      <trkpt lat="42.65549" lon="1.51126">
        <ele>2246</ele>
        <time>2014-09-13T07:51:15Z</time>
      </trkpt>
      <trkpt lat="42.65548" lon="1.51126">
        <ele>2245</ele>
        <time>2014-09-13T07:51:45Z</time>
      </trkpt>
      <trkpt lat="42.65547" lon="1.51125">
        <ele>2246</ele>
        <time>2014-09-13T07:52:13Z</time>
      </trkpt>
      <trkpt lat="42.65547" lon="1.51127">
        <ele>2245</ele>
        <time>2014-09-13T07:52:36Z</time>
      </trkpt>
      <trkpt lat="42.65548" lon="1.51124">
        <ele>2246</ele>
        <time>2014-09-13T07:53:01Z</time>
      </trkpt>
      <trkpt lat="42.65547" lon="1.51124">
        <ele>2247</ele>
        <time>2014-09-13T07:53:15Z</time>
      </trkpt>
      <trkpt lat="42.65546" lon="1.51122">
        <ele>2248</ele>
        <time>2014-09-13T07:53:44Z</time>
      </trkpt>
      <trkpt lat="42.65546" lon="1.51125">
        <ele>2247</ele>
        <time>2014-09-13T07:54:10Z</time>
      </trkpt>
      <trkpt lat="42.65547" lon="1.51125">
        <ele>2246</ele>
        <time>2014-09-13T07:54:25Z</time>
      </trkpt>
      <trkpt lat="42.65549" lon="1.51125">
        <ele>2246</ele>
        <time>2014-09-13T07:54:50Z</time>
      </trkpt>
      <trkpt lat="42.65549" lon="1.51126">
        <ele>2246</ele>
        <time>2014-09-13T07:55:17Z</time>
      </trkpt>
      <trkpt lat="42.65549" lon="1.51126">
        <ele>2247</ele>
        <time>2014-09-13T07:55:46Z</time>
      </trkpt>
      <trkpt lat="42.65549" lon="1.51125">
        <ele>2246</ele>
        <time>2014-09-13T07:56:15Z</time>
      </trkpt>
      <trkpt lat="42.65548" lon="1.51126">
        <ele>2246</ele>
        <time>2014-09-13T07:56:42Z</time>
      </trkpt>
      <trkpt lat="42.65547" lon="1.51126">
        <ele>2247</ele>
        <time>2014-09-13T07:57:09Z</time>
      </trkpt>
      <trkpt lat="42.6555" lon="1.51125">
        <ele>2247</ele>
        <time>2014-09-13T07:57:42Z</time>
      </trkpt>
      <trkpt lat="42.65551" lon="1.51123">
        <ele>2247</ele>
        <time>2014-09-13T07:58:15Z</time>
      </trkpt>
      <trkpt lat="42.65553" lon="1.51122">
        <ele>2248</ele>
        <time>2014-09-13T07:58:43Z</time>
      </trkpt>
      <trkpt lat="42.65552" lon="1.51125">
        <ele>2248</ele>
        <time>2014-09-13T07:59:12Z</time>
      </trkpt>
      <trkpt lat="42.65551" lon="1.51126">
        <ele>2247</ele>
        <time>2014-09-13T07:59:45Z</time>
      </trkpt>
      <trkpt lat="42.65552" lon="1.51126">
        <ele>2248</ele>
        <time>2014-09-13T08:00:28Z</time>
      </trkpt>
      <trkpt lat="42.6555" lon="1.51126">
        <ele>2248</ele>
        <time>2014-09-13T08:01:02Z</time>
      </trkpt>
      <trkpt lat="42.65551" lon="1.51126">
        <ele>2248</ele>
        <time>2014-09-13T08:01:29Z</time>
      </trkpt>
      <trkpt lat="42.65551" lon="1.51125">
        <ele>2248</ele>
        <time>2014-09-13T08:01:57Z</time>
      </trkpt>
      <trkpt lat="42.65553" lon="1.51122">
        <ele>2248</ele>
        <time>2014-09-13T08:02:24Z</time>
      </trkpt>
      <trkpt lat="42.65553" lon="1.51121">
        <ele>2248</ele>
        <time>2014-09-13T08:03:00Z</time>
      </trkpt>
      <trkpt lat="42.65553" lon="1.51122">
        <ele>2248</ele>
        <time>2014-09-13T08:03:33Z</time>
      </trkpt>
      <trkpt lat="42.65552" lon="1.51124">
        <ele>2248</ele>
        <time>2014-09-13T08:04:08Z</time>
      </trkpt>
      <trkpt lat="42.65549" lon="1.51125">
        <ele>2249</ele>
        <time>2014-09-13T08:04:36Z</time>
      </trkpt>
      <trkpt lat="42.65548" lon="1.51124">
        <ele>2249</ele>
        <time>2014-09-13T08:05:00Z</time>
      </trkpt>
      <trkpt lat="42.65548" lon="1.51126">
        <ele>2249</ele>
        <time>2014-09-13T08:05:23Z</time>
      </trkpt>
      <trkpt lat="42.65549" lon="1.51121">
        <ele>2249</ele>
        <time>2014-09-13T08:05:35Z</time>
      </trkpt>
      <trkpt lat="42.65551" lon="1.51121">
        <ele>2249</ele>
        <time>2014-09-13T08:05:50Z</time>
      </trkpt>
      <trkpt lat="42.65551" lon="1.51119">
        <ele>2250</ele>
        <time>2014-09-13T08:06:06Z</time>
      </trkpt>
      <trkpt lat="42.65551" lon="1.51115">
        <ele>2250</ele>
        <time>2014-09-13T08:06:19Z</time>
      </trkpt>
      <trkpt lat="42.65545" lon="1.51105">
        <ele>2250</ele>
        <time>2014-09-13T08:06:32Z</time>
      </trkpt>
      <trkpt lat="42.65541" lon="1.51094">
        <ele>2251</ele>
        <time>2014-09-13T08:06:46Z</time>
      </trkpt>
      <trkpt lat="42.65539" lon="1.51092">
        <ele>2252</ele>
        <time>2014-09-13T08:06:49Z</time>
      </trkpt>
      <trkpt lat="42.65533" lon="1.51077">
        <ele>2253</ele>
        <time>2014-09-13T08:07:03Z</time>
      </trkpt>
      <trkpt lat="42.65532" lon="1.5107">
        <ele>2253</ele>
        <time>2014-09-13T08:07:10Z</time>
      </trkpt>
      <trkpt lat="42.65529" lon="1.51058">
        <ele>2254</ele>
        <time>2014-09-13T08:07:20Z</time>
      </trkpt>
      <trkpt lat="42.65528" lon="1.51056">
        <ele>2254</ele>
        <time>2014-09-13T08:07:22Z</time>
      </trkpt>
      <trkpt lat="42.65528" lon="1.51052">
        <ele>2254</ele>
        <time>2014-09-13T08:07:25Z</time>
      </trkpt>
      <trkpt lat="42.65527" lon="1.51049">
        <ele>2254</ele>
        <time>2014-09-13T08:07:28Z</time>
      </trkpt>
      <trkpt lat="42.65524" lon="1.51039">
        <ele>2255</ele>
        <time>2014-09-13T08:07:38Z</time>
      </trkpt>
      <trkpt lat="42.65521" lon="1.51028">
        <ele>2257</ele>
        <time>2014-09-13T08:07:50Z</time>
      </trkpt>
      <trkpt lat="42.65521" lon="1.51026">
        <ele>2257</ele>
        <time>2014-09-13T08:07:53Z</time>
      </trkpt>
      <trkpt lat="42.65522" lon="1.51014">
        <ele>2259</ele>
        <time>2014-09-13T08:08:05Z</time>
      </trkpt>
      <trkpt lat="42.65522" lon="1.51009">
        <ele>2259</ele>
        <time>2014-09-13T08:08:10Z</time>
      </trkpt>
      <trkpt lat="42.65527" lon="1.50995">
        <ele>2261</ele>
        <time>2014-09-13T08:08:24Z</time>
      </trkpt>
      <trkpt lat="42.6553" lon="1.50994">
        <ele>2263</ele>
        <time>2014-09-13T08:08:36Z</time>
      </trkpt>
      <trkpt lat="42.65533" lon="1.50985">
        <ele>2264</ele>
        <time>2014-09-13T08:08:49Z</time>
      </trkpt>
      <trkpt lat="42.65533" lon="1.50976">
        <ele>2264</ele>
        <time>2014-09-13T08:08:58Z</time>
      </trkpt>
      <trkpt lat="42.65533" lon="1.50962">
        <ele>2265</ele>
        <time>2014-09-13T08:09:11Z</time>
      </trkpt>
      <trkpt lat="42.65535" lon="1.50951">
        <ele>2266</ele>
        <time>2014-09-13T08:09:25Z</time>
      </trkpt>
      <trkpt lat="42.65535" lon="1.50948">
        <ele>2267</ele>
        <time>2014-09-13T08:09:36Z</time>
      </trkpt>
      <trkpt lat="42.65535" lon="1.50946">
        <ele>2267</ele>
        <time>2014-09-13T08:09:38Z</time>
      </trkpt>
      <trkpt lat="42.6554" lon="1.50939">
        <ele>2267</ele>
        <time>2014-09-13T08:09:44Z</time>
      </trkpt>
      <trkpt lat="42.65538" lon="1.50922">
        <ele>2268</ele>
        <time>2014-09-13T08:09:58Z</time>
      </trkpt>
      <trkpt lat="42.65538" lon="1.50917">
        <ele>2269</ele>
        <time>2014-09-13T08:10:03Z</time>
      </trkpt>
      <trkpt lat="42.65541" lon="1.50896">
        <ele>2269</ele>
        <time>2014-09-13T08:10:17Z</time>
      </trkpt>
      <trkpt lat="42.65536" lon="1.50886">
        <ele>2269</ele>
        <time>2014-09-13T08:10:28Z</time>
      </trkpt>
      <trkpt lat="42.65531" lon="1.50879">
        <ele>2269</ele>
        <time>2014-09-13T08:10:40Z</time>
      </trkpt>
      <trkpt lat="42.65531" lon="1.50872">
        <ele>2270</ele>
        <time>2014-09-13T08:10:48Z</time>
      </trkpt>
      <trkpt lat="42.65532" lon="1.50863">
        <ele>2269</ele>
        <time>2014-09-13T08:10:53Z</time>
      </trkpt>
      <trkpt lat="42.65536" lon="1.50853">
        <ele>2269</ele>
        <time>2014-09-13T08:11:03Z</time>
      </trkpt>
      <trkpt lat="42.65534" lon="1.50854">
        <ele>2269</ele>
        <time>2014-09-13T08:11:07Z</time>
      </trkpt>
      <trkpt lat="42.65532" lon="1.50848">
        <ele>2270</ele>
        <time>2014-09-13T08:11:20Z</time>
      </trkpt>
      <trkpt lat="42.65536" lon="1.50836">
        <ele>2271</ele>
        <time>2014-09-13T08:11:36Z</time>
      </trkpt>
      <trkpt lat="42.65543" lon="1.5083">
        <ele>2272</ele>
        <time>2014-09-13T08:11:46Z</time>
      </trkpt>
      <trkpt lat="42.65548" lon="1.50824">
        <ele>2272</ele>
        <time>2014-09-13T08:11:53Z</time>
      </trkpt>
      <trkpt lat="42.65551" lon="1.50804">
        <ele>2272</ele>
        <time>2014-09-13T08:12:07Z</time>
      </trkpt>
      <trkpt lat="42.65556" lon="1.50802">
        <ele>2271</ele>
        <time>2014-09-13T08:12:14Z</time>
      </trkpt>
      <trkpt lat="42.65559" lon="1.50798">
        <ele>2271</ele>
        <time>2014-09-13T08:12:17Z</time>
      </trkpt>
      <trkpt lat="42.65567" lon="1.50793">
        <ele>2273</ele>
        <time>2014-09-13T08:12:26Z</time>
      </trkpt>
      <trkpt lat="42.65572" lon="1.50791">
        <ele>2274</ele>
        <time>2014-09-13T08:12:33Z</time>
      </trkpt>
      <trkpt lat="42.65576" lon="1.50787">
        <ele>2275</ele>
        <time>2014-09-13T08:12:38Z</time>
      </trkpt>
      <trkpt lat="42.65582" lon="1.50777">
        <ele>2276</ele>
        <time>2014-09-13T08:12:51Z</time>
      </trkpt>
      <trkpt lat="42.6558" lon="1.50773">
        <ele>2277</ele>
        <time>2014-09-13T08:12:56Z</time>
      </trkpt>
      <trkpt lat="42.65584" lon="1.50762">
        <ele>2278</ele>
        <time>2014-09-13T08:13:10Z</time>
      </trkpt>
      <trkpt lat="42.6559" lon="1.50762">
        <ele>2278</ele>
        <time>2014-09-13T08:13:17Z</time>
      </trkpt>
      <trkpt lat="42.65594" lon="1.50763">
        <ele>2281</ele>
        <time>2014-09-13T08:13:31Z</time>
      </trkpt>
      <trkpt lat="42.656" lon="1.50752">
        <ele>2281</ele>
        <time>2014-09-13T08:13:45Z</time>
      </trkpt>
      <trkpt lat="42.65604" lon="1.50747">
        <ele>2281</ele>
        <time>2014-09-13T08:14:00Z</time>
      </trkpt>
      <trkpt lat="42.65605" lon="1.5074">
        <ele>2283</ele>
        <time>2014-09-13T08:14:11Z</time>
      </trkpt>
      <trkpt lat="42.65606" lon="1.50735">
        <ele>2284</ele>
        <time>2014-09-13T08:14:15Z</time>
      </trkpt>
      <trkpt lat="42.65608" lon="1.50728">
        <ele>2284</ele>
        <time>2014-09-13T08:14:19Z</time>
      </trkpt>
      <trkpt lat="42.65607" lon="1.50715">
        <ele>2285</ele>
        <time>2014-09-13T08:14:32Z</time>
      </trkpt>
      <trkpt lat="42.65607" lon="1.50709">
        <ele>2287</ele>
        <time>2014-09-13T08:14:40Z</time>
      </trkpt>
      <trkpt lat="42.65607" lon="1.50707">
        <ele>2286</ele>
        <time>2014-09-13T08:14:55Z</time>
      </trkpt>
      <trkpt lat="42.65609" lon="1.50705">
        <ele>2286</ele>
        <time>2014-09-13T08:15:14Z</time>
      </trkpt>
      <trkpt lat="42.65611" lon="1.50695">
        <ele>2287</ele>
        <time>2014-09-13T08:15:34Z</time>
      </trkpt>
      <trkpt lat="42.65615" lon="1.50685">
        <ele>2290</ele>
        <time>2014-09-13T08:15:51Z</time>
      </trkpt>
      <trkpt lat="42.65622" lon="1.50687">
        <ele>2293</ele>
        <time>2014-09-13T08:16:05Z</time>
      </trkpt>
      <trkpt lat="42.65625" lon="1.50683">
        <ele>2294</ele>
        <time>2014-09-13T08:16:18Z</time>
      </trkpt>
      <trkpt lat="42.65629" lon="1.50677">
        <ele>2295</ele>
        <time>2014-09-13T08:16:25Z</time>
      </trkpt>
      <trkpt lat="42.65637" lon="1.50669">
        <ele>2297</ele>
        <time>2014-09-13T08:16:38Z</time>
      </trkpt>
      <trkpt lat="42.65639" lon="1.50663">
        <ele>2298</ele>
        <time>2014-09-13T08:16:45Z</time>
      </trkpt>
      <trkpt lat="42.65641" lon="1.50662">
        <ele>2298</ele>
        <time>2014-09-13T08:16:47Z</time>
      </trkpt>
      <trkpt lat="42.65648" lon="1.50663">
        <ele>2299</ele>
        <time>2014-09-13T08:17:00Z</time>
      </trkpt>
      <trkpt lat="42.65655" lon="1.50658">
        <ele>2301</ele>
        <time>2014-09-13T08:17:13Z</time>
      </trkpt>
      <trkpt lat="42.65656" lon="1.50652">
        <ele>2302</ele>
        <time>2014-09-13T08:17:24Z</time>
      </trkpt>
      <trkpt lat="42.65656" lon="1.50652">
        <ele>2302</ele>
        <time>2014-09-13T08:17:25Z</time>
      </trkpt>
      <trkpt lat="42.65657" lon="1.5065">
        <ele>2302</ele>
        <time>2014-09-13T08:17:28Z</time>
      </trkpt>
      <trkpt lat="42.65661" lon="1.50646">
        <ele>2304</ele>
        <time>2014-09-13T08:17:42Z</time>
      </trkpt>
      <trkpt lat="42.65664" lon="1.50642">
        <ele>2307</ele>
        <time>2014-09-13T08:17:55Z</time>
      </trkpt>
      <trkpt lat="42.65664" lon="1.50641">
        <ele>2307</ele>
        <time>2014-09-13T08:17:57Z</time>
      </trkpt>
      <trkpt lat="42.6567" lon="1.50632">
        <ele>2308</ele>
        <time>2014-09-13T08:18:10Z</time>
      </trkpt>
      <trkpt lat="42.65673" lon="1.50627">
        <ele>2309</ele>
        <time>2014-09-13T08:18:20Z</time>
      </trkpt>
      <trkpt lat="42.65678" lon="1.50631">
        <ele>2310</ele>
        <time>2014-09-13T08:18:32Z</time>
      </trkpt>
      <trkpt lat="42.65683" lon="1.50626">
        <ele>2312</ele>
        <time>2014-09-13T08:18:46Z</time>
      </trkpt>
      <trkpt lat="42.65687" lon="1.5063">
        <ele>2314</ele>
        <time>2014-09-13T08:19:01Z</time>
      </trkpt>
      <trkpt lat="42.65691" lon="1.50625">
        <ele>2315</ele>
        <time>2014-09-13T08:19:12Z</time>
      </trkpt>
      <trkpt lat="42.65696" lon="1.50627">
        <ele>2319</ele>
        <time>2014-09-13T08:19:29Z</time>
      </trkpt>
      <trkpt lat="42.65699" lon="1.50625">
        <ele>2320</ele>
        <time>2014-09-13T08:19:42Z</time>
      </trkpt>
      <trkpt lat="42.65704" lon="1.5063">
        <ele>2321</ele>
        <time>2014-09-13T08:19:55Z</time>
      </trkpt>
      <trkpt lat="42.65706" lon="1.50628">
        <ele>2323</ele>
        <time>2014-09-13T08:20:06Z</time>
      </trkpt>
      <trkpt lat="42.65709" lon="1.50628">
        <ele>2326</ele>
        <time>2014-09-13T08:20:21Z</time>
      </trkpt>
      <trkpt lat="42.65713" lon="1.50636">
        <ele>2328</ele>
        <time>2014-09-13T08:20:36Z</time>
      </trkpt>
      <trkpt lat="42.65716" lon="1.50635">
        <ele>2331</ele>
        <time>2014-09-13T08:20:52Z</time>
      </trkpt>
      <trkpt lat="42.65719" lon="1.50636">
        <ele>2332</ele>
        <time>2014-09-13T08:21:03Z</time>
      </trkpt>
      <trkpt lat="42.65722" lon="1.50638">
        <ele>2333</ele>
        <time>2014-09-13T08:21:18Z</time>
      </trkpt>
      <trkpt lat="42.65725" lon="1.5064">
        <ele>2336</ele>
        <time>2014-09-13T08:21:31Z</time>
      </trkpt>
      <trkpt lat="42.65727" lon="1.50639">
        <ele>2338</ele>
        <time>2014-09-13T08:21:48Z</time>
      </trkpt>
      <trkpt lat="42.65728" lon="1.5063">
        <ele>2339</ele>
        <time>2014-09-13T08:22:03Z</time>
      </trkpt>
      <trkpt lat="42.65729" lon="1.50623">
        <ele>2341</ele>
        <time>2014-09-13T08:22:15Z</time>
      </trkpt>
      <trkpt lat="42.6573" lon="1.50623">
        <ele>2342</ele>
        <time>2014-09-13T08:22:25Z</time>
      </trkpt>
      <trkpt lat="42.65731" lon="1.5062">
        <ele>2345</ele>
        <time>2014-09-13T08:22:38Z</time>
      </trkpt>
      <trkpt lat="42.65734" lon="1.5062">
        <ele>2346</ele>
        <time>2014-09-13T08:22:50Z</time>
      </trkpt>
      <trkpt lat="42.65732" lon="1.50616">
        <ele>2347</ele>
        <time>2014-09-13T08:23:04Z</time>
      </trkpt>
      <trkpt lat="42.65733" lon="1.50612">
        <ele>2349</ele>
        <time>2014-09-13T08:23:17Z</time>
      </trkpt>
      <trkpt lat="42.65737" lon="1.5061">
        <ele>2351</ele>
        <time>2014-09-13T08:23:30Z</time>
      </trkpt>
      <trkpt lat="42.6574" lon="1.50606">
        <ele>2353</ele>
        <time>2014-09-13T08:23:43Z</time>
      </trkpt>
      <trkpt lat="42.65739" lon="1.50603">
        <ele>2355</ele>
        <time>2014-09-13T08:23:56Z</time>
      </trkpt>
      <trkpt lat="42.6574" lon="1.50599">
        <ele>2358</ele>
        <time>2014-09-13T08:24:10Z</time>
      </trkpt>
      <trkpt lat="42.65742" lon="1.50597">
        <ele>2359</ele>
        <time>2014-09-13T08:24:21Z</time>
      </trkpt>
      <trkpt lat="42.65744" lon="1.50595">
        <ele>2361</ele>
        <time>2014-09-13T08:24:33Z</time>
      </trkpt>
      <trkpt lat="42.65745" lon="1.50593">
        <ele>2362</ele>
        <time>2014-09-13T08:24:38Z</time>
      </trkpt>
      <trkpt lat="42.65744" lon="1.50587">
        <ele>2363</ele>
        <time>2014-09-13T08:24:46Z</time>
      </trkpt>
      <trkpt lat="42.65746" lon="1.50584">
        <ele>2364</ele>
        <time>2014-09-13T08:24:58Z</time>
      </trkpt>
      <trkpt lat="42.65748" lon="1.50581">
        <ele>2366</ele>
        <time>2014-09-13T08:25:11Z</time>
      </trkpt>
      <trkpt lat="42.65748" lon="1.50581">
        <ele>2366</ele>
        <time>2014-09-13T08:25:13Z</time>
      </trkpt>
      <trkpt lat="42.65752" lon="1.50578">
        <ele>2368</ele>
        <time>2014-09-13T08:25:25Z</time>
      </trkpt>
      <trkpt lat="42.65754" lon="1.50574">
        <ele>2370</ele>
        <time>2014-09-13T08:25:36Z</time>
      </trkpt>
      <trkpt lat="42.65757" lon="1.50567">
        <ele>2371</ele>
        <time>2014-09-13T08:25:48Z</time>
      </trkpt>
      <trkpt lat="42.6576" lon="1.50563">
        <ele>2373</ele>
        <time>2014-09-13T08:25:57Z</time>
      </trkpt>
      <trkpt lat="42.65765" lon="1.5056">
        <ele>2375</ele>
        <time>2014-09-13T08:26:10Z</time>
      </trkpt>
      <trkpt lat="42.65769" lon="1.50566">
        <ele>2377</ele>
        <time>2014-09-13T08:26:25Z</time>
      </trkpt>
      <trkpt lat="42.65775" lon="1.50569">
        <ele>2380</ele>
        <time>2014-09-13T08:26:39Z</time>
      </trkpt>
      <trkpt lat="42.65777" lon="1.5057">
        <ele>2380</ele>
        <time>2014-09-13T08:27:00Z</time>
      </trkpt>
      <trkpt lat="42.65778" lon="1.50572">
        <ele>2379</ele>
        <time>2014-09-13T08:27:24Z</time>
      </trkpt>
      <trkpt lat="42.65782" lon="1.50569">
        <ele>2380</ele>
        <time>2014-09-13T08:27:42Z</time>
      </trkpt>
      <trkpt lat="42.65782" lon="1.50562">
        <ele>2382</ele>
        <time>2014-09-13T08:27:54Z</time>
      </trkpt>
      <trkpt lat="42.65783" lon="1.50553">
        <ele>2384</ele>
        <time>2014-09-13T08:28:09Z</time>
      </trkpt>
      <trkpt lat="42.65786" lon="1.50554">
        <ele>2385</ele>
        <time>2014-09-13T08:28:26Z</time>
      </trkpt>
      <trkpt lat="42.6579" lon="1.5055">
        <ele>2389</ele>
        <time>2014-09-13T08:28:40Z</time>
      </trkpt>
      <trkpt lat="42.65796" lon="1.50549">
        <ele>2390</ele>
        <time>2014-09-13T08:28:54Z</time>
      </trkpt>
      <trkpt lat="42.658" lon="1.5055">
        <ele>2393</ele>
        <time>2014-09-13T08:29:10Z</time>
      </trkpt>
      <trkpt lat="42.65801" lon="1.50547">
        <ele>2393</ele>
        <time>2014-09-13T08:29:22Z</time>
      </trkpt>
      <trkpt lat="42.65804" lon="1.50545">
        <ele>2396</ele>
        <time>2014-09-13T08:29:33Z</time>
      </trkpt>
      <trkpt lat="42.65807" lon="1.50545">
        <ele>2398</ele>
        <time>2014-09-13T08:29:46Z</time>
      </trkpt>
      <trkpt lat="42.65808" lon="1.50542">
        <ele>2400</ele>
        <time>2014-09-13T08:30:00Z</time>
      </trkpt>
      <trkpt lat="42.65812" lon="1.50544">
        <ele>2401</ele>
        <time>2014-09-13T08:30:13Z</time>
      </trkpt>
      <trkpt lat="42.65815" lon="1.50536">
        <ele>2403</ele>
        <time>2014-09-13T08:30:27Z</time>
      </trkpt>
      <trkpt lat="42.65817" lon="1.50534">
        <ele>2404</ele>
        <time>2014-09-13T08:30:41Z</time>
      </trkpt>
      <trkpt lat="42.65818" lon="1.50534">
        <ele>2404</ele>
        <time>2014-09-13T08:31:00Z</time>
      </trkpt>
      <trkpt lat="42.65821" lon="1.50531">
        <ele>2405</ele>
        <time>2014-09-13T08:31:12Z</time>
      </trkpt>
      <trkpt lat="42.65825" lon="1.50528">
        <ele>2406</ele>
        <time>2014-09-13T08:31:30Z</time>
      </trkpt>
      <trkpt lat="42.65825" lon="1.50528">
        <ele>2406</ele>
        <time>2014-09-13T08:31:44Z</time>
      </trkpt>
      <trkpt lat="42.65823" lon="1.50527">
        <ele>2405</ele>
        <time>2014-09-13T08:32:04Z</time>
      </trkpt>
      <trkpt lat="42.65818" lon="1.50531">
        <ele>2405</ele>
        <time>2014-09-13T08:32:21Z</time>
      </trkpt>
      <trkpt lat="42.6582" lon="1.50531">
        <ele>2405</ele>
        <time>2014-09-13T08:32:46Z</time>
      </trkpt>
      <trkpt lat="42.65821" lon="1.5053">
        <ele>2405</ele>
        <time>2014-09-13T08:33:10Z</time>
      </trkpt>
      <trkpt lat="42.65823" lon="1.50531">
        <ele>2405</ele>
        <time>2014-09-13T08:33:29Z</time>
      </trkpt>
      <trkpt lat="42.65827" lon="1.50528">
        <ele>2406</ele>
        <time>2014-09-13T08:33:46Z</time>
      </trkpt>
      <trkpt lat="42.65828" lon="1.50528">
        <ele>2406</ele>
        <time>2014-09-13T08:33:48Z</time>
      </trkpt>
      <trkpt lat="42.65831" lon="1.50528">
        <ele>2406</ele>
        <time>2014-09-13T08:33:50Z</time>
      </trkpt>
      <trkpt lat="42.65852" lon="1.50521">
        <ele>2403</ele>
        <time>2014-09-13T08:34:06Z</time>
      </trkpt>
      <trkpt lat="42.65861" lon="1.50517">
        <ele>2401</ele>
        <time>2014-09-13T08:34:15Z</time>
      </trkpt>
      <trkpt lat="42.65864" lon="1.50512">
        <ele>2399</ele>
        <time>2014-09-13T08:34:28Z</time>
      </trkpt>
      <trkpt lat="42.65869" lon="1.50512">
        <ele>2399</ele>
        <time>2014-09-13T08:34:42Z</time>
      </trkpt>
      <trkpt lat="42.65874" lon="1.50508">
        <ele>2399</ele>
        <time>2014-09-13T08:34:52Z</time>
      </trkpt>
      <trkpt lat="42.65881" lon="1.5051">
        <ele>2397</ele>
        <time>2014-09-13T08:34:59Z</time>
      </trkpt>
      <trkpt lat="42.65885" lon="1.50509">
        <ele>2396</ele>
        <time>2014-09-13T08:35:08Z</time>
      </trkpt>
      <trkpt lat="42.65887" lon="1.50509">
        <ele>2396</ele>
        <time>2014-09-13T08:35:10Z</time>
      </trkpt>
      <trkpt lat="42.65898" lon="1.50511">
        <ele>2396</ele>
        <time>2014-09-13T08:35:20Z</time>
      </trkpt>
      <trkpt lat="42.65907" lon="1.50512">
        <ele>2394</ele>
        <time>2014-09-13T08:35:29Z</time>
      </trkpt>
      <trkpt lat="42.6591" lon="1.50514">
        <ele>2393</ele>
        <time>2014-09-13T08:35:32Z</time>
      </trkpt>
      <trkpt lat="42.65914" lon="1.50513">
        <ele>2394</ele>
        <time>2014-09-13T08:35:35Z</time>
      </trkpt>
      <trkpt lat="42.65915" lon="1.5051">
        <ele>2393</ele>
        <time>2014-09-13T08:35:39Z</time>
      </trkpt>
      <trkpt lat="42.65924" lon="1.50503">
        <ele>2390</ele>
        <time>2014-09-13T08:35:52Z</time>
      </trkpt>
      <trkpt lat="42.65924" lon="1.50507">
        <ele>2392</ele>
        <time>2014-09-13T08:35:55Z</time>
      </trkpt>
      <trkpt lat="42.65935" lon="1.5052">
        <ele>2392</ele>
        <time>2014-09-13T08:36:07Z</time>
      </trkpt>
      <trkpt lat="42.65944" lon="1.50526">
        <ele>2392</ele>
        <time>2014-09-13T08:36:17Z</time>
      </trkpt>
      <trkpt lat="42.65946" lon="1.50525">
        <ele>2392</ele>
        <time>2014-09-13T08:36:19Z</time>
      </trkpt>
      <trkpt lat="42.65958" lon="1.50531">
        <ele>2392</ele>
        <time>2014-09-13T08:36:34Z</time>
      </trkpt>
      <trkpt lat="42.65962" lon="1.50531">
        <ele>2392</ele>
        <time>2014-09-13T08:36:41Z</time>
      </trkpt>
      <trkpt lat="42.65966" lon="1.50529">
        <ele>2393</ele>
        <time>2014-09-13T08:36:46Z</time>
      </trkpt>
      <trkpt lat="42.6597" lon="1.50532">
        <ele>2394</ele>
        <time>2014-09-13T08:36:53Z</time>
      </trkpt>
      <trkpt lat="42.65972" lon="1.50531">
        <ele>2393</ele>
        <time>2014-09-13T08:36:56Z</time>
      </trkpt>
      <trkpt lat="42.6598" lon="1.50533">
        <ele>2395</ele>
        <time>2014-09-13T08:37:07Z</time>
      </trkpt>
      <trkpt lat="42.65983" lon="1.50533">
        <ele>2395</ele>
        <time>2014-09-13T08:37:10Z</time>
      </trkpt>
      <trkpt lat="42.65996" lon="1.50532">
        <ele>2396</ele>
        <time>2014-09-13T08:37:24Z</time>
      </trkpt>
      <trkpt lat="42.66006" lon="1.50533">
        <ele>2396</ele>
        <time>2014-09-13T08:37:36Z</time>
      </trkpt>
      <trkpt lat="42.66014" lon="1.50533">
        <ele>2396</ele>
        <time>2014-09-13T08:37:51Z</time>
      </trkpt>
      <trkpt lat="42.66017" lon="1.50528">
        <ele>2397</ele>
        <time>2014-09-13T08:37:56Z</time>
      </trkpt>
      <trkpt lat="42.66021" lon="1.50518">
        <ele>2396</ele>
        <time>2014-09-13T08:38:04Z</time>
      </trkpt>
      <trkpt lat="42.66025" lon="1.50514">
        <ele>2396</ele>
        <time>2014-09-13T08:38:11Z</time>
      </trkpt>
      <trkpt lat="42.66031" lon="1.50503">
        <ele>2396</ele>
        <time>2014-09-13T08:38:23Z</time>
      </trkpt>
      <trkpt lat="42.66032" lon="1.50496">
        <ele>2396</ele>
        <time>2014-09-13T08:38:34Z</time>
      </trkpt>
      <trkpt lat="42.66038" lon="1.50495">
        <ele>2396</ele>
        <time>2014-09-13T08:38:41Z</time>
      </trkpt>
      <trkpt lat="42.66046" lon="1.50493">
        <ele>2396</ele>
        <time>2014-09-13T08:38:52Z</time>
      </trkpt>
      <trkpt lat="42.66051" lon="1.50491">
        <ele>2397</ele>
        <time>2014-09-13T08:38:58Z</time>
      </trkpt>
      <trkpt lat="42.66054" lon="1.50498">
        <ele>2396</ele>
        <time>2014-09-13T08:39:03Z</time>
      </trkpt>
      <trkpt lat="42.66059" lon="1.50506">
        <ele>2395</ele>
        <time>2014-09-13T08:39:16Z</time>
      </trkpt>
      <trkpt lat="42.66064" lon="1.50503">
        <ele>2395</ele>
        <time>2014-09-13T08:39:23Z</time>
      </trkpt>
      <trkpt lat="42.66066" lon="1.50502">
        <ele>2395</ele>
        <time>2014-09-13T08:39:25Z</time>
      </trkpt>
      <trkpt lat="42.66074" lon="1.50495">
        <ele>2397</ele>
        <time>2014-09-13T08:39:37Z</time>
      </trkpt>
      <trkpt lat="42.66076" lon="1.5049">
        <ele>2396</ele>
        <time>2014-09-13T08:39:42Z</time>
      </trkpt>
      <trkpt lat="42.6608" lon="1.50476">
        <ele>2396</ele>
        <time>2014-09-13T08:39:54Z</time>
      </trkpt>
      <trkpt lat="42.66082" lon="1.50468">
        <ele>2398</ele>
        <time>2014-09-13T08:40:05Z</time>
      </trkpt>
      <trkpt lat="42.66086" lon="1.50459">
        <ele>2399</ele>
        <time>2014-09-13T08:40:17Z</time>
      </trkpt>
      <trkpt lat="42.66091" lon="1.5045">
        <ele>2401</ele>
        <time>2014-09-13T08:40:30Z</time>
      </trkpt>
      <trkpt lat="42.66092" lon="1.50442">
        <ele>2400</ele>
        <time>2014-09-13T08:40:40Z</time>
      </trkpt>
      <trkpt lat="42.66097" lon="1.50435">
        <ele>2399</ele>
        <time>2014-09-13T08:40:51Z</time>
      </trkpt>
      <trkpt lat="42.66099" lon="1.5043">
        <ele>2400</ele>
        <time>2014-09-13T08:40:56Z</time>
      </trkpt>
      <trkpt lat="42.66103" lon="1.50424">
        <ele>2400</ele>
        <time>2014-09-13T08:41:02Z</time>
      </trkpt>
      <trkpt lat="42.6611" lon="1.50409">
        <ele>2400</ele>
        <time>2014-09-13T08:41:18Z</time>
      </trkpt>
      <trkpt lat="42.66118" lon="1.50399">
        <ele>2401</ele>
        <time>2014-09-13T08:41:31Z</time>
      </trkpt>
      <trkpt lat="42.66121" lon="1.50389">
        <ele>2402</ele>
        <time>2014-09-13T08:41:40Z</time>
      </trkpt>
      <trkpt lat="42.66123" lon="1.50374">
        <ele>2402</ele>
        <time>2014-09-13T08:41:55Z</time>
      </trkpt>
      <trkpt lat="42.66124" lon="1.50367">
        <ele>2404</ele>
        <time>2014-09-13T08:42:07Z</time>
      </trkpt>
      <trkpt lat="42.6613" lon="1.50362">
        <ele>2405</ele>
        <time>2014-09-13T08:42:19Z</time>
      </trkpt>
      <trkpt lat="42.66136" lon="1.50367">
        <ele>2406</ele>
        <time>2014-09-13T08:42:31Z</time>
      </trkpt>
      <trkpt lat="42.66142" lon="1.50366">
        <ele>2405</ele>
        <time>2014-09-13T08:42:45Z</time>
      </trkpt>
      <trkpt lat="42.66145" lon="1.50359">
        <ele>2404</ele>
        <time>2014-09-13T08:42:57Z</time>
      </trkpt>
      <trkpt lat="42.66155" lon="1.50355">
        <ele>2402</ele>
        <time>2014-09-13T08:43:11Z</time>
      </trkpt>
      <trkpt lat="42.66159" lon="1.50351">
        <ele>2401</ele>
        <time>2014-09-13T08:43:23Z</time>
      </trkpt>
      <trkpt lat="42.66162" lon="1.5035">
        <ele>2402</ele>
        <time>2014-09-13T08:43:34Z</time>
      </trkpt>
      <trkpt lat="42.66169" lon="1.5035">
        <ele>2402</ele>
        <time>2014-09-13T08:43:46Z</time>
      </trkpt>
      <trkpt lat="42.66172" lon="1.50346">
        <ele>2401</ele>
        <time>2014-09-13T08:43:54Z</time>
      </trkpt>
      <trkpt lat="42.66176" lon="1.50341">
        <ele>2402</ele>
        <time>2014-09-13T08:44:01Z</time>
      </trkpt>
      <trkpt lat="42.66178" lon="1.50339">
        <ele>2403</ele>
        <time>2014-09-13T08:44:04Z</time>
      </trkpt>
      <trkpt lat="42.66186" lon="1.50336">
        <ele>2403</ele>
        <time>2014-09-13T08:44:13Z</time>
      </trkpt>
      <trkpt lat="42.66194" lon="1.5033">
        <ele>2402</ele>
        <time>2014-09-13T08:44:25Z</time>
      </trkpt>
      <trkpt lat="42.66197" lon="1.50325">
        <ele>2403</ele>
        <time>2014-09-13T08:44:38Z</time>
      </trkpt>
      <trkpt lat="42.66196" lon="1.50324">
        <ele>2403</ele>
        <time>2014-09-13T08:44:39Z</time>
      </trkpt>
      <trkpt lat="42.66197" lon="1.50325">
        <ele>2405</ele>
        <time>2014-09-13T08:44:41Z</time>
      </trkpt>
      <trkpt lat="42.66204" lon="1.50326">
        <ele>2404</ele>
        <time>2014-09-13T08:44:56Z</time>
      </trkpt>
      <trkpt lat="42.66208" lon="1.50325">
        <ele>2405</ele>
        <time>2014-09-13T08:45:09Z</time>
      </trkpt>
      <trkpt lat="42.66212" lon="1.50323">
        <ele>2405</ele>
        <time>2014-09-13T08:45:23Z</time>
      </trkpt>
      <trkpt lat="42.66214" lon="1.50322">
        <ele>2405</ele>
        <time>2014-09-13T08:45:26Z</time>
      </trkpt>
      <trkpt lat="42.66218" lon="1.5032">
        <ele>2408</ele>
        <time>2014-09-13T08:45:37Z</time>
      </trkpt>
      <trkpt lat="42.66226" lon="1.50316">
        <ele>2410</ele>
        <time>2014-09-13T08:45:48Z</time>
      </trkpt>
      <trkpt lat="42.66228" lon="1.50315">
        <ele>2410</ele>
        <time>2014-09-13T08:45:49Z</time>
      </trkpt>
      <trkpt lat="42.66241" lon="1.50311">
        <ele>2409</ele>
        <time>2014-09-13T08:46:01Z</time>
      </trkpt>
      <trkpt lat="42.66244" lon="1.50307">
        <ele>2410</ele>
        <time>2014-09-13T08:46:09Z</time>
      </trkpt>
      <trkpt lat="42.66252" lon="1.50301">
        <ele>2409</ele>
        <time>2014-09-13T08:46:20Z</time>
      </trkpt>
      <trkpt lat="42.66262" lon="1.503">
        <ele>2409</ele>
        <time>2014-09-13T08:46:34Z</time>
      </trkpt>
      <trkpt lat="42.6627" lon="1.50301">
        <ele>2407</ele>
        <time>2014-09-13T08:46:47Z</time>
      </trkpt>
      <trkpt lat="42.66272" lon="1.50302">
        <ele>2408</ele>
        <time>2014-09-13T08:46:50Z</time>
      </trkpt>
      <trkpt lat="42.66282" lon="1.50301">
        <ele>2409</ele>
        <time>2014-09-13T08:47:03Z</time>
      </trkpt>
      <trkpt lat="42.66286" lon="1.503">
        <ele>2408</ele>
        <time>2014-09-13T08:47:22Z</time>
      </trkpt>
      <trkpt lat="42.66287" lon="1.50301">
        <ele>2409</ele>
        <time>2014-09-13T08:47:38Z</time>
      </trkpt>
      <trkpt lat="42.66288" lon="1.50301">
        <ele>2408</ele>
        <time>2014-09-13T08:47:39Z</time>
      </trkpt>
      <trkpt lat="42.66301" lon="1.50307">
        <ele>2408</ele>
        <time>2014-09-13T08:47:55Z</time>
      </trkpt>
      <trkpt lat="42.66303" lon="1.5031">
        <ele>2407</ele>
        <time>2014-09-13T08:47:58Z</time>
      </trkpt>
      <trkpt lat="42.66313" lon="1.50316">
        <ele>2406</ele>
        <time>2014-09-13T08:48:05Z</time>
      </trkpt>
      <trkpt lat="42.66334" lon="1.50318">
        <ele>2402</ele>
        <time>2014-09-13T08:48:20Z</time>
      </trkpt>
      <trkpt lat="42.66338" lon="1.50319">
        <ele>2402</ele>
        <time>2014-09-13T08:48:23Z</time>
      </trkpt>
      <trkpt lat="42.66352" lon="1.5032">
        <ele>2399</ele>
        <time>2014-09-13T08:48:37Z</time>
      </trkpt>
      <trkpt lat="42.66358" lon="1.50322">
        <ele>2398</ele>
        <time>2014-09-13T08:48:43Z</time>
      </trkpt>
      <trkpt lat="42.66371" lon="1.50323">
        <ele>2394</ele>
        <time>2014-09-13T08:48:56Z</time>
      </trkpt>
      <trkpt lat="42.66379" lon="1.50322">
        <ele>2394</ele>
        <time>2014-09-13T08:49:10Z</time>
      </trkpt>
      <trkpt lat="42.66387" lon="1.50323">
        <ele>2393</ele>
        <time>2014-09-13T08:49:21Z</time>
      </trkpt>
      <trkpt lat="42.66397" lon="1.50324">
        <ele>2393</ele>
        <time>2014-09-13T08:49:32Z</time>
      </trkpt>
      <trkpt lat="42.66399" lon="1.50324">
        <ele>2393</ele>
        <time>2014-09-13T08:49:35Z</time>
      </trkpt>
      <trkpt lat="42.664" lon="1.50324">
        <ele>2391</ele>
        <time>2014-09-13T08:49:37Z</time>
      </trkpt>
      <trkpt lat="42.66402" lon="1.50324">
        <ele>2393</ele>
        <time>2014-09-13T08:49:39Z</time>
      </trkpt>
      <trkpt lat="42.66422" lon="1.50319">
        <ele>2390</ele>
        <time>2014-09-13T08:49:53Z</time>
      </trkpt>
      <trkpt lat="42.66427" lon="1.50318">
        <ele>2389</ele>
        <time>2014-09-13T08:49:57Z</time>
      </trkpt>
      <trkpt lat="42.66435" lon="1.5032">
        <ele>2388</ele>
        <time>2014-09-13T08:50:09Z</time>
      </trkpt>
      <trkpt lat="42.66439" lon="1.50319">
        <ele>2388</ele>
        <time>2014-09-13T08:50:15Z</time>
      </trkpt>
      <trkpt lat="42.66448" lon="1.50318">
        <ele>2389</ele>
        <time>2014-09-13T08:50:27Z</time>
      </trkpt>
      <trkpt lat="42.66463" lon="1.50319">
        <ele>2388</ele>
        <time>2014-09-13T08:50:43Z</time>
      </trkpt>
      <trkpt lat="42.66465" lon="1.50318">
        <ele>2387</ele>
        <time>2014-09-13T08:50:49Z</time>
      </trkpt>
      <trkpt lat="42.66474" lon="1.50317">
        <ele>2388</ele>
        <time>2014-09-13T08:51:04Z</time>
      </trkpt>
      <trkpt lat="42.66481" lon="1.5032">
        <ele>2391</ele>
        <time>2014-09-13T08:51:15Z</time>
      </trkpt>
      <trkpt lat="42.66489" lon="1.50318">
        <ele>2392</ele>
        <time>2014-09-13T08:51:25Z</time>
      </trkpt>
      <trkpt lat="42.66492" lon="1.50317">
        <ele>2392</ele>
        <time>2014-09-13T08:51:36Z</time>
      </trkpt>
      <trkpt lat="42.66499" lon="1.50315">
        <ele>2390</ele>
        <time>2014-09-13T08:51:48Z</time>
      </trkpt>
      <trkpt lat="42.66512" lon="1.50316">
        <ele>2391</ele>
        <time>2014-09-13T08:52:05Z</time>
      </trkpt>
      <trkpt lat="42.66529" lon="1.50324">
        <ele>2393</ele>
        <time>2014-09-13T08:52:16Z</time>
      </trkpt>
      <trkpt lat="42.6653" lon="1.50322">
        <ele>2395</ele>
        <time>2014-09-13T08:52:29Z</time>
      </trkpt>
      <trkpt lat="42.66528" lon="1.50322">
        <ele>2395</ele>
        <time>2014-09-13T08:52:31Z</time>
      </trkpt>
      <trkpt lat="42.66525" lon="1.5032">
        <ele>2397</ele>
        <time>2014-09-13T08:52:45Z</time>
      </trkpt>
      <trkpt lat="42.66528" lon="1.50321">
        <ele>2397</ele>
        <time>2014-09-13T08:52:54Z</time>
      </trkpt>
      <trkpt lat="42.6653" lon="1.50323">
        <ele>2397</ele>
        <time>2014-09-13T08:53:03Z</time>
      </trkpt>
      <trkpt lat="42.66538" lon="1.50325">
        <ele>2397</ele>
        <time>2014-09-13T08:53:19Z</time>
      </trkpt>
      <trkpt lat="42.66535" lon="1.50326">
        <ele>2397</ele>
        <time>2014-09-13T08:53:24Z</time>
      </trkpt>
      <trkpt lat="42.6647" lon="1.50316">
        <ele>2397</ele>
        <time>2014-09-13T08:53:38Z</time>
      </trkpt>
      <trkpt lat="42.66467" lon="1.50316">
        <ele>2399</ele>
        <time>2014-09-13T08:53:50Z</time>
      </trkpt>
      <trkpt lat="42.66472" lon="1.50316">
        <ele>2401</ele>
        <time>2014-09-13T08:54:03Z</time>
      </trkpt>
      <trkpt lat="42.66481" lon="1.50317">
        <ele>2401</ele>
        <time>2014-09-13T08:54:18Z</time>
      </trkpt>
      <trkpt lat="42.66485" lon="1.50317">
        <ele>2403</ele>
        <time>2014-09-13T08:54:29Z</time>
      </trkpt>
      <trkpt lat="42.66489" lon="1.50318">
        <ele>2403</ele>
        <time>2014-09-13T08:54:44Z</time>
      </trkpt>
      <trkpt lat="42.66497" lon="1.50317">
        <ele>2402</ele>
        <time>2014-09-13T08:55:00Z</time>
      </trkpt>
      <trkpt lat="42.66506" lon="1.50313">
        <ele>2401</ele>
        <time>2014-09-13T08:55:19Z</time>
      </trkpt>
      <trkpt lat="42.66516" lon="1.50305">
        <ele>2401</ele>
        <time>2014-09-13T08:55:35Z</time>
      </trkpt>
      <trkpt lat="42.66527" lon="1.50306">
        <ele>2401</ele>
        <time>2014-09-13T08:55:50Z</time>
      </trkpt>
      <trkpt lat="42.6653" lon="1.50308">
        <ele>2401</ele>
        <time>2014-09-13T08:56:11Z</time>
      </trkpt>
      <trkpt lat="42.66529" lon="1.50307">
        <ele>2401</ele>
        <time>2014-09-13T08:56:30Z</time>
      </trkpt>
      <trkpt lat="42.66538" lon="1.50308">
        <ele>2401</ele>
        <time>2014-09-13T08:56:44Z</time>
      </trkpt>
      <trkpt lat="42.66545" lon="1.50305">
        <ele>2399</ele>
        <time>2014-09-13T08:56:57Z</time>
      </trkpt>
      <trkpt lat="42.66546" lon="1.50305">
        <ele>2399</ele>
        <time>2014-09-13T08:56:59Z</time>
      </trkpt>
      <trkpt lat="42.66555" lon="1.50308">
        <ele>2401</ele>
        <time>2014-09-13T08:57:12Z</time>
      </trkpt>
      <trkpt lat="42.66555" lon="1.50308">
        <ele>2400</ele>
        <time>2014-09-13T08:57:13Z</time>
      </trkpt>
      <trkpt lat="42.66559" lon="1.50304">
        <ele>2400</ele>
        <time>2014-09-13T08:57:19Z</time>
      </trkpt>
      <trkpt lat="42.66568" lon="1.50297">
        <ele>2399</ele>
        <time>2014-09-13T08:57:35Z</time>
      </trkpt>
      <trkpt lat="42.66582" lon="1.503">
        <ele>2397</ele>
        <time>2014-09-13T08:57:52Z</time>
      </trkpt>
      <trkpt lat="42.66591" lon="1.50298">
        <ele>2398</ele>
        <time>2014-09-13T08:58:05Z</time>
      </trkpt>
      <trkpt lat="42.66599" lon="1.50294">
        <ele>2395</ele>
        <time>2014-09-13T08:58:17Z</time>
      </trkpt>
      <trkpt lat="42.66609" lon="1.50293">
        <ele>2394</ele>
        <time>2014-09-13T08:58:30Z</time>
      </trkpt>
      <trkpt lat="42.66627" lon="1.50292">
        <ele>2393</ele>
        <time>2014-09-13T08:58:45Z</time>
      </trkpt>
      <trkpt lat="42.66632" lon="1.50291">
        <ele>2392</ele>
        <time>2014-09-13T08:58:56Z</time>
      </trkpt>
      <trkpt lat="42.66635" lon="1.50287">
        <ele>2392</ele>
        <time>2014-09-13T08:59:08Z</time>
      </trkpt>
      <trkpt lat="42.66641" lon="1.5028">
        <ele>2393</ele>
        <time>2014-09-13T08:59:19Z</time>
      </trkpt>
      <trkpt lat="42.66645" lon="1.5028">
        <ele>2393</ele>
        <time>2014-09-13T08:59:22Z</time>
      </trkpt>
      <trkpt lat="42.66653" lon="1.50289">
        <ele>2394</ele>
        <time>2014-09-13T08:59:34Z</time>
      </trkpt>
      <trkpt lat="42.66659" lon="1.5029">
        <ele>2393</ele>
        <time>2014-09-13T08:59:41Z</time>
      </trkpt>
      <trkpt lat="42.66671" lon="1.50294">
        <ele>2392</ele>
        <time>2014-09-13T08:59:53Z</time>
      </trkpt>
      <trkpt lat="42.66673" lon="1.50299">
        <ele>2392</ele>
        <time>2014-09-13T08:59:57Z</time>
      </trkpt>
      <trkpt lat="42.66674" lon="1.50303">
        <ele>2392</ele>
        <time>2014-09-13T09:00:00Z</time>
      </trkpt>
      <trkpt lat="42.66678" lon="1.50308">
        <ele>2391</ele>
        <time>2014-09-13T09:00:05Z</time>
      </trkpt>
      <trkpt lat="42.66689" lon="1.50312">
        <ele>2390</ele>
        <time>2014-09-13T09:00:18Z</time>
      </trkpt>
      <trkpt lat="42.66694" lon="1.50311">
        <ele>2389</ele>
        <time>2014-09-13T09:00:30Z</time>
      </trkpt>
      <trkpt lat="42.66696" lon="1.50306">
        <ele>2386</ele>
        <time>2014-09-13T09:00:39Z</time>
      </trkpt>
      <trkpt lat="42.66706" lon="1.50306">
        <ele>2384</ele>
        <time>2014-09-13T09:00:53Z</time>
      </trkpt>
      <trkpt lat="42.66712" lon="1.50308">
        <ele>2383</ele>
        <time>2014-09-13T09:01:05Z</time>
      </trkpt>
      <trkpt lat="42.66715" lon="1.50311">
        <ele>2383</ele>
        <time>2014-09-13T09:01:24Z</time>
      </trkpt>
      <trkpt lat="42.66716" lon="1.50313">
        <ele>2382</ele>
        <time>2014-09-13T09:01:26Z</time>
      </trkpt>
      <trkpt lat="42.66724" lon="1.5032">
        <ele>2380</ele>
        <time>2014-09-13T09:01:38Z</time>
      </trkpt>
      <trkpt lat="42.66731" lon="1.50323">
        <ele>2379</ele>
        <time>2014-09-13T09:01:48Z</time>
      </trkpt>
      <trkpt lat="42.6674" lon="1.50327">
        <ele>2377</ele>
        <time>2014-09-13T09:02:01Z</time>
      </trkpt>
      <trkpt lat="42.66745" lon="1.50331">
        <ele>2374</ele>
        <time>2014-09-13T09:02:13Z</time>
      </trkpt>
      <trkpt lat="42.66745" lon="1.5033">
        <ele>2374</ele>
        <time>2014-09-13T09:02:27Z</time>
      </trkpt>
      <trkpt lat="42.66748" lon="1.50332">
        <ele>2373</ele>
        <time>2014-09-13T09:02:50Z</time>
      </trkpt>
      <trkpt lat="42.66749" lon="1.50335">
        <ele>2372</ele>
        <time>2014-09-13T09:03:01Z</time>
      </trkpt>
      <trkpt lat="42.6675" lon="1.50339">
        <ele>2371</ele>
        <time>2014-09-13T09:03:11Z</time>
      </trkpt>
      <trkpt lat="42.66749" lon="1.5035">
        <ele>2368</ele>
        <time>2014-09-13T09:03:24Z</time>
      </trkpt>
      <trkpt lat="42.66754" lon="1.50349">
        <ele>2366</ele>
        <time>2014-09-13T09:03:36Z</time>
      </trkpt>
      <trkpt lat="42.66757" lon="1.50351">
        <ele>2364</ele>
        <time>2014-09-13T09:03:42Z</time>
      </trkpt>
      <trkpt lat="42.66765" lon="1.50357">
        <ele>2362</ele>
        <time>2014-09-13T09:03:54Z</time>
      </trkpt>
      <trkpt lat="42.6677" lon="1.50361">
        <ele>2359</ele>
        <time>2014-09-13T09:04:04Z</time>
      </trkpt>
      <trkpt lat="42.66778" lon="1.50367">
        <ele>2356</ele>
        <time>2014-09-13T09:04:16Z</time>
      </trkpt>
      <trkpt lat="42.66785" lon="1.50372">
        <ele>2354</ele>
        <time>2014-09-13T09:04:26Z</time>
      </trkpt>
      <trkpt lat="42.66788" lon="1.50371">
        <ele>2354</ele>
        <time>2014-09-13T09:04:28Z</time>
      </trkpt>
      <trkpt lat="42.66803" lon="1.50373">
        <ele>2351</ele>
        <time>2014-09-13T09:04:42Z</time>
      </trkpt>
      <trkpt lat="42.66805" lon="1.50372">
        <ele>2350</ele>
        <time>2014-09-13T09:04:45Z</time>
      </trkpt>
      <trkpt lat="42.66809" lon="1.50375">
        <ele>2348</ele>
        <time>2014-09-13T09:04:52Z</time>
      </trkpt>
      <trkpt lat="42.66816" lon="1.50383">
        <ele>2346</ele>
        <time>2014-09-13T09:05:05Z</time>
      </trkpt>
      <trkpt lat="42.66817" lon="1.50383">
        <ele>2346</ele>
        <time>2014-09-13T09:05:07Z</time>
      </trkpt>
      <trkpt lat="42.66824" lon="1.50384">
        <ele>2344</ele>
        <time>2014-09-13T09:05:18Z</time>
      </trkpt>
      <trkpt lat="42.66825" lon="1.50385">
        <ele>2342</ele>
        <time>2014-09-13T09:05:20Z</time>
      </trkpt>
      <trkpt lat="42.66831" lon="1.5039">
        <ele>2341</ele>
        <time>2014-09-13T09:05:34Z</time>
      </trkpt>
      <trkpt lat="42.66834" lon="1.50394">
        <ele>2339</ele>
        <time>2014-09-13T09:05:46Z</time>
      </trkpt>
      <trkpt lat="42.6684" lon="1.5039">
        <ele>2337</ele>
        <time>2014-09-13T09:05:58Z</time>
      </trkpt>
      <trkpt lat="42.66845" lon="1.50395">
        <ele>2334</ele>
        <time>2014-09-13T09:06:09Z</time>
      </trkpt>
      <trkpt lat="42.66856" lon="1.504">
        <ele>2331</ele>
        <time>2014-09-13T09:06:22Z</time>
      </trkpt>
      <trkpt lat="42.66856" lon="1.50401">
        <ele>2331</ele>
        <time>2014-09-13T09:06:24Z</time>
      </trkpt>
      <trkpt lat="42.66857" lon="1.50402">
        <ele>2331</ele>
        <time>2014-09-13T09:06:26Z</time>
      </trkpt>
      <trkpt lat="42.66862" lon="1.50411">
        <ele>2330</ele>
        <time>2014-09-13T09:06:34Z</time>
      </trkpt>
      <trkpt lat="42.66868" lon="1.50415">
        <ele>2330</ele>
        <time>2014-09-13T09:06:45Z</time>
      </trkpt>
      <trkpt lat="42.66869" lon="1.50414">
        <ele>2329</ele>
        <time>2014-09-13T09:06:47Z</time>
      </trkpt>
      <trkpt lat="42.66879" lon="1.50423">
        <ele>2330</ele>
        <time>2014-09-13T09:07:00Z</time>
      </trkpt>
      <trkpt lat="42.66879" lon="1.50423">
        <ele>2329</ele>
        <time>2014-09-13T09:07:01Z</time>
      </trkpt>
      <trkpt lat="42.6688" lon="1.50425">
        <ele>2329</ele>
        <time>2014-09-13T09:07:04Z</time>
      </trkpt>
      <trkpt lat="42.66879" lon="1.5043">
        <ele>2328</ele>
        <time>2014-09-13T09:07:07Z</time>
      </trkpt>
      <trkpt lat="42.66882" lon="1.50439">
        <ele>2326</ele>
        <time>2014-09-13T09:07:18Z</time>
      </trkpt>
      <trkpt lat="42.66883" lon="1.50441">
        <ele>2326</ele>
        <time>2014-09-13T09:07:22Z</time>
      </trkpt>
      <trkpt lat="42.66888" lon="1.50444">
        <ele>2325</ele>
        <time>2014-09-13T09:07:27Z</time>
      </trkpt>
      <trkpt lat="42.66896" lon="1.50446">
        <ele>2323</ele>
        <time>2014-09-13T09:07:38Z</time>
      </trkpt>
      <trkpt lat="42.66898" lon="1.50451">
        <ele>2322</ele>
        <time>2014-09-13T09:07:44Z</time>
      </trkpt>
      <trkpt lat="42.66899" lon="1.50454">
        <ele>2321</ele>
        <time>2014-09-13T09:07:47Z</time>
      </trkpt>
      <trkpt lat="42.66901" lon="1.50455">
        <ele>2321</ele>
        <time>2014-09-13T09:07:49Z</time>
      </trkpt>
      <trkpt lat="42.66904" lon="1.50461">
        <ele>2320</ele>
        <time>2014-09-13T09:07:54Z</time>
      </trkpt>
      <trkpt lat="42.66907" lon="1.50463">
        <ele>2320</ele>
        <time>2014-09-13T09:07:58Z</time>
      </trkpt>
      <trkpt lat="42.6691" lon="1.50466">
        <ele>2320</ele>
        <time>2014-09-13T09:08:01Z</time>
      </trkpt>
      <trkpt lat="42.66917" lon="1.50471">
        <ele>2319</ele>
        <time>2014-09-13T09:08:10Z</time>
      </trkpt>
      <trkpt lat="42.66917" lon="1.50474">
        <ele>2320</ele>
        <time>2014-09-13T09:08:12Z</time>
      </trkpt>
      <trkpt lat="42.66927" lon="1.50484">
        <ele>2318</ele>
        <time>2014-09-13T09:08:25Z</time>
      </trkpt>
      <trkpt lat="42.66939" lon="1.50493">
        <ele>2318</ele>
        <time>2014-09-13T09:08:39Z</time>
      </trkpt>
      <trkpt lat="42.66948" lon="1.505">
        <ele>2319</ele>
        <time>2014-09-13T09:08:51Z</time>
      </trkpt>
      <trkpt lat="42.66959" lon="1.50499">
        <ele>2318</ele>
        <time>2014-09-13T09:09:04Z</time>
      </trkpt>
      <trkpt lat="42.66956" lon="1.50501">
        <ele>2319</ele>
        <time>2014-09-13T09:09:24Z</time>
      </trkpt>
      <trkpt lat="42.66955" lon="1.505">
        <ele>2319</ele>
        <time>2014-09-13T09:09:56Z</time>
      </trkpt>
      <trkpt lat="42.66955" lon="1.50502">
        <ele>2318</ele>
        <time>2014-09-13T09:10:26Z</time>
      </trkpt>
      <trkpt lat="42.66955" lon="1.50506">
        <ele>2319</ele>
        <time>2014-09-13T09:11:05Z</time>
      </trkpt>
      <trkpt lat="42.66959" lon="1.50497">
        <ele>2319</ele>
        <time>2014-09-13T09:11:22Z</time>
      </trkpt>
      <trkpt lat="42.66962" lon="1.50502">
        <ele>2318</ele>
        <time>2014-09-13T09:11:38Z</time>
      </trkpt>
      <trkpt lat="42.66964" lon="1.50506">
        <ele>2318</ele>
        <time>2014-09-13T09:11:42Z</time>
      </trkpt>
      <trkpt lat="42.66974" lon="1.5051">
        <ele>2319</ele>
        <time>2014-09-13T09:11:55Z</time>
      </trkpt>
      <trkpt lat="42.66981" lon="1.50524">
        <ele>2320</ele>
        <time>2014-09-13T09:12:11Z</time>
      </trkpt>
      <trkpt lat="42.66984" lon="1.50533">
        <ele>2320</ele>
        <time>2014-09-13T09:12:22Z</time>
      </trkpt>
      <trkpt lat="42.66981" lon="1.50548">
        <ele>2320</ele>
        <time>2014-09-13T09:12:35Z</time>
      </trkpt>
      <trkpt lat="42.66986" lon="1.50554">
        <ele>2320</ele>
        <time>2014-09-13T09:12:45Z</time>
      </trkpt>
      <trkpt lat="42.66987" lon="1.50556">
        <ele>2322</ele>
        <time>2014-09-13T09:12:47Z</time>
      </trkpt>
      <trkpt lat="42.66992" lon="1.50562">
        <ele>2322</ele>
        <time>2014-09-13T09:12:54Z</time>
      </trkpt>
      <trkpt lat="42.66995" lon="1.50566">
        <ele>2322</ele>
        <time>2014-09-13T09:12:59Z</time>
      </trkpt>
      <trkpt lat="42.66996" lon="1.50572">
        <ele>2322</ele>
        <time>2014-09-13T09:13:03Z</time>
      </trkpt>
      <trkpt lat="42.66997" lon="1.50573">
        <ele>2322</ele>
        <time>2014-09-13T09:13:05Z</time>
      </trkpt>
      <trkpt lat="42.67001" lon="1.50587">
        <ele>2320</ele>
        <time>2014-09-13T09:13:21Z</time>
      </trkpt>
      <trkpt lat="42.67005" lon="1.50596">
        <ele>2321</ele>
        <time>2014-09-13T09:13:32Z</time>
      </trkpt>
      <trkpt lat="42.67011" lon="1.50601">
        <ele>2322</ele>
        <time>2014-09-13T09:13:44Z</time>
      </trkpt>
      <trkpt lat="42.67012" lon="1.50603">
        <ele>2322</ele>
        <time>2014-09-13T09:13:46Z</time>
      </trkpt>
      <trkpt lat="42.6702" lon="1.50609">
        <ele>2322</ele>
        <time>2014-09-13T09:13:59Z</time>
      </trkpt>
      <trkpt lat="42.67024" lon="1.50612">
        <ele>2322</ele>
        <time>2014-09-13T09:14:12Z</time>
      </trkpt>
      <trkpt lat="42.67022" lon="1.50617">
        <ele>2321</ele>
        <time>2014-09-13T09:14:20Z</time>
      </trkpt>
      <trkpt lat="42.67018" lon="1.50624">
        <ele>2320</ele>
        <time>2014-09-13T09:14:24Z</time>
      </trkpt>
      <trkpt lat="42.67014" lon="1.50624">
        <ele>2319</ele>
        <time>2014-09-13T09:14:36Z</time>
      </trkpt>
      <trkpt lat="42.67014" lon="1.50624">
        <ele>2320</ele>
        <time>2014-09-13T09:14:39Z</time>
      </trkpt>
      <trkpt lat="42.67015" lon="1.50625">
        <ele>2320</ele>
        <time>2014-09-13T09:14:40Z</time>
      </trkpt>
      <trkpt lat="42.67016" lon="1.50632">
        <ele>2319</ele>
        <time>2014-09-13T09:14:45Z</time>
      </trkpt>
      <trkpt lat="42.67009" lon="1.50641">
        <ele>2317</ele>
        <time>2014-09-13T09:14:53Z</time>
      </trkpt>
      <trkpt lat="42.67008" lon="1.50648">
        <ele>2316</ele>
        <time>2014-09-13T09:14:59Z</time>
      </trkpt>
      <trkpt lat="42.67004" lon="1.50658">
        <ele>2313</ele>
        <time>2014-09-13T09:15:07Z</time>
      </trkpt>
      <trkpt lat="42.67003" lon="1.50663">
        <ele>2312</ele>
        <time>2014-09-13T09:15:14Z</time>
      </trkpt>
      <trkpt lat="42.67002" lon="1.50665">
        <ele>2311</ele>
        <time>2014-09-13T09:15:15Z</time>
      </trkpt>
      <trkpt lat="42.66994" lon="1.50669">
        <ele>2310</ele>
        <time>2014-09-13T09:15:21Z</time>
      </trkpt>
      <trkpt lat="42.6699" lon="1.50676">
        <ele>2309</ele>
        <time>2014-09-13T09:15:27Z</time>
      </trkpt>
      <trkpt lat="42.66983" lon="1.50672">
        <ele>2308</ele>
        <time>2014-09-13T09:15:38Z</time>
      </trkpt>
      <trkpt lat="42.66984" lon="1.50675">
        <ele>2308</ele>
        <time>2014-09-13T09:15:40Z</time>
      </trkpt>
      <trkpt lat="42.66984" lon="1.50677">
        <ele>2309</ele>
        <time>2014-09-13T09:15:41Z</time>
      </trkpt>
      <trkpt lat="42.66973" lon="1.50701">
        <ele>2309</ele>
        <time>2014-09-13T09:15:54Z</time>
      </trkpt>
      <trkpt lat="42.66966" lon="1.5071">
        <ele>2309</ele>
        <time>2014-09-13T09:16:01Z</time>
      </trkpt>
      <trkpt lat="42.66963" lon="1.50718">
        <ele>2310</ele>
        <time>2014-09-13T09:16:07Z</time>
      </trkpt>
      <trkpt lat="42.66962" lon="1.50721">
        <ele>2310</ele>
        <time>2014-09-13T09:16:08Z</time>
      </trkpt>
      <trkpt lat="42.66957" lon="1.50732">
        <ele>2310</ele>
        <time>2014-09-13T09:16:18Z</time>
      </trkpt>
      <trkpt lat="42.66953" lon="1.50736">
        <ele>2310</ele>
        <time>2014-09-13T09:16:23Z</time>
      </trkpt>
      <trkpt lat="42.66952" lon="1.50738">
        <ele>2309</ele>
        <time>2014-09-13T09:16:27Z</time>
      </trkpt>
      <trkpt lat="42.66943" lon="1.50749">
        <ele>2308</ele>
        <time>2014-09-13T09:16:38Z</time>
      </trkpt>
      <trkpt lat="42.66942" lon="1.50751">
        <ele>2308</ele>
        <time>2014-09-13T09:16:41Z</time>
      </trkpt>
      <trkpt lat="42.66941" lon="1.50756">
        <ele>2308</ele>
        <time>2014-09-13T09:16:46Z</time>
      </trkpt>
      <trkpt lat="42.66935" lon="1.50766">
        <ele>2308</ele>
        <time>2014-09-13T09:16:58Z</time>
      </trkpt>
      <trkpt lat="42.66937" lon="1.50774">
        <ele>2307</ele>
        <time>2014-09-13T09:17:09Z</time>
      </trkpt>
      <trkpt lat="42.66933" lon="1.50771">
        <ele>2306</ele>
        <time>2014-09-13T09:17:25Z</time>
      </trkpt>
      <trkpt lat="42.66928" lon="1.50772">
        <ele>2306</ele>
        <time>2014-09-13T09:17:46Z</time>
      </trkpt>
      <trkpt lat="42.66928" lon="1.50773">
        <ele>2306</ele>
        <time>2014-09-13T09:17:50Z</time>
      </trkpt>
      <trkpt lat="42.6693" lon="1.50779">
        <ele>2307</ele>
        <time>2014-09-13T09:17:55Z</time>
      </trkpt>
      <trkpt lat="42.66933" lon="1.50784">
        <ele>2307</ele>
        <time>2014-09-13T09:18:00Z</time>
      </trkpt>
      <trkpt lat="42.66935" lon="1.50785">
        <ele>2308</ele>
        <time>2014-09-13T09:18:02Z</time>
      </trkpt>
      <trkpt lat="42.6694" lon="1.50791">
        <ele>2308</ele>
        <time>2014-09-13T09:18:08Z</time>
      </trkpt>
      <trkpt lat="42.66944" lon="1.50793">
        <ele>2307</ele>
        <time>2014-09-13T09:18:11Z</time>
      </trkpt>
      <trkpt lat="42.66945" lon="1.50799">
        <ele>2308</ele>
        <time>2014-09-13T09:18:15Z</time>
      </trkpt>
      <trkpt lat="42.66944" lon="1.50802">
        <ele>2308</ele>
        <time>2014-09-13T09:18:17Z</time>
      </trkpt>
      <trkpt lat="42.66948" lon="1.5081">
        <ele>2308</ele>
        <time>2014-09-13T09:18:26Z</time>
      </trkpt>
      <trkpt lat="42.66958" lon="1.50814">
        <ele>2308</ele>
        <time>2014-09-13T09:18:34Z</time>
      </trkpt>
      <trkpt lat="42.66973" lon="1.50813">
        <ele>2308</ele>
        <time>2014-09-13T09:18:46Z</time>
      </trkpt>
      <trkpt lat="42.66984" lon="1.50816">
        <ele>2311</ele>
        <time>2014-09-13T09:19:00Z</time>
      </trkpt>
      <trkpt lat="42.66998" lon="1.50809">
        <ele>2313</ele>
        <time>2014-09-13T09:19:14Z</time>
      </trkpt>
      <trkpt lat="42.67004" lon="1.50808">
        <ele>2312</ele>
        <time>2014-09-13T09:19:24Z</time>
      </trkpt>
      <trkpt lat="42.67005" lon="1.50807">
        <ele>2315</ele>
        <time>2014-09-13T09:19:25Z</time>
      </trkpt>
      <trkpt lat="42.67005" lon="1.50807">
        <ele>2315</ele>
        <time>2014-09-13T09:19:26Z</time>
      </trkpt>
      <trkpt lat="42.67007" lon="1.50809">
        <ele>2314</ele>
        <time>2014-09-13T09:19:42Z</time>
      </trkpt>
      <trkpt lat="42.67012" lon="1.50812">
        <ele>2317</ele>
        <time>2014-09-13T09:19:53Z</time>
      </trkpt>
      <trkpt lat="42.67022" lon="1.50815">
        <ele>2318</ele>
        <time>2014-09-13T09:20:04Z</time>
      </trkpt>
      <trkpt lat="42.67028" lon="1.50815">
        <ele>2320</ele>
        <time>2014-09-13T09:20:15Z</time>
      </trkpt>
      <trkpt lat="42.67031" lon="1.50819">
        <ele>2322</ele>
        <time>2014-09-13T09:20:27Z</time>
      </trkpt>
      <trkpt lat="42.67038" lon="1.50823">
        <ele>2324</ele>
        <time>2014-09-13T09:20:39Z</time>
      </trkpt>
      <trkpt lat="42.67044" lon="1.50823">
        <ele>2325</ele>
        <time>2014-09-13T09:20:53Z</time>
      </trkpt>
      <trkpt lat="42.6705" lon="1.50825">
        <ele>2327</ele>
        <time>2014-09-13T09:21:05Z</time>
      </trkpt>
      <trkpt lat="42.67057" lon="1.50826">
        <ele>2327</ele>
        <time>2014-09-13T09:21:17Z</time>
      </trkpt>
      <trkpt lat="42.67058" lon="1.5084">
        <ele>2328</ele>
        <time>2014-09-13T09:21:31Z</time>
      </trkpt>
      <trkpt lat="42.67048" lon="1.50852">
        <ele>2329</ele>
        <time>2014-09-13T09:21:45Z</time>
      </trkpt>
      <trkpt lat="42.67045" lon="1.50862">
        <ele>2326</ele>
        <time>2014-09-13T09:21:59Z</time>
      </trkpt>
      <trkpt lat="42.67046" lon="1.50864">
        <ele>2325</ele>
        <time>2014-09-13T09:22:06Z</time>
      </trkpt>
      <trkpt lat="42.67044" lon="1.50868">
        <ele>2324</ele>
        <time>2014-09-13T09:22:11Z</time>
      </trkpt>
      <trkpt lat="42.67047" lon="1.50873">
        <ele>2322</ele>
        <time>2014-09-13T09:22:17Z</time>
      </trkpt>
      <trkpt lat="42.67051" lon="1.50885">
        <ele>2320</ele>
        <time>2014-09-13T09:22:31Z</time>
      </trkpt>
      <trkpt lat="42.67054" lon="1.50893">
        <ele>2320</ele>
        <time>2014-09-13T09:22:45Z</time>
      </trkpt>
      <trkpt lat="42.67054" lon="1.50896">
        <ele>2319</ele>
        <time>2014-09-13T09:22:50Z</time>
      </trkpt>
      <trkpt lat="42.67057" lon="1.50902">
        <ele>2319</ele>
        <time>2014-09-13T09:23:03Z</time>
      </trkpt>
      <trkpt lat="42.67066" lon="1.50907">
        <ele>2321</ele>
        <time>2014-09-13T09:23:17Z</time>
      </trkpt>
      <trkpt lat="42.67075" lon="1.5091">
        <ele>2324</ele>
        <time>2014-09-13T09:23:32Z</time>
      </trkpt>
      <trkpt lat="42.67077" lon="1.50916">
        <ele>2325</ele>
        <time>2014-09-13T09:23:45Z</time>
      </trkpt>
      <trkpt lat="42.67083" lon="1.5092">
        <ele>2327</ele>
        <time>2014-09-13T09:23:57Z</time>
      </trkpt>
      <trkpt lat="42.6709" lon="1.50921">
        <ele>2327</ele>
        <time>2014-09-13T09:24:09Z</time>
      </trkpt>
      <trkpt lat="42.67095" lon="1.50923">
        <ele>2327</ele>
        <time>2014-09-13T09:24:21Z</time>
      </trkpt>
      <trkpt lat="42.67098" lon="1.5093">
        <ele>2327</ele>
        <time>2014-09-13T09:24:33Z</time>
      </trkpt>
      <trkpt lat="42.67104" lon="1.50935">
        <ele>2327</ele>
        <time>2014-09-13T09:24:44Z</time>
      </trkpt>
      <trkpt lat="42.67107" lon="1.50943">
        <ele>2329</ele>
        <time>2014-09-13T09:24:55Z</time>
      </trkpt>
      <trkpt lat="42.67107" lon="1.50945">
        <ele>2330</ele>
        <time>2014-09-13T09:24:59Z</time>
      </trkpt>
      <trkpt lat="42.67116" lon="1.50948">
        <ele>2331</ele>
        <time>2014-09-13T09:25:12Z</time>
      </trkpt>
      <trkpt lat="42.67126" lon="1.50947">
        <ele>2333</ele>
        <time>2014-09-13T09:25:25Z</time>
      </trkpt>
      <trkpt lat="42.67135" lon="1.50951">
        <ele>2335</ele>
        <time>2014-09-13T09:25:41Z</time>
      </trkpt>
      <trkpt lat="42.67139" lon="1.5095">
        <ele>2336</ele>
        <time>2014-09-13T09:25:59Z</time>
      </trkpt>
      <trkpt lat="42.67144" lon="1.50954">
        <ele>2338</ele>
        <time>2014-09-13T09:26:11Z</time>
      </trkpt>
      <trkpt lat="42.67147" lon="1.50956">
        <ele>2339</ele>
        <time>2014-09-13T09:26:25Z</time>
      </trkpt>
      <trkpt lat="42.67153" lon="1.50956">
        <ele>2342</ele>
        <time>2014-09-13T09:26:38Z</time>
      </trkpt>
      <trkpt lat="42.67163" lon="1.50954">
        <ele>2344</ele>
        <time>2014-09-13T09:26:53Z</time>
      </trkpt>
      <trkpt lat="42.6717" lon="1.50958">
        <ele>2346</ele>
        <time>2014-09-13T09:27:08Z</time>
      </trkpt>
      <trkpt lat="42.67174" lon="1.50959">
        <ele>2347</ele>
        <time>2014-09-13T09:27:22Z</time>
      </trkpt>
      <trkpt lat="42.67177" lon="1.50961">
        <ele>2348</ele>
        <time>2014-09-13T09:27:36Z</time>
      </trkpt>
      <trkpt lat="42.67182" lon="1.50965">
        <ele>2351</ele>
        <time>2014-09-13T09:27:51Z</time>
      </trkpt>
      <trkpt lat="42.67185" lon="1.50965">
        <ele>2352</ele>
        <time>2014-09-13T09:28:02Z</time>
      </trkpt>
      <trkpt lat="42.67188" lon="1.50965">
        <ele>2354</ele>
        <time>2014-09-13T09:28:19Z</time>
      </trkpt>
      <trkpt lat="42.67191" lon="1.50966">
        <ele>2356</ele>
        <time>2014-09-13T09:28:30Z</time>
      </trkpt>
      <trkpt lat="42.67197" lon="1.50967">
        <ele>2356</ele>
        <time>2014-09-13T09:28:42Z</time>
      </trkpt>
      <trkpt lat="42.67198" lon="1.5097">
        <ele>2359</ele>
        <time>2014-09-13T09:28:55Z</time>
      </trkpt>
      <trkpt lat="42.67202" lon="1.50969">
        <ele>2360</ele>
        <time>2014-09-13T09:29:07Z</time>
      </trkpt>
      <trkpt lat="42.67206" lon="1.50971">
        <ele>2362</ele>
        <time>2014-09-13T09:29:19Z</time>
      </trkpt>
      <trkpt lat="42.67212" lon="1.50969">
        <ele>2364</ele>
        <time>2014-09-13T09:29:32Z</time>
      </trkpt>
      <trkpt lat="42.67214" lon="1.50969">
        <ele>2365</ele>
        <time>2014-09-13T09:29:46Z</time>
      </trkpt>
      <trkpt lat="42.67218" lon="1.5097">
        <ele>2367</ele>
        <time>2014-09-13T09:29:58Z</time>
      </trkpt>
      <trkpt lat="42.67221" lon="1.50969">
        <ele>2369</ele>
        <time>2014-09-13T09:30:09Z</time>
      </trkpt>
      <trkpt lat="42.67227" lon="1.50967">
        <ele>2372</ele>
        <time>2014-09-13T09:30:24Z</time>
      </trkpt>
      <trkpt lat="42.67228" lon="1.50966">
        <ele>2372</ele>
        <time>2014-09-13T09:30:28Z</time>
      </trkpt>
      <trkpt lat="42.67235" lon="1.50964">
        <ele>2373</ele>
        <time>2014-09-13T09:30:40Z</time>
      </trkpt>
      <trkpt lat="42.67243" lon="1.50965">
        <ele>2375</ele>
        <time>2014-09-13T09:30:53Z</time>
      </trkpt>
      <trkpt lat="42.67246" lon="1.50964">
        <ele>2376</ele>
        <time>2014-09-13T09:31:04Z</time>
      </trkpt>
      <trkpt lat="42.67247" lon="1.50964">
        <ele>2377</ele>
        <time>2014-09-13T09:31:06Z</time>
      </trkpt>
      <trkpt lat="42.67252" lon="1.50962">
        <ele>2378</ele>
        <time>2014-09-13T09:31:20Z</time>
      </trkpt>
      <trkpt lat="42.67253" lon="1.50971">
        <ele>2379</ele>
        <time>2014-09-13T09:31:31Z</time>
      </trkpt>
      <trkpt lat="42.67252" lon="1.50978">
        <ele>2381</ele>
        <time>2014-09-13T09:31:46Z</time>
      </trkpt>
      <trkpt lat="42.67251" lon="1.50985">
        <ele>2383</ele>
        <time>2014-09-13T09:31:59Z</time>
      </trkpt>
      <trkpt lat="42.67252" lon="1.50987">
        <ele>2384</ele>
        <time>2014-09-13T09:32:05Z</time>
      </trkpt>
      <trkpt lat="42.6726" lon="1.50991">
        <ele>2385</ele>
        <time>2014-09-13T09:32:18Z</time>
      </trkpt>
      <trkpt lat="42.67264" lon="1.50992">
        <ele>2386</ele>
        <time>2014-09-13T09:32:29Z</time>
      </trkpt>
      <trkpt lat="42.67268" lon="1.50994">
        <ele>2388</ele>
        <time>2014-09-13T09:32:42Z</time>
      </trkpt>
      <trkpt lat="42.67271" lon="1.50993">
        <ele>2390</ele>
        <time>2014-09-13T09:32:55Z</time>
      </trkpt>
      <trkpt lat="42.67274" lon="1.50993">
        <ele>2391</ele>
        <time>2014-09-13T09:33:08Z</time>
      </trkpt>
      <trkpt lat="42.67279" lon="1.50994">
        <ele>2393</ele>
        <time>2014-09-13T09:33:21Z</time>
      </trkpt>
      <trkpt lat="42.67283" lon="1.50995">
        <ele>2395</ele>
        <time>2014-09-13T09:33:33Z</time>
      </trkpt>
      <trkpt lat="42.67287" lon="1.50995">
        <ele>2396</ele>
        <time>2014-09-13T09:33:45Z</time>
      </trkpt>
      <trkpt lat="42.67288" lon="1.50993">
        <ele>2396</ele>
        <time>2014-09-13T09:34:05Z</time>
      </trkpt>
      <trkpt lat="42.67289" lon="1.50992">
        <ele>2397</ele>
        <time>2014-09-13T09:34:19Z</time>
      </trkpt>
      <trkpt lat="42.67287" lon="1.50997">
        <ele>2397</ele>
        <time>2014-09-13T09:34:34Z</time>
      </trkpt>
      <trkpt lat="42.67282" lon="1.51006">
        <ele>2398</ele>
        <time>2014-09-13T09:34:44Z</time>
      </trkpt>
      <trkpt lat="42.67277" lon="1.51018">
        <ele>2400</ele>
        <time>2014-09-13T09:34:57Z</time>
      </trkpt>
      <trkpt lat="42.67275" lon="1.51021">
        <ele>2401</ele>
        <time>2014-09-13T09:35:02Z</time>
      </trkpt>
      <trkpt lat="42.67269" lon="1.51024">
        <ele>2403</ele>
        <time>2014-09-13T09:35:15Z</time>
      </trkpt>
      <trkpt lat="42.67268" lon="1.51029">
        <ele>2404</ele>
        <time>2014-09-13T09:35:29Z</time>
      </trkpt>
      <trkpt lat="42.67266" lon="1.51028">
        <ele>2406</ele>
        <time>2014-09-13T09:35:44Z</time>
      </trkpt>
      <trkpt lat="42.67265" lon="1.51031">
        <ele>2407</ele>
        <time>2014-09-13T09:36:05Z</time>
      </trkpt>
      <trkpt lat="42.67266" lon="1.51032">
        <ele>2406</ele>
        <time>2014-09-13T09:36:18Z</time>
      </trkpt>
      <trkpt lat="42.67268" lon="1.51039">
        <ele>2409</ele>
        <time>2014-09-13T09:36:34Z</time>
      </trkpt>
      <trkpt lat="42.67268" lon="1.51046">
        <ele>2411</ele>
        <time>2014-09-13T09:36:46Z</time>
      </trkpt>
      <trkpt lat="42.67267" lon="1.51049">
        <ele>2413</ele>
        <time>2014-09-13T09:37:00Z</time>
      </trkpt>
      <trkpt lat="42.67264" lon="1.51047">
        <ele>2415</ele>
        <time>2014-09-13T09:37:18Z</time>
      </trkpt>
      <trkpt lat="42.67261" lon="1.51048">
        <ele>2418</ele>
        <time>2014-09-13T09:37:35Z</time>
      </trkpt>
      <trkpt lat="42.67258" lon="1.5105">
        <ele>2420</ele>
        <time>2014-09-13T09:37:50Z</time>
      </trkpt>
      <trkpt lat="42.67252" lon="1.51047">
        <ele>2421</ele>
        <time>2014-09-13T09:38:03Z</time>
      </trkpt>
      <trkpt lat="42.67251" lon="1.51052">
        <ele>2423</ele>
        <time>2014-09-13T09:38:16Z</time>
      </trkpt>
      <trkpt lat="42.67251" lon="1.51056">
        <ele>2426</ele>
        <time>2014-09-13T09:38:29Z</time>
      </trkpt>
      <trkpt lat="42.67252" lon="1.51056">
        <ele>2426</ele>
        <time>2014-09-13T09:38:31Z</time>
      </trkpt>
      <trkpt lat="42.67253" lon="1.51059">
        <ele>2428</ele>
        <time>2014-09-13T09:38:44Z</time>
      </trkpt>
      <trkpt lat="42.67256" lon="1.51063">
        <ele>2430</ele>
        <time>2014-09-13T09:38:56Z</time>
      </trkpt>
      <trkpt lat="42.67255" lon="1.51068">
        <ele>2432</ele>
        <time>2014-09-13T09:39:08Z</time>
      </trkpt>
      <trkpt lat="42.67256" lon="1.51072">
        <ele>2434</ele>
        <time>2014-09-13T09:39:21Z</time>
      </trkpt>
      <trkpt lat="42.67255" lon="1.51073">
        <ele>2434</ele>
        <time>2014-09-13T09:39:22Z</time>
      </trkpt>
      <trkpt lat="42.67249" lon="1.51078">
        <ele>2435</ele>
        <time>2014-09-13T09:39:35Z</time>
      </trkpt>
      <trkpt lat="42.67252" lon="1.51083">
        <ele>2438</ele>
        <time>2014-09-13T09:39:50Z</time>
      </trkpt>
      <trkpt lat="42.6725" lon="1.5109">
        <ele>2440</ele>
        <time>2014-09-13T09:40:02Z</time>
      </trkpt>
      <trkpt lat="42.67252" lon="1.51095">
        <ele>2442</ele>
        <time>2014-09-13T09:40:14Z</time>
      </trkpt>
      <trkpt lat="42.67249" lon="1.51099">
        <ele>2444</ele>
        <time>2014-09-13T09:40:30Z</time>
      </trkpt>
      <trkpt lat="42.67248" lon="1.51102">
        <ele>2446</ele>
        <time>2014-09-13T09:40:44Z</time>
      </trkpt>
      <trkpt lat="42.67245" lon="1.51104">
        <ele>2449</ele>
        <time>2014-09-13T09:41:00Z</time>
      </trkpt>
      <trkpt lat="42.67245" lon="1.51111">
        <ele>2451</ele>
        <time>2014-09-13T09:41:15Z</time>
      </trkpt>
      <trkpt lat="42.67243" lon="1.51112">
        <ele>2454</ele>
        <time>2014-09-13T09:41:30Z</time>
      </trkpt>
      <trkpt lat="42.67242" lon="1.51118">
        <ele>2456</ele>
        <time>2014-09-13T09:41:47Z</time>
      </trkpt>
      <trkpt lat="42.67243" lon="1.51118">
        <ele>2457</ele>
        <time>2014-09-13T09:42:10Z</time>
      </trkpt>
      <trkpt lat="42.67238" lon="1.51118">
        <ele>2457</ele>
        <time>2014-09-13T09:42:34Z</time>
      </trkpt>
      <trkpt lat="42.67238" lon="1.51124">
        <ele>2460</ele>
        <time>2014-09-13T09:42:47Z</time>
      </trkpt>
      <trkpt lat="42.67238" lon="1.51128">
        <ele>2463</ele>
        <time>2014-09-13T09:43:01Z</time>
      </trkpt>
      <trkpt lat="42.67235" lon="1.51133">
        <ele>2464</ele>
        <time>2014-09-13T09:43:15Z</time>
      </trkpt>
      <trkpt lat="42.67237" lon="1.51136">
        <ele>2467</ele>
        <time>2014-09-13T09:43:29Z</time>
      </trkpt>
      <trkpt lat="42.67233" lon="1.5114">
        <ele>2470</ele>
        <time>2014-09-13T09:43:41Z</time>
      </trkpt>
      <trkpt lat="42.67231" lon="1.51148">
        <ele>2472</ele>
        <time>2014-09-13T09:43:56Z</time>
      </trkpt>
      <trkpt lat="42.67228" lon="1.51151">
        <ele>2474</ele>
        <time>2014-09-13T09:44:09Z</time>
      </trkpt>
      <trkpt lat="42.67229" lon="1.51157">
        <ele>2476</ele>
        <time>2014-09-13T09:44:23Z</time>
      </trkpt>
      <trkpt lat="42.6723" lon="1.51158">
        <ele>2479</ele>
        <time>2014-09-13T09:44:38Z</time>
      </trkpt>
      <trkpt lat="42.67232" lon="1.51166">
        <ele>2481</ele>
        <time>2014-09-13T09:44:54Z</time>
      </trkpt>
      <trkpt lat="42.67226" lon="1.51169">
        <ele>2483</ele>
        <time>2014-09-13T09:45:08Z</time>
      </trkpt>
      <trkpt lat="42.67227" lon="1.51174">
        <ele>2485</ele>
        <time>2014-09-13T09:45:21Z</time>
      </trkpt>
      <trkpt lat="42.67225" lon="1.51178">
        <ele>2487</ele>
        <time>2014-09-13T09:45:32Z</time>
      </trkpt>
      <trkpt lat="42.67222" lon="1.5118">
        <ele>2489</ele>
        <time>2014-09-13T09:45:45Z</time>
      </trkpt>
      <trkpt lat="42.67219" lon="1.51181">
        <ele>2490</ele>
        <time>2014-09-13T09:45:59Z</time>
      </trkpt>
      <trkpt lat="42.67219" lon="1.51186">
        <ele>2491</ele>
        <time>2014-09-13T09:46:12Z</time>
      </trkpt>
      <trkpt lat="42.6722" lon="1.51188">
        <ele>2493</ele>
        <time>2014-09-13T09:46:24Z</time>
      </trkpt>
      <trkpt lat="42.67224" lon="1.51191">
        <ele>2495</ele>
        <time>2014-09-13T09:46:37Z</time>
      </trkpt>
      <trkpt lat="42.67226" lon="1.51193">
        <ele>2496</ele>
        <time>2014-09-13T09:46:42Z</time>
      </trkpt>
      <trkpt lat="42.67221" lon="1.51197">
        <ele>2499</ele>
        <time>2014-09-13T09:46:57Z</time>
      </trkpt>
      <trkpt lat="42.67221" lon="1.51201">
        <ele>2500</ele>
        <time>2014-09-13T09:47:10Z</time>
      </trkpt>
      <trkpt lat="42.67222" lon="1.51201">
        <ele>2501</ele>
        <time>2014-09-13T09:47:24Z</time>
      </trkpt>
      <trkpt lat="42.67219" lon="1.51206">
        <ele>2502</ele>
        <time>2014-09-13T09:47:39Z</time>
      </trkpt>
      <trkpt lat="42.67225" lon="1.51208">
        <ele>2504</ele>
        <time>2014-09-13T09:47:50Z</time>
      </trkpt>
      <trkpt lat="42.67222" lon="1.5121">
        <ele>2506</ele>
        <time>2014-09-13T09:48:08Z</time>
      </trkpt>
      <trkpt lat="42.67224" lon="1.5121">
        <ele>2507</ele>
        <time>2014-09-13T09:48:14Z</time>
      </trkpt>
      <trkpt lat="42.67221" lon="1.51214">
        <ele>2508</ele>
        <time>2014-09-13T09:48:27Z</time>
      </trkpt>
      <trkpt lat="42.67225" lon="1.51215">
        <ele>2510</ele>
        <time>2014-09-13T09:48:43Z</time>
      </trkpt>
      <trkpt lat="42.67228" lon="1.51218">
        <ele>2512</ele>
        <time>2014-09-13T09:48:58Z</time>
      </trkpt>
      <trkpt lat="42.67229" lon="1.51223">
        <ele>2514</ele>
        <time>2014-09-13T09:49:13Z</time>
      </trkpt>
      <trkpt lat="42.67226" lon="1.51224">
        <ele>2515</ele>
        <time>2014-09-13T09:49:27Z</time>
      </trkpt>
      <trkpt lat="42.6723" lon="1.51225">
        <ele>2517</ele>
        <time>2014-09-13T09:49:40Z</time>
      </trkpt>
      <trkpt lat="42.67232" lon="1.51228">
        <ele>2518</ele>
        <time>2014-09-13T09:49:52Z</time>
      </trkpt>
      <trkpt lat="42.67234" lon="1.51228">
        <ele>2520</ele>
        <time>2014-09-13T09:50:04Z</time>
      </trkpt>
      <trkpt lat="42.67235" lon="1.5123">
        <ele>2521</ele>
        <time>2014-09-13T09:50:18Z</time>
      </trkpt>
      <trkpt lat="42.67232" lon="1.51235">
        <ele>2524</ele>
        <time>2014-09-13T09:50:31Z</time>
      </trkpt>
      <trkpt lat="42.67232" lon="1.51238">
        <ele>2526</ele>
        <time>2014-09-13T09:50:43Z</time>
      </trkpt>
      <trkpt lat="42.67235" lon="1.51241">
        <ele>2527</ele>
        <time>2014-09-13T09:50:56Z</time>
      </trkpt>
      <trkpt lat="42.67233" lon="1.51244">
        <ele>2529</ele>
        <time>2014-09-13T09:51:11Z</time>
      </trkpt>
      <trkpt lat="42.67233" lon="1.51248">
        <ele>2530</ele>
        <time>2014-09-13T09:51:27Z</time>
      </trkpt>
      <trkpt lat="42.67236" lon="1.5125">
        <ele>2531</ele>
        <time>2014-09-13T09:51:39Z</time>
      </trkpt>
      <trkpt lat="42.67233" lon="1.51255">
        <ele>2534</ele>
        <time>2014-09-13T09:51:52Z</time>
      </trkpt>
      <trkpt lat="42.67232" lon="1.51255">
        <ele>2534</ele>
        <time>2014-09-13T09:51:53Z</time>
      </trkpt>
      <trkpt lat="42.6723" lon="1.51258">
        <ele>2536</ele>
        <time>2014-09-13T09:52:07Z</time>
      </trkpt>
      <trkpt lat="42.6723" lon="1.51261">
        <ele>2538</ele>
        <time>2014-09-13T09:52:20Z</time>
      </trkpt>
      <trkpt lat="42.67232" lon="1.51263">
        <ele>2539</ele>
        <time>2014-09-13T09:52:32Z</time>
      </trkpt>
      <trkpt lat="42.67233" lon="1.51266">
        <ele>2541</ele>
        <time>2014-09-13T09:52:44Z</time>
      </trkpt>
      <trkpt lat="42.67234" lon="1.5127">
        <ele>2543</ele>
        <time>2014-09-13T09:52:57Z</time>
      </trkpt>
      <trkpt lat="42.67232" lon="1.51274">
        <ele>2545</ele>
        <time>2014-09-13T09:53:11Z</time>
      </trkpt>
      <trkpt lat="42.67231" lon="1.51282">
        <ele>2548</ele>
        <time>2014-09-13T09:53:27Z</time>
      </trkpt>
      <trkpt lat="42.67233" lon="1.51285">
        <ele>2549</ele>
        <time>2014-09-13T09:53:39Z</time>
      </trkpt>
      <trkpt lat="42.67234" lon="1.51291">
        <ele>2551</ele>
        <time>2014-09-13T09:53:52Z</time>
      </trkpt>
      <trkpt lat="42.6723" lon="1.51299">
        <ele>2553</ele>
        <time>2014-09-13T09:54:07Z</time>
      </trkpt>
      <trkpt lat="42.67227" lon="1.51304">
        <ele>2554</ele>
        <time>2014-09-13T09:54:21Z</time>
      </trkpt>
      <trkpt lat="42.67223" lon="1.51305">
        <ele>2556</ele>
        <time>2014-09-13T09:54:35Z</time>
      </trkpt>
      <trkpt lat="42.6722" lon="1.51308">
        <ele>2558</ele>
        <time>2014-09-13T09:54:49Z</time>
      </trkpt>
      <trkpt lat="42.6722" lon="1.51311">
        <ele>2560</ele>
        <time>2014-09-13T09:55:07Z</time>
      </trkpt>
      <trkpt lat="42.67214" lon="1.51311">
        <ele>2561</ele>
        <time>2014-09-13T09:55:19Z</time>
      </trkpt>
      <trkpt lat="42.67215" lon="1.51315">
        <ele>2562</ele>
        <time>2014-09-13T09:55:33Z</time>
      </trkpt>
      <trkpt lat="42.67216" lon="1.51317">
        <ele>2564</ele>
        <time>2014-09-13T09:55:50Z</time>
      </trkpt>
      <trkpt lat="42.67215" lon="1.51321">
        <ele>2567</ele>
        <time>2014-09-13T09:56:03Z</time>
      </trkpt>
      <trkpt lat="42.67213" lon="1.51325">
        <ele>2568</ele>
        <time>2014-09-13T09:56:15Z</time>
      </trkpt>
      <trkpt lat="42.67208" lon="1.51326">
        <ele>2570</ele>
        <time>2014-09-13T09:56:31Z</time>
      </trkpt>
      <trkpt lat="42.67209" lon="1.51329">
        <ele>2570</ele>
        <time>2014-09-13T09:56:56Z</time>
      </trkpt>
      <trkpt lat="42.67209" lon="1.5133">
        <ele>2573</ele>
        <time>2014-09-13T09:57:12Z</time>
      </trkpt>
      <trkpt lat="42.67211" lon="1.51336">
        <ele>2575</ele>
        <time>2014-09-13T09:57:26Z</time>
      </trkpt>
      <trkpt lat="42.67204" lon="1.51335">
        <ele>2578</ele>
        <time>2014-09-13T09:57:39Z</time>
      </trkpt>
      <trkpt lat="42.67202" lon="1.51337">
        <ele>2578</ele>
        <time>2014-09-13T09:57:42Z</time>
      </trkpt>
      <trkpt lat="42.67199" lon="1.51337">
        <ele>2578</ele>
        <time>2014-09-13T09:57:47Z</time>
      </trkpt>
      <trkpt lat="42.67192" lon="1.51339">
        <ele>2580</ele>
        <time>2014-09-13T09:58:00Z</time>
      </trkpt>
      <trkpt lat="42.67186" lon="1.51341">
        <ele>2582</ele>
        <time>2014-09-13T09:58:13Z</time>
      </trkpt>
      <trkpt lat="42.67187" lon="1.51347">
        <ele>2584</ele>
        <time>2014-09-13T09:58:29Z</time>
      </trkpt>
      <trkpt lat="42.67183" lon="1.51348">
        <ele>2586</ele>
        <time>2014-09-13T09:58:40Z</time>
      </trkpt>
      <trkpt lat="42.67182" lon="1.51353">
        <ele>2588</ele>
        <time>2014-09-13T09:58:55Z</time>
      </trkpt>
      <trkpt lat="42.6718" lon="1.51356">
        <ele>2590</ele>
        <time>2014-09-13T09:59:10Z</time>
      </trkpt>
      <trkpt lat="42.67181" lon="1.51359">
        <ele>2592</ele>
        <time>2014-09-13T09:59:25Z</time>
      </trkpt>
      <trkpt lat="42.6718" lon="1.51359">
        <ele>2593</ele>
        <time>2014-09-13T09:59:42Z</time>
      </trkpt>
      <trkpt lat="42.67181" lon="1.51361">
        <ele>2595</ele>
        <time>2014-09-13T10:00:01Z</time>
      </trkpt>
      <trkpt lat="42.67174" lon="1.5136">
        <ele>2597</ele>
        <time>2014-09-13T10:00:18Z</time>
      </trkpt>
      <trkpt lat="42.67174" lon="1.51366">
        <ele>2599</ele>
        <time>2014-09-13T10:00:33Z</time>
      </trkpt>
      <trkpt lat="42.67175" lon="1.51367">
        <ele>2600</ele>
        <time>2014-09-13T10:00:52Z</time>
      </trkpt>
      <trkpt lat="42.67176" lon="1.51371">
        <ele>2602</ele>
        <time>2014-09-13T10:01:09Z</time>
      </trkpt>
      <trkpt lat="42.67177" lon="1.51373">
        <ele>2604</ele>
        <time>2014-09-13T10:01:15Z</time>
      </trkpt>
      <trkpt lat="42.67181" lon="1.51378">
        <ele>2607</ele>
        <time>2014-09-13T10:01:30Z</time>
      </trkpt>
      <trkpt lat="42.67183" lon="1.51379">
        <ele>2609</ele>
        <time>2014-09-13T10:01:44Z</time>
      </trkpt>
      <trkpt lat="42.67186" lon="1.5138">
        <ele>2610</ele>
        <time>2014-09-13T10:01:57Z</time>
      </trkpt>
      <trkpt lat="42.67189" lon="1.51379">
        <ele>2611</ele>
        <time>2014-09-13T10:02:14Z</time>
      </trkpt>
      <trkpt lat="42.67192" lon="1.51382">
        <ele>2611</ele>
        <time>2014-09-13T10:02:31Z</time>
      </trkpt>
      <trkpt lat="42.67193" lon="1.51385">
        <ele>2613</ele>
        <time>2014-09-13T10:02:43Z</time>
      </trkpt>
      <trkpt lat="42.67194" lon="1.51387">
        <ele>2615</ele>
        <time>2014-09-13T10:02:56Z</time>
      </trkpt>
      <trkpt lat="42.67193" lon="1.51389">
        <ele>2617</ele>
        <time>2014-09-13T10:03:10Z</time>
      </trkpt>
      <trkpt lat="42.67188" lon="1.5139">
        <ele>2617</ele>
        <time>2014-09-13T10:03:26Z</time>
      </trkpt>
      <trkpt lat="42.67186" lon="1.51394">
        <ele>2620</ele>
        <time>2014-09-13T10:03:43Z</time>
      </trkpt>
      <trkpt lat="42.67183" lon="1.51396">
        <ele>2621</ele>
        <time>2014-09-13T10:03:57Z</time>
      </trkpt>
      <trkpt lat="42.67185" lon="1.514">
        <ele>2624</ele>
        <time>2014-09-13T10:04:08Z</time>
      </trkpt>
      <trkpt lat="42.67184" lon="1.51402">
        <ele>2625</ele>
        <time>2014-09-13T10:04:25Z</time>
      </trkpt>
      <trkpt lat="42.67183" lon="1.51405">
        <ele>2627</ele>
        <time>2014-09-13T10:04:40Z</time>
      </trkpt>
      <trkpt lat="42.67181" lon="1.51407">
        <ele>2629</ele>
        <time>2014-09-13T10:04:50Z</time>
      </trkpt>
      <trkpt lat="42.6718" lon="1.51409">
        <ele>2630</ele>
        <time>2014-09-13T10:05:06Z</time>
      </trkpt>
      <trkpt lat="42.6718" lon="1.5141">
        <ele>2632</ele>
        <time>2014-09-13T10:05:24Z</time>
      </trkpt>
      <trkpt lat="42.67182" lon="1.51414">
        <ele>2635</ele>
        <time>2014-09-13T10:05:41Z</time>
      </trkpt>
      <trkpt lat="42.67184" lon="1.51415">
        <ele>2636</ele>
        <time>2014-09-13T10:05:55Z</time>
      </trkpt>
      <trkpt lat="42.67185" lon="1.51415">
        <ele>2637</ele>
        <time>2014-09-13T10:06:11Z</time>
      </trkpt>
      <trkpt lat="42.67185" lon="1.51419">
        <ele>2640</ele>
        <time>2014-09-13T10:06:26Z</time>
      </trkpt>
      <trkpt lat="42.67187" lon="1.51421">
        <ele>2642</ele>
        <time>2014-09-13T10:06:42Z</time>
      </trkpt>
      <trkpt lat="42.67187" lon="1.51423">
        <ele>2643</ele>
        <time>2014-09-13T10:06:57Z</time>
      </trkpt>
      <trkpt lat="42.67187" lon="1.51424">
        <ele>2645</ele>
        <time>2014-09-13T10:07:18Z</time>
      </trkpt>
      <trkpt lat="42.67186" lon="1.51424">
        <ele>2645</ele>
        <time>2014-09-13T10:07:36Z</time>
      </trkpt>
      <trkpt lat="42.67186" lon="1.51428">
        <ele>2648</ele>
        <time>2014-09-13T10:07:53Z</time>
      </trkpt>
      <trkpt lat="42.67187" lon="1.51431">
        <ele>2650</ele>
        <time>2014-09-13T10:08:10Z</time>
      </trkpt>
      <trkpt lat="42.67187" lon="1.51431">
        <ele>2650</ele>
        <time>2014-09-13T10:08:33Z</time>
      </trkpt>
      <trkpt lat="42.67186" lon="1.5143">
        <ele>2651</ele>
        <time>2014-09-13T10:08:57Z</time>
      </trkpt>
      <trkpt lat="42.67184" lon="1.51434">
        <ele>2654</ele>
        <time>2014-09-13T10:09:13Z</time>
      </trkpt>
      <trkpt lat="42.67185" lon="1.51437">
        <ele>2654</ele>
        <time>2014-09-13T10:09:29Z</time>
      </trkpt>
      <trkpt lat="42.67182" lon="1.5144">
        <ele>2657</ele>
        <time>2014-09-13T10:09:44Z</time>
      </trkpt>
      <trkpt lat="42.67181" lon="1.51442">
        <ele>2658</ele>
        <time>2014-09-13T10:09:58Z</time>
      </trkpt>
      <trkpt lat="42.67181" lon="1.51444">
        <ele>2660</ele>
        <time>2014-09-13T10:10:11Z</time>
      </trkpt>
      <trkpt lat="42.67179" lon="1.51446">
        <ele>2662</ele>
        <time>2014-09-13T10:10:27Z</time>
      </trkpt>
      <trkpt lat="42.67175" lon="1.5145">
        <ele>2664</ele>
        <time>2014-09-13T10:10:39Z</time>
      </trkpt>
      <trkpt lat="42.67175" lon="1.51455">
        <ele>2666</ele>
        <time>2014-09-13T10:10:54Z</time>
      </trkpt>
      <trkpt lat="42.67171" lon="1.51456">
        <ele>2668</ele>
        <time>2014-09-13T10:11:09Z</time>
      </trkpt>
      <trkpt lat="42.67168" lon="1.51456">
        <ele>2667</ele>
        <time>2014-09-13T10:11:25Z</time>
      </trkpt>
      <trkpt lat="42.67165" lon="1.51459">
        <ele>2668</ele>
        <time>2014-09-13T10:11:50Z</time>
      </trkpt>
      <trkpt lat="42.67165" lon="1.51464">
        <ele>2670</ele>
        <time>2014-09-13T10:12:04Z</time>
      </trkpt>
      <trkpt lat="42.67165" lon="1.51468">
        <ele>2673</ele>
        <time>2014-09-13T10:12:18Z</time>
      </trkpt>
      <trkpt lat="42.67163" lon="1.51472">
        <ele>2675</ele>
        <time>2014-09-13T10:12:32Z</time>
      </trkpt>
      <trkpt lat="42.67162" lon="1.51478">
        <ele>2677</ele>
        <time>2014-09-13T10:12:44Z</time>
      </trkpt>
      <trkpt lat="42.67162" lon="1.51478">
        <ele>2678</ele>
        <time>2014-09-13T10:12:57Z</time>
      </trkpt>
      <trkpt lat="42.6716" lon="1.51482">
        <ele>2678</ele>
        <time>2014-09-13T10:13:24Z</time>
      </trkpt>
      <trkpt lat="42.67158" lon="1.51489">
        <ele>2679</ele>
        <time>2014-09-13T10:13:41Z</time>
      </trkpt>
      <trkpt lat="42.67151" lon="1.51493">
        <ele>2681</ele>
        <time>2014-09-13T10:13:55Z</time>
      </trkpt>
      <trkpt lat="42.67143" lon="1.51492">
        <ele>2681</ele>
        <time>2014-09-13T10:14:08Z</time>
      </trkpt>
      <trkpt lat="42.67141" lon="1.51494">
        <ele>2683</ele>
        <time>2014-09-13T10:14:13Z</time>
      </trkpt>
      <trkpt lat="42.6714" lon="1.51493">
        <ele>2682</ele>
        <time>2014-09-13T10:14:21Z</time>
      </trkpt>
      <trkpt lat="42.67134" lon="1.51499">
        <ele>2683</ele>
        <time>2014-09-13T10:14:39Z</time>
      </trkpt>
      <trkpt lat="42.67136" lon="1.515">
        <ele>2684</ele>
        <time>2014-09-13T10:14:51Z</time>
      </trkpt>
      <trkpt lat="42.67139" lon="1.51504">
        <ele>2686</ele>
        <time>2014-09-13T10:15:03Z</time>
      </trkpt>
      <trkpt lat="42.67143" lon="1.51511">
        <ele>2688</ele>
        <time>2014-09-13T10:15:16Z</time>
      </trkpt>
      <trkpt lat="42.67144" lon="1.51517">
        <ele>2690</ele>
        <time>2014-09-13T10:15:28Z</time>
      </trkpt>
      <trkpt lat="42.67141" lon="1.5152">
        <ele>2691</ele>
        <time>2014-09-13T10:15:41Z</time>
      </trkpt>
      <trkpt lat="42.6714" lon="1.51526">
        <ele>2694</ele>
        <time>2014-09-13T10:15:53Z</time>
      </trkpt>
      <trkpt lat="42.6714" lon="1.51528">
        <ele>2696</ele>
        <time>2014-09-13T10:16:05Z</time>
      </trkpt>
      <trkpt lat="42.67141" lon="1.51525">
        <ele>2696</ele>
        <time>2014-09-13T10:16:31Z</time>
      </trkpt>
      <trkpt lat="42.6714" lon="1.51525">
        <ele>2696</ele>
        <time>2014-09-13T10:16:58Z</time>
      </trkpt>
      <trkpt lat="42.6714" lon="1.51529">
        <ele>2697</ele>
        <time>2014-09-13T10:17:15Z</time>
      </trkpt>
      <trkpt lat="42.67143" lon="1.51532">
        <ele>2698</ele>
        <time>2014-09-13T10:17:31Z</time>
      </trkpt>
      <trkpt lat="42.67138" lon="1.51533">
        <ele>2700</ele>
        <time>2014-09-13T10:17:45Z</time>
      </trkpt>
      <trkpt lat="42.67137" lon="1.51533">
        <ele>2701</ele>
        <time>2014-09-13T10:18:00Z</time>
      </trkpt>
      <trkpt lat="42.67136" lon="1.51535">
        <ele>2703</ele>
        <time>2014-09-13T10:18:19Z</time>
      </trkpt>
      <trkpt lat="42.67136" lon="1.51536">
        <ele>2704</ele>
        <time>2014-09-13T10:18:35Z</time>
      </trkpt>
      <trkpt lat="42.67136" lon="1.51537">
        <ele>2705</ele>
        <time>2014-09-13T10:18:48Z</time>
      </trkpt>
      <trkpt lat="42.67138" lon="1.51538">
        <ele>2707</ele>
        <time>2014-09-13T10:19:05Z</time>
      </trkpt>
      <trkpt lat="42.67138" lon="1.51541">
        <ele>2709</ele>
        <time>2014-09-13T10:19:20Z</time>
      </trkpt>
      <trkpt lat="42.67136" lon="1.51543">
        <ele>2711</ele>
        <time>2014-09-13T10:19:31Z</time>
      </trkpt>
      <trkpt lat="42.67135" lon="1.51546">
        <ele>2714</ele>
        <time>2014-09-13T10:19:45Z</time>
      </trkpt>
      <trkpt lat="42.67135" lon="1.5155">
        <ele>2716</ele>
        <time>2014-09-13T10:20:00Z</time>
      </trkpt>
      <trkpt lat="42.67134" lon="1.51552">
        <ele>2717</ele>
        <time>2014-09-13T10:20:15Z</time>
      </trkpt>
      <trkpt lat="42.67132" lon="1.51554">
        <ele>2720</ele>
        <time>2014-09-13T10:20:27Z</time>
      </trkpt>
      <trkpt lat="42.67131" lon="1.51558">
        <ele>2722</ele>
        <time>2014-09-13T10:20:40Z</time>
      </trkpt>
      <trkpt lat="42.6713" lon="1.51561">
        <ele>2724</ele>
        <time>2014-09-13T10:20:49Z</time>
      </trkpt>
      <trkpt lat="42.67132" lon="1.51567">
        <ele>2725</ele>
        <time>2014-09-13T10:21:04Z</time>
      </trkpt>
      <trkpt lat="42.67131" lon="1.5157">
        <ele>2728</ele>
        <time>2014-09-13T10:21:18Z</time>
      </trkpt>
      <trkpt lat="42.67128" lon="1.51571">
        <ele>2730</ele>
        <time>2014-09-13T10:21:31Z</time>
      </trkpt>
      <trkpt lat="42.67126" lon="1.51575">
        <ele>2732</ele>
        <time>2014-09-13T10:21:42Z</time>
      </trkpt>
      <trkpt lat="42.67123" lon="1.5158">
        <ele>2734</ele>
        <time>2014-09-13T10:21:56Z</time>
      </trkpt>
      <trkpt lat="42.67123" lon="1.51585">
        <ele>2736</ele>
        <time>2014-09-13T10:22:10Z</time>
      </trkpt>
      <trkpt lat="42.67122" lon="1.51586">
        <ele>2737</ele>
        <time>2014-09-13T10:22:24Z</time>
      </trkpt>
      <trkpt lat="42.67119" lon="1.51585">
        <ele>2736</ele>
        <time>2014-09-13T10:22:37Z</time>
      </trkpt>
      <trkpt lat="42.67119" lon="1.51586">
        <ele>2737</ele>
        <time>2014-09-13T10:23:01Z</time>
      </trkpt>
      <trkpt lat="42.67115" lon="1.51584">
        <ele>2738</ele>
        <time>2014-09-13T10:23:15Z</time>
      </trkpt>
      <trkpt lat="42.67114" lon="1.51584">
        <ele>2738</ele>
        <time>2014-09-13T10:23:31Z</time>
      </trkpt>
      <trkpt lat="42.67114" lon="1.51582">
        <ele>2739</ele>
        <time>2014-09-13T10:23:57Z</time>
      </trkpt>
      <trkpt lat="42.67118" lon="1.51586">
        <ele>2738</ele>
        <time>2014-09-13T10:24:17Z</time>
      </trkpt>
      <trkpt lat="42.67119" lon="1.51586">
        <ele>2737</ele>
        <time>2014-09-13T10:24:19Z</time>
      </trkpt>
      <trkpt lat="42.67129" lon="1.5159">
        <ele>2738</ele>
        <time>2014-09-13T10:24:33Z</time>
      </trkpt>
      <trkpt lat="42.67134" lon="1.51593">
        <ele>2741</ele>
        <time>2014-09-13T10:24:47Z</time>
      </trkpt>
      <trkpt lat="42.67135" lon="1.51595">
        <ele>2741</ele>
        <time>2014-09-13T10:24:50Z</time>
      </trkpt>
      <trkpt lat="42.6714" lon="1.516">
        <ele>2742</ele>
        <time>2014-09-13T10:25:01Z</time>
      </trkpt>
      <trkpt lat="42.6714" lon="1.516">
        <ele>2742</ele>
        <time>2014-09-13T10:25:25Z</time>
      </trkpt>
      <trkpt lat="42.67143" lon="1.51603">
        <ele>2742</ele>
        <time>2014-09-13T10:25:44Z</time>
      </trkpt>
      <trkpt lat="42.67142" lon="1.51602">
        <ele>2741</ele>
        <time>2014-09-13T10:26:08Z</time>
      </trkpt>
      <trkpt lat="42.67141" lon="1.51601">
        <ele>2742</ele>
        <time>2014-09-13T10:26:27Z</time>
      </trkpt>
      <trkpt lat="42.67141" lon="1.51601">
        <ele>2742</ele>
        <time>2014-09-13T10:26:49Z</time>
      </trkpt>
      <trkpt lat="42.67142" lon="1.51601">
        <ele>2742</ele>
        <time>2014-09-13T10:27:21Z</time>
      </trkpt>
      <trkpt lat="42.67143" lon="1.51601">
        <ele>2741</ele>
        <time>2014-09-13T10:28:01Z</time>
      </trkpt>
      <trkpt lat="42.6714" lon="1.516">
        <ele>2741</ele>
        <time>2014-09-13T10:28:22Z</time>
      </trkpt>
      <trkpt lat="42.67142" lon="1.51601">
        <ele>2740</ele>
        <time>2014-09-13T10:28:43Z</time>
      </trkpt>
      <trkpt lat="42.6714" lon="1.51602">
        <ele>2740</ele>
        <time>2014-09-13T10:28:57Z</time>
      </trkpt>
      <trkpt lat="42.6714" lon="1.51601">
        <ele>2740</ele>
        <time>2014-09-13T10:29:24Z</time>
      </trkpt>
      <trkpt lat="42.67141" lon="1.51601">
        <ele>2740</ele>
        <time>2014-09-13T10:29:56Z</time>
      </trkpt>
      <trkpt lat="42.67141" lon="1.51601">
        <ele>2741</ele>
        <time>2014-09-13T10:30:12Z</time>
      </trkpt>
      <trkpt lat="42.67141" lon="1.51602">
        <ele>2740</ele>
        <time>2014-09-13T10:30:55Z</time>
      </trkpt>
      <trkpt lat="42.67141" lon="1.51601">
        <ele>2741</ele>
        <time>2014-09-13T10:31:39Z</time>
      </trkpt>
      <trkpt lat="42.67142" lon="1.51601">
        <ele>2740</ele>
        <time>2014-09-13T10:32:29Z</time>
      </trkpt>
      <trkpt lat="42.67142" lon="1.51601">
        <ele>2740</ele>
        <time>2014-09-13T10:33:20Z</time>
      </trkpt>
      <trkpt lat="42.67142" lon="1.51601">
        <ele>2741</ele>
        <time>2014-09-13T10:34:14Z</time>
      </trkpt>
      <trkpt lat="42.67142" lon="1.51602">
        <ele>2741</ele>
        <time>2014-09-13T10:35:06Z</time>
      </trkpt>
      <trkpt lat="42.67142" lon="1.51602">
        <ele>2741</ele>
        <time>2014-09-13T10:35:57Z</time>
      </trkpt>
      <trkpt lat="42.67142" lon="1.51602">
        <ele>2741</ele>
        <time>2014-09-13T10:36:49Z</time>
      </trkpt>
      <trkpt lat="42.67143" lon="1.51602">
        <ele>2741</ele>
        <time>2014-09-13T10:37:34Z</time>
      </trkpt>
      <trkpt lat="42.67143" lon="1.51602">
        <ele>2741</ele>
        <time>2014-09-13T10:38:16Z</time>
      </trkpt>
      <trkpt lat="42.67142" lon="1.51602">
        <ele>2742</ele>
        <time>2014-09-13T10:39:08Z</time>
      </trkpt>
      <trkpt lat="42.67143" lon="1.51602">
        <ele>2741</ele>
        <time>2014-09-13T10:40:10Z</time>
      </trkpt>
      <trkpt lat="42.67142" lon="1.51602">
        <ele>2741</ele>
        <time>2014-09-13T10:41:11Z</time>
      </trkpt>
      <trkpt lat="42.67142" lon="1.51601">
        <ele>2742</ele>
        <time>2014-09-13T10:42:12Z</time>
      </trkpt>
      <trkpt lat="42.67141" lon="1.51601">
        <ele>2741</ele>
        <time>2014-09-13T10:42:46Z</time>
      </trkpt>
      <trkpt lat="42.6714" lon="1.516">
        <ele>2741</ele>
        <time>2014-09-13T10:43:34Z</time>
      </trkpt>
      <trkpt lat="42.67139" lon="1.51598">
        <ele>2742</ele>
        <time>2014-09-13T10:44:17Z</time>
      </trkpt>
      <trkpt lat="42.67144" lon="1.51603">
        <ele>2742</ele>
        <time>2014-09-13T10:45:01Z</time>
      </trkpt>
      <trkpt lat="42.67144" lon="1.51603">
        <ele>2742</ele>
        <time>2014-09-13T10:45:53Z</time>
      </trkpt>
      <trkpt lat="42.67144" lon="1.51603">
        <ele>2742</ele>
        <time>2014-09-13T10:46:40Z</time>
      </trkpt>
      <trkpt lat="42.67143" lon="1.51603">
        <ele>2742</ele>
        <time>2014-09-13T10:47:36Z</time>
      </trkpt>
      <trkpt lat="42.67142" lon="1.51602">
        <ele>2742</ele>
        <time>2014-09-13T10:48:24Z</time>
      </trkpt>
      <trkpt lat="42.67141" lon="1.51602">
        <ele>2742</ele>
        <time>2014-09-13T10:49:15Z</time>
      </trkpt>
      <trkpt lat="42.67141" lon="1.51602">
        <ele>2742</ele>
        <time>2014-09-13T10:50:06Z</time>
      </trkpt>
      <trkpt lat="42.6714" lon="1.51601">
        <ele>2742</ele>
        <time>2014-09-13T10:51:02Z</time>
      </trkpt>
      <trkpt lat="42.67139" lon="1.51601">
        <ele>2742</ele>
        <time>2014-09-13T10:51:58Z</time>
      </trkpt>
      <trkpt lat="42.67139" lon="1.51601">
        <ele>2742</ele>
        <time>2014-09-13T10:52:58Z</time>
      </trkpt>
      <trkpt lat="42.67139" lon="1.51601">
        <ele>2742</ele>
        <time>2014-09-13T10:53:49Z</time>
      </trkpt>
      <trkpt lat="42.67138" lon="1.51601">
        <ele>2742</ele>
        <time>2014-09-13T10:54:43Z</time>
      </trkpt>
      <trkpt lat="42.67139" lon="1.516">
        <ele>2742</ele>
        <time>2014-09-13T10:55:39Z</time>
      </trkpt>
      <trkpt lat="42.67139" lon="1.51601">
        <ele>2743</ele>
        <time>2014-09-13T10:56:33Z</time>
      </trkpt>
      <trkpt lat="42.6714" lon="1.516">
        <ele>2743</ele>
        <time>2014-09-13T10:57:05Z</time>
      </trkpt>
      <trkpt lat="42.67139" lon="1.516">
        <ele>2743</ele>
        <time>2014-09-13T10:57:31Z</time>
      </trkpt>
      <trkpt lat="42.67138" lon="1.516">
        <ele>2743</ele>
        <time>2014-09-13T10:57:52Z</time>
      </trkpt>
      <trkpt lat="42.67138" lon="1.51602">
        <ele>2743</ele>
        <time>2014-09-13T10:58:28Z</time>
      </trkpt>
      <trkpt lat="42.67138" lon="1.51598">
        <ele>2744</ele>
        <time>2014-09-13T10:58:40Z</time>
      </trkpt>
      <trkpt lat="42.67137" lon="1.51595">
        <ele>2745</ele>
        <time>2014-09-13T10:58:58Z</time>
      </trkpt>
      <trkpt lat="42.67142" lon="1.51603">
        <ele>2744</ele>
        <time>2014-09-13T10:59:13Z</time>
      </trkpt>
      <trkpt lat="42.67145" lon="1.51602">
        <ele>2744</ele>
        <time>2014-09-13T10:59:28Z</time>
      </trkpt>
      <trkpt lat="42.67147" lon="1.51601">
        <ele>2742</ele>
        <time>2014-09-13T10:59:39Z</time>
      </trkpt>
      <trkpt lat="42.67149" lon="1.51604">
        <ele>2741</ele>
        <time>2014-09-13T10:59:52Z</time>
      </trkpt>
      <trkpt lat="42.6715" lon="1.51601">
        <ele>2740</ele>
        <time>2014-09-13T11:00:08Z</time>
      </trkpt>
      <trkpt lat="42.67149" lon="1.516">
        <ele>2739</ele>
        <time>2014-09-13T11:00:24Z</time>
      </trkpt>
      <trkpt lat="42.67149" lon="1.51598">
        <ele>2737</ele>
        <time>2014-09-13T11:00:46Z</time>
      </trkpt>
      <trkpt lat="42.67152" lon="1.51599">
        <ele>2736</ele>
        <time>2014-09-13T11:01:01Z</time>
      </trkpt>
      <trkpt lat="42.67153" lon="1.516">
        <ele>2734</ele>
        <time>2014-09-13T11:01:15Z</time>
      </trkpt>
      <trkpt lat="42.67157" lon="1.51605">
        <ele>2733</ele>
        <time>2014-09-13T11:01:31Z</time>
      </trkpt>
      <trkpt lat="42.67161" lon="1.51604">
        <ele>2731</ele>
        <time>2014-09-13T11:01:45Z</time>
      </trkpt>
      <trkpt lat="42.67163" lon="1.51603">
        <ele>2729</ele>
        <time>2014-09-13T11:02:01Z</time>
      </trkpt>
      <trkpt lat="42.6716" lon="1.51611">
        <ele>2728</ele>
        <time>2014-09-13T11:02:15Z</time>
      </trkpt>
      <trkpt lat="42.67163" lon="1.51614">
        <ele>2730</ele>
        <time>2014-09-13T11:02:33Z</time>
      </trkpt>
      <trkpt lat="42.67165" lon="1.51621">
        <ele>2732</ele>
        <time>2014-09-13T11:02:46Z</time>
      </trkpt>
      <trkpt lat="42.67168" lon="1.51619">
        <ele>2731</ele>
        <time>2014-09-13T11:03:01Z</time>
      </trkpt>
      <trkpt lat="42.67169" lon="1.51622">
        <ele>2730</ele>
        <time>2014-09-13T11:03:20Z</time>
      </trkpt>
      <trkpt lat="42.67169" lon="1.51624">
        <ele>2731</ele>
        <time>2014-09-13T11:03:40Z</time>
      </trkpt>
      <trkpt lat="42.67172" lon="1.51625">
        <ele>2730</ele>
        <time>2014-09-13T11:04:01Z</time>
      </trkpt>
      <trkpt lat="42.67173" lon="1.51624">
        <ele>2730</ele>
        <time>2014-09-13T11:04:22Z</time>
      </trkpt>
      <trkpt lat="42.67173" lon="1.51627">
        <ele>2731</ele>
        <time>2014-09-13T11:04:50Z</time>
      </trkpt>
      <trkpt lat="42.67172" lon="1.51629">
        <ele>2730</ele>
        <time>2014-09-13T11:05:13Z</time>
      </trkpt>
      <trkpt lat="42.67173" lon="1.51622">
        <ele>2730</ele>
        <time>2014-09-13T11:05:37Z</time>
      </trkpt>
      <trkpt lat="42.67172" lon="1.51621">
        <ele>2730</ele>
        <time>2014-09-13T11:05:57Z</time>
      </trkpt>
      <trkpt lat="42.6717" lon="1.51625">
        <ele>2730</ele>
        <time>2014-09-13T11:06:16Z</time>
      </trkpt>
      <trkpt lat="42.6717" lon="1.51622">
        <ele>2730</ele>
        <time>2014-09-13T11:06:27Z</time>
      </trkpt>
      <trkpt lat="42.67171" lon="1.51625">
        <ele>2731</ele>
        <time>2014-09-13T11:06:37Z</time>
      </trkpt>
      <trkpt lat="42.67171" lon="1.51626">
        <ele>2731</ele>
        <time>2014-09-13T11:06:58Z</time>
      </trkpt>
      <trkpt lat="42.67169" lon="1.51628">
        <ele>2731</ele>
        <time>2014-09-13T11:07:18Z</time>
      </trkpt>
      <trkpt lat="42.67172" lon="1.51628">
        <ele>2731</ele>
        <time>2014-09-13T11:07:41Z</time>
      </trkpt>
      <trkpt lat="42.6717" lon="1.51632">
        <ele>2731</ele>
        <time>2014-09-13T11:08:06Z</time>
      </trkpt>
      <trkpt lat="42.67167" lon="1.51638">
        <ele>2730</ele>
        <time>2014-09-13T11:08:26Z</time>
      </trkpt>
      <trkpt lat="42.67171" lon="1.51632">
        <ele>2729</ele>
        <time>2014-09-13T11:08:48Z</time>
      </trkpt>
      <trkpt lat="42.67173" lon="1.51628">
        <ele>2729</ele>
        <time>2014-09-13T11:09:09Z</time>
      </trkpt>
      <trkpt lat="42.67173" lon="1.51631">
        <ele>2731</ele>
        <time>2014-09-13T11:09:22Z</time>
      </trkpt>
      <trkpt lat="42.6717" lon="1.51623">
        <ele>2730</ele>
        <time>2014-09-13T11:09:50Z</time>
      </trkpt>
      <trkpt lat="42.67172" lon="1.51626">
        <ele>2730</ele>
        <time>2014-09-13T11:10:15Z</time>
      </trkpt>
      <trkpt lat="42.67172" lon="1.51625">
        <ele>2731</ele>
        <time>2014-09-13T11:10:36Z</time>
      </trkpt>
      <trkpt lat="42.6717" lon="1.51622">
        <ele>2730</ele>
        <time>2014-09-13T11:11:01Z</time>
      </trkpt>
      <trkpt lat="42.67171" lon="1.51624">
        <ele>2730</ele>
        <time>2014-09-13T11:11:21Z</time>
      </trkpt>
      <trkpt lat="42.67173" lon="1.51627">
        <ele>2730</ele>
        <time>2014-09-13T11:11:37Z</time>
      </trkpt>
      <trkpt lat="42.67174" lon="1.51631">
        <ele>2730</ele>
        <time>2014-09-13T11:12:03Z</time>
      </trkpt>
      <trkpt lat="42.67178" lon="1.51635">
        <ele>2730</ele>
        <time>2014-09-13T11:12:21Z</time>
      </trkpt>
      <trkpt lat="42.67179" lon="1.51638">
        <ele>2729</ele>
        <time>2014-09-13T11:12:38Z</time>
      </trkpt>
      <trkpt lat="42.67182" lon="1.51635">
        <ele>2727</ele>
        <time>2014-09-13T11:12:53Z</time>
      </trkpt>
      <trkpt lat="42.67184" lon="1.51642">
        <ele>2726</ele>
        <time>2014-09-13T11:13:06Z</time>
      </trkpt>
      <trkpt lat="42.67187" lon="1.51645">
        <ele>2725</ele>
        <time>2014-09-13T11:13:21Z</time>
      </trkpt>
      <trkpt lat="42.67189" lon="1.5165">
        <ele>2725</ele>
        <time>2014-09-13T11:13:35Z</time>
      </trkpt>
      <trkpt lat="42.67188" lon="1.51653">
        <ele>2724</ele>
        <time>2014-09-13T11:13:46Z</time>
      </trkpt>
      <trkpt lat="42.67188" lon="1.51654">
        <ele>2724</ele>
        <time>2014-09-13T11:14:04Z</time>
      </trkpt>
      <trkpt lat="42.67191" lon="1.51652">
        <ele>2722</ele>
        <time>2014-09-13T11:14:23Z</time>
      </trkpt>
      <trkpt lat="42.67195" lon="1.5166">
        <ele>2721</ele>
        <time>2014-09-13T11:14:34Z</time>
      </trkpt>
      <trkpt lat="42.67198" lon="1.51666">
        <ele>2719</ele>
        <time>2014-09-13T11:14:48Z</time>
      </trkpt>
      <trkpt lat="42.67207" lon="1.5167">
        <ele>2717</ele>
        <time>2014-09-13T11:15:02Z</time>
      </trkpt>
      <trkpt lat="42.6721" lon="1.51673">
        <ele>2717</ele>
        <time>2014-09-13T11:15:10Z</time>
      </trkpt>
      <trkpt lat="42.67211" lon="1.51679">
        <ele>2719</ele>
        <time>2014-09-13T11:15:22Z</time>
      </trkpt>
      <trkpt lat="42.67213" lon="1.51682">
        <ele>2718</ele>
        <time>2014-09-13T11:15:34Z</time>
      </trkpt>
      <trkpt lat="42.67213" lon="1.51685">
        <ele>2718</ele>
        <time>2014-09-13T11:15:36Z</time>
      </trkpt>
      <trkpt lat="42.67219" lon="1.51688">
        <ele>2717</ele>
        <time>2014-09-13T11:15:48Z</time>
      </trkpt>
      <trkpt lat="42.67212" lon="1.51687">
        <ele>2718</ele>
        <time>2014-09-13T11:16:03Z</time>
      </trkpt>
      <trkpt lat="42.67205" lon="1.51687">
        <ele>2716</ele>
        <time>2014-09-13T11:16:15Z</time>
      </trkpt>
      <trkpt lat="42.67208" lon="1.51689">
        <ele>2715</ele>
        <time>2014-09-13T11:16:30Z</time>
      </trkpt>
      <trkpt lat="42.67211" lon="1.51689">
        <ele>2713</ele>
        <time>2014-09-13T11:16:45Z</time>
      </trkpt>
      <trkpt lat="42.67215" lon="1.51694">
        <ele>2712</ele>
        <time>2014-09-13T11:17:03Z</time>
      </trkpt>
      <trkpt lat="42.67217" lon="1.517">
        <ele>2710</ele>
        <time>2014-09-13T11:17:20Z</time>
      </trkpt>
      <trkpt lat="42.67215" lon="1.51703">
        <ele>2708</ele>
        <time>2014-09-13T11:17:35Z</time>
      </trkpt>
      <trkpt lat="42.67217" lon="1.51701">
        <ele>2707</ele>
        <time>2014-09-13T11:17:53Z</time>
      </trkpt>
      <trkpt lat="42.67221" lon="1.51703">
        <ele>2706</ele>
        <time>2014-09-13T11:18:08Z</time>
      </trkpt>
      <trkpt lat="42.67224" lon="1.51703">
        <ele>2704</ele>
        <time>2014-09-13T11:18:24Z</time>
      </trkpt>
      <trkpt lat="42.67225" lon="1.5171">
        <ele>2702</ele>
        <time>2014-09-13T11:18:40Z</time>
      </trkpt>
      <trkpt lat="42.67228" lon="1.51714">
        <ele>2700</ele>
        <time>2014-09-13T11:18:55Z</time>
      </trkpt>
      <trkpt lat="42.67225" lon="1.51717">
        <ele>2699</ele>
        <time>2014-09-13T11:19:13Z</time>
      </trkpt>
      <trkpt lat="42.67229" lon="1.51713">
        <ele>2699</ele>
        <time>2014-09-13T11:19:28Z</time>
      </trkpt>
      <trkpt lat="42.67231" lon="1.51706">
        <ele>2700</ele>
        <time>2014-09-13T11:19:48Z</time>
      </trkpt>
      <trkpt lat="42.67235" lon="1.51711">
        <ele>2700</ele>
        <time>2014-09-13T11:20:04Z</time>
      </trkpt>
      <trkpt lat="42.67238" lon="1.51713">
        <ele>2700</ele>
        <time>2014-09-13T11:20:18Z</time>
      </trkpt>
      <trkpt lat="42.67238" lon="1.51712">
        <ele>2701</ele>
        <time>2014-09-13T11:20:38Z</time>
      </trkpt>
      <trkpt lat="42.67238" lon="1.51711">
        <ele>2702</ele>
        <time>2014-09-13T11:20:53Z</time>
      </trkpt>
      <trkpt lat="42.67239" lon="1.51712">
        <ele>2703</ele>
        <time>2014-09-13T11:21:14Z</time>
      </trkpt>
      <trkpt lat="42.67239" lon="1.51709">
        <ele>2705</ele>
        <time>2014-09-13T11:21:31Z</time>
      </trkpt>
      <trkpt lat="42.67244" lon="1.51713">
        <ele>2704</ele>
        <time>2014-09-13T11:21:46Z</time>
      </trkpt>
      <trkpt lat="42.67247" lon="1.51716">
        <ele>2707</ele>
        <time>2014-09-13T11:21:59Z</time>
      </trkpt>
      <trkpt lat="42.67251" lon="1.51723">
        <ele>2710</ele>
        <time>2014-09-13T11:22:13Z</time>
      </trkpt>
      <trkpt lat="42.67255" lon="1.51726">
        <ele>2709</ele>
        <time>2014-09-13T11:22:24Z</time>
      </trkpt>
      <trkpt lat="42.67259" lon="1.51729">
        <ele>2710</ele>
        <time>2014-09-13T11:22:38Z</time>
      </trkpt>
      <trkpt lat="42.67258" lon="1.5173">
        <ele>2709</ele>
        <time>2014-09-13T11:22:59Z</time>
      </trkpt>
      <trkpt lat="42.6726" lon="1.51732">
        <ele>2710</ele>
        <time>2014-09-13T11:23:12Z</time>
      </trkpt>
      <trkpt lat="42.6726" lon="1.51735">
        <ele>2712</ele>
        <time>2014-09-13T11:23:22Z</time>
      </trkpt>
      <trkpt lat="42.67261" lon="1.51737">
        <ele>2713</ele>
        <time>2014-09-13T11:23:29Z</time>
      </trkpt>
      <trkpt lat="42.67265" lon="1.51738">
        <ele>2715</ele>
        <time>2014-09-13T11:23:42Z</time>
      </trkpt>
      <trkpt lat="42.67269" lon="1.51744">
        <ele>2716</ele>
        <time>2014-09-13T11:23:51Z</time>
      </trkpt>
      <trkpt lat="42.67268" lon="1.51745">
        <ele>2716</ele>
        <time>2014-09-13T11:24:07Z</time>
      </trkpt>
      <trkpt lat="42.67268" lon="1.51748">
        <ele>2715</ele>
        <time>2014-09-13T11:24:19Z</time>
      </trkpt>
      <trkpt lat="42.6727" lon="1.51748">
        <ele>2714</ele>
        <time>2014-09-13T11:24:39Z</time>
      </trkpt>
      <trkpt lat="42.67271" lon="1.51754">
        <ele>2712</ele>
        <time>2014-09-13T11:24:52Z</time>
      </trkpt>
      <trkpt lat="42.67271" lon="1.51756">
        <ele>2711</ele>
        <time>2014-09-13T11:25:00Z</time>
      </trkpt>
      <trkpt lat="42.6727" lon="1.51766">
        <ele>2709</ele>
        <time>2014-09-13T11:25:13Z</time>
      </trkpt>
      <trkpt lat="42.67269" lon="1.51767">
        <ele>2708</ele>
        <time>2014-09-13T11:25:29Z</time>
      </trkpt>
      <trkpt lat="42.67268" lon="1.5177">
        <ele>2708</ele>
        <time>2014-09-13T11:25:44Z</time>
      </trkpt>
      <trkpt lat="42.67269" lon="1.51771">
        <ele>2708</ele>
        <time>2014-09-13T11:26:04Z</time>
      </trkpt>
      <trkpt lat="42.67268" lon="1.51766">
        <ele>2708</ele>
        <time>2014-09-13T11:26:22Z</time>
      </trkpt>
      <trkpt lat="42.67266" lon="1.51769">
        <ele>2706</ele>
        <time>2014-09-13T11:26:37Z</time>
      </trkpt>
      <trkpt lat="42.67265" lon="1.51771">
        <ele>2705</ele>
        <time>2014-09-13T11:26:57Z</time>
      </trkpt>
      <trkpt lat="42.67261" lon="1.5177">
        <ele>2703</ele>
        <time>2014-09-13T11:27:17Z</time>
      </trkpt>
      <trkpt lat="42.67262" lon="1.51773">
        <ele>2702</ele>
        <time>2014-09-13T11:27:32Z</time>
      </trkpt>
      <trkpt lat="42.67263" lon="1.51781">
        <ele>2700</ele>
        <time>2014-09-13T11:27:47Z</time>
      </trkpt>
      <trkpt lat="42.67264" lon="1.51788">
        <ele>2699</ele>
        <time>2014-09-13T11:28:02Z</time>
      </trkpt>
      <trkpt lat="42.67265" lon="1.51791">
        <ele>2698</ele>
        <time>2014-09-13T11:28:17Z</time>
      </trkpt>
      <trkpt lat="42.67264" lon="1.51796">
        <ele>2697</ele>
        <time>2014-09-13T11:28:31Z</time>
      </trkpt>
      <trkpt lat="42.67263" lon="1.51801">
        <ele>2695</ele>
        <time>2014-09-13T11:28:42Z</time>
      </trkpt>
      <trkpt lat="42.67263" lon="1.51807">
        <ele>2694</ele>
        <time>2014-09-13T11:28:55Z</time>
      </trkpt>
      <trkpt lat="42.67258" lon="1.5181">
        <ele>2692</ele>
        <time>2014-09-13T11:29:06Z</time>
      </trkpt>
      <trkpt lat="42.67257" lon="1.51811">
        <ele>2691</ele>
        <time>2014-09-13T11:29:10Z</time>
      </trkpt>
      <trkpt lat="42.67261" lon="1.51817">
        <ele>2690</ele>
        <time>2014-09-13T11:29:25Z</time>
      </trkpt>
      <trkpt lat="42.67258" lon="1.51824">
        <ele>2692</ele>
        <time>2014-09-13T11:29:37Z</time>
      </trkpt>
      <trkpt lat="42.67254" lon="1.51826">
        <ele>2691</ele>
        <time>2014-09-13T11:29:56Z</time>
      </trkpt>
      <trkpt lat="42.67255" lon="1.51828">
        <ele>2690</ele>
        <time>2014-09-13T11:30:13Z</time>
      </trkpt>
      <trkpt lat="42.67256" lon="1.51831">
        <ele>2692</ele>
        <time>2014-09-13T11:30:28Z</time>
      </trkpt>
      <trkpt lat="42.67255" lon="1.51836">
        <ele>2692</ele>
        <time>2014-09-13T11:30:40Z</time>
      </trkpt>
      <trkpt lat="42.67254" lon="1.5184">
        <ele>2691</ele>
        <time>2014-09-13T11:30:56Z</time>
      </trkpt>
      <trkpt lat="42.67256" lon="1.51845">
        <ele>2691</ele>
        <time>2014-09-13T11:31:11Z</time>
      </trkpt>
      <trkpt lat="42.67257" lon="1.5185">
        <ele>2693</ele>
        <time>2014-09-13T11:31:24Z</time>
      </trkpt>
      <trkpt lat="42.67258" lon="1.51853">
        <ele>2695</ele>
        <time>2014-09-13T11:31:41Z</time>
      </trkpt>
      <trkpt lat="42.6726" lon="1.51856">
        <ele>2697</ele>
        <time>2014-09-13T11:31:54Z</time>
      </trkpt>
      <trkpt lat="42.67261" lon="1.5186">
        <ele>2699</ele>
        <time>2014-09-13T11:32:08Z</time>
      </trkpt>
      <trkpt lat="42.67267" lon="1.51861">
        <ele>2702</ele>
        <time>2014-09-13T11:32:24Z</time>
      </trkpt>
      <trkpt lat="42.6727" lon="1.51857">
        <ele>2703</ele>
        <time>2014-09-13T11:32:40Z</time>
      </trkpt>
      <trkpt lat="42.67274" lon="1.51859">
        <ele>2705</ele>
        <time>2014-09-13T11:32:54Z</time>
      </trkpt>
      <trkpt lat="42.67275" lon="1.5186">
        <ele>2706</ele>
        <time>2014-09-13T11:33:11Z</time>
      </trkpt>
      <trkpt lat="42.67276" lon="1.51861">
        <ele>2706</ele>
        <time>2014-09-13T11:33:25Z</time>
      </trkpt>
      <trkpt lat="42.67275" lon="1.51863">
        <ele>2704</ele>
        <time>2014-09-13T11:33:47Z</time>
      </trkpt>
      <trkpt lat="42.67281" lon="1.51866">
        <ele>2705</ele>
        <time>2014-09-13T11:33:54Z</time>
      </trkpt>
      <trkpt lat="42.6729" lon="1.51867">
        <ele>2706</ele>
        <time>2014-09-13T11:34:06Z</time>
      </trkpt>
      <trkpt lat="42.67293" lon="1.51867">
        <ele>2707</ele>
        <time>2014-09-13T11:34:18Z</time>
      </trkpt>
      <trkpt lat="42.67297" lon="1.51864">
        <ele>2707</ele>
        <time>2014-09-13T11:34:29Z</time>
      </trkpt>
      <trkpt lat="42.67298" lon="1.51868">
        <ele>2705</ele>
        <time>2014-09-13T11:34:42Z</time>
      </trkpt>
      <trkpt lat="42.67298" lon="1.51868">
        <ele>2705</ele>
        <time>2014-09-13T11:34:43Z</time>
      </trkpt>
      <trkpt lat="42.67304" lon="1.51873">
        <ele>2703</ele>
        <time>2014-09-13T11:34:56Z</time>
      </trkpt>
      <trkpt lat="42.67306" lon="1.51874">
        <ele>2700</ele>
        <time>2014-09-13T11:35:15Z</time>
      </trkpt>
      <trkpt lat="42.67312" lon="1.51874">
        <ele>2700</ele>
        <time>2014-09-13T11:35:28Z</time>
      </trkpt>
      <trkpt lat="42.67313" lon="1.51882">
        <ele>2697</ele>
        <time>2014-09-13T11:35:40Z</time>
      </trkpt>
      <trkpt lat="42.67314" lon="1.51881">
        <ele>2696</ele>
        <time>2014-09-13T11:35:43Z</time>
      </trkpt>
      <trkpt lat="42.67319" lon="1.51877">
        <ele>2695</ele>
        <time>2014-09-13T11:35:56Z</time>
      </trkpt>
      <trkpt lat="42.67318" lon="1.51875">
        <ele>2693</ele>
        <time>2014-09-13T11:36:13Z</time>
      </trkpt>
      <trkpt lat="42.67321" lon="1.5188">
        <ele>2691</ele>
        <time>2014-09-13T11:36:27Z</time>
      </trkpt>
      <trkpt lat="42.67323" lon="1.51879">
        <ele>2690</ele>
        <time>2014-09-13T11:36:30Z</time>
      </trkpt>
      <trkpt lat="42.67327" lon="1.51876">
        <ele>2690</ele>
        <time>2014-09-13T11:36:34Z</time>
      </trkpt>
      <trkpt lat="42.6733" lon="1.51872">
        <ele>2689</ele>
        <time>2014-09-13T11:36:38Z</time>
      </trkpt>
      <trkpt lat="42.67333" lon="1.51868">
        <ele>2690</ele>
        <time>2014-09-13T11:36:44Z</time>
      </trkpt>
      <trkpt lat="42.67337" lon="1.51858">
        <ele>2690</ele>
        <time>2014-09-13T11:36:57Z</time>
      </trkpt>
      <trkpt lat="42.67342" lon="1.51856">
        <ele>2692</ele>
        <time>2014-09-13T11:37:06Z</time>
      </trkpt>
      <trkpt lat="42.67348" lon="1.51852">
        <ele>2693</ele>
        <time>2014-09-13T11:37:17Z</time>
      </trkpt>
      <trkpt lat="42.67356" lon="1.51853">
        <ele>2695</ele>
        <time>2014-09-13T11:37:28Z</time>
      </trkpt>
      <trkpt lat="42.67362" lon="1.51857">
        <ele>2695</ele>
        <time>2014-09-13T11:37:40Z</time>
      </trkpt>
      <trkpt lat="42.67367" lon="1.5186">
        <ele>2696</ele>
        <time>2014-09-13T11:37:50Z</time>
      </trkpt>
      <trkpt lat="42.67377" lon="1.51862">
        <ele>2695</ele>
        <time>2014-09-13T11:38:03Z</time>
      </trkpt>
      <trkpt lat="42.67378" lon="1.51862">
        <ele>2696</ele>
        <time>2014-09-13T11:38:04Z</time>
      </trkpt>
      <trkpt lat="42.67384" lon="1.51864">
        <ele>2695</ele>
        <time>2014-09-13T11:38:17Z</time>
      </trkpt>
      <trkpt lat="42.67386" lon="1.51864">
        <ele>2695</ele>
        <time>2014-09-13T11:38:42Z</time>
      </trkpt>
      <trkpt lat="42.67387" lon="1.51864">
        <ele>2695</ele>
        <time>2014-09-13T11:38:58Z</time>
      </trkpt>
      <trkpt lat="42.67387" lon="1.51864">
        <ele>2694</ele>
        <time>2014-09-13T11:39:14Z</time>
      </trkpt>
      <trkpt lat="42.67391" lon="1.51865">
        <ele>2692</ele>
        <time>2014-09-13T11:39:26Z</time>
      </trkpt>
      <trkpt lat="42.67397" lon="1.51861">
        <ele>2693</ele>
        <time>2014-09-13T11:39:38Z</time>
      </trkpt>
      <trkpt lat="42.67401" lon="1.51864">
        <ele>2692</ele>
        <time>2014-09-13T11:39:53Z</time>
      </trkpt>
      <trkpt lat="42.67403" lon="1.51863">
        <ele>2691</ele>
        <time>2014-09-13T11:40:07Z</time>
      </trkpt>
      <trkpt lat="42.67405" lon="1.51864">
        <ele>2691</ele>
        <time>2014-09-13T11:40:36Z</time>
      </trkpt>
      <trkpt lat="42.67405" lon="1.51865">
        <ele>2690</ele>
        <time>2014-09-13T11:40:54Z</time>
      </trkpt>
      <trkpt lat="42.67413" lon="1.51861">
        <ele>2688</ele>
        <time>2014-09-13T11:41:06Z</time>
      </trkpt>
      <trkpt lat="42.67417" lon="1.51861">
        <ele>2685</ele>
        <time>2014-09-13T11:41:19Z</time>
      </trkpt>
      <trkpt lat="42.67421" lon="1.51855">
        <ele>2685</ele>
        <time>2014-09-13T11:41:30Z</time>
      </trkpt>
      <trkpt lat="42.67422" lon="1.51854">
        <ele>2683</ele>
        <time>2014-09-13T11:41:45Z</time>
      </trkpt>
      <trkpt lat="42.67424" lon="1.51854">
        <ele>2683</ele>
        <time>2014-09-13T11:42:01Z</time>
      </trkpt>
      <trkpt lat="42.67427" lon="1.51853">
        <ele>2681</ele>
        <time>2014-09-13T11:42:16Z</time>
      </trkpt>
      <trkpt lat="42.6743" lon="1.51855">
        <ele>2680</ele>
        <time>2014-09-13T11:42:29Z</time>
      </trkpt>
      <trkpt lat="42.67434" lon="1.51854">
        <ele>2678</ele>
        <time>2014-09-13T11:42:41Z</time>
      </trkpt>
      <trkpt lat="42.67441" lon="1.51851">
        <ele>2677</ele>
        <time>2014-09-13T11:42:46Z</time>
      </trkpt>
      <trkpt lat="42.67455" lon="1.51843">
        <ele>2678</ele>
        <time>2014-09-13T11:43:00Z</time>
      </trkpt>
      <trkpt lat="42.67457" lon="1.51839">
        <ele>2676</ele>
        <time>2014-09-13T11:43:13Z</time>
      </trkpt>
      <trkpt lat="42.6746" lon="1.5184">
        <ele>2676</ele>
        <time>2014-09-13T11:43:27Z</time>
      </trkpt>
      <trkpt lat="42.67465" lon="1.51836">
        <ele>2675</ele>
        <time>2014-09-13T11:43:39Z</time>
      </trkpt>
      <trkpt lat="42.67467" lon="1.51838">
        <ele>2673</ele>
        <time>2014-09-13T11:43:54Z</time>
      </trkpt>
      <trkpt lat="42.67468" lon="1.51833">
        <ele>2672</ele>
        <time>2014-09-13T11:44:13Z</time>
      </trkpt>
      <trkpt lat="42.67471" lon="1.51832">
        <ele>2671</ele>
        <time>2014-09-13T11:44:25Z</time>
      </trkpt>
      <trkpt lat="42.67476" lon="1.51829">
        <ele>2669</ele>
        <time>2014-09-13T11:44:37Z</time>
      </trkpt>
      <trkpt lat="42.6748" lon="1.51828">
        <ele>2667</ele>
        <time>2014-09-13T11:44:48Z</time>
      </trkpt>
      <trkpt lat="42.67481" lon="1.51827">
        <ele>2666</ele>
        <time>2014-09-13T11:44:50Z</time>
      </trkpt>
      <trkpt lat="42.67486" lon="1.51825">
        <ele>2664</ele>
        <time>2014-09-13T11:45:04Z</time>
      </trkpt>
      <trkpt lat="42.67489" lon="1.51827">
        <ele>2663</ele>
        <time>2014-09-13T11:45:20Z</time>
      </trkpt>
      <trkpt lat="42.67492" lon="1.51825">
        <ele>2662</ele>
        <time>2014-09-13T11:45:37Z</time>
      </trkpt>
      <trkpt lat="42.67494" lon="1.51823">
        <ele>2660</ele>
        <time>2014-09-13T11:45:50Z</time>
      </trkpt>
      <trkpt lat="42.67494" lon="1.51819">
        <ele>2658</ele>
        <time>2014-09-13T11:46:04Z</time>
      </trkpt>
      <trkpt lat="42.67497" lon="1.5182">
        <ele>2656</ele>
        <time>2014-09-13T11:46:13Z</time>
      </trkpt>
      <trkpt lat="42.67502" lon="1.51819">
        <ele>2654</ele>
        <time>2014-09-13T11:46:25Z</time>
      </trkpt>
      <trkpt lat="42.67508" lon="1.51817">
        <ele>2652</ele>
        <time>2014-09-13T11:46:37Z</time>
      </trkpt>
      <trkpt lat="42.6751" lon="1.51819">
        <ele>2651</ele>
        <time>2014-09-13T11:46:47Z</time>
      </trkpt>
      <trkpt lat="42.67511" lon="1.51818">
        <ele>2650</ele>
        <time>2014-09-13T11:46:58Z</time>
      </trkpt>
      <trkpt lat="42.67516" lon="1.51818">
        <ele>2648</ele>
        <time>2014-09-13T11:47:10Z</time>
      </trkpt>
      <trkpt lat="42.6752" lon="1.51815">
        <ele>2646</ele>
        <time>2014-09-13T11:47:23Z</time>
      </trkpt>
      <trkpt lat="42.67519" lon="1.51815">
        <ele>2645</ele>
        <time>2014-09-13T11:47:37Z</time>
      </trkpt>
      <trkpt lat="42.6752" lon="1.51812">
        <ele>2644</ele>
        <time>2014-09-13T11:47:51Z</time>
      </trkpt>
      <trkpt lat="42.67519" lon="1.51811">
        <ele>2643</ele>
        <time>2014-09-13T11:48:10Z</time>
      </trkpt>
      <trkpt lat="42.67521" lon="1.51814">
        <ele>2642</ele>
        <time>2014-09-13T11:48:24Z</time>
      </trkpt>
      <trkpt lat="42.67521" lon="1.51811">
        <ele>2641</ele>
        <time>2014-09-13T11:48:46Z</time>
      </trkpt>
      <trkpt lat="42.67522" lon="1.51812">
        <ele>2641</ele>
        <time>2014-09-13T11:49:00Z</time>
      </trkpt>
      <trkpt lat="42.67522" lon="1.51817">
        <ele>2641</ele>
        <time>2014-09-13T11:49:22Z</time>
      </trkpt>
      <trkpt lat="42.67522" lon="1.51817">
        <ele>2640</ele>
        <time>2014-09-13T11:49:37Z</time>
      </trkpt>
      <trkpt lat="42.67523" lon="1.51818">
        <ele>2639</ele>
        <time>2014-09-13T11:49:54Z</time>
      </trkpt>
      <trkpt lat="42.67524" lon="1.5182">
        <ele>2639</ele>
        <time>2014-09-13T11:50:09Z</time>
      </trkpt>
      <trkpt lat="42.67524" lon="1.51818">
        <ele>2639</ele>
        <time>2014-09-13T11:50:25Z</time>
      </trkpt>
      <trkpt lat="42.67522" lon="1.51816">
        <ele>2638</ele>
        <time>2014-09-13T11:50:41Z</time>
      </trkpt>
      <trkpt lat="42.67523" lon="1.51817">
        <ele>2639</ele>
        <time>2014-09-13T11:51:02Z</time>
      </trkpt>
      <trkpt lat="42.67524" lon="1.5182">
        <ele>2638</ele>
        <time>2014-09-13T11:51:19Z</time>
      </trkpt>
      <trkpt lat="42.67525" lon="1.51818">
        <ele>2637</ele>
        <time>2014-09-13T11:51:37Z</time>
      </trkpt>
      <trkpt lat="42.67525" lon="1.51816">
        <ele>2638</ele>
        <time>2014-09-13T11:51:56Z</time>
      </trkpt>
      <trkpt lat="42.67524" lon="1.51822">
        <ele>2637</ele>
        <time>2014-09-13T11:52:13Z</time>
      </trkpt>
      <trkpt lat="42.67524" lon="1.51823">
        <ele>2636</ele>
        <time>2014-09-13T11:52:35Z</time>
      </trkpt>
      <trkpt lat="42.67523" lon="1.51822">
        <ele>2636</ele>
        <time>2014-09-13T11:52:52Z</time>
      </trkpt>
      <trkpt lat="42.67525" lon="1.51816">
        <ele>2635</ele>
        <time>2014-09-13T11:53:15Z</time>
      </trkpt>
      <trkpt lat="42.67524" lon="1.5182">
        <ele>2635</ele>
        <time>2014-09-13T11:53:31Z</time>
      </trkpt>
      <trkpt lat="42.67525" lon="1.51821">
        <ele>2635</ele>
        <time>2014-09-13T11:53:47Z</time>
      </trkpt>
      <trkpt lat="42.67524" lon="1.5182">
        <ele>2634</ele>
        <time>2014-09-13T11:54:08Z</time>
      </trkpt>
      <trkpt lat="42.67528" lon="1.51821">
        <ele>2633</ele>
        <time>2014-09-13T11:54:31Z</time>
      </trkpt>
      <trkpt lat="42.67524" lon="1.51817">
        <ele>2633</ele>
        <time>2014-09-13T11:54:55Z</time>
      </trkpt>
      <trkpt lat="42.67524" lon="1.51819">
        <ele>2632</ele>
        <time>2014-09-13T11:55:15Z</time>
      </trkpt>
      <trkpt lat="42.67526" lon="1.51815">
        <ele>2631</ele>
        <time>2014-09-13T11:55:32Z</time>
      </trkpt>
      <trkpt lat="42.67523" lon="1.51815">
        <ele>2631</ele>
        <time>2014-09-13T11:55:52Z</time>
      </trkpt>
      <trkpt lat="42.67523" lon="1.51812">
        <ele>2630</ele>
        <time>2014-09-13T11:56:13Z</time>
      </trkpt>
      <trkpt lat="42.67528" lon="1.5181">
        <ele>2629</ele>
        <time>2014-09-13T11:56:23Z</time>
      </trkpt>
      <trkpt lat="42.67532" lon="1.51806">
        <ele>2627</ele>
        <time>2014-09-13T11:56:28Z</time>
      </trkpt>
      <trkpt lat="42.67536" lon="1.51802">
        <ele>2626</ele>
        <time>2014-09-13T11:56:39Z</time>
      </trkpt>
      <trkpt lat="42.67541" lon="1.51802">
        <ele>2624</ele>
        <time>2014-09-13T11:56:51Z</time>
      </trkpt>
      <trkpt lat="42.67544" lon="1.51798">
        <ele>2622</ele>
        <time>2014-09-13T11:57:02Z</time>
      </trkpt>
      <trkpt lat="42.67547" lon="1.51798">
        <ele>2620</ele>
        <time>2014-09-13T11:57:14Z</time>
      </trkpt>
      <trkpt lat="42.67549" lon="1.51798">
        <ele>2618</ele>
        <time>2014-09-13T11:57:26Z</time>
      </trkpt>
      <trkpt lat="42.67552" lon="1.51797">
        <ele>2615</ele>
        <time>2014-09-13T11:57:38Z</time>
      </trkpt>
      <trkpt lat="42.67553" lon="1.51804">
        <ele>2613</ele>
        <time>2014-09-13T11:57:50Z</time>
      </trkpt>
      <trkpt lat="42.67555" lon="1.51804">
        <ele>2612</ele>
        <time>2014-09-13T11:57:59Z</time>
      </trkpt>
      <trkpt lat="42.67558" lon="1.518">
        <ele>2610</ele>
        <time>2014-09-13T11:58:10Z</time>
      </trkpt>
      <trkpt lat="42.6756" lon="1.51796">
        <ele>2608</ele>
        <time>2014-09-13T11:58:21Z</time>
      </trkpt>
      <trkpt lat="42.67563" lon="1.51798">
        <ele>2606</ele>
        <time>2014-09-13T11:58:34Z</time>
      </trkpt>
      <trkpt lat="42.67564" lon="1.51802">
        <ele>2604</ele>
        <time>2014-09-13T11:58:48Z</time>
      </trkpt>
      <trkpt lat="42.67569" lon="1.51795">
        <ele>2601</ele>
        <time>2014-09-13T11:59:00Z</time>
      </trkpt>
      <trkpt lat="42.6757" lon="1.51797">
        <ele>2600</ele>
        <time>2014-09-13T11:59:04Z</time>
      </trkpt>
      <trkpt lat="42.67575" lon="1.51794">
        <ele>2598</ele>
        <time>2014-09-13T11:59:15Z</time>
      </trkpt>
      <trkpt lat="42.67577" lon="1.5179">
        <ele>2595</ele>
        <time>2014-09-13T11:59:26Z</time>
      </trkpt>
      <trkpt lat="42.67581" lon="1.51791">
        <ele>2593</ele>
        <time>2014-09-13T11:59:36Z</time>
      </trkpt>
      <trkpt lat="42.67584" lon="1.51785">
        <ele>2590</ele>
        <time>2014-09-13T11:59:48Z</time>
      </trkpt>
      <trkpt lat="42.67585" lon="1.51784">
        <ele>2590</ele>
        <time>2014-09-13T12:00:07Z</time>
      </trkpt>
      <trkpt lat="42.67588" lon="1.51777">
        <ele>2587</ele>
        <time>2014-09-13T12:00:16Z</time>
      </trkpt>
      <trkpt lat="42.67589" lon="1.51775">
        <ele>2586</ele>
        <time>2014-09-13T12:00:21Z</time>
      </trkpt>
      <trkpt lat="42.67591" lon="1.51768">
        <ele>2584</ele>
        <time>2014-09-13T12:00:32Z</time>
      </trkpt>
      <trkpt lat="42.67596" lon="1.51762">
        <ele>2582</ele>
        <time>2014-09-13T12:00:43Z</time>
      </trkpt>
      <trkpt lat="42.67602" lon="1.51761">
        <ele>2580</ele>
        <time>2014-09-13T12:00:55Z</time>
      </trkpt>
      <trkpt lat="42.67609" lon="1.51764">
        <ele>2577</ele>
        <time>2014-09-13T12:01:07Z</time>
      </trkpt>
      <trkpt lat="42.6761" lon="1.51764">
        <ele>2577</ele>
        <time>2014-09-13T12:01:10Z</time>
      </trkpt>
      <trkpt lat="42.67614" lon="1.51765">
        <ele>2576</ele>
        <time>2014-09-13T12:01:14Z</time>
      </trkpt>
      <trkpt lat="42.67618" lon="1.51757">
        <ele>2575</ele>
        <time>2014-09-13T12:01:21Z</time>
      </trkpt>
      <trkpt lat="42.67621" lon="1.51751">
        <ele>2574</ele>
        <time>2014-09-13T12:01:26Z</time>
      </trkpt>
      <trkpt lat="42.67626" lon="1.51745">
        <ele>2572</ele>
        <time>2014-09-13T12:01:34Z</time>
      </trkpt>
      <trkpt lat="42.67639" lon="1.51734">
        <ele>2569</ele>
        <time>2014-09-13T12:01:48Z</time>
      </trkpt>
      <trkpt lat="42.67642" lon="1.51729">
        <ele>2568</ele>
        <time>2014-09-13T12:01:56Z</time>
      </trkpt>
      <trkpt lat="42.67649" lon="1.5172">
        <ele>2565</ele>
        <time>2014-09-13T12:02:08Z</time>
      </trkpt>
      <trkpt lat="42.6765" lon="1.51717">
        <ele>2564</ele>
        <time>2014-09-13T12:02:11Z</time>
      </trkpt>
      <trkpt lat="42.67653" lon="1.51716">
        <ele>2563</ele>
        <time>2014-09-13T12:02:15Z</time>
      </trkpt>
      <trkpt lat="42.67659" lon="1.51701">
        <ele>2561</ele>
        <time>2014-09-13T12:02:28Z</time>
      </trkpt>
      <trkpt lat="42.67663" lon="1.517">
        <ele>2557</ele>
        <time>2014-09-13T12:02:39Z</time>
      </trkpt>
      <trkpt lat="42.67663" lon="1.51702">
        <ele>2557</ele>
        <time>2014-09-13T12:02:43Z</time>
      </trkpt>
      <trkpt lat="42.67666" lon="1.51701">
        <ele>2556</ele>
        <time>2014-09-13T12:02:49Z</time>
      </trkpt>
      <trkpt lat="42.67675" lon="1.51689">
        <ele>2553</ele>
        <time>2014-09-13T12:03:01Z</time>
      </trkpt>
      <trkpt lat="42.67678" lon="1.51685">
        <ele>2552</ele>
        <time>2014-09-13T12:03:07Z</time>
      </trkpt>
      <trkpt lat="42.67684" lon="1.51683">
        <ele>2549</ele>
        <time>2014-09-13T12:03:15Z</time>
      </trkpt>
      <trkpt lat="42.67693" lon="1.51678">
        <ele>2549</ele>
        <time>2014-09-13T12:03:27Z</time>
      </trkpt>
      <trkpt lat="42.67697" lon="1.51676">
        <ele>2549</ele>
        <time>2014-09-13T12:03:35Z</time>
      </trkpt>
      <trkpt lat="42.67699" lon="1.51675">
        <ele>2549</ele>
        <time>2014-09-13T12:03:37Z</time>
      </trkpt>
      <trkpt lat="42.67709" lon="1.51671">
        <ele>2549</ele>
        <time>2014-09-13T12:03:49Z</time>
      </trkpt>
      <trkpt lat="42.67715" lon="1.5167">
        <ele>2549</ele>
        <time>2014-09-13T12:03:56Z</time>
      </trkpt>
      <trkpt lat="42.67717" lon="1.51669">
        <ele>2549</ele>
        <time>2014-09-13T12:03:58Z</time>
      </trkpt>
      <trkpt lat="42.67723" lon="1.51667">
        <ele>2550</ele>
        <time>2014-09-13T12:04:05Z</time>
      </trkpt>
      <trkpt lat="42.67726" lon="1.51666">
        <ele>2551</ele>
        <time>2014-09-13T12:04:17Z</time>
      </trkpt>
      <trkpt lat="42.67729" lon="1.51665">
        <ele>2551</ele>
        <time>2014-09-13T12:04:42Z</time>
      </trkpt>
      <trkpt lat="42.67734" lon="1.51663">
        <ele>2551</ele>
        <time>2014-09-13T12:04:55Z</time>
      </trkpt>
      <trkpt lat="42.67735" lon="1.51663">
        <ele>2551</ele>
        <time>2014-09-13T12:05:13Z</time>
      </trkpt>
      <trkpt lat="42.6774" lon="1.51663">
        <ele>2551</ele>
        <time>2014-09-13T12:05:30Z</time>
      </trkpt>
      <trkpt lat="42.67743" lon="1.51662">
        <ele>2551</ele>
        <time>2014-09-13T12:05:34Z</time>
      </trkpt>
      <trkpt lat="42.67759" lon="1.51659">
        <ele>2551</ele>
        <time>2014-09-13T12:05:48Z</time>
      </trkpt>
      <trkpt lat="42.67768" lon="1.51657">
        <ele>2553</ele>
        <time>2014-09-13T12:06:00Z</time>
      </trkpt>
      <trkpt lat="42.67772" lon="1.51658">
        <ele>2554</ele>
        <time>2014-09-13T12:06:04Z</time>
      </trkpt>
      <trkpt lat="42.67778" lon="1.51661">
        <ele>2556</ele>
        <time>2014-09-13T12:06:16Z</time>
      </trkpt>
      <trkpt lat="42.6778" lon="1.5166">
        <ele>2556</ele>
        <time>2014-09-13T12:06:27Z</time>
      </trkpt>
      <trkpt lat="42.6778" lon="1.5166">
        <ele>2556</ele>
        <time>2014-09-13T12:06:42Z</time>
      </trkpt>
      <trkpt lat="42.67779" lon="1.51658">
        <ele>2556</ele>
        <time>2014-09-13T12:07:06Z</time>
      </trkpt>
      <trkpt lat="42.67775" lon="1.51658">
        <ele>2555</ele>
        <time>2014-09-13T12:07:14Z</time>
      </trkpt>
      <trkpt lat="42.67779" lon="1.51649">
        <ele>2551</ele>
        <time>2014-09-13T12:07:27Z</time>
      </trkpt>
      <trkpt lat="42.6778" lon="1.51646">
        <ele>2551</ele>
        <time>2014-09-13T12:07:39Z</time>
      </trkpt>
      <trkpt lat="42.67782" lon="1.51644">
        <ele>2549</ele>
        <time>2014-09-13T12:07:53Z</time>
      </trkpt>
      <trkpt lat="42.67783" lon="1.51642">
        <ele>2549</ele>
        <time>2014-09-13T12:08:06Z</time>
      </trkpt>
      <trkpt lat="42.67784" lon="1.51642">
        <ele>2549</ele>
        <time>2014-09-13T12:08:23Z</time>
      </trkpt>
      <trkpt lat="42.67782" lon="1.5164">
        <ele>2548</ele>
        <time>2014-09-13T12:08:25Z</time>
      </trkpt>
      <trkpt lat="42.67784" lon="1.51637">
        <ele>2546</ele>
        <time>2014-09-13T12:08:31Z</time>
      </trkpt>
      <trkpt lat="42.67786" lon="1.51633">
        <ele>2545</ele>
        <time>2014-09-13T12:08:36Z</time>
      </trkpt>
      <trkpt lat="42.67792" lon="1.5163">
        <ele>2544</ele>
        <time>2014-09-13T12:08:46Z</time>
      </trkpt>
      <trkpt lat="42.67801" lon="1.51623">
        <ele>2541</ele>
        <time>2014-09-13T12:09:01Z</time>
      </trkpt>
      <trkpt lat="42.6781" lon="1.51618">
        <ele>2539</ele>
        <time>2014-09-13T12:09:11Z</time>
      </trkpt>
      <trkpt lat="42.67818" lon="1.51614">
        <ele>2537</ele>
        <time>2014-09-13T12:09:24Z</time>
      </trkpt>
      <trkpt lat="42.6782" lon="1.51614">
        <ele>2537</ele>
        <time>2014-09-13T12:09:35Z</time>
      </trkpt>
      <trkpt lat="42.67819" lon="1.51613">
        <ele>2536</ele>
        <time>2014-09-13T12:09:55Z</time>
      </trkpt>
      <trkpt lat="42.67821" lon="1.51609">
        <ele>2536</ele>
        <time>2014-09-13T12:10:07Z</time>
      </trkpt>
      <trkpt lat="42.67825" lon="1.51605">
        <ele>2536</ele>
        <time>2014-09-13T12:10:18Z</time>
      </trkpt>
      <trkpt lat="42.6783" lon="1.51603">
        <ele>2536</ele>
        <time>2014-09-13T12:10:28Z</time>
      </trkpt>
      <trkpt lat="42.67832" lon="1.51605">
        <ele>2534</ele>
        <time>2014-09-13T12:10:39Z</time>
      </trkpt>
      <trkpt lat="42.67824" lon="1.51608">
        <ele>2535</ele>
        <time>2014-09-13T12:10:55Z</time>
      </trkpt>
      <trkpt lat="42.67823" lon="1.51607">
        <ele>2535</ele>
        <time>2014-09-13T12:11:10Z</time>
      </trkpt>
      <trkpt lat="42.67823" lon="1.51607">
        <ele>2534</ele>
        <time>2014-09-13T12:11:27Z</time>
      </trkpt>
      <trkpt lat="42.67825" lon="1.51608">
        <ele>2534</ele>
        <time>2014-09-13T12:12:03Z</time>
      </trkpt>
      <trkpt lat="42.67824" lon="1.51606">
        <ele>2534</ele>
        <time>2014-09-13T12:12:43Z</time>
      </trkpt>
      <trkpt lat="42.67825" lon="1.51606">
        <ele>2534</ele>
        <time>2014-09-13T12:12:55Z</time>
      </trkpt>
      <trkpt lat="42.67826" lon="1.51607">
        <ele>2535</ele>
        <time>2014-09-13T12:13:06Z</time>
      </trkpt>
      <trkpt lat="42.67824" lon="1.51607">
        <ele>2534</ele>
        <time>2014-09-13T12:13:27Z</time>
      </trkpt>
      <trkpt lat="42.6782" lon="1.51611">
        <ele>2535</ele>
        <time>2014-09-13T12:13:39Z</time>
      </trkpt>
      <trkpt lat="42.67824" lon="1.51613">
        <ele>2533</ele>
        <time>2014-09-13T12:13:51Z</time>
      </trkpt>
      <trkpt lat="42.67826" lon="1.51614">
        <ele>2531</ele>
        <time>2014-09-13T12:14:01Z</time>
      </trkpt>
      <trkpt lat="42.67826" lon="1.51621">
        <ele>2528</ele>
        <time>2014-09-13T12:14:12Z</time>
      </trkpt>
      <trkpt lat="42.6783" lon="1.51622">
        <ele>2526</ele>
        <time>2014-09-13T12:14:19Z</time>
      </trkpt>
      <trkpt lat="42.67834" lon="1.51621">
        <ele>2524</ele>
        <time>2014-09-13T12:14:30Z</time>
      </trkpt>
      <trkpt lat="42.67839" lon="1.51621">
        <ele>2521</ele>
        <time>2014-09-13T12:14:39Z</time>
      </trkpt>
      <trkpt lat="42.67842" lon="1.51621">
        <ele>2519</ele>
        <time>2014-09-13T12:14:45Z</time>
      </trkpt>
      <trkpt lat="42.67846" lon="1.51621">
        <ele>2517</ele>
        <time>2014-09-13T12:14:55Z</time>
      </trkpt>
      <trkpt lat="42.67851" lon="1.51619">
        <ele>2515</ele>
        <time>2014-09-13T12:15:08Z</time>
      </trkpt>
      <trkpt lat="42.67853" lon="1.51617">
        <ele>2514</ele>
        <time>2014-09-13T12:15:21Z</time>
      </trkpt>
      <trkpt lat="42.67851" lon="1.5162">
        <ele>2512</ele>
        <time>2014-09-13T12:15:32Z</time>
      </trkpt>
      <trkpt lat="42.67853" lon="1.51622">
        <ele>2510</ele>
        <time>2014-09-13T12:15:47Z</time>
      </trkpt>
      <trkpt lat="42.67858" lon="1.51621">
        <ele>2507</ele>
        <time>2014-09-13T12:15:59Z</time>
      </trkpt>
      <trkpt lat="42.67858" lon="1.51624">
        <ele>2504</ele>
        <time>2014-09-13T12:16:12Z</time>
      </trkpt>
      <trkpt lat="42.67856" lon="1.51627">
        <ele>2503</ele>
        <time>2014-09-13T12:16:16Z</time>
      </trkpt>
      <trkpt lat="42.67855" lon="1.51634">
        <ele>2501</ele>
        <time>2014-09-13T12:16:27Z</time>
      </trkpt>
      <trkpt lat="42.67855" lon="1.5164">
        <ele>2500</ele>
        <time>2014-09-13T12:16:41Z</time>
      </trkpt>
      <trkpt lat="42.67858" lon="1.51641">
        <ele>2498</ele>
        <time>2014-09-13T12:16:54Z</time>
      </trkpt>
      <trkpt lat="42.67862" lon="1.51641">
        <ele>2497</ele>
        <time>2014-09-13T12:17:06Z</time>
      </trkpt>
      <trkpt lat="42.67865" lon="1.51645">
        <ele>2494</ele>
        <time>2014-09-13T12:17:20Z</time>
      </trkpt>
      <trkpt lat="42.67866" lon="1.51647">
        <ele>2492</ele>
        <time>2014-09-13T12:17:34Z</time>
      </trkpt>
      <trkpt lat="42.67869" lon="1.51645">
        <ele>2490</ele>
        <time>2014-09-13T12:17:44Z</time>
      </trkpt>
      <trkpt lat="42.67872" lon="1.51643">
        <ele>2489</ele>
        <time>2014-09-13T12:17:58Z</time>
      </trkpt>
      <trkpt lat="42.67875" lon="1.5164">
        <ele>2489</ele>
        <time>2014-09-13T12:18:12Z</time>
      </trkpt>
      <trkpt lat="42.67879" lon="1.5164">
        <ele>2488</ele>
        <time>2014-09-13T12:18:22Z</time>
      </trkpt>
      <trkpt lat="42.67881" lon="1.51639">
        <ele>2486</ele>
        <time>2014-09-13T12:18:34Z</time>
      </trkpt>
      <trkpt lat="42.6788" lon="1.51643">
        <ele>2485</ele>
        <time>2014-09-13T12:18:49Z</time>
      </trkpt>
      <trkpt lat="42.67882" lon="1.51638">
        <ele>2484</ele>
        <time>2014-09-13T12:19:03Z</time>
      </trkpt>
      <trkpt lat="42.67883" lon="1.51635">
        <ele>2483</ele>
        <time>2014-09-13T12:19:18Z</time>
      </trkpt>
      <trkpt lat="42.67882" lon="1.51637">
        <ele>2480</ele>
        <time>2014-09-13T12:19:30Z</time>
      </trkpt>
      <trkpt lat="42.67884" lon="1.51638">
        <ele>2479</ele>
        <time>2014-09-13T12:19:41Z</time>
      </trkpt>
      <trkpt lat="42.67887" lon="1.51633">
        <ele>2476</ele>
        <time>2014-09-13T12:19:55Z</time>
      </trkpt>
      <trkpt lat="42.6789" lon="1.5163">
        <ele>2476</ele>
        <time>2014-09-13T12:20:11Z</time>
      </trkpt>
      <trkpt lat="42.67894" lon="1.5163">
        <ele>2473</ele>
        <time>2014-09-13T12:20:26Z</time>
      </trkpt>
      <trkpt lat="42.67899" lon="1.5163">
        <ele>2471</ele>
        <time>2014-09-13T12:20:40Z</time>
      </trkpt>
      <trkpt lat="42.67906" lon="1.51628">
        <ele>2469</ele>
        <time>2014-09-13T12:20:52Z</time>
      </trkpt>
      <trkpt lat="42.67913" lon="1.51626">
        <ele>2468</ele>
        <time>2014-09-13T12:21:08Z</time>
      </trkpt>
      <trkpt lat="42.67919" lon="1.51628">
        <ele>2466</ele>
        <time>2014-09-13T12:21:21Z</time>
      </trkpt>
      <trkpt lat="42.67922" lon="1.51632">
        <ele>2464</ele>
        <time>2014-09-13T12:21:34Z</time>
      </trkpt>
      <trkpt lat="42.67925" lon="1.51633">
        <ele>2463</ele>
        <time>2014-09-13T12:21:50Z</time>
      </trkpt>
      <trkpt lat="42.67924" lon="1.51634">
        <ele>2461</ele>
        <time>2014-09-13T12:22:05Z</time>
      </trkpt>
      <trkpt lat="42.67926" lon="1.51637">
        <ele>2460</ele>
        <time>2014-09-13T12:22:22Z</time>
      </trkpt>
      <trkpt lat="42.67932" lon="1.51641">
        <ele>2458</ele>
        <time>2014-09-13T12:22:36Z</time>
      </trkpt>
      <trkpt lat="42.67935" lon="1.51646">
        <ele>2454</ele>
        <time>2014-09-13T12:22:50Z</time>
      </trkpt>
      <trkpt lat="42.67936" lon="1.51646">
        <ele>2454</ele>
        <time>2014-09-13T12:22:51Z</time>
      </trkpt>
      <trkpt lat="42.67939" lon="1.5165">
        <ele>2451</ele>
        <time>2014-09-13T12:23:05Z</time>
      </trkpt>
      <trkpt lat="42.67936" lon="1.51656">
        <ele>2450</ele>
        <time>2014-09-13T12:23:13Z</time>
      </trkpt>
      <trkpt lat="42.67941" lon="1.51658">
        <ele>2447</ele>
        <time>2014-09-13T12:23:28Z</time>
      </trkpt>
      <trkpt lat="42.67944" lon="1.51661">
        <ele>2445</ele>
        <time>2014-09-13T12:23:40Z</time>
      </trkpt>
      <trkpt lat="42.67951" lon="1.5166">
        <ele>2444</ele>
        <time>2014-09-13T12:23:53Z</time>
      </trkpt>
      <trkpt lat="42.67956" lon="1.51661">
        <ele>2442</ele>
        <time>2014-09-13T12:24:07Z</time>
      </trkpt>
      <trkpt lat="42.6796" lon="1.51664">
        <ele>2440</ele>
        <time>2014-09-13T12:24:20Z</time>
      </trkpt>
      <trkpt lat="42.67964" lon="1.51664">
        <ele>2439</ele>
        <time>2014-09-13T12:24:28Z</time>
      </trkpt>
      <trkpt lat="42.67975" lon="1.51662">
        <ele>2437</ele>
        <time>2014-09-13T12:24:43Z</time>
      </trkpt>
      <trkpt lat="42.6798" lon="1.51657">
        <ele>2436</ele>
        <time>2014-09-13T12:24:57Z</time>
      </trkpt>
      <trkpt lat="42.67984" lon="1.51657">
        <ele>2436</ele>
        <time>2014-09-13T12:25:15Z</time>
      </trkpt>
      <trkpt lat="42.67984" lon="1.51653">
        <ele>2435</ele>
        <time>2014-09-13T12:25:29Z</time>
      </trkpt>
      <trkpt lat="42.67988" lon="1.51654">
        <ele>2435</ele>
        <time>2014-09-13T12:25:42Z</time>
      </trkpt>
      <trkpt lat="42.67984" lon="1.51658">
        <ele>2432</ele>
        <time>2014-09-13T12:25:55Z</time>
      </trkpt>
      <trkpt lat="42.67982" lon="1.51658">
        <ele>2431</ele>
        <time>2014-09-13T12:26:07Z</time>
      </trkpt>
      <trkpt lat="42.67986" lon="1.51659">
        <ele>2430</ele>
        <time>2014-09-13T12:26:23Z</time>
      </trkpt>
      <trkpt lat="42.67988" lon="1.5166">
        <ele>2429</ele>
        <time>2014-09-13T12:26:40Z</time>
      </trkpt>
      <trkpt lat="42.67985" lon="1.51667">
        <ele>2426</ele>
        <time>2014-09-13T12:26:51Z</time>
      </trkpt>
      <trkpt lat="42.67985" lon="1.51671">
        <ele>2425</ele>
        <time>2014-09-13T12:27:02Z</time>
      </trkpt>
      <trkpt lat="42.67987" lon="1.51677">
        <ele>2422</ele>
        <time>2014-09-13T12:27:13Z</time>
      </trkpt>
      <trkpt lat="42.67987" lon="1.51682">
        <ele>2419</ele>
        <time>2014-09-13T12:27:27Z</time>
      </trkpt>
      <trkpt lat="42.67984" lon="1.51684">
        <ele>2417</ele>
        <time>2014-09-13T12:27:40Z</time>
      </trkpt>
      <trkpt lat="42.67984" lon="1.51687">
        <ele>2416</ele>
        <time>2014-09-13T12:27:57Z</time>
      </trkpt>
      <trkpt lat="42.67983" lon="1.51693">
        <ele>2413</ele>
        <time>2014-09-13T12:28:11Z</time>
      </trkpt>
      <trkpt lat="42.67982" lon="1.51697">
        <ele>2412</ele>
        <time>2014-09-13T12:28:23Z</time>
      </trkpt>
      <trkpt lat="42.67978" lon="1.51701">
        <ele>2410</ele>
        <time>2014-09-13T12:28:34Z</time>
      </trkpt>
      <trkpt lat="42.67977" lon="1.51704">
        <ele>2408</ele>
        <time>2014-09-13T12:28:48Z</time>
      </trkpt>
      <trkpt lat="42.67982" lon="1.51708">
        <ele>2405</ele>
        <time>2014-09-13T12:29:00Z</time>
      </trkpt>
      <trkpt lat="42.67986" lon="1.51709">
        <ele>2404</ele>
        <time>2014-09-13T12:29:12Z</time>
      </trkpt>
      <trkpt lat="42.67994" lon="1.51712">
        <ele>2402</ele>
        <time>2014-09-13T12:29:26Z</time>
      </trkpt>
      <trkpt lat="42.68" lon="1.51716">
        <ele>2401</ele>
        <time>2014-09-13T12:29:40Z</time>
      </trkpt>
      <trkpt lat="42.68002" lon="1.51717">
        <ele>2400</ele>
        <time>2014-09-13T12:29:45Z</time>
      </trkpt>
      <trkpt lat="42.68011" lon="1.51719">
        <ele>2398</ele>
        <time>2014-09-13T12:29:59Z</time>
      </trkpt>
      <trkpt lat="42.68019" lon="1.51725">
        <ele>2395</ele>
        <time>2014-09-13T12:30:16Z</time>
      </trkpt>
      <trkpt lat="42.68023" lon="1.51729">
        <ele>2392</ele>
        <time>2014-09-13T12:30:30Z</time>
      </trkpt>
      <trkpt lat="42.68029" lon="1.51732">
        <ele>2390</ele>
        <time>2014-09-13T12:30:42Z</time>
      </trkpt>
      <trkpt lat="42.68031" lon="1.51735">
        <ele>2388</ele>
        <time>2014-09-13T12:30:55Z</time>
      </trkpt>
      <trkpt lat="42.68034" lon="1.51739">
        <ele>2385</ele>
        <time>2014-09-13T12:31:10Z</time>
      </trkpt>
      <trkpt lat="42.68036" lon="1.51745">
        <ele>2381</ele>
        <time>2014-09-13T12:31:23Z</time>
      </trkpt>
      <trkpt lat="42.68037" lon="1.51751">
        <ele>2379</ele>
        <time>2014-09-13T12:31:36Z</time>
      </trkpt>
      <trkpt lat="42.68044" lon="1.51751">
        <ele>2377</ele>
        <time>2014-09-13T12:31:48Z</time>
      </trkpt>
      <trkpt lat="42.68048" lon="1.51751">
        <ele>2376</ele>
        <time>2014-09-13T12:31:59Z</time>
      </trkpt>
      <trkpt lat="42.68054" lon="1.51756">
        <ele>2373</ele>
        <time>2014-09-13T12:32:14Z</time>
      </trkpt>
      <trkpt lat="42.6806" lon="1.51758">
        <ele>2370</ele>
        <time>2014-09-13T12:32:27Z</time>
      </trkpt>
      <trkpt lat="42.68066" lon="1.51761">
        <ele>2369</ele>
        <time>2014-09-13T12:32:39Z</time>
      </trkpt>
      <trkpt lat="42.68072" lon="1.51765">
        <ele>2366</ele>
        <time>2014-09-13T12:32:53Z</time>
      </trkpt>
      <trkpt lat="42.68073" lon="1.5177">
        <ele>2364</ele>
        <time>2014-09-13T12:33:06Z</time>
      </trkpt>
      <trkpt lat="42.68079" lon="1.51773">
        <ele>2362</ele>
        <time>2014-09-13T12:33:19Z</time>
      </trkpt>
      <trkpt lat="42.68084" lon="1.51777">
        <ele>2360</ele>
        <time>2014-09-13T12:33:31Z</time>
      </trkpt>
      <trkpt lat="42.68088" lon="1.51778">
        <ele>2358</ele>
        <time>2014-09-13T12:33:47Z</time>
      </trkpt>
      <trkpt lat="42.6808" lon="1.51784">
        <ele>2358</ele>
        <time>2014-09-13T12:34:01Z</time>
      </trkpt>
      <trkpt lat="42.6808" lon="1.51786">
        <ele>2357</ele>
        <time>2014-09-13T12:34:03Z</time>
      </trkpt>
      <trkpt lat="42.68075" lon="1.51789">
        <ele>2356</ele>
        <time>2014-09-13T12:34:17Z</time>
      </trkpt>
      <trkpt lat="42.68072" lon="1.5179">
        <ele>2355</ele>
        <time>2014-09-13T12:34:30Z</time>
      </trkpt>
      <trkpt lat="42.68069" lon="1.51792">
        <ele>2354</ele>
        <time>2014-09-13T12:34:42Z</time>
      </trkpt>
      <trkpt lat="42.68063" lon="1.51793">
        <ele>2352</ele>
        <time>2014-09-13T12:34:57Z</time>
      </trkpt>
      <trkpt lat="42.68061" lon="1.51796">
        <ele>2351</ele>
        <time>2014-09-13T12:35:12Z</time>
      </trkpt>
      <trkpt lat="42.68064" lon="1.51796">
        <ele>2349</ele>
        <time>2014-09-13T12:35:25Z</time>
      </trkpt>
      <trkpt lat="42.68065" lon="1.51798">
        <ele>2347</ele>
        <time>2014-09-13T12:35:39Z</time>
      </trkpt>
      <trkpt lat="42.68066" lon="1.518">
        <ele>2345</ele>
        <time>2014-09-13T12:35:53Z</time>
      </trkpt>
      <trkpt lat="42.68067" lon="1.51797">
        <ele>2344</ele>
        <time>2014-09-13T12:36:08Z</time>
      </trkpt>
      <trkpt lat="42.6807" lon="1.51799">
        <ele>2344</ele>
        <time>2014-09-13T12:36:23Z</time>
      </trkpt>
      <trkpt lat="42.68072" lon="1.51804">
        <ele>2342</ele>
        <time>2014-09-13T12:36:38Z</time>
      </trkpt>
      <trkpt lat="42.68073" lon="1.5181">
        <ele>2339</ele>
        <time>2014-09-13T12:36:53Z</time>
      </trkpt>
      <trkpt lat="42.68068" lon="1.51812">
        <ele>2337</ele>
        <time>2014-09-13T12:37:03Z</time>
      </trkpt>
      <trkpt lat="42.68065" lon="1.51816">
        <ele>2334</ele>
        <time>2014-09-13T12:37:16Z</time>
      </trkpt>
      <trkpt lat="42.68064" lon="1.51823">
        <ele>2331</ele>
        <time>2014-09-13T12:37:31Z</time>
      </trkpt>
      <trkpt lat="42.68063" lon="1.51828">
        <ele>2328</ele>
        <time>2014-09-13T12:37:42Z</time>
      </trkpt>
      <trkpt lat="42.68066" lon="1.51835">
        <ele>2325</ele>
        <time>2014-09-13T12:37:55Z</time>
      </trkpt>
      <trkpt lat="42.68065" lon="1.51843">
        <ele>2322</ele>
        <time>2014-09-13T12:38:11Z</time>
      </trkpt>
      <trkpt lat="42.68063" lon="1.51847">
        <ele>2320</ele>
        <time>2014-09-13T12:38:29Z</time>
      </trkpt>
      <trkpt lat="42.68061" lon="1.51853">
        <ele>2317</ele>
        <time>2014-09-13T12:38:39Z</time>
      </trkpt>
      <trkpt lat="42.6806" lon="1.51861">
        <ele>2314</ele>
        <time>2014-09-13T12:38:51Z</time>
      </trkpt>
      <trkpt lat="42.68054" lon="1.51863">
        <ele>2311</ele>
        <time>2014-09-13T12:39:03Z</time>
      </trkpt>
      <trkpt lat="42.68052" lon="1.51868">
        <ele>2308</ele>
        <time>2014-09-13T12:39:12Z</time>
      </trkpt>
      <trkpt lat="42.6805" lon="1.51873">
        <ele>2307</ele>
        <time>2014-09-13T12:39:17Z</time>
      </trkpt>
      <trkpt lat="42.68049" lon="1.51879">
        <ele>2304</ele>
        <time>2014-09-13T12:39:30Z</time>
      </trkpt>
      <trkpt lat="42.68047" lon="1.51885">
        <ele>2302</ele>
        <time>2014-09-13T12:39:44Z</time>
      </trkpt>
      <trkpt lat="42.68047" lon="1.51893">
        <ele>2299</ele>
        <time>2014-09-13T12:39:56Z</time>
      </trkpt>
      <trkpt lat="42.6804" lon="1.51895">
        <ele>2297</ele>
        <time>2014-09-13T12:40:07Z</time>
      </trkpt>
      <trkpt lat="42.68041" lon="1.51895">
        <ele>2297</ele>
        <time>2014-09-13T12:40:09Z</time>
      </trkpt>
      <trkpt lat="42.68044" lon="1.51904">
        <ele>2294</ele>
        <time>2014-09-13T12:40:23Z</time>
      </trkpt>
      <trkpt lat="42.68042" lon="1.51909">
        <ele>2292</ele>
        <time>2014-09-13T12:40:34Z</time>
      </trkpt>
      <trkpt lat="42.68043" lon="1.51915">
        <ele>2290</ele>
        <time>2014-09-13T12:40:45Z</time>
      </trkpt>
      <trkpt lat="42.68039" lon="1.51921">
        <ele>2288</ele>
        <time>2014-09-13T12:40:56Z</time>
      </trkpt>
      <trkpt lat="42.68039" lon="1.51927">
        <ele>2286</ele>
        <time>2014-09-13T12:41:08Z</time>
      </trkpt>
      <trkpt lat="42.68038" lon="1.51931">
        <ele>2284</ele>
        <time>2014-09-13T12:41:20Z</time>
      </trkpt>
      <trkpt lat="42.6804" lon="1.51936">
        <ele>2282</ele>
        <time>2014-09-13T12:41:33Z</time>
      </trkpt>
      <trkpt lat="42.68042" lon="1.51943">
        <ele>2280</ele>
        <time>2014-09-13T12:41:45Z</time>
      </trkpt>
      <trkpt lat="42.68048" lon="1.51945">
        <ele>2277</ele>
        <time>2014-09-13T12:41:57Z</time>
      </trkpt>
      <trkpt lat="42.68046" lon="1.51951">
        <ele>2276</ele>
        <time>2014-09-13T12:42:07Z</time>
      </trkpt>
      <trkpt lat="42.68048" lon="1.51956">
        <ele>2274</ele>
        <time>2014-09-13T12:42:19Z</time>
      </trkpt>
      <trkpt lat="42.68045" lon="1.51964">
        <ele>2271</ele>
        <time>2014-09-13T12:42:31Z</time>
      </trkpt>
      <trkpt lat="42.68047" lon="1.51967">
        <ele>2268</ele>
        <time>2014-09-13T12:42:45Z</time>
      </trkpt>
      <trkpt lat="42.68051" lon="1.51971">
        <ele>2265</ele>
        <time>2014-09-13T12:43:00Z</time>
      </trkpt>
      <trkpt lat="42.68054" lon="1.51971">
        <ele>2264</ele>
        <time>2014-09-13T12:43:14Z</time>
      </trkpt>
      <trkpt lat="42.68056" lon="1.51974">
        <ele>2262</ele>
        <time>2014-09-13T12:43:27Z</time>
      </trkpt>
      <trkpt lat="42.68059" lon="1.51972">
        <ele>2262</ele>
        <time>2014-09-13T12:43:46Z</time>
      </trkpt>
      <trkpt lat="42.68062" lon="1.51978">
        <ele>2260</ele>
        <time>2014-09-13T12:44:03Z</time>
      </trkpt>
      <trkpt lat="42.68062" lon="1.51985">
        <ele>2258</ele>
        <time>2014-09-13T12:44:15Z</time>
      </trkpt>
      <trkpt lat="42.68064" lon="1.51992">
        <ele>2255</ele>
        <time>2014-09-13T12:44:28Z</time>
      </trkpt>
      <trkpt lat="42.6807" lon="1.51998">
        <ele>2252</ele>
        <time>2014-09-13T12:44:42Z</time>
      </trkpt>
      <trkpt lat="42.68078" lon="1.51999">
        <ele>2249</ele>
        <time>2014-09-13T12:44:54Z</time>
      </trkpt>
      <trkpt lat="42.68082" lon="1.52">
        <ele>2248</ele>
        <time>2014-09-13T12:44:59Z</time>
      </trkpt>
      <trkpt lat="42.68089" lon="1.52008">
        <ele>2246</ele>
        <time>2014-09-13T12:45:15Z</time>
      </trkpt>
      <trkpt lat="42.68091" lon="1.52009">
        <ele>2245</ele>
        <time>2014-09-13T12:45:40Z</time>
      </trkpt>
      <trkpt lat="42.68094" lon="1.52014">
        <ele>2245</ele>
        <time>2014-09-13T12:46:03Z</time>
      </trkpt>
      <trkpt lat="42.68096" lon="1.52021">
        <ele>2242</ele>
        <time>2014-09-13T12:46:18Z</time>
      </trkpt>
      <trkpt lat="42.68098" lon="1.52025">
        <ele>2239</ele>
        <time>2014-09-13T12:46:31Z</time>
      </trkpt>
      <trkpt lat="42.68101" lon="1.5203">
        <ele>2237</ele>
        <time>2014-09-13T12:46:45Z</time>
      </trkpt>
      <trkpt lat="42.68099" lon="1.52033">
        <ele>2236</ele>
        <time>2014-09-13T12:47:02Z</time>
      </trkpt>
      <trkpt lat="42.681" lon="1.52034">
        <ele>2234</ele>
        <time>2014-09-13T12:47:17Z</time>
      </trkpt>
      <trkpt lat="42.68102" lon="1.52039">
        <ele>2231</ele>
        <time>2014-09-13T12:47:29Z</time>
      </trkpt>
      <trkpt lat="42.68102" lon="1.52045">
        <ele>2229</ele>
        <time>2014-09-13T12:47:43Z</time>
      </trkpt>
      <trkpt lat="42.68101" lon="1.5205">
        <ele>2227</ele>
        <time>2014-09-13T12:47:54Z</time>
      </trkpt>
      <trkpt lat="42.68104" lon="1.5205">
        <ele>2225</ele>
        <time>2014-09-13T12:48:08Z</time>
      </trkpt>
      <trkpt lat="42.68106" lon="1.52052">
        <ele>2223</ele>
        <time>2014-09-13T12:48:23Z</time>
      </trkpt>
      <trkpt lat="42.68107" lon="1.52055">
        <ele>2220</ele>
        <time>2014-09-13T12:48:38Z</time>
      </trkpt>
      <trkpt lat="42.68105" lon="1.52056">
        <ele>2219</ele>
        <time>2014-09-13T12:48:53Z</time>
      </trkpt>
      <trkpt lat="42.68109" lon="1.5206">
        <ele>2217</ele>
        <time>2014-09-13T12:49:11Z</time>
      </trkpt>
      <trkpt lat="42.68114" lon="1.5206">
        <ele>2215</ele>
        <time>2014-09-13T12:49:22Z</time>
      </trkpt>
      <trkpt lat="42.68113" lon="1.52064">
        <ele>2213</ele>
        <time>2014-09-13T12:49:28Z</time>
      </trkpt>
      <trkpt lat="42.68116" lon="1.52067">
        <ele>2211</ele>
        <time>2014-09-13T12:49:41Z</time>
      </trkpt>
      <trkpt lat="42.68112" lon="1.52071">
        <ele>2210</ele>
        <time>2014-09-13T12:49:53Z</time>
      </trkpt>
      <trkpt lat="42.68115" lon="1.52067">
        <ele>2209</ele>
        <time>2014-09-13T12:50:09Z</time>
      </trkpt>
      <trkpt lat="42.68118" lon="1.52068">
        <ele>2208</ele>
        <time>2014-09-13T12:50:25Z</time>
      </trkpt>
      <trkpt lat="42.68122" lon="1.52073">
        <ele>2205</ele>
        <time>2014-09-13T12:50:38Z</time>
      </trkpt>
      <trkpt lat="42.68123" lon="1.52078">
        <ele>2203</ele>
        <time>2014-09-13T12:50:53Z</time>
      </trkpt>
      <trkpt lat="42.68124" lon="1.52079">
        <ele>2201</ele>
        <time>2014-09-13T12:50:57Z</time>
      </trkpt>
      <trkpt lat="42.68125" lon="1.52083">
        <ele>2199</ele>
        <time>2014-09-13T12:51:11Z</time>
      </trkpt>
      <trkpt lat="42.68128" lon="1.52085">
        <ele>2196</ele>
        <time>2014-09-13T12:51:24Z</time>
      </trkpt>
      <trkpt lat="42.68131" lon="1.52089">
        <ele>2194</ele>
        <time>2014-09-13T12:51:36Z</time>
      </trkpt>
      <trkpt lat="42.68136" lon="1.52092">
        <ele>2191</ele>
        <time>2014-09-13T12:51:48Z</time>
      </trkpt>
      <trkpt lat="42.68142" lon="1.52092">
        <ele>2190</ele>
        <time>2014-09-13T12:52:01Z</time>
      </trkpt>
      <trkpt lat="42.68144" lon="1.52091">
        <ele>2189</ele>
        <time>2014-09-13T12:52:06Z</time>
      </trkpt>
      <trkpt lat="42.68149" lon="1.52095">
        <ele>2187</ele>
        <time>2014-09-13T12:52:19Z</time>
      </trkpt>
      <trkpt lat="42.68151" lon="1.52101">
        <ele>2186</ele>
        <time>2014-09-13T12:52:33Z</time>
      </trkpt>
      <trkpt lat="42.68154" lon="1.52107">
        <ele>2183</ele>
        <time>2014-09-13T12:52:45Z</time>
      </trkpt>
      <trkpt lat="42.68154" lon="1.52114">
        <ele>2180</ele>
        <time>2014-09-13T12:52:56Z</time>
      </trkpt>
      <trkpt lat="42.68154" lon="1.52116">
        <ele>2178</ele>
        <time>2014-09-13T12:53:08Z</time>
      </trkpt>
      <trkpt lat="42.6816" lon="1.52119">
        <ele>2177</ele>
        <time>2014-09-13T12:53:21Z</time>
      </trkpt>
      <trkpt lat="42.68163" lon="1.52124">
        <ele>2174</ele>
        <time>2014-09-13T12:53:35Z</time>
      </trkpt>
      <trkpt lat="42.68159" lon="1.52128">
        <ele>2173</ele>
        <time>2014-09-13T12:53:46Z</time>
      </trkpt>
      <trkpt lat="42.68161" lon="1.52132">
        <ele>2171</ele>
        <time>2014-09-13T12:53:57Z</time>
      </trkpt>
      <trkpt lat="42.68162" lon="1.52133">
        <ele>2170</ele>
        <time>2014-09-13T12:53:59Z</time>
      </trkpt>
      <trkpt lat="42.68162" lon="1.52137">
        <ele>2168</ele>
        <time>2014-09-13T12:54:11Z</time>
      </trkpt>
      <trkpt lat="42.68166" lon="1.52143">
        <ele>2165</ele>
        <time>2014-09-13T12:54:24Z</time>
      </trkpt>
      <trkpt lat="42.68166" lon="1.52147">
        <ele>2163</ele>
        <time>2014-09-13T12:54:35Z</time>
      </trkpt>
      <trkpt lat="42.68169" lon="1.52151">
        <ele>2160</ele>
        <time>2014-09-13T12:54:50Z</time>
      </trkpt>
      <trkpt lat="42.68173" lon="1.52155">
        <ele>2158</ele>
        <time>2014-09-13T12:55:05Z</time>
      </trkpt>
      <trkpt lat="42.68175" lon="1.52158">
        <ele>2156</ele>
        <time>2014-09-13T12:55:15Z</time>
      </trkpt>
      <trkpt lat="42.68176" lon="1.52162">
        <ele>2154</ele>
        <time>2014-09-13T12:55:27Z</time>
      </trkpt>
      <trkpt lat="42.68177" lon="1.52169">
        <ele>2152</ele>
        <time>2014-09-13T12:55:40Z</time>
      </trkpt>
      <trkpt lat="42.68179" lon="1.52172">
        <ele>2150</ele>
        <time>2014-09-13T12:55:52Z</time>
      </trkpt>
      <trkpt lat="42.68182" lon="1.5218">
        <ele>2146</ele>
        <time>2014-09-13T12:56:06Z</time>
      </trkpt>
      <trkpt lat="42.68187" lon="1.52185">
        <ele>2143</ele>
        <time>2014-09-13T12:56:20Z</time>
      </trkpt>
      <trkpt lat="42.68191" lon="1.52187">
        <ele>2140</ele>
        <time>2014-09-13T12:56:33Z</time>
      </trkpt>
      <trkpt lat="42.68197" lon="1.52194">
        <ele>2138</ele>
        <time>2014-09-13T12:56:46Z</time>
      </trkpt>
      <trkpt lat="42.68202" lon="1.52201">
        <ele>2136</ele>
        <time>2014-09-13T12:56:59Z</time>
      </trkpt>
      <trkpt lat="42.68206" lon="1.52203">
        <ele>2134</ele>
        <time>2014-09-13T12:57:11Z</time>
      </trkpt>
      <trkpt lat="42.68205" lon="1.52204">
        <ele>2134</ele>
        <time>2014-09-13T12:57:30Z</time>
      </trkpt>
      <trkpt lat="42.68207" lon="1.52207">
        <ele>2133</ele>
        <time>2014-09-13T12:57:45Z</time>
      </trkpt>
      <trkpt lat="42.68211" lon="1.52214">
        <ele>2131</ele>
        <time>2014-09-13T12:57:59Z</time>
      </trkpt>
      <trkpt lat="42.68214" lon="1.52218">
        <ele>2129</ele>
        <time>2014-09-13T12:58:11Z</time>
      </trkpt>
      <trkpt lat="42.68215" lon="1.52223">
        <ele>2128</ele>
        <time>2014-09-13T12:58:23Z</time>
      </trkpt>
      <trkpt lat="42.68222" lon="1.52227">
        <ele>2126</ele>
        <time>2014-09-13T12:58:38Z</time>
      </trkpt>
      <trkpt lat="42.68228" lon="1.52232">
        <ele>2125</ele>
        <time>2014-09-13T12:58:52Z</time>
      </trkpt>
      <trkpt lat="42.6823" lon="1.52237">
        <ele>2123</ele>
        <time>2014-09-13T12:59:05Z</time>
      </trkpt>
      <trkpt lat="42.68232" lon="1.52243">
        <ele>2122</ele>
        <time>2014-09-13T12:59:16Z</time>
      </trkpt>
      <trkpt lat="42.68234" lon="1.5225">
        <ele>2121</ele>
        <time>2014-09-13T12:59:28Z</time>
      </trkpt>
      <trkpt lat="42.68236" lon="1.52255">
        <ele>2120</ele>
        <time>2014-09-13T12:59:43Z</time>
      </trkpt>
      <trkpt lat="42.68238" lon="1.52261">
        <ele>2118</ele>
        <time>2014-09-13T12:59:54Z</time>
      </trkpt>
      <trkpt lat="42.6824" lon="1.52264">
        <ele>2116</ele>
        <time>2014-09-13T13:00:08Z</time>
      </trkpt>
      <trkpt lat="42.68243" lon="1.52268">
        <ele>2115</ele>
        <time>2014-09-13T13:00:20Z</time>
      </trkpt>
      <trkpt lat="42.68244" lon="1.52278">
        <ele>2114</ele>
        <time>2014-09-13T13:00:36Z</time>
      </trkpt>
      <trkpt lat="42.68243" lon="1.52279">
        <ele>2114</ele>
        <time>2014-09-13T13:00:49Z</time>
      </trkpt>
      <trkpt lat="42.68244" lon="1.5228">
        <ele>2112</ele>
        <time>2014-09-13T13:01:00Z</time>
      </trkpt>
      <trkpt lat="42.68244" lon="1.52281">
        <ele>2113</ele>
        <time>2014-09-13T13:01:22Z</time>
      </trkpt>
      <trkpt lat="42.68243" lon="1.5228">
        <ele>2112</ele>
        <time>2014-09-13T13:01:41Z</time>
      </trkpt>
      <trkpt lat="42.68248" lon="1.52277">
        <ele>2111</ele>
        <time>2014-09-13T13:01:56Z</time>
      </trkpt>
      <trkpt lat="42.68249" lon="1.52277">
        <ele>2109</ele>
        <time>2014-09-13T13:02:11Z</time>
      </trkpt>
      <trkpt lat="42.68251" lon="1.52276">
        <ele>2109</ele>
        <time>2014-09-13T13:02:26Z</time>
      </trkpt>
      <trkpt lat="42.68249" lon="1.52273">
        <ele>2109</ele>
        <time>2014-09-13T13:02:45Z</time>
      </trkpt>
      <trkpt lat="42.68251" lon="1.52276">
        <ele>2108</ele>
        <time>2014-09-13T13:03:04Z</time>
      </trkpt>
      <trkpt lat="42.68248" lon="1.52277">
        <ele>2107</ele>
        <time>2014-09-13T13:03:23Z</time>
      </trkpt>
      <trkpt lat="42.68254" lon="1.52277">
        <ele>2106</ele>
        <time>2014-09-13T13:03:39Z</time>
      </trkpt>
      <trkpt lat="42.68251" lon="1.52279">
        <ele>2106</ele>
        <time>2014-09-13T13:03:56Z</time>
      </trkpt>
      <trkpt lat="42.68254" lon="1.52277">
        <ele>2104</ele>
        <time>2014-09-13T13:04:16Z</time>
      </trkpt>
      <trkpt lat="42.68258" lon="1.52281">
        <ele>2102</ele>
        <time>2014-09-13T13:04:31Z</time>
      </trkpt>
      <trkpt lat="42.68261" lon="1.52283">
        <ele>2100</ele>
        <time>2014-09-13T13:04:44Z</time>
      </trkpt>
      <trkpt lat="42.68261" lon="1.52287">
        <ele>2098</ele>
        <time>2014-09-13T13:05:01Z</time>
      </trkpt>
      <trkpt lat="42.68262" lon="1.52288">
        <ele>2097</ele>
        <time>2014-09-13T13:05:18Z</time>
      </trkpt>
      <trkpt lat="42.68264" lon="1.52293">
        <ele>2095</ele>
        <time>2014-09-13T13:05:31Z</time>
      </trkpt>
      <trkpt lat="42.68263" lon="1.52298">
        <ele>2093</ele>
        <time>2014-09-13T13:05:45Z</time>
      </trkpt>
      <trkpt lat="42.68264" lon="1.52301">
        <ele>2091</ele>
        <time>2014-09-13T13:05:59Z</time>
      </trkpt>
      <trkpt lat="42.68263" lon="1.52304">
        <ele>2091</ele>
        <time>2014-09-13T13:06:12Z</time>
      </trkpt>
      <trkpt lat="42.68265" lon="1.52305">
        <ele>2089</ele>
        <time>2014-09-13T13:06:25Z</time>
      </trkpt>
      <trkpt lat="42.68264" lon="1.52306">
        <ele>2088</ele>
        <time>2014-09-13T13:06:41Z</time>
      </trkpt>
      <trkpt lat="42.68261" lon="1.52307">
        <ele>2087</ele>
        <time>2014-09-13T13:06:57Z</time>
      </trkpt>
      <trkpt lat="42.68263" lon="1.52309">
        <ele>2086</ele>
        <time>2014-09-13T13:07:10Z</time>
      </trkpt>
      <trkpt lat="42.68266" lon="1.52312">
        <ele>2084</ele>
        <time>2014-09-13T13:07:25Z</time>
      </trkpt>
      <trkpt lat="42.68266" lon="1.52316">
        <ele>2082</ele>
        <time>2014-09-13T13:07:39Z</time>
      </trkpt>
      <trkpt lat="42.68268" lon="1.52319">
        <ele>2080</ele>
        <time>2014-09-13T13:07:56Z</time>
      </trkpt>
      <trkpt lat="42.68269" lon="1.52324">
        <ele>2079</ele>
        <time>2014-09-13T13:08:24Z</time>
      </trkpt>
      <trkpt lat="42.68269" lon="1.52326">
        <ele>2077</ele>
        <time>2014-09-13T13:08:36Z</time>
      </trkpt>
      <trkpt lat="42.68269" lon="1.52332">
        <ele>2075</ele>
        <time>2014-09-13T13:08:51Z</time>
      </trkpt>
      <trkpt lat="42.68269" lon="1.52335">
        <ele>2072</ele>
        <time>2014-09-13T13:09:08Z</time>
      </trkpt>
      <trkpt lat="42.68271" lon="1.52336">
        <ele>2072</ele>
        <time>2014-09-13T13:09:21Z</time>
      </trkpt>
      <trkpt lat="42.68272" lon="1.52336">
        <ele>2070</ele>
        <time>2014-09-13T13:09:35Z</time>
      </trkpt>
      <trkpt lat="42.68273" lon="1.52341">
        <ele>2067</ele>
        <time>2014-09-13T13:09:51Z</time>
      </trkpt>
      <trkpt lat="42.68273" lon="1.52346">
        <ele>2065</ele>
        <time>2014-09-13T13:10:06Z</time>
      </trkpt>
      <trkpt lat="42.68274" lon="1.52346">
        <ele>2065</ele>
        <time>2014-09-13T13:10:18Z</time>
      </trkpt>
      <trkpt lat="42.68273" lon="1.52348">
        <ele>2064</ele>
        <time>2014-09-13T13:10:34Z</time>
      </trkpt>
      <trkpt lat="42.68275" lon="1.52349">
        <ele>2062</ele>
        <time>2014-09-13T13:10:54Z</time>
      </trkpt>
      <trkpt lat="42.68275" lon="1.52356">
        <ele>2059</ele>
        <time>2014-09-13T13:11:10Z</time>
      </trkpt>
      <trkpt lat="42.68273" lon="1.5236">
        <ele>2058</ele>
        <time>2014-09-13T13:11:24Z</time>
      </trkpt>
      <trkpt lat="42.68274" lon="1.52363">
        <ele>2056</ele>
        <time>2014-09-13T13:11:37Z</time>
      </trkpt>
      <trkpt lat="42.68273" lon="1.52365">
        <ele>2056</ele>
        <time>2014-09-13T13:11:52Z</time>
      </trkpt>
      <trkpt lat="42.68278" lon="1.52363">
        <ele>2055</ele>
        <time>2014-09-13T13:12:11Z</time>
      </trkpt>
      <trkpt lat="42.68275" lon="1.52365">
        <ele>2054</ele>
        <time>2014-09-13T13:12:23Z</time>
      </trkpt>
      <trkpt lat="42.68277" lon="1.52366">
        <ele>2053</ele>
        <time>2014-09-13T13:12:34Z</time>
      </trkpt>
      <trkpt lat="42.68276" lon="1.5237">
        <ele>2051</ele>
        <time>2014-09-13T13:12:48Z</time>
      </trkpt>
      <trkpt lat="42.68277" lon="1.52374">
        <ele>2050</ele>
        <time>2014-09-13T13:13:00Z</time>
      </trkpt>
      <trkpt lat="42.68274" lon="1.52378">
        <ele>2048</ele>
        <time>2014-09-13T13:13:16Z</time>
      </trkpt>
      <trkpt lat="42.68273" lon="1.52381">
        <ele>2047</ele>
        <time>2014-09-13T13:13:29Z</time>
      </trkpt>
      <trkpt lat="42.68274" lon="1.52382">
        <ele>2045</ele>
        <time>2014-09-13T13:13:44Z</time>
      </trkpt>
      <trkpt lat="42.68278" lon="1.52377">
        <ele>2045</ele>
        <time>2014-09-13T13:13:59Z</time>
      </trkpt>
      <trkpt lat="42.68279" lon="1.52378">
        <ele>2043</ele>
        <time>2014-09-13T13:14:15Z</time>
      </trkpt>
      <trkpt lat="42.68278" lon="1.5238">
        <ele>2042</ele>
        <time>2014-09-13T13:14:29Z</time>
      </trkpt>
      <trkpt lat="42.68277" lon="1.52384">
        <ele>2041</ele>
        <time>2014-09-13T13:14:43Z</time>
      </trkpt>
      <trkpt lat="42.68275" lon="1.52386">
        <ele>2039</ele>
        <time>2014-09-13T13:14:54Z</time>
      </trkpt>
      <trkpt lat="42.68276" lon="1.52389">
        <ele>2038</ele>
        <time>2014-09-13T13:15:10Z</time>
      </trkpt>
      <trkpt lat="42.68276" lon="1.52391">
        <ele>2037</ele>
        <time>2014-09-13T13:15:26Z</time>
      </trkpt>
      <trkpt lat="42.68278" lon="1.52389">
        <ele>2036</ele>
        <time>2014-09-13T13:15:42Z</time>
      </trkpt>
      <trkpt lat="42.68281" lon="1.52396">
        <ele>2035</ele>
        <time>2014-09-13T13:15:56Z</time>
      </trkpt>
      <trkpt lat="42.68281" lon="1.52401">
        <ele>2033</ele>
        <time>2014-09-13T13:16:11Z</time>
      </trkpt>
      <trkpt lat="42.68277" lon="1.52403">
        <ele>2031</ele>
        <time>2014-09-13T13:16:27Z</time>
      </trkpt>
      <trkpt lat="42.68278" lon="1.52405">
        <ele>2030</ele>
        <time>2014-09-13T13:16:42Z</time>
      </trkpt>
      <trkpt lat="42.6828" lon="1.52407">
        <ele>2029</ele>
        <time>2014-09-13T13:16:56Z</time>
      </trkpt>
      <trkpt lat="42.68281" lon="1.52411">
        <ele>2028</ele>
        <time>2014-09-13T13:17:12Z</time>
      </trkpt>
      <trkpt lat="42.68283" lon="1.5241">
        <ele>2027</ele>
        <time>2014-09-13T13:17:31Z</time>
      </trkpt>
      <trkpt lat="42.68285" lon="1.52411">
        <ele>2026</ele>
        <time>2014-09-13T13:17:45Z</time>
      </trkpt>
      <trkpt lat="42.68285" lon="1.5241">
        <ele>2025</ele>
        <time>2014-09-13T13:17:48Z</time>
      </trkpt>
      <trkpt lat="42.68286" lon="1.52412">
        <ele>2024</ele>
        <time>2014-09-13T13:18:00Z</time>
      </trkpt>
      <trkpt lat="42.68285" lon="1.52409">
        <ele>2024</ele>
        <time>2014-09-13T13:18:17Z</time>
      </trkpt>
      <trkpt lat="42.68288" lon="1.52413">
        <ele>2022</ele>
        <time>2014-09-13T13:18:36Z</time>
      </trkpt>
      <trkpt lat="42.6829" lon="1.52413">
        <ele>2020</ele>
        <time>2014-09-13T13:18:51Z</time>
      </trkpt>
      <trkpt lat="42.68293" lon="1.52421">
        <ele>2017</ele>
        <time>2014-09-13T13:19:07Z</time>
      </trkpt>
      <trkpt lat="42.68292" lon="1.52423">
        <ele>2016</ele>
        <time>2014-09-13T13:19:21Z</time>
      </trkpt>
      <trkpt lat="42.68292" lon="1.52427">
        <ele>2013</ele>
        <time>2014-09-13T13:19:37Z</time>
      </trkpt>
      <trkpt lat="42.68295" lon="1.5243">
        <ele>2011</ele>
        <time>2014-09-13T13:19:55Z</time>
      </trkpt>
      <trkpt lat="42.68294" lon="1.52434">
        <ele>2010</ele>
        <time>2014-09-13T13:20:05Z</time>
      </trkpt>
      <trkpt lat="42.68295" lon="1.52436">
        <ele>2008</ele>
        <time>2014-09-13T13:20:18Z</time>
      </trkpt>
      <trkpt lat="42.68296" lon="1.5244">
        <ele>2007</ele>
        <time>2014-09-13T13:20:33Z</time>
      </trkpt>
      <trkpt lat="42.683" lon="1.52439">
        <ele>2004</ele>
        <time>2014-09-13T13:20:48Z</time>
      </trkpt>
      <trkpt lat="42.68301" lon="1.52443">
        <ele>2003</ele>
        <time>2014-09-13T13:21:03Z</time>
      </trkpt>
      <trkpt lat="42.68302" lon="1.52446">
        <ele>2000</ele>
        <time>2014-09-13T13:21:19Z</time>
      </trkpt>
      <trkpt lat="42.68304" lon="1.52451">
        <ele>1998</ele>
        <time>2014-09-13T13:21:33Z</time>
      </trkpt>
      <trkpt lat="42.68303" lon="1.52453">
        <ele>1997</ele>
        <time>2014-09-13T13:21:47Z</time>
      </trkpt>
      <trkpt lat="42.68303" lon="1.52455">
        <ele>1997</ele>
        <time>2014-09-13T13:22:06Z</time>
      </trkpt>
      <trkpt lat="42.68303" lon="1.52458">
        <ele>1996</ele>
        <time>2014-09-13T13:22:21Z</time>
      </trkpt>
      <trkpt lat="42.68303" lon="1.52459">
        <ele>1995</ele>
        <time>2014-09-13T13:22:23Z</time>
      </trkpt>
      <trkpt lat="42.68299" lon="1.52464">
        <ele>1994</ele>
        <time>2014-09-13T13:22:35Z</time>
      </trkpt>
      <trkpt lat="42.683" lon="1.52464">
        <ele>1993</ele>
        <time>2014-09-13T13:22:48Z</time>
      </trkpt>
      <trkpt lat="42.68302" lon="1.52468">
        <ele>1991</ele>
        <time>2014-09-13T13:23:06Z</time>
      </trkpt>
      <trkpt lat="42.68305" lon="1.52468">
        <ele>1990</ele>
        <time>2014-09-13T13:23:18Z</time>
      </trkpt>
      <trkpt lat="42.68306" lon="1.5247">
        <ele>1988</ele>
        <time>2014-09-13T13:23:33Z</time>
      </trkpt>
      <trkpt lat="42.68304" lon="1.52474">
        <ele>1987</ele>
        <time>2014-09-13T13:23:46Z</time>
      </trkpt>
      <trkpt lat="42.68306" lon="1.52478">
        <ele>1985</ele>
        <time>2014-09-13T13:23:59Z</time>
      </trkpt>
      <trkpt lat="42.68308" lon="1.5248">
        <ele>1984</ele>
        <time>2014-09-13T13:24:11Z</time>
      </trkpt>
      <trkpt lat="42.68312" lon="1.52479">
        <ele>1983</ele>
        <time>2014-09-13T13:24:25Z</time>
      </trkpt>
      <trkpt lat="42.68311" lon="1.52477">
        <ele>1982</ele>
        <time>2014-09-13T13:24:40Z</time>
      </trkpt>
      <trkpt lat="42.68312" lon="1.52481">
        <ele>1981</ele>
        <time>2014-09-13T13:24:55Z</time>
      </trkpt>
      <trkpt lat="42.68313" lon="1.52482">
        <ele>1980</ele>
        <time>2014-09-13T13:25:09Z</time>
      </trkpt>
      <trkpt lat="42.68314" lon="1.5248">
        <ele>1980</ele>
        <time>2014-09-13T13:25:25Z</time>
      </trkpt>
      <trkpt lat="42.68318" lon="1.52485">
        <ele>1978</ele>
        <time>2014-09-13T13:25:38Z</time>
      </trkpt>
      <trkpt lat="42.68317" lon="1.52484">
        <ele>1977</ele>
        <time>2014-09-13T13:25:50Z</time>
      </trkpt>
      <trkpt lat="42.68322" lon="1.52489">
        <ele>1976</ele>
        <time>2014-09-13T13:26:07Z</time>
      </trkpt>
      <trkpt lat="42.68328" lon="1.52493">
        <ele>1974</ele>
        <time>2014-09-13T13:26:20Z</time>
      </trkpt>
      <trkpt lat="42.68328" lon="1.52496">
        <ele>1972</ele>
        <time>2014-09-13T13:26:38Z</time>
      </trkpt>
      <trkpt lat="42.68324" lon="1.52497">
        <ele>1971</ele>
        <time>2014-09-13T13:26:54Z</time>
      </trkpt>
      <trkpt lat="42.68326" lon="1.52498">
        <ele>1969</ele>
        <time>2014-09-13T13:27:08Z</time>
      </trkpt>
      <trkpt lat="42.68329" lon="1.52502">
        <ele>1967</ele>
        <time>2014-09-13T13:27:27Z</time>
      </trkpt>
      <trkpt lat="42.6833" lon="1.52501">
        <ele>1966</ele>
        <time>2014-09-13T13:27:43Z</time>
      </trkpt>
      <trkpt lat="42.68328" lon="1.52506">
        <ele>1964</ele>
        <time>2014-09-13T13:27:57Z</time>
      </trkpt>
      <trkpt lat="42.68328" lon="1.5251">
        <ele>1963</ele>
        <time>2014-09-13T13:28:11Z</time>
      </trkpt>
      <trkpt lat="42.68328" lon="1.52514">
        <ele>1960</ele>
        <time>2014-09-13T13:28:24Z</time>
      </trkpt>
      <trkpt lat="42.6833" lon="1.52514">
        <ele>1959</ele>
        <time>2014-09-13T13:28:39Z</time>
      </trkpt>
      <trkpt lat="42.68331" lon="1.52516">
        <ele>1957</ele>
        <time>2014-09-13T13:28:52Z</time>
      </trkpt>
      <trkpt lat="42.68333" lon="1.5252">
        <ele>1956</ele>
        <time>2014-09-13T13:29:04Z</time>
      </trkpt>
      <trkpt lat="42.68332" lon="1.52524">
        <ele>1954</ele>
        <time>2014-09-13T13:29:19Z</time>
      </trkpt>
      <trkpt lat="42.68332" lon="1.52529">
        <ele>1953</ele>
        <time>2014-09-13T13:29:31Z</time>
      </trkpt>
      <trkpt lat="42.68332" lon="1.52534">
        <ele>1952</ele>
        <time>2014-09-13T13:29:45Z</time>
      </trkpt>
      <trkpt lat="42.68328" lon="1.52534">
        <ele>1952</ele>
        <time>2014-09-13T13:30:12Z</time>
      </trkpt>
      <trkpt lat="42.68329" lon="1.52536">
        <ele>1951</ele>
        <time>2014-09-13T13:30:35Z</time>
      </trkpt>
      <trkpt lat="42.68333" lon="1.52537">
        <ele>1950</ele>
        <time>2014-09-13T13:30:49Z</time>
      </trkpt>
      <trkpt lat="42.68332" lon="1.52544">
        <ele>1947</ele>
        <time>2014-09-13T13:31:04Z</time>
      </trkpt>
      <trkpt lat="42.68332" lon="1.52547">
        <ele>1944</ele>
        <time>2014-09-13T13:31:14Z</time>
      </trkpt>
      <trkpt lat="42.68334" lon="1.5255">
        <ele>1943</ele>
        <time>2014-09-13T13:31:29Z</time>
      </trkpt>
      <trkpt lat="42.68332" lon="1.52556">
        <ele>1942</ele>
        <time>2014-09-13T13:31:42Z</time>
      </trkpt>
      <trkpt lat="42.68334" lon="1.52561">
        <ele>1939</ele>
        <time>2014-09-13T13:31:53Z</time>
      </trkpt>
      <trkpt lat="42.68339" lon="1.52563">
        <ele>1937</ele>
        <time>2014-09-13T13:32:06Z</time>
      </trkpt>
      <trkpt lat="42.68344" lon="1.52568">
        <ele>1934</ele>
        <time>2014-09-13T13:32:16Z</time>
      </trkpt>
      <trkpt lat="42.68346" lon="1.52576">
        <ele>1931</ele>
        <time>2014-09-13T13:32:26Z</time>
      </trkpt>
      <trkpt lat="42.68346" lon="1.52576">
        <ele>1931</ele>
        <time>2014-09-13T13:32:27Z</time>
      </trkpt>
      <trkpt lat="42.68346" lon="1.5258">
        <ele>1929</ele>
        <time>2014-09-13T13:32:31Z</time>
      </trkpt>
      <trkpt lat="42.68346" lon="1.52582">
        <ele>1929</ele>
        <time>2014-09-13T13:32:37Z</time>
      </trkpt>
      <trkpt lat="42.6835" lon="1.52588">
        <ele>1926</ele>
        <time>2014-09-13T13:32:49Z</time>
      </trkpt>
      <trkpt lat="42.68354" lon="1.52593">
        <ele>1924</ele>
        <time>2014-09-13T13:33:00Z</time>
      </trkpt>
      <trkpt lat="42.6836" lon="1.52596">
        <ele>1921</ele>
        <time>2014-09-13T13:33:11Z</time>
      </trkpt>
      <trkpt lat="42.68361" lon="1.52595">
        <ele>1919</ele>
        <time>2014-09-13T13:33:21Z</time>
      </trkpt>
      <trkpt lat="42.6836" lon="1.52596">
        <ele>1920</ele>
        <time>2014-09-13T13:33:43Z</time>
      </trkpt>
      <trkpt lat="42.68366" lon="1.52602">
        <ele>1917</ele>
        <time>2014-09-13T13:33:57Z</time>
      </trkpt>
      <trkpt lat="42.6837" lon="1.5261">
        <ele>1914</ele>
        <time>2014-09-13T13:34:09Z</time>
      </trkpt>
      <trkpt lat="42.68371" lon="1.52617">
        <ele>1912</ele>
        <time>2014-09-13T13:34:21Z</time>
      </trkpt>
      <trkpt lat="42.68375" lon="1.52622">
        <ele>1909</ele>
        <time>2014-09-13T13:34:33Z</time>
      </trkpt>
      <trkpt lat="42.68379" lon="1.52626">
        <ele>1906</ele>
        <time>2014-09-13T13:34:45Z</time>
      </trkpt>
      <trkpt lat="42.6838" lon="1.52624">
        <ele>1906</ele>
        <time>2014-09-13T13:35:12Z</time>
      </trkpt>
      <trkpt lat="42.68378" lon="1.52626">
        <ele>1905</ele>
        <time>2014-09-13T13:35:35Z</time>
      </trkpt>
      <trkpt lat="42.68381" lon="1.52625">
        <ele>1905</ele>
        <time>2014-09-13T13:36:01Z</time>
      </trkpt>
      <trkpt lat="42.68386" lon="1.52627">
        <ele>1904</ele>
        <time>2014-09-13T13:36:12Z</time>
      </trkpt>
      <trkpt lat="42.68389" lon="1.52634">
        <ele>1902</ele>
        <time>2014-09-13T13:36:22Z</time>
      </trkpt>
      <trkpt lat="42.68392" lon="1.5264">
        <ele>1900</ele>
        <time>2014-09-13T13:36:29Z</time>
      </trkpt>
      <trkpt lat="42.68392" lon="1.52646">
        <ele>1898</ele>
        <time>2014-09-13T13:36:40Z</time>
      </trkpt>
      <trkpt lat="42.68393" lon="1.52645">
        <ele>1899</ele>
        <time>2014-09-13T13:36:53Z</time>
      </trkpt>
      <trkpt lat="42.68394" lon="1.52651">
        <ele>1896</ele>
        <time>2014-09-13T13:37:06Z</time>
      </trkpt>
      <trkpt lat="42.68395" lon="1.52662">
        <ele>1894</ele>
        <time>2014-09-13T13:37:19Z</time>
      </trkpt>
      <trkpt lat="42.68399" lon="1.52671">
        <ele>1891</ele>
        <time>2014-09-13T13:37:32Z</time>
      </trkpt>
      <trkpt lat="42.68399" lon="1.52679">
        <ele>1889</ele>
        <time>2014-09-13T13:37:43Z</time>
      </trkpt>
      <trkpt lat="42.684" lon="1.52681">
        <ele>1888</ele>
        <time>2014-09-13T13:37:48Z</time>
      </trkpt>
      <trkpt lat="42.68398" lon="1.52688">
        <ele>1887</ele>
        <time>2014-09-13T13:38:00Z</time>
      </trkpt>
      <trkpt lat="42.68399" lon="1.52695">
        <ele>1886</ele>
        <time>2014-09-13T13:38:14Z</time>
      </trkpt>
      <trkpt lat="42.68401" lon="1.52699">
        <ele>1884</ele>
        <time>2014-09-13T13:38:29Z</time>
      </trkpt>
      <trkpt lat="42.68403" lon="1.52706">
        <ele>1883</ele>
        <time>2014-09-13T13:38:49Z</time>
      </trkpt>
      <trkpt lat="42.68403" lon="1.52707">
        <ele>1882</ele>
        <time>2014-09-13T13:39:01Z</time>
      </trkpt>
      <trkpt lat="42.68401" lon="1.52704">
        <ele>1881</ele>
        <time>2014-09-13T13:39:27Z</time>
      </trkpt>
      <trkpt lat="42.68404" lon="1.52702">
        <ele>1881</ele>
        <time>2014-09-13T13:39:45Z</time>
      </trkpt>
      <trkpt lat="42.68407" lon="1.52708">
        <ele>1881</ele>
        <time>2014-09-13T13:40:03Z</time>
      </trkpt>
      <trkpt lat="42.68411" lon="1.52714">
        <ele>1878</ele>
        <time>2014-09-13T13:40:14Z</time>
      </trkpt>
      <trkpt lat="42.68413" lon="1.52718">
        <ele>1877</ele>
        <time>2014-09-13T13:40:20Z</time>
      </trkpt>
      <trkpt lat="42.68415" lon="1.52721">
        <ele>1876</ele>
        <time>2014-09-13T13:40:32Z</time>
      </trkpt>
      <trkpt lat="42.6842" lon="1.52721">
        <ele>1874</ele>
        <time>2014-09-13T13:40:42Z</time>
      </trkpt>
      <trkpt lat="42.68421" lon="1.52726">
        <ele>1873</ele>
        <time>2014-09-13T13:40:46Z</time>
      </trkpt>
      <trkpt lat="42.68424" lon="1.52733">
        <ele>1870</ele>
        <time>2014-09-13T13:40:58Z</time>
      </trkpt>
      <trkpt lat="42.68425" lon="1.52741">
        <ele>1868</ele>
        <time>2014-09-13T13:41:11Z</time>
      </trkpt>
      <trkpt lat="42.6843" lon="1.52743">
        <ele>1867</ele>
        <time>2014-09-13T13:41:22Z</time>
      </trkpt>
      <trkpt lat="42.68434" lon="1.52747">
        <ele>1864</ele>
        <time>2014-09-13T13:41:36Z</time>
      </trkpt>
      <trkpt lat="42.68438" lon="1.5275">
        <ele>1862</ele>
        <time>2014-09-13T13:41:48Z</time>
      </trkpt>
      <trkpt lat="42.6844" lon="1.52755">
        <ele>1861</ele>
        <time>2014-09-13T13:42:01Z</time>
      </trkpt>
      <trkpt lat="42.68437" lon="1.52762">
        <ele>1859</ele>
        <time>2014-09-13T13:42:13Z</time>
      </trkpt>
      <trkpt lat="42.68438" lon="1.52769">
        <ele>1857</ele>
        <time>2014-09-13T13:42:23Z</time>
      </trkpt>
      <trkpt lat="42.6844" lon="1.52775">
        <ele>1857</ele>
        <time>2014-09-13T13:42:33Z</time>
      </trkpt>
      <trkpt lat="42.68441" lon="1.52783">
        <ele>1855</ele>
        <time>2014-09-13T13:42:45Z</time>
      </trkpt>
      <trkpt lat="42.68442" lon="1.5279">
        <ele>1855</ele>
        <time>2014-09-13T13:42:57Z</time>
      </trkpt>
      <trkpt lat="42.68442" lon="1.52796">
        <ele>1854</ele>
        <time>2014-09-13T13:43:06Z</time>
      </trkpt>
      <trkpt lat="42.68439" lon="1.52802">
        <ele>1853</ele>
        <time>2014-09-13T13:43:12Z</time>
      </trkpt>
      <trkpt lat="42.68439" lon="1.52812">
        <ele>1853</ele>
        <time>2014-09-13T13:43:26Z</time>
      </trkpt>
      <trkpt lat="42.6844" lon="1.52818">
        <ele>1851</ele>
        <time>2014-09-13T13:43:37Z</time>
      </trkpt>
      <trkpt lat="42.68441" lon="1.52824">
        <ele>1850</ele>
        <time>2014-09-13T13:43:49Z</time>
      </trkpt>
      <trkpt lat="42.68439" lon="1.52829">
        <ele>1849</ele>
        <time>2014-09-13T13:44:01Z</time>
      </trkpt>
      <trkpt lat="42.6844" lon="1.52836">
        <ele>1848</ele>
        <time>2014-09-13T13:44:11Z</time>
      </trkpt>
      <trkpt lat="42.68441" lon="1.52844">
        <ele>1847</ele>
        <time>2014-09-13T13:44:23Z</time>
      </trkpt>
      <trkpt lat="42.68441" lon="1.52846">
        <ele>1847</ele>
        <time>2014-09-13T13:44:26Z</time>
      </trkpt>
      <trkpt lat="42.68436" lon="1.52847">
        <ele>1846</ele>
        <time>2014-09-13T13:44:40Z</time>
      </trkpt>
      <trkpt lat="42.68437" lon="1.52853">
        <ele>1846</ele>
        <time>2014-09-13T13:44:53Z</time>
      </trkpt>
      <trkpt lat="42.68438" lon="1.52853">
        <ele>1847</ele>
        <time>2014-09-13T13:45:06Z</time>
      </trkpt>
      <trkpt lat="42.68439" lon="1.52854">
        <ele>1846</ele>
        <time>2014-09-13T13:45:08Z</time>
      </trkpt>
      <trkpt lat="42.68438" lon="1.52859">
        <ele>1846</ele>
        <time>2014-09-13T13:45:22Z</time>
      </trkpt>
      <trkpt lat="42.68438" lon="1.52869">
        <ele>1845</ele>
        <time>2014-09-13T13:45:32Z</time>
      </trkpt>
      <trkpt lat="42.68439" lon="1.52874">
        <ele>1844</ele>
        <time>2014-09-13T13:45:43Z</time>
      </trkpt>
      <trkpt lat="42.68438" lon="1.52876">
        <ele>1844</ele>
        <time>2014-09-13T13:45:50Z</time>
      </trkpt>
      <trkpt lat="42.68436" lon="1.52883">
        <ele>1845</ele>
        <time>2014-09-13T13:46:00Z</time>
      </trkpt>
      <trkpt lat="42.68431" lon="1.52893">
        <ele>1845</ele>
        <time>2014-09-13T13:46:13Z</time>
      </trkpt>
      <trkpt lat="42.68433" lon="1.529">
        <ele>1844</ele>
        <time>2014-09-13T13:46:26Z</time>
      </trkpt>
      <trkpt lat="42.68432" lon="1.52904">
        <ele>1845</ele>
        <time>2014-09-13T13:46:30Z</time>
      </trkpt>
      <trkpt lat="42.68438" lon="1.52908">
        <ele>1845</ele>
        <time>2014-09-13T13:46:41Z</time>
      </trkpt>
      <trkpt lat="42.68445" lon="1.52906">
        <ele>1844</ele>
        <time>2014-09-13T13:46:54Z</time>
      </trkpt>
      <trkpt lat="42.6845" lon="1.52906">
        <ele>1844</ele>
        <time>2014-09-13T13:47:04Z</time>
      </trkpt>
      <trkpt lat="42.68456" lon="1.52908">
        <ele>1845</ele>
        <time>2014-09-13T13:47:15Z</time>
      </trkpt>
      <trkpt lat="42.68463" lon="1.52905">
        <ele>1845</ele>
        <time>2014-09-13T13:47:28Z</time>
      </trkpt>
      <trkpt lat="42.68469" lon="1.52902">
        <ele>1844</ele>
        <time>2014-09-13T13:47:41Z</time>
      </trkpt>
      <trkpt lat="42.68468" lon="1.52903">
        <ele>1844</ele>
        <time>2014-09-13T13:47:57Z</time>
      </trkpt>
      <trkpt lat="42.68463" lon="1.52906">
        <ele>1844</ele>
        <time>2014-09-13T13:48:11Z</time>
      </trkpt>
      <trkpt lat="42.68464" lon="1.52905">
        <ele>1843</ele>
        <time>2014-09-13T13:48:20Z</time>
      </trkpt>
      <trkpt lat="42.68465" lon="1.52908">
        <ele>1843</ele>
        <time>2014-09-13T13:48:44Z</time>
      </trkpt>
      <trkpt lat="42.68465" lon="1.52908">
        <ele>1843</ele>
        <time>2014-09-13T13:49:05Z</time>
      </trkpt>
      <trkpt lat="42.68464" lon="1.52909">
        <ele>1843</ele>
        <time>2014-09-13T13:49:29Z</time>
      </trkpt>
      <trkpt lat="42.68461" lon="1.52912">
        <ele>1843</ele>
        <time>2014-09-13T13:49:59Z</time>
      </trkpt>
      <trkpt lat="42.6846" lon="1.52915">
        <ele>1843</ele>
        <time>2014-09-13T13:50:22Z</time>
      </trkpt>
      <trkpt lat="42.6846" lon="1.52915">
        <ele>1843</ele>
        <time>2014-09-13T13:50:53Z</time>
      </trkpt>
      <trkpt lat="42.68463" lon="1.52913">
        <ele>1843</ele>
        <time>2014-09-13T13:51:21Z</time>
      </trkpt>
      <trkpt lat="42.68467" lon="1.5291">
        <ele>1843</ele>
        <time>2014-09-13T13:51:46Z</time>
      </trkpt>
      <trkpt lat="42.68465" lon="1.52912">
        <ele>1843</ele>
        <time>2014-09-13T13:52:09Z</time>
      </trkpt>
      <trkpt lat="42.68463" lon="1.52909">
        <ele>1844</ele>
        <time>2014-09-13T13:52:39Z</time>
      </trkpt>
      <trkpt lat="42.68467" lon="1.52904">
        <ele>1843</ele>
        <time>2014-09-13T13:53:10Z</time>
      </trkpt>
      <trkpt lat="42.68467" lon="1.52904">
        <ele>1843</ele>
        <time>2014-09-13T13:53:44Z</time>
      </trkpt>
      <trkpt lat="42.68467" lon="1.52903">
        <ele>1843</ele>
        <time>2014-09-13T13:54:08Z</time>
      </trkpt>
      <trkpt lat="42.68466" lon="1.52903">
        <ele>1842</ele>
        <time>2014-09-13T13:54:38Z</time>
      </trkpt>
      <trkpt lat="42.68467" lon="1.52901">
        <ele>1843</ele>
        <time>2014-09-13T13:55:10Z</time>
      </trkpt>
      <trkpt lat="42.68467" lon="1.52903">
        <ele>1842</ele>
        <time>2014-09-13T13:55:49Z</time>
      </trkpt>
      <trkpt lat="42.68467" lon="1.52904">
        <ele>1842</ele>
        <time>2014-09-13T13:56:34Z</time>
      </trkpt>
      <trkpt lat="42.68468" lon="1.52904">
        <ele>1842</ele>
        <time>2014-09-13T13:57:13Z</time>
      </trkpt>
      <trkpt lat="42.68468" lon="1.52904">
        <ele>1842</ele>
        <time>2014-09-13T13:57:48Z</time>
      </trkpt>
      <trkpt lat="42.68468" lon="1.52905">
        <ele>1842</ele>
        <time>2014-09-13T13:58:14Z</time>
      </trkpt>
      <trkpt lat="42.68467" lon="1.52903">
        <ele>1842</ele>
        <time>2014-09-13T13:58:48Z</time>
      </trkpt>
      <trkpt lat="42.68466" lon="1.52906">
        <ele>1842</ele>
        <time>2014-09-13T13:59:10Z</time>
      </trkpt>
      <trkpt lat="42.68467" lon="1.52907">
        <ele>1842</ele>
        <time>2014-09-13T13:59:29Z</time>
      </trkpt>
      <trkpt lat="42.68468" lon="1.5291">
        <ele>1842</ele>
        <time>2014-09-13T14:00:04Z</time>
      </trkpt>
      <trkpt lat="42.68466" lon="1.52909">
        <ele>1842</ele>
        <time>2014-09-13T14:00:34Z</time>
      </trkpt>
      <trkpt lat="42.68464" lon="1.5291">
        <ele>1842</ele>
        <time>2014-09-13T14:00:54Z</time>
      </trkpt>
      <trkpt lat="42.68465" lon="1.52911">
        <ele>1842</ele>
        <time>2014-09-13T14:01:20Z</time>
      </trkpt>
      <trkpt lat="42.68467" lon="1.52907">
        <ele>1842</ele>
        <time>2014-09-13T14:01:45Z</time>
      </trkpt>
      <trkpt lat="42.68467" lon="1.52908">
        <ele>1842</ele>
        <time>2014-09-13T14:02:19Z</time>
      </trkpt>
      <trkpt lat="42.68467" lon="1.52905">
        <ele>1842</ele>
        <time>2014-09-13T14:02:48Z</time>
      </trkpt>
      <trkpt lat="42.68467" lon="1.52903">
        <ele>1842</ele>
        <time>2014-09-13T14:03:13Z</time>
      </trkpt>
      <trkpt lat="42.68468" lon="1.52904">
        <ele>1842</ele>
        <time>2014-09-13T14:03:33Z</time>
      </trkpt>
      <trkpt lat="42.68469" lon="1.52901">
        <ele>1842</ele>
        <time>2014-09-13T14:04:04Z</time>
      </trkpt>
      <trkpt lat="42.68469" lon="1.52902">
        <ele>1841</ele>
        <time>2014-09-13T14:04:28Z</time>
      </trkpt>
      <trkpt lat="42.6847" lon="1.52899">
        <ele>1842</ele>
        <time>2014-09-13T14:04:59Z</time>
      </trkpt>
      <trkpt lat="42.68468" lon="1.52902">
        <ele>1841</ele>
        <time>2014-09-13T14:05:26Z</time>
      </trkpt>
      <trkpt lat="42.68469" lon="1.52901">
        <ele>1842</ele>
        <time>2014-09-13T14:05:51Z</time>
      </trkpt>
      <trkpt lat="42.68467" lon="1.52904">
        <ele>1842</ele>
        <time>2014-09-13T14:06:16Z</time>
      </trkpt>
      <trkpt lat="42.68467" lon="1.52904">
        <ele>1842</ele>
        <time>2014-09-13T14:06:41Z</time>
      </trkpt>
      <trkpt lat="42.68469" lon="1.529">
        <ele>1841</ele>
        <time>2014-09-13T14:07:12Z</time>
      </trkpt>
      <trkpt lat="42.68469" lon="1.52902">
        <ele>1842</ele>
        <time>2014-09-13T14:07:55Z</time>
      </trkpt>
      <trkpt lat="42.68469" lon="1.52903">
        <ele>1841</ele>
        <time>2014-09-13T14:08:25Z</time>
      </trkpt>
      <trkpt lat="42.6847" lon="1.52901">
        <ele>1841</ele>
        <time>2014-09-13T14:08:43Z</time>
      </trkpt>
      <trkpt lat="42.68467" lon="1.529">
        <ele>1841</ele>
        <time>2014-09-13T14:09:16Z</time>
      </trkpt>
      <trkpt lat="42.68468" lon="1.52901">
        <ele>1841</ele>
        <time>2014-09-13T14:09:41Z</time>
      </trkpt>
      <trkpt lat="42.6847" lon="1.52901">
        <ele>1841</ele>
        <time>2014-09-13T14:10:15Z</time>
      </trkpt>
      <trkpt lat="42.6847" lon="1.52902">
        <ele>1840</ele>
        <time>2014-09-13T14:10:45Z</time>
      </trkpt>
      <trkpt lat="42.68467" lon="1.52903">
        <ele>1841</ele>
        <time>2014-09-13T14:11:01Z</time>
      </trkpt>
      <trkpt lat="42.68468" lon="1.529">
        <ele>1841</ele>
        <time>2014-09-13T14:11:24Z</time>
      </trkpt>
      <trkpt lat="42.68468" lon="1.52901">
        <ele>1840</ele>
        <time>2014-09-13T14:11:41Z</time>
      </trkpt>
      <trkpt lat="42.68465" lon="1.52909">
        <ele>1841</ele>
        <time>2014-09-13T14:12:06Z</time>
      </trkpt>
      <trkpt lat="42.68468" lon="1.52905">
        <ele>1840</ele>
        <time>2014-09-13T14:12:36Z</time>
      </trkpt>
      <trkpt lat="42.68466" lon="1.52912">
        <ele>1840</ele>
        <time>2014-09-13T14:13:09Z</time>
      </trkpt>
      <trkpt lat="42.68467" lon="1.52906">
        <ele>1840</ele>
        <time>2014-09-13T14:13:17Z</time>
      </trkpt>
      <trkpt lat="42.68469" lon="1.52904">
        <ele>1841</ele>
        <time>2014-09-13T14:13:27Z</time>
      </trkpt>
      <trkpt lat="42.68469" lon="1.52908">
        <ele>1841</ele>
        <time>2014-09-13T14:13:40Z</time>
      </trkpt>
      <trkpt lat="42.68471" lon="1.5291">
        <ele>1841</ele>
        <time>2014-09-13T14:13:54Z</time>
      </trkpt>
      <trkpt lat="42.68472" lon="1.52912">
        <ele>1841</ele>
        <time>2014-09-13T14:14:06Z</time>
      </trkpt>
      <trkpt lat="42.68462" lon="1.52911">
        <ele>1842</ele>
        <time>2014-09-13T14:14:20Z</time>
      </trkpt>
      <trkpt lat="42.68454" lon="1.52914">
        <ele>1842</ele>
        <time>2014-09-13T14:14:32Z</time>
      </trkpt>
      <trkpt lat="42.68444" lon="1.52919">
        <ele>1843</ele>
        <time>2014-09-13T14:14:47Z</time>
      </trkpt>
      <trkpt lat="42.68442" lon="1.52919">
        <ele>1843</ele>
        <time>2014-09-13T14:14:51Z</time>
      </trkpt>
      <trkpt lat="42.68429" lon="1.5292">
        <ele>1842</ele>
        <time>2014-09-13T14:15:06Z</time>
      </trkpt>
      <trkpt lat="42.68428" lon="1.52921">
        <ele>1843</ele>
        <time>2014-09-13T14:15:09Z</time>
      </trkpt>
      <trkpt lat="42.68423" lon="1.52923">
        <ele>1842</ele>
        <time>2014-09-13T14:15:24Z</time>
      </trkpt>
      <trkpt lat="42.6842" lon="1.52926">
        <ele>1843</ele>
        <time>2014-09-13T14:15:34Z</time>
      </trkpt>
      <trkpt lat="42.68414" lon="1.52928">
        <ele>1843</ele>
        <time>2014-09-13T14:15:47Z</time>
      </trkpt>
      <trkpt lat="42.68409" lon="1.52937">
        <ele>1845</ele>
        <time>2014-09-13T14:16:00Z</time>
      </trkpt>
      <trkpt lat="42.68409" lon="1.52946">
        <ele>1847</ele>
        <time>2014-09-13T14:16:15Z</time>
      </trkpt>
      <trkpt lat="42.68409" lon="1.52947">
        <ele>1848</ele>
        <time>2014-09-13T14:16:20Z</time>
      </trkpt>
      <trkpt lat="42.68408" lon="1.52959">
        <ele>1849</ele>
        <time>2014-09-13T14:16:33Z</time>
      </trkpt>
      <trkpt lat="42.68407" lon="1.52963">
        <ele>1850</ele>
        <time>2014-09-13T14:16:38Z</time>
      </trkpt>
      <trkpt lat="42.68402" lon="1.52971">
        <ele>1850</ele>
        <time>2014-09-13T14:16:48Z</time>
      </trkpt>
      <trkpt lat="42.68391" lon="1.52974">
        <ele>1851</ele>
        <time>2014-09-13T14:17:02Z</time>
      </trkpt>
      <trkpt lat="42.68387" lon="1.52985">
        <ele>1853</ele>
        <time>2014-09-13T14:17:18Z</time>
      </trkpt>
      <trkpt lat="42.68386" lon="1.52987">
        <ele>1854</ele>
        <time>2014-09-13T14:17:23Z</time>
      </trkpt>
      <trkpt lat="42.6838" lon="1.52997">
        <ele>1854</ele>
        <time>2014-09-13T14:17:36Z</time>
      </trkpt>
      <trkpt lat="42.68376" lon="1.53002">
        <ele>1854</ele>
        <time>2014-09-13T14:17:49Z</time>
      </trkpt>
      <trkpt lat="42.68368" lon="1.53012">
        <ele>1851</ele>
        <time>2014-09-13T14:18:02Z</time>
      </trkpt>
      <trkpt lat="42.68359" lon="1.5302">
        <ele>1849</ele>
        <time>2014-09-13T14:18:15Z</time>
      </trkpt>
      <trkpt lat="42.68354" lon="1.53029">
        <ele>1848</ele>
        <time>2014-09-13T14:18:26Z</time>
      </trkpt>
      <trkpt lat="42.68346" lon="1.53038">
        <ele>1846</ele>
        <time>2014-09-13T14:18:42Z</time>
      </trkpt>
      <trkpt lat="42.68339" lon="1.53045">
        <ele>1843</ele>
        <time>2014-09-13T14:18:55Z</time>
      </trkpt>
      <trkpt lat="42.68332" lon="1.53049">
        <ele>1844</ele>
        <time>2014-09-13T14:19:06Z</time>
      </trkpt>
      <trkpt lat="42.68331" lon="1.53049">
        <ele>1843</ele>
        <time>2014-09-13T14:19:08Z</time>
      </trkpt>
      <trkpt lat="42.68323" lon="1.53052">
        <ele>1844</ele>
        <time>2014-09-13T14:19:21Z</time>
      </trkpt>
      <trkpt lat="42.68322" lon="1.53052">
        <ele>1843</ele>
        <time>2014-09-13T14:19:23Z</time>
      </trkpt>
      <trkpt lat="42.68314" lon="1.53055">
        <ele>1843</ele>
        <time>2014-09-13T14:19:35Z</time>
      </trkpt>
      <trkpt lat="42.68311" lon="1.53056">
        <ele>1843</ele>
        <time>2014-09-13T14:19:41Z</time>
      </trkpt>
      <trkpt lat="42.68307" lon="1.53064">
        <ele>1843</ele>
        <time>2014-09-13T14:19:56Z</time>
      </trkpt>
      <trkpt lat="42.68302" lon="1.53069">
        <ele>1841</ele>
        <time>2014-09-13T14:20:10Z</time>
      </trkpt>
      <trkpt lat="42.68299" lon="1.53071">
        <ele>1841</ele>
        <time>2014-09-13T14:20:24Z</time>
      </trkpt>
      <trkpt lat="42.68296" lon="1.53073">
        <ele>1840</ele>
        <time>2014-09-13T14:20:37Z</time>
      </trkpt>
      <trkpt lat="42.68292" lon="1.53075">
        <ele>1841</ele>
        <time>2014-09-13T14:20:43Z</time>
      </trkpt>
      <trkpt lat="42.68284" lon="1.53079">
        <ele>1841</ele>
        <time>2014-09-13T14:20:55Z</time>
      </trkpt>
      <trkpt lat="42.68283" lon="1.5308">
        <ele>1841</ele>
        <time>2014-09-13T14:20:57Z</time>
      </trkpt>
      <trkpt lat="42.68277" lon="1.5308">
        <ele>1841</ele>
        <time>2014-09-13T14:21:08Z</time>
      </trkpt>
      <trkpt lat="42.68273" lon="1.53083">
        <ele>1842</ele>
        <time>2014-09-13T14:21:20Z</time>
      </trkpt>
      <trkpt lat="42.68268" lon="1.53082">
        <ele>1844</ele>
        <time>2014-09-13T14:21:31Z</time>
      </trkpt>
      <trkpt lat="42.68265" lon="1.53083">
        <ele>1845</ele>
        <time>2014-09-13T14:21:44Z</time>
      </trkpt>
      <trkpt lat="42.6826" lon="1.53087">
        <ele>1844</ele>
        <time>2014-09-13T14:21:59Z</time>
      </trkpt>
      <trkpt lat="42.68258" lon="1.53089">
        <ele>1844</ele>
        <time>2014-09-13T14:22:09Z</time>
      </trkpt>
      <trkpt lat="42.68259" lon="1.53088">
        <ele>1844</ele>
        <time>2014-09-13T14:22:25Z</time>
      </trkpt>
      <trkpt lat="42.68255" lon="1.53088">
        <ele>1844</ele>
        <time>2014-09-13T14:22:39Z</time>
      </trkpt>
      <trkpt lat="42.68253" lon="1.53092">
        <ele>1844</ele>
        <time>2014-09-13T14:22:51Z</time>
      </trkpt>
      <trkpt lat="42.68251" lon="1.53093">
        <ele>1844</ele>
        <time>2014-09-13T14:23:04Z</time>
      </trkpt>
      <trkpt lat="42.68246" lon="1.53094">
        <ele>1844</ele>
        <time>2014-09-13T14:23:18Z</time>
      </trkpt>
      <trkpt lat="42.68244" lon="1.53099">
        <ele>1843</ele>
        <time>2014-09-13T14:23:30Z</time>
      </trkpt>
      <trkpt lat="42.6824" lon="1.53096">
        <ele>1843</ele>
        <time>2014-09-13T14:23:42Z</time>
      </trkpt>
      <trkpt lat="42.68238" lon="1.53101">
        <ele>1842</ele>
        <time>2014-09-13T14:23:52Z</time>
      </trkpt>
      <trkpt lat="42.68234" lon="1.53103">
        <ele>1841</ele>
        <time>2014-09-13T14:24:05Z</time>
      </trkpt>
      <trkpt lat="42.68229" lon="1.53105">
        <ele>1840</ele>
        <time>2014-09-13T14:24:17Z</time>
      </trkpt>
      <trkpt lat="42.68225" lon="1.53111">
        <ele>1841</ele>
        <time>2014-09-13T14:24:29Z</time>
      </trkpt>
      <trkpt lat="42.68221" lon="1.53113">
        <ele>1840</ele>
        <time>2014-09-13T14:24:40Z</time>
      </trkpt>
      <trkpt lat="42.68214" lon="1.53116">
        <ele>1840</ele>
        <time>2014-09-13T14:24:54Z</time>
      </trkpt>
      <trkpt lat="42.68207" lon="1.53125">
        <ele>1840</ele>
        <time>2014-09-13T14:25:06Z</time>
      </trkpt>
      <trkpt lat="42.682" lon="1.53132">
        <ele>1841</ele>
        <time>2014-09-13T14:25:20Z</time>
      </trkpt>
      <trkpt lat="42.68195" lon="1.53142">
        <ele>1840</ele>
        <time>2014-09-13T14:25:33Z</time>
      </trkpt>
      <trkpt lat="42.68195" lon="1.53146">
        <ele>1841</ele>
        <time>2014-09-13T14:25:36Z</time>
      </trkpt>
      <trkpt lat="42.68186" lon="1.53155">
        <ele>1841</ele>
        <time>2014-09-13T14:25:47Z</time>
      </trkpt>
      <trkpt lat="42.68185" lon="1.53155">
        <ele>1841</ele>
        <time>2014-09-13T14:25:48Z</time>
      </trkpt>
      <trkpt lat="42.68178" lon="1.53157">
        <ele>1842</ele>
        <time>2014-09-13T14:26:01Z</time>
      </trkpt>
      <trkpt lat="42.68177" lon="1.53159">
        <ele>1841</ele>
        <time>2014-09-13T14:26:05Z</time>
      </trkpt>
      <trkpt lat="42.68176" lon="1.53167">
        <ele>1841</ele>
        <time>2014-09-13T14:26:18Z</time>
      </trkpt>
      <trkpt lat="42.6817" lon="1.53171">
        <ele>1841</ele>
        <time>2014-09-13T14:26:29Z</time>
      </trkpt>
      <trkpt lat="42.68169" lon="1.53176">
        <ele>1841</ele>
        <time>2014-09-13T14:26:37Z</time>
      </trkpt>
      <trkpt lat="42.68162" lon="1.53188">
        <ele>1841</ele>
        <time>2014-09-13T14:26:50Z</time>
      </trkpt>
      <trkpt lat="42.68161" lon="1.5319">
        <ele>1842</ele>
        <time>2014-09-13T14:27:02Z</time>
      </trkpt>
      <trkpt lat="42.6816" lon="1.53194">
        <ele>1841</ele>
        <time>2014-09-13T14:27:05Z</time>
      </trkpt>
      <trkpt lat="42.68153" lon="1.53198">
        <ele>1842</ele>
        <time>2014-09-13T14:27:15Z</time>
      </trkpt>
      <trkpt lat="42.68151" lon="1.53202">
        <ele>1841</ele>
        <time>2014-09-13T14:27:28Z</time>
      </trkpt>
      <trkpt lat="42.68152" lon="1.53203">
        <ele>1842</ele>
        <time>2014-09-13T14:27:40Z</time>
      </trkpt>
      <trkpt lat="42.68155" lon="1.53209">
        <ele>1843</ele>
        <time>2014-09-13T14:27:52Z</time>
      </trkpt>
      <trkpt lat="42.68157" lon="1.53207">
        <ele>1844</ele>
        <time>2014-09-13T14:28:05Z</time>
      </trkpt>
      <trkpt lat="42.6816" lon="1.53215">
        <ele>1845</ele>
        <time>2014-09-13T14:28:18Z</time>
      </trkpt>
      <trkpt lat="42.68151" lon="1.53226">
        <ele>1845</ele>
        <time>2014-09-13T14:28:31Z</time>
      </trkpt>
      <trkpt lat="42.68144" lon="1.53231">
        <ele>1846</ele>
        <time>2014-09-13T14:28:44Z</time>
      </trkpt>
      <trkpt lat="42.68143" lon="1.53231">
        <ele>1846</ele>
        <time>2014-09-13T14:28:45Z</time>
      </trkpt>
      <trkpt lat="42.6814" lon="1.53232">
        <ele>1846</ele>
        <time>2014-09-13T14:28:57Z</time>
      </trkpt>
      <trkpt lat="42.68135" lon="1.53234">
        <ele>1846</ele>
        <time>2014-09-13T14:29:08Z</time>
      </trkpt>
      <trkpt lat="42.68137" lon="1.53236">
        <ele>1846</ele>
        <time>2014-09-13T14:29:28Z</time>
      </trkpt>
      <trkpt lat="42.68134" lon="1.53237">
        <ele>1845</ele>
        <time>2014-09-13T14:29:46Z</time>
      </trkpt>
      <trkpt lat="42.68141" lon="1.53234">
        <ele>1844</ele>
        <time>2014-09-13T14:30:04Z</time>
      </trkpt>
      <trkpt lat="42.68141" lon="1.53236">
        <ele>1844</ele>
        <time>2014-09-13T14:30:50Z</time>
      </trkpt>
      <trkpt lat="42.68137" lon="1.53231">
        <ele>1844</ele>
        <time>2014-09-13T14:31:29Z</time>
      </trkpt>
      <trkpt lat="42.68137" lon="1.53232">
        <ele>1844</ele>
        <time>2014-09-13T14:31:37Z</time>
      </trkpt>
      <trkpt lat="42.68139" lon="1.53232">
        <ele>1846</ele>
        <time>2014-09-13T14:31:47Z</time>
      </trkpt>
      <trkpt lat="42.68142" lon="1.53233">
        <ele>1846</ele>
        <time>2014-09-13T14:32:10Z</time>
      </trkpt>
      <trkpt lat="42.68143" lon="1.53232">
        <ele>1845</ele>
        <time>2014-09-13T14:32:19Z</time>
      </trkpt>
      <trkpt lat="42.68149" lon="1.5323">
        <ele>1845</ele>
        <time>2014-09-13T14:32:32Z</time>
      </trkpt>
      <trkpt lat="42.68154" lon="1.53222">
        <ele>1845</ele>
        <time>2014-09-13T14:32:45Z</time>
      </trkpt>
      <trkpt lat="42.68155" lon="1.53221">
        <ele>1845</ele>
        <time>2014-09-13T14:32:46Z</time>
      </trkpt>
      <trkpt lat="42.68165" lon="1.53211">
        <ele>1844</ele>
        <time>2014-09-13T14:33:00Z</time>
      </trkpt>
      <trkpt lat="42.68167" lon="1.53211">
        <ele>1844</ele>
        <time>2014-09-13T14:33:02Z</time>
      </trkpt>
      <trkpt lat="42.68183" lon="1.53208">
        <ele>1844</ele>
        <time>2014-09-13T14:33:19Z</time>
      </trkpt>
      <trkpt lat="42.68186" lon="1.53211">
        <ele>1843</ele>
        <time>2014-09-13T14:33:22Z</time>
      </trkpt>
      <trkpt lat="42.68197" lon="1.5322">
        <ele>1842</ele>
        <time>2014-09-13T14:33:33Z</time>
      </trkpt>
      <trkpt lat="42.68207" lon="1.53224">
        <ele>1841</ele>
        <time>2014-09-13T14:33:48Z</time>
      </trkpt>
      <trkpt lat="42.68208" lon="1.53224">
        <ele>1842</ele>
        <time>2014-09-13T14:33:49Z</time>
      </trkpt>
      <trkpt lat="42.68216" lon="1.53226">
        <ele>1841</ele>
        <time>2014-09-13T14:33:59Z</time>
      </trkpt>
      <trkpt lat="42.68224" lon="1.53229">
        <ele>1841</ele>
        <time>2014-09-13T14:34:07Z</time>
      </trkpt>
      <trkpt lat="42.68226" lon="1.5323">
        <ele>1841</ele>
        <time>2014-09-13T14:34:09Z</time>
      </trkpt>
      <trkpt lat="42.68232" lon="1.53232">
        <ele>1840</ele>
        <time>2014-09-13T14:34:15Z</time>
      </trkpt>
      <trkpt lat="42.68235" lon="1.53236">
        <ele>1840</ele>
        <time>2014-09-13T14:34:20Z</time>
      </trkpt>
      <trkpt lat="42.68243" lon="1.53237">
        <ele>1839</ele>
        <time>2014-09-13T14:34:31Z</time>
      </trkpt>
      <trkpt lat="42.68249" lon="1.53244">
        <ele>1839</ele>
        <time>2014-09-13T14:34:39Z</time>
      </trkpt>
      <trkpt lat="42.68254" lon="1.53241">
        <ele>1840</ele>
        <time>2014-09-13T14:34:46Z</time>
      </trkpt>
      <trkpt lat="42.68265" lon="1.53236">
        <ele>1840</ele>
        <time>2014-09-13T14:35:00Z</time>
      </trkpt>
      <trkpt lat="42.68275" lon="1.53239">
        <ele>1840</ele>
        <time>2014-09-13T14:35:16Z</time>
      </trkpt>
      <trkpt lat="42.68279" lon="1.53241">
        <ele>1840</ele>
        <time>2014-09-13T14:35:28Z</time>
      </trkpt>
      <trkpt lat="42.68284" lon="1.53245">
        <ele>1840</ele>
        <time>2014-09-13T14:35:33Z</time>
      </trkpt>
      <trkpt lat="42.68297" lon="1.53257">
        <ele>1838</ele>
        <time>2014-09-13T14:35:48Z</time>
      </trkpt>
      <trkpt lat="42.68303" lon="1.53261">
        <ele>1839</ele>
        <time>2014-09-13T14:36:03Z</time>
      </trkpt>
      <trkpt lat="42.68309" lon="1.53265">
        <ele>1839</ele>
        <time>2014-09-13T14:36:15Z</time>
      </trkpt>
      <trkpt lat="42.68312" lon="1.53266">
        <ele>1842</ele>
        <time>2014-09-13T14:36:30Z</time>
      </trkpt>
      <trkpt lat="42.68313" lon="1.53265">
        <ele>1842</ele>
        <time>2014-09-13T14:36:33Z</time>
      </trkpt>
      <trkpt lat="42.68322" lon="1.53258">
        <ele>1842</ele>
        <time>2014-09-13T14:36:46Z</time>
      </trkpt>
      <trkpt lat="42.68328" lon="1.53252">
        <ele>1842</ele>
        <time>2014-09-13T14:37:00Z</time>
      </trkpt>
      <trkpt lat="42.68334" lon="1.53248">
        <ele>1842</ele>
        <time>2014-09-13T14:37:08Z</time>
      </trkpt>
      <trkpt lat="42.68344" lon="1.53241">
        <ele>1842</ele>
        <time>2014-09-13T14:37:22Z</time>
      </trkpt>
      <trkpt lat="42.68353" lon="1.53242">
        <ele>1844</ele>
        <time>2014-09-13T14:37:35Z</time>
      </trkpt>
      <trkpt lat="42.68364" lon="1.53233">
        <ele>1844</ele>
        <time>2014-09-13T14:37:48Z</time>
      </trkpt>
      <trkpt lat="42.68373" lon="1.53228">
        <ele>1844</ele>
        <time>2014-09-13T14:38:00Z</time>
      </trkpt>
      <trkpt lat="42.68384" lon="1.53225">
        <ele>1847</ele>
        <time>2014-09-13T14:38:13Z</time>
      </trkpt>
      <trkpt lat="42.68396" lon="1.53215">
        <ele>1849</ele>
        <time>2014-09-13T14:38:29Z</time>
      </trkpt>
      <trkpt lat="42.684" lon="1.53215">
        <ele>1849</ele>
        <time>2014-09-13T14:38:35Z</time>
      </trkpt>
      <trkpt lat="42.68412" lon="1.53211">
        <ele>1850</ele>
        <time>2014-09-13T14:38:48Z</time>
      </trkpt>
      <trkpt lat="42.68413" lon="1.5321">
        <ele>1850</ele>
        <time>2014-09-13T14:38:49Z</time>
      </trkpt>
      <trkpt lat="42.68418" lon="1.53211">
        <ele>1851</ele>
        <time>2014-09-13T14:38:54Z</time>
      </trkpt>
      <trkpt lat="42.6842" lon="1.53211">
        <ele>1850</ele>
        <time>2014-09-13T14:38:56Z</time>
      </trkpt>
      <trkpt lat="42.68422" lon="1.5321">
        <ele>1850</ele>
        <time>2014-09-13T14:38:58Z</time>
      </trkpt>
      <trkpt lat="42.68435" lon="1.53207">
        <ele>1850</ele>
        <time>2014-09-13T14:39:12Z</time>
      </trkpt>
      <trkpt lat="42.68437" lon="1.53206">
        <ele>1850</ele>
        <time>2014-09-13T14:39:15Z</time>
      </trkpt>
      <trkpt lat="42.68452" lon="1.53204">
        <ele>1852</ele>
        <time>2014-09-13T14:39:31Z</time>
      </trkpt>
      <trkpt lat="42.68461" lon="1.53199">
        <ele>1853</ele>
        <time>2014-09-13T14:39:45Z</time>
      </trkpt>
      <trkpt lat="42.68469" lon="1.53197">
        <ele>1853</ele>
        <time>2014-09-13T14:39:58Z</time>
      </trkpt>
      <trkpt lat="42.6847" lon="1.53195">
        <ele>1853</ele>
        <time>2014-09-13T14:40:00Z</time>
      </trkpt>
      <trkpt lat="42.68479" lon="1.5319">
        <ele>1855</ele>
        <time>2014-09-13T14:40:11Z</time>
      </trkpt>
      <trkpt lat="42.68485" lon="1.53187">
        <ele>1855</ele>
        <time>2014-09-13T14:40:24Z</time>
      </trkpt>
      <trkpt lat="42.68493" lon="1.53189">
        <ele>1857</ele>
        <time>2014-09-13T14:40:37Z</time>
      </trkpt>
      <trkpt lat="42.68505" lon="1.53194">
        <ele>1859</ele>
        <time>2014-09-13T14:40:51Z</time>
      </trkpt>
      <trkpt lat="42.68513" lon="1.53196">
        <ele>1860</ele>
        <time>2014-09-13T14:41:03Z</time>
      </trkpt>
      <trkpt lat="42.68518" lon="1.53201">
        <ele>1861</ele>
        <time>2014-09-13T14:41:14Z</time>
      </trkpt>
      <trkpt lat="42.68526" lon="1.53205">
        <ele>1861</ele>
        <time>2014-09-13T14:41:41Z</time>
      </trkpt>
      <trkpt lat="42.68536" lon="1.53206">
        <ele>1862</ele>
        <time>2014-09-13T14:41:57Z</time>
      </trkpt>
      <trkpt lat="42.68544" lon="1.53211">
        <ele>1864</ele>
        <time>2014-09-13T14:42:09Z</time>
      </trkpt>
      <trkpt lat="42.68545" lon="1.53213">
        <ele>1865</ele>
        <time>2014-09-13T14:42:14Z</time>
      </trkpt>
      <trkpt lat="42.68548" lon="1.53209">
        <ele>1863</ele>
        <time>2014-09-13T14:42:19Z</time>
      </trkpt>
      <trkpt lat="42.68551" lon="1.53208">
        <ele>1865</ele>
        <time>2014-09-13T14:42:42Z</time>
      </trkpt>
      <trkpt lat="42.68551" lon="1.53209">
        <ele>1865</ele>
        <time>2014-09-13T14:43:18Z</time>
      </trkpt>
      <trkpt lat="42.68554" lon="1.53208">
        <ele>1863</ele>
        <time>2014-09-13T14:43:53Z</time>
      </trkpt>
      <trkpt lat="42.68555" lon="1.53207">
        <ele>1867</ele>
        <time>2014-09-13T14:44:00Z</time>
      </trkpt>
      <trkpt lat="42.68561" lon="1.53204">
        <ele>1868</ele>
        <time>2014-09-13T14:44:09Z</time>
      </trkpt>
      <trkpt lat="42.68567" lon="1.53201">
        <ele>1867</ele>
        <time>2014-09-13T14:44:15Z</time>
      </trkpt>
      <trkpt lat="42.68587" lon="1.53205">
        <ele>1868</ele>
        <time>2014-09-13T14:44:31Z</time>
      </trkpt>
      <trkpt lat="42.68603" lon="1.53208">
        <ele>1871</ele>
        <time>2014-09-13T14:44:46Z</time>
      </trkpt>
      <trkpt lat="42.68616" lon="1.53203">
        <ele>1870</ele>
        <time>2014-09-13T14:44:57Z</time>
      </trkpt>
      <trkpt lat="42.6862" lon="1.53202">
        <ele>1870</ele>
        <time>2014-09-13T14:45:01Z</time>
      </trkpt>
      <trkpt lat="42.68628" lon="1.53198">
        <ele>1871</ele>
        <time>2014-09-13T14:45:10Z</time>
      </trkpt>
      <trkpt lat="42.68631" lon="1.53194">
        <ele>1871</ele>
        <time>2014-09-13T14:45:14Z</time>
      </trkpt>
      <trkpt lat="42.6864" lon="1.53187">
        <ele>1872</ele>
        <time>2014-09-13T14:45:26Z</time>
      </trkpt>
      <trkpt lat="42.68646" lon="1.53182">
        <ele>1871</ele>
        <time>2014-09-13T14:45:40Z</time>
      </trkpt>
      <trkpt lat="42.68645" lon="1.53183">
        <ele>1871</ele>
        <time>2014-09-13T14:45:57Z</time>
      </trkpt>
      <trkpt lat="42.68646" lon="1.53187">
        <ele>1871</ele>
        <time>2014-09-13T14:46:19Z</time>
      </trkpt>
      <trkpt lat="42.68645" lon="1.53182">
        <ele>1870</ele>
        <time>2014-09-13T14:46:34Z</time>
      </trkpt>
      <trkpt lat="42.68644" lon="1.53184">
        <ele>1871</ele>
        <time>2014-09-13T14:46:58Z</time>
      </trkpt>
      <trkpt lat="42.68649" lon="1.53184">
        <ele>1871</ele>
        <time>2014-09-13T14:47:27Z</time>
      </trkpt>
      <trkpt lat="42.6865" lon="1.5318">
        <ele>1871</ele>
        <time>2014-09-13T14:47:41Z</time>
      </trkpt>
      <trkpt lat="42.68652" lon="1.53176">
        <ele>1870</ele>
        <time>2014-09-13T14:47:52Z</time>
      </trkpt>
      <trkpt lat="42.68653" lon="1.53179">
        <ele>1870</ele>
        <time>2014-09-13T14:48:13Z</time>
      </trkpt>
      <trkpt lat="42.68651" lon="1.53175">
        <ele>1870</ele>
        <time>2014-09-13T14:48:38Z</time>
      </trkpt>
      <trkpt lat="42.6865" lon="1.53177">
        <ele>1870</ele>
        <time>2014-09-13T14:49:08Z</time>
      </trkpt>
      <trkpt lat="42.68652" lon="1.53176">
        <ele>1869</ele>
        <time>2014-09-13T14:49:28Z</time>
      </trkpt>
      <trkpt lat="42.68651" lon="1.53177">
        <ele>1870</ele>
        <time>2014-09-13T14:49:55Z</time>
      </trkpt>
      <trkpt lat="42.68652" lon="1.53177">
        <ele>1870</ele>
        <time>2014-09-13T14:49:58Z</time>
      </trkpt>
      <trkpt lat="42.68657" lon="1.53173">
        <ele>1871</ele>
        <time>2014-09-13T14:50:04Z</time>
      </trkpt>
      <trkpt lat="42.68667" lon="1.5317">
        <ele>1871</ele>
        <time>2014-09-13T14:50:15Z</time>
      </trkpt>
      <trkpt lat="42.68678" lon="1.53175">
        <ele>1870</ele>
        <time>2014-09-13T14:50:30Z</time>
      </trkpt>
      <trkpt lat="42.68691" lon="1.53175">
        <ele>1869</ele>
        <time>2014-09-13T14:50:44Z</time>
      </trkpt>
      <trkpt lat="42.68703" lon="1.53177">
        <ele>1868</ele>
        <time>2014-09-13T14:50:57Z</time>
      </trkpt>
      <trkpt lat="42.68714" lon="1.5318">
        <ele>1870</ele>
        <time>2014-09-13T14:51:09Z</time>
      </trkpt>
      <trkpt lat="42.68727" lon="1.53185">
        <ele>1870</ele>
        <time>2014-09-13T14:51:23Z</time>
      </trkpt>
      <trkpt lat="42.68729" lon="1.53185">
        <ele>1870</ele>
        <time>2014-09-13T14:51:25Z</time>
      </trkpt>
      <trkpt lat="42.68744" lon="1.53182">
        <ele>1870</ele>
        <time>2014-09-13T14:51:42Z</time>
      </trkpt>
      <trkpt lat="42.68753" lon="1.53179">
        <ele>1868</ele>
        <time>2014-09-13T14:51:52Z</time>
      </trkpt>
      <trkpt lat="42.68762" lon="1.53171">
        <ele>1866</ele>
        <time>2014-09-13T14:52:03Z</time>
      </trkpt>
      <trkpt lat="42.68776" lon="1.53167">
        <ele>1865</ele>
        <time>2014-09-13T14:52:20Z</time>
      </trkpt>
      <trkpt lat="42.68789" lon="1.53162">
        <ele>1865</ele>
        <time>2014-09-13T14:52:33Z</time>
      </trkpt>
      <trkpt lat="42.688" lon="1.53158">
        <ele>1863</ele>
        <time>2014-09-13T14:52:47Z</time>
      </trkpt>
      <trkpt lat="42.688" lon="1.5316">
        <ele>1863</ele>
        <time>2014-09-13T14:52:58Z</time>
      </trkpt>
      <trkpt lat="42.68802" lon="1.53157">
        <ele>1863</ele>
        <time>2014-09-13T14:53:00Z</time>
      </trkpt>
      <trkpt lat="42.68808" lon="1.5315">
        <ele>1862</ele>
        <time>2014-09-13T14:53:12Z</time>
      </trkpt>
      <trkpt lat="42.68813" lon="1.5316">
        <ele>1860</ele>
        <time>2014-09-13T14:53:24Z</time>
      </trkpt>
      <trkpt lat="42.68821" lon="1.53163">
        <ele>1859</ele>
        <time>2014-09-13T14:53:37Z</time>
      </trkpt>
      <trkpt lat="42.68828" lon="1.53164">
        <ele>1859</ele>
        <time>2014-09-13T14:53:49Z</time>
      </trkpt>
      <trkpt lat="42.68834" lon="1.53163">
        <ele>1858</ele>
        <time>2014-09-13T14:53:56Z</time>
      </trkpt>
      <trkpt lat="42.68844" lon="1.53154">
        <ele>1855</ele>
        <time>2014-09-13T14:54:08Z</time>
      </trkpt>
      <trkpt lat="42.68851" lon="1.53156">
        <ele>1855</ele>
        <time>2014-09-13T14:54:16Z</time>
      </trkpt>
      <trkpt lat="42.68862" lon="1.5316">
        <ele>1855</ele>
        <time>2014-09-13T14:54:30Z</time>
      </trkpt>
      <trkpt lat="42.68864" lon="1.5316">
        <ele>1855</ele>
        <time>2014-09-13T14:54:32Z</time>
      </trkpt>
      <trkpt lat="42.68876" lon="1.53167">
        <ele>1854</ele>
        <time>2014-09-13T14:54:45Z</time>
      </trkpt>
      <trkpt lat="42.68891" lon="1.53172">
        <ele>1853</ele>
        <time>2014-09-13T14:55:00Z</time>
      </trkpt>
      <trkpt lat="42.68907" lon="1.53176">
        <ele>1851</ele>
        <time>2014-09-13T14:55:16Z</time>
      </trkpt>
      <trkpt lat="42.68918" lon="1.53182">
        <ele>1851</ele>
        <time>2014-09-13T14:55:28Z</time>
      </trkpt>
      <trkpt lat="42.68926" lon="1.53185">
        <ele>1850</ele>
        <time>2014-09-13T14:55:38Z</time>
      </trkpt>
      <trkpt lat="42.68938" lon="1.53188">
        <ele>1850</ele>
        <time>2014-09-13T14:55:53Z</time>
      </trkpt>
      <trkpt lat="42.68951" lon="1.53189">
        <ele>1849</ele>
        <time>2014-09-13T14:56:09Z</time>
      </trkpt>
      <trkpt lat="42.68961" lon="1.53197">
        <ele>1849</ele>
        <time>2014-09-13T14:56:23Z</time>
      </trkpt>
      <trkpt lat="42.68972" lon="1.532">
        <ele>1849</ele>
        <time>2014-09-13T14:56:36Z</time>
      </trkpt>
      <trkpt lat="42.68988" lon="1.53201">
        <ele>1850</ele>
        <time>2014-09-13T14:56:53Z</time>
      </trkpt>
      <trkpt lat="42.68993" lon="1.53202">
        <ele>1850</ele>
        <time>2014-09-13T14:56:59Z</time>
      </trkpt>
      <trkpt lat="42.69009" lon="1.53206">
        <ele>1849</ele>
        <time>2014-09-13T14:57:14Z</time>
      </trkpt>
      <trkpt lat="42.69023" lon="1.53205">
        <ele>1848</ele>
        <time>2014-09-13T14:57:26Z</time>
      </trkpt>
      <trkpt lat="42.69037" lon="1.53212">
        <ele>1848</ele>
        <time>2014-09-13T14:57:42Z</time>
      </trkpt>
      <trkpt lat="42.69042" lon="1.53215">
        <ele>1848</ele>
        <time>2014-09-13T14:57:47Z</time>
      </trkpt>
      <trkpt lat="42.69054" lon="1.53224">
        <ele>1849</ele>
        <time>2014-09-13T14:58:04Z</time>
      </trkpt>
      <trkpt lat="42.69064" lon="1.53231">
        <ele>1851</ele>
        <time>2014-09-13T14:58:19Z</time>
      </trkpt>
      <trkpt lat="42.69075" lon="1.53236">
        <ele>1852</ele>
        <time>2014-09-13T14:58:33Z</time>
      </trkpt>
      <trkpt lat="42.69078" lon="1.53239">
        <ele>1853</ele>
        <time>2014-09-13T14:58:37Z</time>
      </trkpt>
      <trkpt lat="42.69081" lon="1.53245">
        <ele>1854</ele>
        <time>2014-09-13T14:58:42Z</time>
      </trkpt>
      <trkpt lat="42.69096" lon="1.53253">
        <ele>1854</ele>
        <time>2014-09-13T14:58:59Z</time>
      </trkpt>
      <trkpt lat="42.69106" lon="1.53263">
        <ele>1852</ele>
        <time>2014-09-13T14:59:13Z</time>
      </trkpt>
      <trkpt lat="42.69113" lon="1.53262">
        <ele>1852</ele>
        <time>2014-09-13T14:59:23Z</time>
      </trkpt>
      <trkpt lat="42.69129" lon="1.53265">
        <ele>1852</ele>
        <time>2014-09-13T14:59:37Z</time>
      </trkpt>
      <trkpt lat="42.69138" lon="1.53266">
        <ele>1849</ele>
        <time>2014-09-13T14:59:50Z</time>
      </trkpt>
      <trkpt lat="42.69144" lon="1.53266">
        <ele>1850</ele>
        <time>2014-09-13T15:00:01Z</time>
      </trkpt>
      <trkpt lat="42.69146" lon="1.53265">
        <ele>1849</ele>
        <time>2014-09-13T15:00:05Z</time>
      </trkpt>
      <trkpt lat="42.69151" lon="1.53263">
        <ele>1849</ele>
        <time>2014-09-13T15:00:12Z</time>
      </trkpt>
      <trkpt lat="42.69163" lon="1.5327">
        <ele>1849</ele>
        <time>2014-09-13T15:00:25Z</time>
      </trkpt>
      <trkpt lat="42.69166" lon="1.53274">
        <ele>1849</ele>
        <time>2014-09-13T15:00:29Z</time>
      </trkpt>
      <trkpt lat="42.69167" lon="1.53277">
        <ele>1849</ele>
        <time>2014-09-13T15:00:32Z</time>
      </trkpt>
      <trkpt lat="42.69175" lon="1.53284">
        <ele>1849</ele>
        <time>2014-09-13T15:00:43Z</time>
      </trkpt>
      <trkpt lat="42.6918" lon="1.53295">
        <ele>1848</ele>
        <time>2014-09-13T15:00:57Z</time>
      </trkpt>
      <trkpt lat="42.69186" lon="1.53306">
        <ele>1845</ele>
        <time>2014-09-13T15:01:12Z</time>
      </trkpt>
      <trkpt lat="42.69192" lon="1.53309">
        <ele>1843</ele>
        <time>2014-09-13T15:01:24Z</time>
      </trkpt>
      <trkpt lat="42.692" lon="1.53314">
        <ele>1841</ele>
        <time>2014-09-13T15:01:38Z</time>
      </trkpt>
      <trkpt lat="42.69201" lon="1.53315">
        <ele>1841</ele>
        <time>2014-09-13T15:01:40Z</time>
      </trkpt>
      <trkpt lat="42.69209" lon="1.53323">
        <ele>1842</ele>
        <time>2014-09-13T15:01:54Z</time>
      </trkpt>
      <trkpt lat="42.69213" lon="1.53325">
        <ele>1842</ele>
        <time>2014-09-13T15:02:02Z</time>
      </trkpt>
      <trkpt lat="42.6922" lon="1.53334">
        <ele>1841</ele>
        <time>2014-09-13T15:02:13Z</time>
      </trkpt>
      <trkpt lat="42.69225" lon="1.53342">
        <ele>1841</ele>
        <time>2014-09-13T15:02:22Z</time>
      </trkpt>
      <trkpt lat="42.69231" lon="1.53349">
        <ele>1840</ele>
        <time>2014-09-13T15:02:33Z</time>
      </trkpt>
      <trkpt lat="42.69242" lon="1.53353">
        <ele>1840</ele>
        <time>2014-09-13T15:02:47Z</time>
      </trkpt>
      <trkpt lat="42.69249" lon="1.53353">
        <ele>1840</ele>
        <time>2014-09-13T15:02:59Z</time>
      </trkpt>
      <trkpt lat="42.69259" lon="1.53348">
        <ele>1839</ele>
        <time>2014-09-13T15:03:12Z</time>
      </trkpt>
      <trkpt lat="42.69267" lon="1.53353">
        <ele>1840</ele>
        <time>2014-09-13T15:03:25Z</time>
      </trkpt>
      <trkpt lat="42.6927" lon="1.53352">
        <ele>1840</ele>
        <time>2014-09-13T15:03:28Z</time>
      </trkpt>
      <trkpt lat="42.69278" lon="1.53354">
        <ele>1841</ele>
        <time>2014-09-13T15:03:39Z</time>
      </trkpt>
      <trkpt lat="42.69284" lon="1.53351">
        <ele>1840</ele>
        <time>2014-09-13T15:03:47Z</time>
      </trkpt>
      <trkpt lat="42.69298" lon="1.53357">
        <ele>1839</ele>
        <time>2014-09-13T15:04:02Z</time>
      </trkpt>
      <trkpt lat="42.69307" lon="1.53356">
        <ele>1839</ele>
        <time>2014-09-13T15:04:15Z</time>
      </trkpt>
      <trkpt lat="42.69316" lon="1.53358">
        <ele>1841</ele>
        <time>2014-09-13T15:04:28Z</time>
      </trkpt>
      <trkpt lat="42.69324" lon="1.5336">
        <ele>1843</ele>
        <time>2014-09-13T15:04:43Z</time>
      </trkpt>
      <trkpt lat="42.69331" lon="1.53363">
        <ele>1844</ele>
        <time>2014-09-13T15:04:55Z</time>
      </trkpt>
      <trkpt lat="42.69339" lon="1.53364">
        <ele>1844</ele>
        <time>2014-09-13T15:05:06Z</time>
      </trkpt>
      <trkpt lat="42.69344" lon="1.53367">
        <ele>1846</ele>
        <time>2014-09-13T15:05:19Z</time>
      </trkpt>
      <trkpt lat="42.69353" lon="1.5337">
        <ele>1847</ele>
        <time>2014-09-13T15:05:33Z</time>
      </trkpt>
      <trkpt lat="42.69362" lon="1.5337">
        <ele>1849</ele>
        <time>2014-09-13T15:05:47Z</time>
      </trkpt>
      <trkpt lat="42.69368" lon="1.53372">
        <ele>1848</ele>
        <time>2014-09-13T15:05:59Z</time>
      </trkpt>
      <trkpt lat="42.69375" lon="1.53373">
        <ele>1849</ele>
        <time>2014-09-13T15:06:14Z</time>
      </trkpt>
      <trkpt lat="42.69382" lon="1.53373">
        <ele>1851</ele>
        <time>2014-09-13T15:06:28Z</time>
      </trkpt>
      <trkpt lat="42.69387" lon="1.53372">
        <ele>1852</ele>
        <time>2014-09-13T15:06:34Z</time>
      </trkpt>
      <trkpt lat="42.69399" lon="1.53369">
        <ele>1849</ele>
        <time>2014-09-13T15:06:49Z</time>
      </trkpt>
      <trkpt lat="42.6941" lon="1.53368">
        <ele>1847</ele>
        <time>2014-09-13T15:07:03Z</time>
      </trkpt>
      <trkpt lat="42.69416" lon="1.53366">
        <ele>1847</ele>
        <time>2014-09-13T15:07:10Z</time>
      </trkpt>
      <trkpt lat="42.69422" lon="1.53362">
        <ele>1846</ele>
        <time>2014-09-13T15:07:17Z</time>
      </trkpt>
      <trkpt lat="42.69433" lon="1.53353">
        <ele>1846</ele>
        <time>2014-09-13T15:07:28Z</time>
      </trkpt>
      <trkpt lat="42.69437" lon="1.53352">
        <ele>1846</ele>
        <time>2014-09-13T15:07:32Z</time>
      </trkpt>
      <trkpt lat="42.69441" lon="1.5335">
        <ele>1845</ele>
        <time>2014-09-13T15:07:36Z</time>
      </trkpt>
      <trkpt lat="42.69449" lon="1.53347">
        <ele>1843</ele>
        <time>2014-09-13T15:07:45Z</time>
      </trkpt>
      <trkpt lat="42.69459" lon="1.53344">
        <ele>1842</ele>
        <time>2014-09-13T15:07:54Z</time>
      </trkpt>
      <trkpt lat="42.69462" lon="1.53346">
        <ele>1842</ele>
        <time>2014-09-13T15:07:57Z</time>
      </trkpt>
      <trkpt lat="42.69479" lon="1.53348">
        <ele>1840</ele>
        <time>2014-09-13T15:08:12Z</time>
      </trkpt>
      <trkpt lat="42.69493" lon="1.53347">
        <ele>1839</ele>
        <time>2014-09-13T15:08:26Z</time>
      </trkpt>
      <trkpt lat="42.69495" lon="1.53346">
        <ele>1839</ele>
        <time>2014-09-13T15:08:28Z</time>
      </trkpt>
      <trkpt lat="42.69506" lon="1.53352">
        <ele>1839</ele>
        <time>2014-09-13T15:08:43Z</time>
      </trkpt>
      <trkpt lat="42.69514" lon="1.53353">
        <ele>1841</ele>
        <time>2014-09-13T15:08:55Z</time>
      </trkpt>
      <trkpt lat="42.69518" lon="1.53351">
        <ele>1842</ele>
        <time>2014-09-13T15:09:01Z</time>
      </trkpt>
      <trkpt lat="42.69522" lon="1.5335">
        <ele>1843</ele>
        <time>2014-09-13T15:09:07Z</time>
      </trkpt>
      <trkpt lat="42.69537" lon="1.53349">
        <ele>1844</ele>
        <time>2014-09-13T15:09:23Z</time>
      </trkpt>
      <trkpt lat="42.69545" lon="1.53351">
        <ele>1845</ele>
        <time>2014-09-13T15:09:35Z</time>
      </trkpt>
      <trkpt lat="42.69549" lon="1.53351">
        <ele>1846</ele>
        <time>2014-09-13T15:09:45Z</time>
      </trkpt>
      <trkpt lat="42.69559" lon="1.5335">
        <ele>1849</ele>
        <time>2014-09-13T15:09:59Z</time>
      </trkpt>
      <trkpt lat="42.6957" lon="1.53355">
        <ele>1847</ele>
        <time>2014-09-13T15:10:11Z</time>
      </trkpt>
      <trkpt lat="42.69572" lon="1.53354">
        <ele>1846</ele>
        <time>2014-09-13T15:10:14Z</time>
      </trkpt>
      <trkpt lat="42.69583" lon="1.53353">
        <ele>1844</ele>
        <time>2014-09-13T15:10:28Z</time>
      </trkpt>
      <trkpt lat="42.69593" lon="1.53356">
        <ele>1845</ele>
        <time>2014-09-13T15:10:41Z</time>
      </trkpt>
      <trkpt lat="42.69606" lon="1.53351">
        <ele>1844</ele>
        <time>2014-09-13T15:10:55Z</time>
      </trkpt>
      <trkpt lat="42.69613" lon="1.53352">
        <ele>1847</ele>
        <time>2014-09-13T15:11:07Z</time>
      </trkpt>
      <trkpt lat="42.69621" lon="1.53356">
        <ele>1848</ele>
        <time>2014-09-13T15:11:20Z</time>
      </trkpt>
      <trkpt lat="42.69627" lon="1.53353">
        <ele>1849</ele>
        <time>2014-09-13T15:11:28Z</time>
      </trkpt>
      <trkpt lat="42.69636" lon="1.53352">
        <ele>1851</ele>
        <time>2014-09-13T15:11:40Z</time>
      </trkpt>
      <trkpt lat="42.69642" lon="1.53356">
        <ele>1853</ele>
        <time>2014-09-13T15:11:52Z</time>
      </trkpt>
      <trkpt lat="42.69646" lon="1.53355">
        <ele>1855</ele>
        <time>2014-09-13T15:11:58Z</time>
      </trkpt>
      <trkpt lat="42.69649" lon="1.53354">
        <ele>1855</ele>
        <time>2014-09-13T15:12:02Z</time>
      </trkpt>
      <trkpt lat="42.69656" lon="1.53357">
        <ele>1855</ele>
        <time>2014-09-13T15:12:10Z</time>
      </trkpt>
      <trkpt lat="42.6966" lon="1.5336">
        <ele>1855</ele>
        <time>2014-09-13T15:12:17Z</time>
      </trkpt>
      <trkpt lat="42.69667" lon="1.5337">
        <ele>1856</ele>
        <time>2014-09-13T15:12:31Z</time>
      </trkpt>
      <trkpt lat="42.69674" lon="1.53373">
        <ele>1858</ele>
        <time>2014-09-13T15:12:43Z</time>
      </trkpt>
      <trkpt lat="42.69681" lon="1.53378">
        <ele>1860</ele>
        <time>2014-09-13T15:12:55Z</time>
      </trkpt>
      <trkpt lat="42.69683" lon="1.53379">
        <ele>1861</ele>
        <time>2014-09-13T15:13:01Z</time>
      </trkpt>
      <trkpt lat="42.69687" lon="1.53378">
        <ele>1861</ele>
        <time>2014-09-13T15:13:04Z</time>
      </trkpt>
      <trkpt lat="42.69695" lon="1.53375">
        <ele>1863</ele>
        <time>2014-09-13T15:13:16Z</time>
      </trkpt>
      <trkpt lat="42.69708" lon="1.53366">
        <ele>1862</ele>
        <time>2014-09-13T15:13:31Z</time>
      </trkpt>
      <trkpt lat="42.69719" lon="1.53365">
        <ele>1861</ele>
        <time>2014-09-13T15:13:46Z</time>
      </trkpt>
      <trkpt lat="42.69721" lon="1.53364">
        <ele>1861</ele>
        <time>2014-09-13T15:13:48Z</time>
      </trkpt>
      <trkpt lat="42.69729" lon="1.53359">
        <ele>1862</ele>
        <time>2014-09-13T15:14:00Z</time>
      </trkpt>
      <trkpt lat="42.69734" lon="1.53358">
        <ele>1863</ele>
        <time>2014-09-13T15:14:06Z</time>
      </trkpt>
      <trkpt lat="42.69746" lon="1.53355">
        <ele>1863</ele>
        <time>2014-09-13T15:14:18Z</time>
      </trkpt>
      <trkpt lat="42.69754" lon="1.53358">
        <ele>1864</ele>
        <time>2014-09-13T15:14:31Z</time>
      </trkpt>
      <trkpt lat="42.69759" lon="1.53358">
        <ele>1865</ele>
        <time>2014-09-13T15:14:37Z</time>
      </trkpt>
      <trkpt lat="42.69766" lon="1.5336">
        <ele>1866</ele>
        <time>2014-09-13T15:14:50Z</time>
      </trkpt>
      <trkpt lat="42.69773" lon="1.5336">
        <ele>1867</ele>
        <time>2014-09-13T15:15:01Z</time>
      </trkpt>
      <trkpt lat="42.69781" lon="1.53359">
        <ele>1869</ele>
        <time>2014-09-13T15:15:15Z</time>
      </trkpt>
      <trkpt lat="42.69787" lon="1.53357">
        <ele>1870</ele>
        <time>2014-09-13T15:15:27Z</time>
      </trkpt>
      <trkpt lat="42.69791" lon="1.53358">
        <ele>1873</ele>
        <time>2014-09-13T15:15:40Z</time>
      </trkpt>
      <trkpt lat="42.69798" lon="1.53353">
        <ele>1876</ele>
        <time>2014-09-13T15:15:54Z</time>
      </trkpt>
      <trkpt lat="42.69802" lon="1.53352">
        <ele>1876</ele>
        <time>2014-09-13T15:15:59Z</time>
      </trkpt>
      <trkpt lat="42.69807" lon="1.53351">
        <ele>1876</ele>
        <time>2014-09-13T15:16:05Z</time>
      </trkpt>
      <trkpt lat="42.69815" lon="1.5335">
        <ele>1877</ele>
        <time>2014-09-13T15:16:17Z</time>
      </trkpt>
      <trkpt lat="42.69824" lon="1.53347">
        <ele>1880</ele>
        <time>2014-09-13T15:16:32Z</time>
      </trkpt>
      <trkpt lat="42.69833" lon="1.53341">
        <ele>1880</ele>
        <time>2014-09-13T15:16:46Z</time>
      </trkpt>
      <trkpt lat="42.69838" lon="1.53335">
        <ele>1879</ele>
        <time>2014-09-13T15:17:00Z</time>
      </trkpt>
      <trkpt lat="42.69838" lon="1.53326">
        <ele>1876</ele>
        <time>2014-09-13T15:17:12Z</time>
      </trkpt>
      <trkpt lat="42.69837" lon="1.53322">
        <ele>1874</ele>
        <time>2014-09-13T15:17:15Z</time>
      </trkpt>
      <trkpt lat="42.69848" lon="1.53318">
        <ele>1873</ele>
        <time>2014-09-13T15:17:28Z</time>
      </trkpt>
      <trkpt lat="42.69859" lon="1.5331">
        <ele>1874</ele>
        <time>2014-09-13T15:17:45Z</time>
      </trkpt>
      <trkpt lat="42.69871" lon="1.53299">
        <ele>1874</ele>
        <time>2014-09-13T15:17:57Z</time>
      </trkpt>
      <trkpt lat="42.69883" lon="1.53299">
        <ele>1874</ele>
        <time>2014-09-13T15:18:10Z</time>
      </trkpt>
      <trkpt lat="42.69888" lon="1.533">
        <ele>1876</ele>
        <time>2014-09-13T15:18:22Z</time>
      </trkpt>
      <trkpt lat="42.69891" lon="1.53297">
        <ele>1876</ele>
        <time>2014-09-13T15:18:26Z</time>
      </trkpt>
      <trkpt lat="42.69898" lon="1.53285">
        <ele>1875</ele>
        <time>2014-09-13T15:18:39Z</time>
      </trkpt>
      <trkpt lat="42.69908" lon="1.53273">
        <ele>1875</ele>
        <time>2014-09-13T15:18:52Z</time>
      </trkpt>
      <trkpt lat="42.69922" lon="1.53269">
        <ele>1874</ele>
        <time>2014-09-13T15:19:06Z</time>
      </trkpt>
      <trkpt lat="42.69936" lon="1.53274">
        <ele>1873</ele>
        <time>2014-09-13T15:19:21Z</time>
      </trkpt>
      <trkpt lat="42.69946" lon="1.53278">
        <ele>1875</ele>
        <time>2014-09-13T15:19:34Z</time>
      </trkpt>
      <trkpt lat="42.69953" lon="1.53282">
        <ele>1877</ele>
        <time>2014-09-13T15:19:45Z</time>
      </trkpt>
      <trkpt lat="42.69962" lon="1.53283">
        <ele>1878</ele>
        <time>2014-09-13T15:19:58Z</time>
      </trkpt>
      <trkpt lat="42.6997" lon="1.53285">
        <ele>1879</ele>
        <time>2014-09-13T15:20:12Z</time>
      </trkpt>
      <trkpt lat="42.69978" lon="1.53284">
        <ele>1880</ele>
        <time>2014-09-13T15:20:25Z</time>
      </trkpt>
      <trkpt lat="42.69986" lon="1.53279">
        <ele>1881</ele>
        <time>2014-09-13T15:20:37Z</time>
      </trkpt>
      <trkpt lat="42.69993" lon="1.53271">
        <ele>1883</ele>
        <time>2014-09-13T15:20:50Z</time>
      </trkpt>
      <trkpt lat="42.69998" lon="1.53274">
        <ele>1884</ele>
        <time>2014-09-13T15:21:02Z</time>
      </trkpt>
      <trkpt lat="42.70005" lon="1.53275">
        <ele>1887</ele>
        <time>2014-09-13T15:21:18Z</time>
      </trkpt>
      <trkpt lat="42.70009" lon="1.5328">
        <ele>1890</ele>
        <time>2014-09-13T15:21:31Z</time>
      </trkpt>
      <trkpt lat="42.70011" lon="1.5328">
        <ele>1891</ele>
        <time>2014-09-13T15:21:38Z</time>
      </trkpt>
      <trkpt lat="42.70016" lon="1.53282">
        <ele>1892</ele>
        <time>2014-09-13T15:21:44Z</time>
      </trkpt>
      <trkpt lat="42.70028" lon="1.53284">
        <ele>1892</ele>
        <time>2014-09-13T15:21:59Z</time>
      </trkpt>
      <trkpt lat="42.70028" lon="1.53283">
        <ele>1892</ele>
        <time>2014-09-13T15:22:00Z</time>
      </trkpt>
      <trkpt lat="42.70039" lon="1.53283">
        <ele>1893</ele>
        <time>2014-09-13T15:22:14Z</time>
      </trkpt>
      <trkpt lat="42.70043" lon="1.53281">
        <ele>1893</ele>
        <time>2014-09-13T15:22:19Z</time>
      </trkpt>
      <trkpt lat="42.70054" lon="1.53277">
        <ele>1894</ele>
        <time>2014-09-13T15:22:32Z</time>
      </trkpt>
      <trkpt lat="42.70067" lon="1.53272">
        <ele>1893</ele>
        <time>2014-09-13T15:22:49Z</time>
      </trkpt>
      <trkpt lat="42.70075" lon="1.53273">
        <ele>1891</ele>
        <time>2014-09-13T15:22:57Z</time>
      </trkpt>
      <trkpt lat="42.70077" lon="1.53273">
        <ele>1891</ele>
        <time>2014-09-13T15:22:59Z</time>
      </trkpt>
      <trkpt lat="42.70088" lon="1.53276">
        <ele>1891</ele>
        <time>2014-09-13T15:23:11Z</time>
      </trkpt>
      <trkpt lat="42.70093" lon="1.53275">
        <ele>1891</ele>
        <time>2014-09-13T15:23:16Z</time>
      </trkpt>
      <trkpt lat="42.70098" lon="1.53277">
        <ele>1891</ele>
        <time>2014-09-13T15:23:21Z</time>
      </trkpt>
      <trkpt lat="42.7011" lon="1.53279">
        <ele>1892</ele>
        <time>2014-09-13T15:23:36Z</time>
      </trkpt>
      <trkpt lat="42.70113" lon="1.53278">
        <ele>1892</ele>
        <time>2014-09-13T15:23:42Z</time>
      </trkpt>
      <trkpt lat="42.70119" lon="1.53278">
        <ele>1895</ele>
        <time>2014-09-13T15:23:55Z</time>
      </trkpt>
      <trkpt lat="42.70123" lon="1.53278">
        <ele>1897</ele>
        <time>2014-09-13T15:24:08Z</time>
      </trkpt>
      <trkpt lat="42.70131" lon="1.5328">
        <ele>1900</ele>
        <time>2014-09-13T15:24:24Z</time>
      </trkpt>
      <trkpt lat="42.70135" lon="1.53281">
        <ele>1902</ele>
        <time>2014-09-13T15:24:33Z</time>
      </trkpt>
      <trkpt lat="42.7014" lon="1.53277">
        <ele>1903</ele>
        <time>2014-09-13T15:24:46Z</time>
      </trkpt>
      <trkpt lat="42.70144" lon="1.53279">
        <ele>1905</ele>
        <time>2014-09-13T15:25:00Z</time>
      </trkpt>
      <trkpt lat="42.70153" lon="1.5328">
        <ele>1908</ele>
        <time>2014-09-13T15:25:16Z</time>
      </trkpt>
      <trkpt lat="42.70158" lon="1.53274">
        <ele>1910</ele>
        <time>2014-09-13T15:25:30Z</time>
      </trkpt>
      <trkpt lat="42.70163" lon="1.53273">
        <ele>1911</ele>
        <time>2014-09-13T15:25:43Z</time>
      </trkpt>
      <trkpt lat="42.70169" lon="1.53272">
        <ele>1915</ele>
        <time>2014-09-13T15:25:57Z</time>
      </trkpt>
      <trkpt lat="42.70173" lon="1.53269">
        <ele>1916</ele>
        <time>2014-09-13T15:26:04Z</time>
      </trkpt>
      <trkpt lat="42.70184" lon="1.53267">
        <ele>1917</ele>
        <time>2014-09-13T15:26:20Z</time>
      </trkpt>
      <trkpt lat="42.70193" lon="1.53268">
        <ele>1917</ele>
        <time>2014-09-13T15:26:34Z</time>
      </trkpt>
      <trkpt lat="42.70199" lon="1.53264">
        <ele>1919</ele>
        <time>2014-09-13T15:26:47Z</time>
      </trkpt>
      <trkpt lat="42.70207" lon="1.53259">
        <ele>1921</ele>
        <time>2014-09-13T15:27:01Z</time>
      </trkpt>
      <trkpt lat="42.70214" lon="1.53256">
        <ele>1923</ele>
        <time>2014-09-13T15:27:14Z</time>
      </trkpt>
      <trkpt lat="42.7022" lon="1.53252">
        <ele>1924</ele>
        <time>2014-09-13T15:27:22Z</time>
      </trkpt>
      <trkpt lat="42.70232" lon="1.53249">
        <ele>1924</ele>
        <time>2014-09-13T15:27:37Z</time>
      </trkpt>
      <trkpt lat="42.70243" lon="1.53252">
        <ele>1922</ele>
        <time>2014-09-13T15:27:52Z</time>
      </trkpt>
      <trkpt lat="42.70247" lon="1.53256">
        <ele>1921</ele>
        <time>2014-09-13T15:27:59Z</time>
      </trkpt>
      <trkpt lat="42.70258" lon="1.53255">
        <ele>1920</ele>
        <time>2014-09-13T15:28:12Z</time>
      </trkpt>
      <trkpt lat="42.70265" lon="1.53257">
        <ele>1920</ele>
        <time>2014-09-13T15:28:24Z</time>
      </trkpt>
      <trkpt lat="42.70266" lon="1.53256">
        <ele>1921</ele>
        <time>2014-09-13T15:28:26Z</time>
      </trkpt>
      <trkpt lat="42.70279" lon="1.53248">
        <ele>1921</ele>
        <time>2014-09-13T15:28:40Z</time>
      </trkpt>
      <trkpt lat="42.70286" lon="1.53244">
        <ele>1921</ele>
        <time>2014-09-13T15:28:49Z</time>
      </trkpt>
      <trkpt lat="42.70301" lon="1.53244">
        <ele>1921</ele>
        <time>2014-09-13T15:29:03Z</time>
      </trkpt>
      <trkpt lat="42.70303" lon="1.53242">
        <ele>1921</ele>
        <time>2014-09-13T15:29:06Z</time>
      </trkpt>
      <trkpt lat="42.70317" lon="1.53235">
        <ele>1920</ele>
        <time>2014-09-13T15:29:22Z</time>
      </trkpt>
      <trkpt lat="42.70317" lon="1.53235">
        <ele>1921</ele>
        <time>2014-09-13T15:29:24Z</time>
      </trkpt>
      <trkpt lat="42.7032" lon="1.53233">
        <ele>1921</ele>
        <time>2014-09-13T15:29:27Z</time>
      </trkpt>
      <trkpt lat="42.70329" lon="1.53229">
        <ele>1922</ele>
        <time>2014-09-13T15:29:39Z</time>
      </trkpt>
      <trkpt lat="42.70338" lon="1.53224">
        <ele>1921</ele>
        <time>2014-09-13T15:29:50Z</time>
      </trkpt>
      <trkpt lat="42.70347" lon="1.53218">
        <ele>1921</ele>
        <time>2014-09-13T15:30:04Z</time>
      </trkpt>
      <trkpt lat="42.70348" lon="1.53213">
        <ele>1921</ele>
        <time>2014-09-13T15:30:09Z</time>
      </trkpt>
      <trkpt lat="42.7035" lon="1.53208">
        <ele>1920</ele>
        <time>2014-09-13T15:30:20Z</time>
      </trkpt>
      <trkpt lat="42.70351" lon="1.53204">
        <ele>1919</ele>
        <time>2014-09-13T15:30:23Z</time>
      </trkpt>
      <trkpt lat="42.70352" lon="1.53202">
        <ele>1919</ele>
        <time>2014-09-13T15:30:25Z</time>
      </trkpt>
      <trkpt lat="42.70353" lon="1.532">
        <ele>1919</ele>
        <time>2014-09-13T15:30:28Z</time>
      </trkpt>
      <trkpt lat="42.70354" lon="1.53194">
        <ele>1919</ele>
        <time>2014-09-13T15:30:33Z</time>
      </trkpt>
      <trkpt lat="42.70362" lon="1.53189">
        <ele>1918</ele>
        <time>2014-09-13T15:30:44Z</time>
      </trkpt>
      <trkpt lat="42.70364" lon="1.53189">
        <ele>1918</ele>
        <time>2014-09-13T15:30:46Z</time>
      </trkpt>
      <trkpt lat="42.70371" lon="1.53182">
        <ele>1917</ele>
        <time>2014-09-13T15:31:00Z</time>
      </trkpt>
      <trkpt lat="42.70375" lon="1.53181">
        <ele>1917</ele>
        <time>2014-09-13T15:31:06Z</time>
      </trkpt>
      <trkpt lat="42.70383" lon="1.53177">
        <ele>1917</ele>
        <time>2014-09-13T15:31:18Z</time>
      </trkpt>
      <trkpt lat="42.70393" lon="1.53173">
        <ele>1917</ele>
        <time>2014-09-13T15:31:31Z</time>
      </trkpt>
      <trkpt lat="42.70399" lon="1.53169">
        <ele>1917</ele>
        <time>2014-09-13T15:31:42Z</time>
      </trkpt>
      <trkpt lat="42.704" lon="1.53169">
        <ele>1917</ele>
        <time>2014-09-13T15:31:43Z</time>
      </trkpt>
      <trkpt lat="42.70409" lon="1.53164">
        <ele>1918</ele>
        <time>2014-09-13T15:31:55Z</time>
      </trkpt>
      <trkpt lat="42.70418" lon="1.53163">
        <ele>1918</ele>
        <time>2014-09-13T15:32:07Z</time>
      </trkpt>
      <trkpt lat="42.70419" lon="1.53163">
        <ele>1918</ele>
        <time>2014-09-13T15:32:08Z</time>
      </trkpt>
      <trkpt lat="42.70426" lon="1.5316">
        <ele>1920</ele>
        <time>2014-09-13T15:32:21Z</time>
      </trkpt>
      <trkpt lat="42.70433" lon="1.53162">
        <ele>1922</ele>
        <time>2014-09-13T15:32:32Z</time>
      </trkpt>
      <trkpt lat="42.70441" lon="1.53163">
        <ele>1921</ele>
        <time>2014-09-13T15:32:47Z</time>
      </trkpt>
      <trkpt lat="42.70445" lon="1.53171">
        <ele>1923</ele>
        <time>2014-09-13T15:33:01Z</time>
      </trkpt>
      <trkpt lat="42.70448" lon="1.5317">
        <ele>1923</ele>
        <time>2014-09-13T15:33:13Z</time>
      </trkpt>
      <trkpt lat="42.70452" lon="1.53169">
        <ele>1923</ele>
        <time>2014-09-13T15:33:17Z</time>
      </trkpt>
      <trkpt lat="42.70465" lon="1.53176">
        <ele>1924</ele>
        <time>2014-09-13T15:33:32Z</time>
      </trkpt>
      <trkpt lat="42.70476" lon="1.53173">
        <ele>1924</ele>
        <time>2014-09-13T15:33:45Z</time>
      </trkpt>
      <trkpt lat="42.70479" lon="1.53168">
        <ele>1926</ele>
        <time>2014-09-13T15:33:58Z</time>
      </trkpt>
      <trkpt lat="42.70483" lon="1.53164">
        <ele>1927</ele>
        <time>2014-09-13T15:34:06Z</time>
      </trkpt>
      <trkpt lat="42.70489" lon="1.53158">
        <ele>1929</ele>
        <time>2014-09-13T15:34:15Z</time>
      </trkpt>
      <trkpt lat="42.70494" lon="1.53156">
        <ele>1929</ele>
        <time>2014-09-13T15:34:24Z</time>
      </trkpt>
      <trkpt lat="42.70496" lon="1.53151">
        <ele>1929</ele>
        <time>2014-09-13T15:34:31Z</time>
      </trkpt>
      <trkpt lat="42.70503" lon="1.53152">
        <ele>1928</ele>
        <time>2014-09-13T15:34:42Z</time>
      </trkpt>
      <trkpt lat="42.70505" lon="1.5315">
        <ele>1927</ele>
        <time>2014-09-13T15:34:58Z</time>
      </trkpt>
      <trkpt lat="42.70507" lon="1.53156">
        <ele>1928</ele>
        <time>2014-09-13T15:35:21Z</time>
      </trkpt>
      <trkpt lat="42.70509" lon="1.53158">
        <ele>1926</ele>
        <time>2014-09-13T15:35:33Z</time>
      </trkpt>
      <trkpt lat="42.70506" lon="1.53152">
        <ele>1926</ele>
        <time>2014-09-13T15:36:08Z</time>
      </trkpt>
      <trkpt lat="42.70504" lon="1.5315">
        <ele>1926</ele>
        <time>2014-09-13T15:36:41Z</time>
      </trkpt>
      <trkpt lat="42.70506" lon="1.53147">
        <ele>1926</ele>
        <time>2014-09-13T15:37:20Z</time>
      </trkpt>
      <trkpt lat="42.70506" lon="1.53146">
        <ele>1927</ele>
        <time>2014-09-13T15:37:56Z</time>
      </trkpt>
      <trkpt lat="42.70506" lon="1.53144">
        <ele>1927</ele>
        <time>2014-09-13T15:38:30Z</time>
      </trkpt>
      <trkpt lat="42.70504" lon="1.53149">
        <ele>1926</ele>
        <time>2014-09-13T15:38:59Z</time>
      </trkpt>
      <trkpt lat="42.70504" lon="1.53151">
        <ele>1927</ele>
        <time>2014-09-13T15:39:33Z</time>
      </trkpt>
      <trkpt lat="42.70503" lon="1.5315">
        <ele>1927</ele>
        <time>2014-09-13T15:39:56Z</time>
      </trkpt>
      <trkpt lat="42.70502" lon="1.53148">
        <ele>1926</ele>
        <time>2014-09-13T15:40:29Z</time>
      </trkpt>
      <trkpt lat="42.70502" lon="1.53149">
        <ele>1927</ele>
        <time>2014-09-13T15:41:06Z</time>
      </trkpt>
      <trkpt lat="42.70501" lon="1.53149">
        <ele>1927</ele>
        <time>2014-09-13T15:41:41Z</time>
      </trkpt>
      <trkpt lat="42.70503" lon="1.5315">
        <ele>1928</ele>
        <time>2014-09-13T15:42:12Z</time>
      </trkpt>
      <trkpt lat="42.70501" lon="1.53148">
        <ele>1927</ele>
        <time>2014-09-13T15:42:55Z</time>
      </trkpt>
      <trkpt lat="42.705" lon="1.53148">
        <ele>1927</ele>
        <time>2014-09-13T15:43:21Z</time>
      </trkpt>
      <trkpt lat="42.70502" lon="1.5315">
        <ele>1927</ele>
        <time>2014-09-13T15:43:54Z</time>
      </trkpt>
      <trkpt lat="42.70503" lon="1.5315">
        <ele>1928</ele>
        <time>2014-09-13T15:44:25Z</time>
      </trkpt>
    </trkseg>
  </trk>
</gpx>